<?xml version="1.0" encoding="UTF-8" standalone="no" ?>
<gpx xmlns="http://www.topografix.com/GPX/1/1" xmlns:xsi="http://www.w3.org/2001/XMLSchema-instance" xsi:schemaLocation="http://www.topografix.com/GPX/1/1 http://www.topografix.com/GPX/1/1/gpx.xsd" version="1.1" creator="VisuGPX - https://www.visugpx.com">
  <metadata>
    <name>Gourgas - La Roque - Chapelle Saint Vincent</name>
    <desc><![CDATA[2015-05 - Gourgas - Cirque du Bout du Monde - La Roque - Chapelle Saint Vincent - Mas du Rouquet

[b]album[/b] : [url]https://goo.gl/photos/YLFFchYbUrn4Cv2P8[/url]
[img]https://1.bp.blogspot.com/-aXzRJmTJNLY/WNQowjXAdTI/AAAAAAAARSc/Dyp3oHGrih4lSiMDwfW9AF3fvWTTZNLDQCLcB/s1600/2015-05_Gourgas_cirque_bout-monde_photos_i.JPG[/img]
[b]Idées de randonnées dans la même région[/b]
Parcours : [url]https://www.visugpx.com/membres/24856/causses/larzac/[/url]
Photos : [url]https://jcvertygo.blogspot.com/p/larzac.html[/url]]]></desc>
  </metadata>
  <trk>
    <name><![CDATA[Gourgas - La Roque - Chapelle Saint Vincent_1]]></name>
    <trkseg>
      <trkpt lat="43.77505" lon="3.39999">
        <ele>387.5</ele>
        <time>2015-05-30T11:41:20Z</time>
      </trkpt>
      <trkpt lat="43.77541" lon="3.40015">
        <ele>387.68348663914</ele>
        <time>2015-05-30T11:41:25Z</time>
      </trkpt>
      <trkpt lat="43.7755" lon="3.40019">
        <ele>389.62570497956</ele>
        <time>2015-05-30T11:41:30Z</time>
      </trkpt>
      <trkpt lat="43.77563" lon="3.40024">
        <ele>391.57968027395</ele>
        <time>2015-05-30T11:41:35Z</time>
      </trkpt>
      <trkpt lat="43.77573" lon="3.40027">
        <ele>393.52309777871</ele>
        <time>2015-05-30T11:41:40Z</time>
      </trkpt>
      <trkpt lat="43.77582" lon="3.40024">
        <ele>395.3671833904</ele>
        <time>2015-05-30T11:41:50Z</time>
      </trkpt>
      <trkpt lat="43.77584" lon="3.40025">
        <ele>395.3671833904</ele>
        <time>2015-05-30T11:41:55Z</time>
      </trkpt>
      <trkpt lat="43.77552" lon="3.40009">
        <ele>392.31145576666</ele>
        <time>2015-05-30T11:42:05Z</time>
      </trkpt>
      <trkpt lat="43.77549" lon="3.40012">
        <ele>392.31145576666</ele>
        <time>2015-05-30T11:42:10Z</time>
      </trkpt>
      <trkpt lat="43.77541" lon="3.40019">
        <ele>391.30567087016</ele>
        <time>2015-05-30T11:42:20Z</time>
      </trkpt>
      <trkpt lat="43.77541" lon="3.4002">
        <ele>391.30567087016</ele>
        <time>2015-05-30T11:42:25Z</time>
      </trkpt>
      <trkpt lat="43.77533" lon="3.40026">
        <ele>390.3510684461</ele>
        <time>2015-05-30T11:43:05Z</time>
      </trkpt>
      <trkpt lat="43.77533" lon="3.40025">
        <ele>390.3510684461</ele>
        <time>2015-05-30T11:43:10Z</time>
      </trkpt>
      <trkpt lat="43.77542" lon="3.40018">
        <ele>389.14612009187</ele>
        <time>2015-05-30T11:43:30Z</time>
      </trkpt>
      <trkpt lat="43.77541" lon="3.40017">
        <ele>389.14612009187</ele>
        <time>2015-05-30T11:43:35Z</time>
      </trkpt>
      <trkpt lat="43.77551" lon="3.40018">
        <ele>388.15292980984</ele>
        <time>2015-05-30T11:46:05Z</time>
      </trkpt>
      <trkpt lat="43.77552" lon="3.40018">
        <ele>388.15292980984</ele>
        <time>2015-05-30T11:46:10Z</time>
      </trkpt>
      <trkpt lat="43.77557" lon="3.40016">
        <ele>388.15292980984</ele>
        <time>2015-05-30T11:46:15Z</time>
      </trkpt>
      <trkpt lat="43.77558" lon="3.40016">
        <ele>388.15292980984</ele>
        <time>2015-05-30T11:46:20Z</time>
      </trkpt>
      <trkpt lat="43.77545" lon="3.40015">
        <ele>387.03170573264</ele>
        <time>2015-05-30T11:47:00Z</time>
      </trkpt>
      <trkpt lat="43.77539" lon="3.40016">
        <ele>387.03170573264</ele>
        <time>2015-05-30T11:47:10Z</time>
      </trkpt>
      <trkpt lat="43.77538" lon="3.40011">
        <ele>385.85191933143</ele>
        <time>2015-05-30T11:47:15Z</time>
      </trkpt>
      <trkpt lat="43.77538" lon="3.40005">
        <ele>385.85191933143</ele>
        <time>2015-05-30T11:47:20Z</time>
      </trkpt>
      <trkpt lat="43.77538" lon="3.39999">
        <ele>385.85191933143</ele>
        <time>2015-05-30T11:47:25Z</time>
      </trkpt>
      <trkpt lat="43.77538" lon="3.39994">
        <ele>384.62519357685</ele>
        <time>2015-05-30T11:47:30Z</time>
      </trkpt>
      <trkpt lat="43.77537" lon="3.39987">
        <ele>384.62519357685</ele>
        <time>2015-05-30T11:47:35Z</time>
      </trkpt>
      <trkpt lat="43.77535" lon="3.39979">
        <ele>383.38437646478</ele>
        <time>2015-05-30T11:47:40Z</time>
      </trkpt>
      <trkpt lat="43.77532" lon="3.39976">
        <ele>383.38437646478</ele>
        <time>2015-05-30T11:47:45Z</time>
      </trkpt>
      <trkpt lat="43.7753" lon="3.39971">
        <ele>383.38437646478</ele>
        <time>2015-05-30T11:47:50Z</time>
      </trkpt>
      <trkpt lat="43.7753" lon="3.39966">
        <ele>382.15922223865</ele>
        <time>2015-05-30T11:47:55Z</time>
      </trkpt>
      <trkpt lat="43.77531" lon="3.39961">
        <ele>382.15922223865</ele>
        <time>2015-05-30T11:48:00Z</time>
      </trkpt>
      <trkpt lat="43.77533" lon="3.39955">
        <ele>382.15922223865</ele>
        <time>2015-05-30T11:48:05Z</time>
      </trkpt>
      <trkpt lat="43.77532" lon="3.39949">
        <ele>380.98986736328</ele>
        <time>2015-05-30T11:48:10Z</time>
      </trkpt>
      <trkpt lat="43.77532" lon="3.39943">
        <ele>380.98986736328</ele>
        <time>2015-05-30T11:48:15Z</time>
      </trkpt>
      <trkpt lat="43.77531" lon="3.39942">
        <ele>380.98986736328</ele>
        <time>2015-05-30T11:48:20Z</time>
      </trkpt>
      <trkpt lat="43.77532" lon="3.39941">
        <ele>380.98986736328</ele>
        <time>2015-05-30T11:48:25Z</time>
      </trkpt>
      <trkpt lat="43.77534" lon="3.39938">
        <ele>380.98986736328</ele>
        <time>2015-05-30T11:48:31Z</time>
      </trkpt>
      <trkpt lat="43.77538" lon="3.39935">
        <ele>379.87488929271</ele>
        <time>2015-05-30T11:48:35Z</time>
      </trkpt>
      <trkpt lat="43.77542" lon="3.39928">
        <ele>379.87488929271</ele>
        <time>2015-05-30T11:48:48Z</time>
      </trkpt>
      <trkpt lat="43.77543" lon="3.39913">
        <ele>379.01830636147</ele>
        <time>2015-05-30T11:48:50Z</time>
      </trkpt>
      <trkpt lat="43.77547" lon="3.39906">
        <ele>379.01830636147</ele>
        <time>2015-05-30T11:48:55Z</time>
      </trkpt>
      <trkpt lat="43.77549" lon="3.399">
        <ele>378.27506858618</ele>
        <time>2015-05-30T11:49:00Z</time>
      </trkpt>
      <trkpt lat="43.77553" lon="3.39895">
        <ele>378.27506858618</ele>
        <time>2015-05-30T11:49:12Z</time>
      </trkpt>
      <trkpt lat="43.77555" lon="3.39884">
        <ele>377.60865149408</ele>
        <time>2015-05-30T11:49:12Z</time>
      </trkpt>
      <trkpt lat="43.77566" lon="3.3986">
        <ele>377.17011758886</ele>
        <time>2015-05-30T11:49:36Z</time>
      </trkpt>
      <trkpt lat="43.77568" lon="3.39856">
        <ele>377.17011758886</ele>
        <time>2015-05-30T11:49:40Z</time>
      </trkpt>
      <trkpt lat="43.77571" lon="3.3985">
        <ele>377.17011758886</ele>
        <time>2015-05-30T11:49:53Z</time>
      </trkpt>
      <trkpt lat="43.77559" lon="3.39774">
        <ele>377.02761159617</ele>
        <time>2015-05-30T11:50:35Z</time>
      </trkpt>
      <trkpt lat="43.77583" lon="3.39697">
        <ele>377.17860668793</ele>
        <time>2015-05-30T11:51:35Z</time>
      </trkpt>
      <trkpt lat="43.77589" lon="3.3968">
        <ele>377.39829857473</ele>
        <time>2015-05-30T11:51:44Z</time>
      </trkpt>
      <trkpt lat="43.77588" lon="3.39679">
        <ele>377.39829857473</ele>
        <time>2015-05-30T11:51:45Z</time>
      </trkpt>
      <trkpt lat="43.77586" lon="3.39665">
        <ele>377.7953793067</ele>
        <time>2015-05-30T11:51:57Z</time>
      </trkpt>
      <trkpt lat="43.77593" lon="3.39601">
        <ele>379.02703425623</ele>
        <time>2015-05-30T11:52:34Z</time>
      </trkpt>
      <trkpt lat="43.77593" lon="3.39599">
        <ele>379.02703425623</ele>
        <time>2015-05-30T11:52:35Z</time>
      </trkpt>
      <trkpt lat="43.7759" lon="3.39592">
        <ele>379.02703425623</ele>
        <time>2015-05-30T11:52:45Z</time>
      </trkpt>
      <trkpt lat="43.77592" lon="3.39512">
        <ele>381.00762222626</ele>
        <time>2015-05-30T11:53:30Z</time>
      </trkpt>
      <trkpt lat="43.77582" lon="3.39445">
        <ele>383.84707140945</ele>
        <time>2015-05-30T11:54:35Z</time>
      </trkpt>
      <trkpt lat="43.77587" lon="3.3945">
        <ele>383.84707140945</ele>
        <time>2015-05-30T11:54:45Z</time>
      </trkpt>
      <trkpt lat="43.77593" lon="3.39462">
        <ele>387.21312835367</ele>
        <time>2015-05-30T11:54:55Z</time>
      </trkpt>
      <trkpt lat="43.77594" lon="3.39462">
        <ele>387.21312835367</ele>
        <time>2015-05-30T11:55:00Z</time>
      </trkpt>
      <trkpt lat="43.77604" lon="3.39476">
        <ele>390.5430474971</ele>
        <time>2015-05-30T11:55:35Z</time>
      </trkpt>
      <trkpt lat="43.77609" lon="3.39479">
        <ele>390.5430474971</ele>
        <time>2015-05-30T11:55:40Z</time>
      </trkpt>
      <trkpt lat="43.77624" lon="3.39486">
        <ele>393.71324901774</ele>
        <time>2015-05-30T11:56:00Z</time>
      </trkpt>
      <trkpt lat="43.77633" lon="3.39498">
        <ele>396.6922111554</ele>
        <time>2015-05-30T11:56:10Z</time>
      </trkpt>
      <trkpt lat="43.77646" lon="3.39518">
        <ele>399.4907576302</ele>
        <time>2015-05-30T11:56:31Z</time>
      </trkpt>
      <trkpt lat="43.77657" lon="3.39533">
        <ele>402.08956954946</ele>
        <time>2015-05-30T11:56:39Z</time>
      </trkpt>
      <trkpt lat="43.7766" lon="3.39537">
        <ele>402.08956954946</ele>
        <time>2015-05-30T11:56:40Z</time>
      </trkpt>
      <trkpt lat="43.7768" lon="3.39598">
        <ele>405.02732912739</ele>
        <time>2015-05-30T11:57:27Z</time>
      </trkpt>
      <trkpt lat="43.77681" lon="3.39608">
        <ele>405.02732912739</ele>
        <time>2015-05-30T11:57:34Z</time>
      </trkpt>
      <trkpt lat="43.77681" lon="3.39609">
        <ele>405.02732912739</ele>
        <time>2015-05-30T11:57:35Z</time>
      </trkpt>
      <trkpt lat="43.77694" lon="3.39632">
        <ele>407.94103194469</ele>
        <time>2015-05-30T11:58:00Z</time>
      </trkpt>
      <trkpt lat="43.77697" lon="3.39641">
        <ele>407.94103194469</ele>
        <time>2015-05-30T11:58:00Z</time>
      </trkpt>
      <trkpt lat="43.77724" lon="3.39673">
        <ele>411.24864947162</ele>
        <time>2015-05-30T11:58:36Z</time>
      </trkpt>
      <trkpt lat="43.77725" lon="3.39669">
        <ele>411.24864947162</ele>
        <time>2015-05-30T11:58:44Z</time>
      </trkpt>
      <trkpt lat="43.77722" lon="3.39593">
        <ele>415.06151758667</ele>
        <time>2015-05-30T11:59:35Z</time>
      </trkpt>
      <trkpt lat="43.77725" lon="3.39582">
        <ele>415.06151758667</ele>
        <time>2015-05-30T11:59:52Z</time>
      </trkpt>
      <trkpt lat="43.77744" lon="3.39572">
        <ele>418.95590974494</ele>
        <time>2015-05-30T12:00:10Z</time>
      </trkpt>
      <trkpt lat="43.77758" lon="3.39555">
        <ele>422.7442387863</ele>
        <time>2015-05-30T12:00:21Z</time>
      </trkpt>
      <trkpt lat="43.77763" lon="3.39546">
        <ele>422.7442387863</ele>
        <time>2015-05-30T12:00:29Z</time>
      </trkpt>
      <trkpt lat="43.77764" lon="3.39546">
        <ele>426.30620609214</ele>
        <time>2015-05-30T12:00:30Z</time>
      </trkpt>
      <trkpt lat="43.77774" lon="3.39543">
        <ele>429.55763050451</ele>
        <time>2015-05-30T12:00:38Z</time>
      </trkpt>
      <trkpt lat="43.77779" lon="3.39542">
        <ele>429.55763050451</ele>
        <time>2015-05-30T12:00:40Z</time>
      </trkpt>
      <trkpt lat="43.77783" lon="3.39526">
        <ele>432.64036783006</ele>
        <time>2015-05-30T12:00:58Z</time>
      </trkpt>
      <trkpt lat="43.77792" lon="3.39513">
        <ele>435.52795005865</ele>
        <time>2015-05-30T12:01:07Z</time>
      </trkpt>
      <trkpt lat="43.77793" lon="3.39489">
        <ele>438.27114218153</ele>
        <time>2015-05-30T12:01:15Z</time>
      </trkpt>
      <trkpt lat="43.77797" lon="3.39481">
        <ele>438.27114218153</ele>
        <time>2015-05-30T12:01:21Z</time>
      </trkpt>
      <trkpt lat="43.77801" lon="3.39457">
        <ele>441.08310733851</ele>
        <time>2015-05-30T12:01:31Z</time>
      </trkpt>
      <trkpt lat="43.77804" lon="3.3945">
        <ele>441.08310733851</ele>
        <time>2015-05-30T12:01:36Z</time>
      </trkpt>
      <trkpt lat="43.77805" lon="3.39443">
        <ele>443.61096101564</ele>
        <time>2015-05-30T12:01:40Z</time>
      </trkpt>
      <trkpt lat="43.77809" lon="3.39403">
        <ele>445.87108015824</ele>
        <time>2015-05-30T12:02:06Z</time>
      </trkpt>
      <trkpt lat="43.77811" lon="3.39363">
        <ele>448.09145864776</ele>
        <time>2015-05-30T12:02:28Z</time>
      </trkpt>
      <trkpt lat="43.77812" lon="3.39361">
        <ele>448.09145864776</ele>
        <time>2015-05-30T12:02:34Z</time>
      </trkpt>
      <trkpt lat="43.77808" lon="3.39332">
        <ele>450.19885854342</ele>
        <time>2015-05-30T12:02:46Z</time>
      </trkpt>
      <trkpt lat="43.77809" lon="3.39311">
        <ele>452.08075085894</ele>
        <time>2015-05-30T12:03:07Z</time>
      </trkpt>
      <trkpt lat="43.77808" lon="3.39256">
        <ele>454.11726992817</ele>
        <time>2015-05-30T12:03:33Z</time>
      </trkpt>
      <trkpt lat="43.77807" lon="3.39251">
        <ele>454.11726992817</ele>
        <time>2015-05-30T12:03:36Z</time>
      </trkpt>
      <trkpt lat="43.77807" lon="3.39212">
        <ele>456.22156328037</ele>
        <time>2015-05-30T12:04:09Z</time>
      </trkpt>
      <trkpt lat="43.77816" lon="3.39202">
        <ele>458.05658727837</ele>
        <time>2015-05-30T12:04:14Z</time>
      </trkpt>
      <trkpt lat="43.77824" lon="3.39189">
        <ele>459.65974502836</ele>
        <time>2015-05-30T12:04:26Z</time>
      </trkpt>
      <trkpt lat="43.77838" lon="3.39174">
        <ele>461.1568153276</ele>
        <time>2015-05-30T12:04:36Z</time>
      </trkpt>
      <trkpt lat="43.77841" lon="3.39171">
        <ele>461.1568153276</ele>
        <time>2015-05-30T12:04:43Z</time>
      </trkpt>
      <trkpt lat="43.77864" lon="3.39147">
        <ele>462.84407368698</ele>
        <time>2015-05-30T12:05:02Z</time>
      </trkpt>
      <trkpt lat="43.77868" lon="3.39143">
        <ele>462.84407368698</ele>
        <time>2015-05-30T12:05:09Z</time>
      </trkpt>
      <trkpt lat="43.77869" lon="3.39141">
        <ele>462.84407368698</ele>
        <time>2015-05-30T12:05:10Z</time>
      </trkpt>
      <trkpt lat="43.77872" lon="3.39139">
        <ele>464.42266912868</ele>
        <time>2015-05-30T12:05:15Z</time>
      </trkpt>
      <trkpt lat="43.7788" lon="3.39136">
        <ele>464.42266912868</ele>
        <time>2015-05-30T12:06:15Z</time>
      </trkpt>
      <trkpt lat="43.77884" lon="3.39134">
        <ele>466.08279337815</ele>
        <time>2015-05-30T12:06:20Z</time>
      </trkpt>
      <trkpt lat="43.77888" lon="3.39135">
        <ele>466.08279337815</ele>
        <time>2015-05-30T12:06:25Z</time>
      </trkpt>
      <trkpt lat="43.77891" lon="3.39133">
        <ele>466.08279337815</ele>
        <time>2015-05-30T12:06:30Z</time>
      </trkpt>
      <trkpt lat="43.77893" lon="3.39134">
        <ele>467.49076188344</ele>
        <time>2015-05-30T12:06:35Z</time>
      </trkpt>
      <trkpt lat="43.77894" lon="3.39137">
        <ele>467.49076188344</ele>
        <time>2015-05-30T12:06:40Z</time>
      </trkpt>
      <trkpt lat="43.77894" lon="3.39139">
        <ele>467.49076188344</ele>
        <time>2015-05-30T12:06:45Z</time>
      </trkpt>
      <trkpt lat="43.77893" lon="3.3914">
        <ele>467.49076188344</ele>
        <time>2015-05-30T12:06:50Z</time>
      </trkpt>
      <trkpt lat="43.77902" lon="3.39136">
        <ele>468.71402555101</ele>
        <time>2015-05-30T12:07:30Z</time>
      </trkpt>
      <trkpt lat="43.77905" lon="3.39139">
        <ele>468.71402555101</ele>
        <time>2015-05-30T12:07:35Z</time>
      </trkpt>
      <trkpt lat="43.77909" lon="3.39141">
        <ele>468.71402555101</ele>
        <time>2015-05-30T12:07:40Z</time>
      </trkpt>
      <trkpt lat="43.77914" lon="3.39142">
        <ele>469.65143755067</ele>
        <time>2015-05-30T12:07:45Z</time>
      </trkpt>
      <trkpt lat="43.77915" lon="3.39141">
        <ele>469.65143755067</ele>
        <time>2015-05-30T12:07:50Z</time>
      </trkpt>
      <trkpt lat="43.77916" lon="3.39142">
        <ele>469.65143755067</ele>
        <time>2015-05-30T12:07:55Z</time>
      </trkpt>
      <trkpt lat="43.77918" lon="3.39144">
        <ele>469.65143755067</ele>
        <time>2015-05-30T12:08:02Z</time>
      </trkpt>
      <trkpt lat="43.77918" lon="3.39145">
        <ele>469.65143755067</ele>
        <time>2015-05-30T12:08:05Z</time>
      </trkpt>
      <trkpt lat="43.77922" lon="3.39146">
        <ele>470.44823465176</ele>
        <time>2015-05-30T12:08:20Z</time>
      </trkpt>
      <trkpt lat="43.77932" lon="3.39149">
        <ele>471.3559974142</ele>
        <time>2015-05-30T12:08:28Z</time>
      </trkpt>
      <trkpt lat="43.77932" lon="3.3915">
        <ele>471.3559974142</ele>
        <time>2015-05-30T12:08:33Z</time>
      </trkpt>
      <trkpt lat="43.77937" lon="3.39157">
        <ele>471.3559974142</ele>
        <time>2015-05-30T12:08:40Z</time>
      </trkpt>
      <trkpt lat="43.77938" lon="3.39161">
        <ele>472.19192690024</ele>
        <time>2015-05-30T12:08:46Z</time>
      </trkpt>
      <trkpt lat="43.77943" lon="3.39166">
        <ele>472.19192690024</ele>
        <time>2015-05-30T12:08:55Z</time>
      </trkpt>
      <trkpt lat="43.77959" lon="3.39211">
        <ele>473.02400598883</ele>
        <time>2015-05-30T12:09:36Z</time>
      </trkpt>
      <trkpt lat="43.77957" lon="3.3922">
        <ele>473.02400598883</ele>
        <time>2015-05-30T12:09:45Z</time>
      </trkpt>
      <trkpt lat="43.77955" lon="3.39223">
        <ele>473.73838118854</ele>
        <time>2015-05-30T12:09:53Z</time>
      </trkpt>
      <trkpt lat="43.7795" lon="3.39232">
        <ele>473.73838118854</ele>
        <time>2015-05-30T12:10:06Z</time>
      </trkpt>
      <trkpt lat="43.77922" lon="3.39234">
        <ele>474.83136841649</ele>
        <time>2015-05-30T12:10:37Z</time>
      </trkpt>
      <trkpt lat="43.77919" lon="3.39235">
        <ele>474.83136841649</ele>
        <time>2015-05-30T12:10:40Z</time>
      </trkpt>
      <trkpt lat="43.77912" lon="3.39237">
        <ele>475.89521996917</ele>
        <time>2015-05-30T12:10:52Z</time>
      </trkpt>
      <trkpt lat="43.7791" lon="3.39239">
        <ele>475.89521996917</ele>
        <time>2015-05-30T12:10:52Z</time>
      </trkpt>
      <trkpt lat="43.77909" lon="3.39243">
        <ele>475.89521996917</ele>
        <time>2015-05-30T12:11:00Z</time>
      </trkpt>
      <trkpt lat="43.77903" lon="3.39252">
        <ele>476.94940785133</ele>
        <time>2015-05-30T12:11:07Z</time>
      </trkpt>
      <trkpt lat="43.7792" lon="3.39282">
        <ele>478.81291514644</ele>
        <time>2015-05-30T12:11:37Z</time>
      </trkpt>
      <trkpt lat="43.77908" lon="3.39291">
        <ele>480.40491002507</ele>
        <time>2015-05-30T12:12:36Z</time>
      </trkpt>
      <trkpt lat="43.77902" lon="3.39302">
        <ele>482.92398877657</ele>
        <time>2015-05-30T12:12:42Z</time>
      </trkpt>
      <trkpt lat="43.77901" lon="3.39311">
        <ele>482.92398877657</ele>
        <time>2015-05-30T12:13:00Z</time>
      </trkpt>
      <trkpt lat="43.77925" lon="3.39327">
        <ele>486.0942243308</ele>
        <time>2015-05-30T12:13:40Z</time>
      </trkpt>
      <trkpt lat="43.7793" lon="3.3933">
        <ele>486.0942243308</ele>
        <time>2015-05-30T12:13:47Z</time>
      </trkpt>
      <trkpt lat="43.7793" lon="3.39331">
        <ele>486.0942243308</ele>
        <time>2015-05-30T12:13:50Z</time>
      </trkpt>
      <trkpt lat="43.7793" lon="3.39334">
        <ele>486.0942243308</ele>
        <time>2015-05-30T12:13:57Z</time>
      </trkpt>
      <trkpt lat="43.7793" lon="3.39334">
        <ele>486.0942243308</ele>
        <time>2015-05-30T12:14:00Z</time>
      </trkpt>
      <trkpt lat="43.77954" lon="3.39342">
        <ele>489.84823596267</ele>
        <time>2015-05-30T12:14:46Z</time>
      </trkpt>
      <trkpt lat="43.77968" lon="3.39358">
        <ele>493.48574200891</ele>
        <time>2015-05-30T12:15:00Z</time>
      </trkpt>
      <trkpt lat="43.77969" lon="3.39358">
        <ele>493.48574200891</ele>
        <time>2015-05-30T12:15:08Z</time>
      </trkpt>
      <trkpt lat="43.77975" lon="3.39361">
        <ele>493.48574200891</ele>
        <time>2015-05-30T12:15:42Z</time>
      </trkpt>
      <trkpt lat="43.77974" lon="3.39376">
        <ele>497.05488412806</ele>
        <time>2015-05-30T12:15:49Z</time>
      </trkpt>
      <trkpt lat="43.77956" lon="3.39375">
        <ele>500.42679567724</ele>
        <time>2015-05-30T12:15:58Z</time>
      </trkpt>
      <trkpt lat="43.77954" lon="3.39375">
        <ele>500.42679567724</ele>
        <time>2015-05-30T12:16:04Z</time>
      </trkpt>
      <trkpt lat="43.77946" lon="3.39373">
        <ele>503.69948145423</ele>
        <time>2015-05-30T12:16:07Z</time>
      </trkpt>
      <trkpt lat="43.77939" lon="3.39379">
        <ele>503.69948145423</ele>
        <time>2015-05-30T12:16:38Z</time>
      </trkpt>
      <trkpt lat="43.77933" lon="3.39374">
        <ele>506.77606957508</ele>
        <time>2015-05-30T12:16:47Z</time>
      </trkpt>
      <trkpt lat="43.77933" lon="3.39376">
        <ele>506.77606957508</ele>
        <time>2015-05-30T12:16:50Z</time>
      </trkpt>
      <trkpt lat="43.77932" lon="3.39378">
        <ele>506.77606957508</ele>
        <time>2015-05-30T12:16:55Z</time>
      </trkpt>
      <trkpt lat="43.77932" lon="3.39383">
        <ele>506.77606957508</ele>
        <time>2015-05-30T12:17:04Z</time>
      </trkpt>
      <trkpt lat="43.77934" lon="3.39386">
        <ele>509.68288949664</ele>
        <time>2015-05-30T12:17:05Z</time>
      </trkpt>
      <trkpt lat="43.77938" lon="3.3939">
        <ele>509.68288949664</ele>
        <time>2015-05-30T12:17:21Z</time>
      </trkpt>
      <trkpt lat="43.77964" lon="3.39398">
        <ele>512.73323675989</ele>
        <time>2015-05-30T12:17:40Z</time>
      </trkpt>
      <trkpt lat="43.7797" lon="3.39404">
        <ele>512.73323675989</ele>
        <time>2015-05-30T12:17:47Z</time>
      </trkpt>
      <trkpt lat="43.77973" lon="3.39408">
        <ele>515.56767873337</ele>
        <time>2015-05-30T12:18:03Z</time>
      </trkpt>
      <trkpt lat="43.77982" lon="3.39432">
        <ele>518.38763510886</ele>
        <time>2015-05-30T12:18:30Z</time>
      </trkpt>
      <trkpt lat="43.77983" lon="3.39433">
        <ele>518.38763510886</ele>
        <time>2015-05-30T12:18:47Z</time>
      </trkpt>
      <trkpt lat="43.7797" lon="3.39441">
        <ele>521.17781311324</ele>
        <time>2015-05-30T12:19:02Z</time>
      </trkpt>
      <trkpt lat="43.77976" lon="3.39445">
        <ele>521.17781311324</ele>
        <time>2015-05-30T12:19:40Z</time>
      </trkpt>
      <trkpt lat="43.77981" lon="3.39449">
        <ele>524.28462294631</ele>
        <time>2015-05-30T12:19:55Z</time>
      </trkpt>
      <trkpt lat="43.7799" lon="3.39458">
        <ele>527.26401498109</ele>
        <time>2015-05-30T12:20:07Z</time>
      </trkpt>
      <trkpt lat="43.77989" lon="3.39472">
        <ele>530.38264751756</ele>
        <time>2015-05-30T12:20:38Z</time>
      </trkpt>
      <trkpt lat="43.77987" lon="3.3947">
        <ele>530.38264751756</ele>
        <time>2015-05-30T12:20:42Z</time>
      </trkpt>
      <trkpt lat="43.7798" lon="3.39482">
        <ele>533.25286500959</ele>
        <time>2015-05-30T12:20:52Z</time>
      </trkpt>
      <trkpt lat="43.7798" lon="3.39484">
        <ele>533.25286500959</ele>
        <time>2015-05-30T12:20:53Z</time>
      </trkpt>
      <trkpt lat="43.77979" lon="3.39488">
        <ele>533.25286500959</ele>
        <time>2015-05-30T12:20:59Z</time>
      </trkpt>
      <trkpt lat="43.77986" lon="3.39532">
        <ele>536.65529034998</ele>
        <time>2015-05-30T12:21:40Z</time>
      </trkpt>
      <trkpt lat="43.77985" lon="3.39537">
        <ele>536.65529034998</ele>
        <time>2015-05-30T12:21:54Z</time>
      </trkpt>
      <trkpt lat="43.77984" lon="3.39556">
        <ele>540.21599341641</ele>
        <time>2015-05-30T12:22:17Z</time>
      </trkpt>
      <trkpt lat="43.77995" lon="3.39563">
        <ele>544.13606214826</ele>
        <time>2015-05-30T12:22:40Z</time>
      </trkpt>
      <trkpt lat="43.78001" lon="3.39554">
        <ele>544.13606214826</ele>
        <time>2015-05-30T12:22:49Z</time>
      </trkpt>
      <trkpt lat="43.78001" lon="3.39553">
        <ele>547.77890549211</ele>
        <time>2015-05-30T12:22:54Z</time>
      </trkpt>
      <trkpt lat="43.77999" lon="3.39552">
        <ele>547.77890549211</ele>
        <time>2015-05-30T12:23:07Z</time>
      </trkpt>
      <trkpt lat="43.78" lon="3.39563">
        <ele>551.39193452395</ele>
        <time>2015-05-30T12:23:12Z</time>
      </trkpt>
      <trkpt lat="43.78" lon="3.39565">
        <ele>551.39193452395</ele>
        <time>2015-05-30T12:23:24Z</time>
      </trkpt>
      <trkpt lat="43.78006" lon="3.39567">
        <ele>551.39193452395</ele>
        <time>2015-05-30T12:23:30Z</time>
      </trkpt>
      <trkpt lat="43.78008" lon="3.39576">
        <ele>555.14690153978</ele>
        <time>2015-05-30T12:23:39Z</time>
      </trkpt>
      <trkpt lat="43.78008" lon="3.39577">
        <ele>555.14690153978</ele>
        <time>2015-05-30T12:23:45Z</time>
      </trkpt>
      <trkpt lat="43.78014" lon="3.39586">
        <ele>558.66899335423</ele>
        <time>2015-05-30T12:23:55Z</time>
      </trkpt>
      <trkpt lat="43.78025" lon="3.3961">
        <ele>562.11648735014</ele>
        <time>2015-05-30T12:24:25Z</time>
      </trkpt>
      <trkpt lat="43.78029" lon="3.3962">
        <ele>562.11648735014</ele>
        <time>2015-05-30T12:24:33Z</time>
      </trkpt>
      <trkpt lat="43.78032" lon="3.39627">
        <ele>565.39114721017</ele>
        <time>2015-05-30T12:24:39Z</time>
      </trkpt>
      <trkpt lat="43.78032" lon="3.39628">
        <ele>565.39114721017</ele>
        <time>2015-05-30T12:24:42Z</time>
      </trkpt>
      <trkpt lat="43.78036" lon="3.39636">
        <ele>565.39114721017</ele>
        <time>2015-05-30T12:25:06Z</time>
      </trkpt>
      <trkpt lat="43.78037" lon="3.39636">
        <ele>565.39114721017</ele>
        <time>2015-05-30T12:25:19Z</time>
      </trkpt>
      <trkpt lat="43.78048" lon="3.39643">
        <ele>568.76315242689</ele>
        <time>2015-05-30T12:25:38Z</time>
      </trkpt>
      <trkpt lat="43.78049" lon="3.39642">
        <ele>568.76315242689</ele>
        <time>2015-05-30T12:25:40Z</time>
      </trkpt>
      <trkpt lat="43.78058" lon="3.39641">
        <ele>571.8479829134</ele>
        <time>2015-05-30T12:25:50Z</time>
      </trkpt>
      <trkpt lat="43.78064" lon="3.39647">
        <ele>571.8479829134</ele>
        <time>2015-05-30T12:26:03Z</time>
      </trkpt>
      <trkpt lat="43.78066" lon="3.39648">
        <ele>571.8479829134</ele>
        <time>2015-05-30T12:26:08Z</time>
      </trkpt>
      <trkpt lat="43.78083" lon="3.39675">
        <ele>575.28557805874</ele>
        <time>2015-05-30T12:26:39Z</time>
      </trkpt>
      <trkpt lat="43.78084" lon="3.39676">
        <ele>575.28557805874</ele>
        <time>2015-05-30T12:26:40Z</time>
      </trkpt>
      <trkpt lat="43.78088" lon="3.39688">
        <ele>578.41301174642</ele>
        <time>2015-05-30T12:27:00Z</time>
      </trkpt>
      <trkpt lat="43.781" lon="3.39726">
        <ele>581.65561892513</ele>
        <time>2015-05-30T12:27:32Z</time>
      </trkpt>
      <trkpt lat="43.78104" lon="3.39719">
        <ele>581.65561892513</ele>
        <time>2015-05-30T12:27:38Z</time>
      </trkpt>
      <trkpt lat="43.78105" lon="3.39718">
        <ele>581.65561892513</ele>
        <time>2015-05-30T12:27:40Z</time>
      </trkpt>
      <trkpt lat="43.78114" lon="3.39711">
        <ele>584.84468522181</ele>
        <time>2015-05-30T12:27:47Z</time>
      </trkpt>
      <trkpt lat="43.78119" lon="3.39714">
        <ele>584.84468522181</ele>
        <time>2015-05-30T12:28:12Z</time>
      </trkpt>
      <trkpt lat="43.78123" lon="3.39721">
        <ele>588.66068851449</ele>
        <time>2015-05-30T12:28:31Z</time>
      </trkpt>
      <trkpt lat="43.78134" lon="3.39733">
        <ele>592.31892466112</ele>
        <time>2015-05-30T12:28:39Z</time>
      </trkpt>
      <trkpt lat="43.78136" lon="3.39735">
        <ele>592.31892466112</ele>
        <time>2015-05-30T12:28:40Z</time>
      </trkpt>
      <trkpt lat="43.78141" lon="3.39738">
        <ele>592.31892466112</ele>
        <time>2015-05-30T12:28:53Z</time>
      </trkpt>
      <trkpt lat="43.78155" lon="3.39735">
        <ele>595.84294814201</ele>
        <time>2015-05-30T12:28:55Z</time>
      </trkpt>
      <trkpt lat="43.78164" lon="3.39738">
        <ele>599.12525733216</ele>
        <time>2015-05-30T12:29:00Z</time>
      </trkpt>
      <trkpt lat="43.78168" lon="3.3974">
        <ele>599.12525733216</ele>
        <time>2015-05-30T12:29:05Z</time>
      </trkpt>
      <trkpt lat="43.78171" lon="3.39742">
        <ele>599.12525733216</ele>
        <time>2015-05-30T12:29:15Z</time>
      </trkpt>
      <trkpt lat="43.782" lon="3.39754">
        <ele>602.90341700271</ele>
        <time>2015-05-30T12:29:40Z</time>
      </trkpt>
      <trkpt lat="43.78252" lon="3.39735">
        <ele>607.22488539869</ele>
        <time>2015-05-30T12:30:20Z</time>
      </trkpt>
      <trkpt lat="43.7826" lon="3.39732">
        <ele>607.22488539869</ele>
        <time>2015-05-30T12:30:31Z</time>
      </trkpt>
      <trkpt lat="43.78273" lon="3.39731">
        <ele>611.36799261874</ele>
        <time>2015-05-30T12:30:39Z</time>
      </trkpt>
      <trkpt lat="43.78274" lon="3.39731">
        <ele>611.36799261874</ele>
        <time>2015-05-30T12:30:40Z</time>
      </trkpt>
      <trkpt lat="43.78283" lon="3.39732">
        <ele>615.16946342675</ele>
        <time>2015-05-30T12:31:00Z</time>
      </trkpt>
      <trkpt lat="43.78311" lon="3.39722">
        <ele>619.53156942979</ele>
        <time>2015-05-30T12:31:19Z</time>
      </trkpt>
      <trkpt lat="43.78342" lon="3.39721">
        <ele>624.36598169127</ele>
        <time>2015-05-30T12:31:41Z</time>
      </trkpt>
      <trkpt lat="43.7835" lon="3.39722">
        <ele>624.36598169127</ele>
        <time>2015-05-30T12:31:50Z</time>
      </trkpt>
      <trkpt lat="43.78351" lon="3.39721">
        <ele>628.84002781191</ele>
        <time>2015-05-30T12:32:01Z</time>
      </trkpt>
      <trkpt lat="43.78354" lon="3.39721">
        <ele>628.84002781191</ele>
        <time>2015-05-30T12:32:14Z</time>
      </trkpt>
      <trkpt lat="43.78373" lon="3.39723">
        <ele>632.87540614523</ele>
        <time>2015-05-30T12:32:40Z</time>
      </trkpt>
      <trkpt lat="43.7843" lon="3.39682">
        <ele>636.91984517798</ele>
        <time>2015-05-30T12:33:40Z</time>
      </trkpt>
      <trkpt lat="43.78438" lon="3.39672">
        <ele>640.50892607165</ele>
        <time>2015-05-30T12:33:57Z</time>
      </trkpt>
      <trkpt lat="43.78479" lon="3.39612">
        <ele>644.02096166815</ele>
        <time>2015-05-30T12:34:40Z</time>
      </trkpt>
      <trkpt lat="43.78485" lon="3.39611">
        <ele>644.02096166815</ele>
        <time>2015-05-30T12:34:48Z</time>
      </trkpt>
      <trkpt lat="43.78487" lon="3.3961">
        <ele>644.02096166815</ele>
        <time>2015-05-30T12:34:50Z</time>
      </trkpt>
      <trkpt lat="43.78494" lon="3.39608">
        <ele>647.12931546978</ele>
        <time>2015-05-30T12:35:03Z</time>
      </trkpt>
      <trkpt lat="43.78541" lon="3.39565">
        <ele>648.95608772965</ele>
        <time>2015-05-30T12:35:41Z</time>
      </trkpt>
      <trkpt lat="43.78562" lon="3.39559">
        <ele>650.36348099445</ele>
        <time>2015-05-30T12:36:21Z</time>
      </trkpt>
      <trkpt lat="43.78589" lon="3.3953">
        <ele>650.91206174107</ele>
        <time>2015-05-30T12:36:46Z</time>
      </trkpt>
      <trkpt lat="43.7863" lon="3.39466">
        <ele>650.54304405147</ele>
        <time>2015-05-30T12:37:40Z</time>
      </trkpt>
      <trkpt lat="43.78632" lon="3.39462">
        <ele>650.54304405147</ele>
        <time>2015-05-30T12:37:48Z</time>
      </trkpt>
      <trkpt lat="43.78664" lon="3.39441">
        <ele>649.78101985749</ele>
        <time>2015-05-30T12:38:36Z</time>
      </trkpt>
      <trkpt lat="43.7867" lon="3.3944">
        <ele>649.78101985749</ele>
        <time>2015-05-30T12:38:41Z</time>
      </trkpt>
      <trkpt lat="43.78723" lon="3.39432">
        <ele>649.50221987253</ele>
        <time>2015-05-30T12:39:46Z</time>
      </trkpt>
      <trkpt lat="43.78733" lon="3.39431">
        <ele>649.22003999192</ele>
        <time>2015-05-30T12:39:55Z</time>
      </trkpt>
      <trkpt lat="43.78761" lon="3.39424">
        <ele>649.8526699185</ele>
        <time>2015-05-30T12:40:40Z</time>
      </trkpt>
      <trkpt lat="43.78765" lon="3.39424">
        <ele>649.8526699185</ele>
        <time>2015-05-30T12:41:05Z</time>
      </trkpt>
      <trkpt lat="43.78769" lon="3.39419">
        <ele>650.14411705264</ele>
        <time>2015-05-30T12:41:10Z</time>
      </trkpt>
      <trkpt lat="43.78783" lon="3.39377">
        <ele>650.08442892155</ele>
        <time>2015-05-30T12:41:50Z</time>
      </trkpt>
      <trkpt lat="43.78821" lon="3.39293">
        <ele>650.29933555828</ele>
        <time>2015-05-30T12:43:07Z</time>
      </trkpt>
      <trkpt lat="43.78837" lon="3.39266">
        <ele>650.61829822477</ele>
        <time>2015-05-30T12:43:36Z</time>
      </trkpt>
      <trkpt lat="43.7884" lon="3.39241">
        <ele>650.75315707912</ele>
        <time>2015-05-30T12:43:39Z</time>
      </trkpt>
      <trkpt lat="43.7884" lon="3.39236">
        <ele>650.75315707912</ele>
        <time>2015-05-30T12:43:40Z</time>
      </trkpt>
      <trkpt lat="43.7884" lon="3.39231">
        <ele>650.75315707912</ele>
        <time>2015-05-30T12:43:45Z</time>
      </trkpt>
      <trkpt lat="43.78841" lon="3.39222">
        <ele>650.95607243058</ele>
        <time>2015-05-30T12:43:50Z</time>
      </trkpt>
      <trkpt lat="43.78838" lon="3.39209">
        <ele>651.11443909184</ele>
        <time>2015-05-30T12:43:57Z</time>
      </trkpt>
      <trkpt lat="43.78838" lon="3.39203">
        <ele>651.11443909184</ele>
        <time>2015-05-30T12:44:00Z</time>
      </trkpt>
      <trkpt lat="43.78837" lon="3.39195">
        <ele>651.12385774837</ele>
        <time>2015-05-30T12:44:05Z</time>
      </trkpt>
      <trkpt lat="43.78852" lon="3.3915">
        <ele>651.37780111065</ele>
        <time>2015-05-30T12:44:45Z</time>
      </trkpt>
      <trkpt lat="43.78855" lon="3.39138">
        <ele>651.37780111065</ele>
        <time>2015-05-30T12:44:54Z</time>
      </trkpt>
      <trkpt lat="43.78855" lon="3.39136">
        <ele>651.59143631074</ele>
        <time>2015-05-30T12:44:59Z</time>
      </trkpt>
      <trkpt lat="43.78855" lon="3.39131">
        <ele>651.59143631074</ele>
        <time>2015-05-30T12:45:08Z</time>
      </trkpt>
      <trkpt lat="43.7885" lon="3.39067">
        <ele>651.93309444861</ele>
        <time>2015-05-30T12:45:45Z</time>
      </trkpt>
      <trkpt lat="43.78847" lon="3.39043">
        <ele>652.14023505173</ele>
        <time>2015-05-30T12:46:07Z</time>
      </trkpt>
      <trkpt lat="43.78844" lon="3.39">
        <ele>652.14269625796</ele>
        <time>2015-05-30T12:46:35Z</time>
      </trkpt>
      <trkpt lat="43.78827" lon="3.38993">
        <ele>651.74611694815</ele>
        <time>2015-05-30T12:46:45Z</time>
      </trkpt>
      <trkpt lat="43.78822" lon="3.38992">
        <ele>651.74611694815</ele>
        <time>2015-05-30T12:46:50Z</time>
      </trkpt>
      <trkpt lat="43.78815" lon="3.38991">
        <ele>651.16041372041</ele>
        <time>2015-05-30T12:47:05Z</time>
      </trkpt>
      <trkpt lat="43.78815" lon="3.38991">
        <ele>651.16041372041</ele>
        <time>2015-05-30T12:47:27Z</time>
      </trkpt>
      <trkpt lat="43.78828" lon="3.38988">
        <ele>649.78774857397</ele>
        <time>2015-05-30T12:48:44Z</time>
      </trkpt>
      <trkpt lat="43.78829" lon="3.38988">
        <ele>649.78774857397</ele>
        <time>2015-05-30T12:48:45Z</time>
      </trkpt>
      <trkpt lat="43.78832" lon="3.38984">
        <ele>649.78774857397</ele>
        <time>2015-05-30T12:48:58Z</time>
      </trkpt>
      <trkpt lat="43.7884" lon="3.3898">
        <ele>648.402022055</ele>
        <time>2015-05-30T12:49:07Z</time>
      </trkpt>
      <trkpt lat="43.78844" lon="3.38979">
        <ele>648.402022055</ele>
        <time>2015-05-30T12:49:36Z</time>
      </trkpt>
      <trkpt lat="43.78865" lon="3.38961">
        <ele>646.88420418924</ele>
        <time>2015-05-30T12:51:06Z</time>
      </trkpt>
      <trkpt lat="43.78864" lon="3.38948">
        <ele>645.5276407137</ele>
        <time>2015-05-30T12:51:35Z</time>
      </trkpt>
      <trkpt lat="43.78861" lon="3.38939">
        <ele>645.5276407137</ele>
        <time>2015-05-30T12:51:35Z</time>
      </trkpt>
      <trkpt lat="43.78854" lon="3.38926">
        <ele>644.22870752161</ele>
        <time>2015-05-30T12:51:47Z</time>
      </trkpt>
      <trkpt lat="43.78853" lon="3.38925">
        <ele>644.22870752161</ele>
        <time>2015-05-30T12:51:47Z</time>
      </trkpt>
      <trkpt lat="43.7885" lon="3.38924">
        <ele>644.22870752161</ele>
        <time>2015-05-30T12:51:51Z</time>
      </trkpt>
      <trkpt lat="43.7885" lon="3.38924">
        <ele>644.22870752161</ele>
        <time>2015-05-30T12:51:55Z</time>
      </trkpt>
      <trkpt lat="43.78846" lon="3.38921">
        <ele>644.22870752161</ele>
        <time>2015-05-30T12:52:50Z</time>
      </trkpt>
      <trkpt lat="43.78845" lon="3.38885">
        <ele>643.25124208031</ele>
        <time>2015-05-30T12:53:15Z</time>
      </trkpt>
      <trkpt lat="43.78843" lon="3.38877">
        <ele>643.25124208031</ele>
        <time>2015-05-30T12:53:20Z</time>
      </trkpt>
      <trkpt lat="43.7884" lon="3.38878">
        <ele>642.29088137138</ele>
        <time>2015-05-30T12:53:28Z</time>
      </trkpt>
      <trkpt lat="43.78838" lon="3.38878">
        <ele>642.29088137138</ele>
        <time>2015-05-30T12:53:30Z</time>
      </trkpt>
      <trkpt lat="43.78833" lon="3.38862">
        <ele>641.69939559026</ele>
        <time>2015-05-30T12:54:06Z</time>
      </trkpt>
      <trkpt lat="43.78834" lon="3.3886">
        <ele>641.69939559026</ele>
        <time>2015-05-30T12:54:13Z</time>
      </trkpt>
      <trkpt lat="43.78838" lon="3.3885">
        <ele>641.15288120404</ele>
        <time>2015-05-30T12:54:18Z</time>
      </trkpt>
      <trkpt lat="43.78839" lon="3.38845">
        <ele>641.15288120404</ele>
        <time>2015-05-30T12:54:21Z</time>
      </trkpt>
      <trkpt lat="43.7885" lon="3.38798">
        <ele>640.50935051747</ele>
        <time>2015-05-30T12:54:50Z</time>
      </trkpt>
      <trkpt lat="43.7885" lon="3.3879">
        <ele>640.50935051747</ele>
        <time>2015-05-30T12:54:55Z</time>
      </trkpt>
      <trkpt lat="43.7884" lon="3.38732">
        <ele>639.98311790664</ele>
        <time>2015-05-30T12:55:45Z</time>
      </trkpt>
      <trkpt lat="43.78847" lon="3.38726">
        <ele>639.98311790664</ele>
        <time>2015-05-30T12:56:05Z</time>
      </trkpt>
      <trkpt lat="43.78846" lon="3.38719">
        <ele>639.61362937821</ele>
        <time>2015-05-30T12:56:10Z</time>
      </trkpt>
      <trkpt lat="43.78846" lon="3.38713">
        <ele>639.61362937821</ele>
        <time>2015-05-30T12:56:20Z</time>
      </trkpt>
      <trkpt lat="43.78849" lon="3.38697">
        <ele>639.27820509547</ele>
        <time>2015-05-30T12:56:44Z</time>
      </trkpt>
      <trkpt lat="43.78842" lon="3.38697">
        <ele>639.27820509547</ele>
        <time>2015-05-30T12:56:50Z</time>
      </trkpt>
      <trkpt lat="43.78809" lon="3.38615">
        <ele>639.09340792364</ele>
        <time>2015-05-30T12:57:50Z</time>
      </trkpt>
      <trkpt lat="43.78801" lon="3.3861">
        <ele>638.83510665388</ele>
        <time>2015-05-30T12:57:55Z</time>
      </trkpt>
      <trkpt lat="43.78795" lon="3.38608">
        <ele>638.83510665388</ele>
        <time>2015-05-30T12:58:03Z</time>
      </trkpt>
      <trkpt lat="43.78792" lon="3.38593">
        <ele>638.71353101993</ele>
        <time>2015-05-30T12:58:50Z</time>
      </trkpt>
      <trkpt lat="43.78795" lon="3.38592">
        <ele>638.71353101993</ele>
        <time>2015-05-30T12:58:55Z</time>
      </trkpt>
      <trkpt lat="43.78795" lon="3.3859">
        <ele>638.71353101993</ele>
        <time>2015-05-30T12:59:00Z</time>
      </trkpt>
      <trkpt lat="43.788" lon="3.38589">
        <ele>638.71353101993</ele>
        <time>2015-05-30T12:59:20Z</time>
      </trkpt>
      <trkpt lat="43.78804" lon="3.38589">
        <ele>638.56257113293</ele>
        <time>2015-05-30T12:59:28Z</time>
      </trkpt>
      <trkpt lat="43.78807" lon="3.38583">
        <ele>638.56257113293</ele>
        <time>2015-05-30T12:59:30Z</time>
      </trkpt>
      <trkpt lat="43.7881" lon="3.38571">
        <ele>638.37229544095</ele>
        <time>2015-05-30T12:59:39Z</time>
      </trkpt>
      <trkpt lat="43.7881" lon="3.3857">
        <ele>638.37229544095</ele>
        <time>2015-05-30T12:59:40Z</time>
      </trkpt>
      <trkpt lat="43.78811" lon="3.38559">
        <ele>638.37229544095</ele>
        <time>2015-05-30T12:59:52Z</time>
      </trkpt>
      <trkpt lat="43.78811" lon="3.38559">
        <ele>638.37229544095</ele>
        <time>2015-05-30T12:59:55Z</time>
      </trkpt>
      <trkpt lat="43.78815" lon="3.38559">
        <ele>637.85958766698</ele>
        <time>2015-05-30T13:01:05Z</time>
      </trkpt>
      <trkpt lat="43.78819" lon="3.38562">
        <ele>637.85958766698</ele>
        <time>2015-05-30T13:01:10Z</time>
      </trkpt>
      <trkpt lat="43.78822" lon="3.38567">
        <ele>637.51221656782</ele>
        <time>2015-05-30T13:01:15Z</time>
      </trkpt>
      <trkpt lat="43.78828" lon="3.3857">
        <ele>637.51221656782</ele>
        <time>2015-05-30T13:01:20Z</time>
      </trkpt>
      <trkpt lat="43.78831" lon="3.38577">
        <ele>637.34912370726</ele>
        <time>2015-05-30T13:01:25Z</time>
      </trkpt>
      <trkpt lat="43.78835" lon="3.38584">
        <ele>637.34912370726</ele>
        <time>2015-05-30T13:01:30Z</time>
      </trkpt>
      <trkpt lat="43.7884" lon="3.38585">
        <ele>637.31510122555</ele>
        <time>2015-05-30T13:01:35Z</time>
      </trkpt>
      <trkpt lat="43.78844" lon="3.38583">
        <ele>637.31510122555</ele>
        <time>2015-05-30T13:01:40Z</time>
      </trkpt>
      <trkpt lat="43.78848" lon="3.38577">
        <ele>637.43051506357</ele>
        <time>2015-05-30T13:01:45Z</time>
      </trkpt>
      <trkpt lat="43.78852" lon="3.38572">
        <ele>637.43051506357</ele>
        <time>2015-05-30T13:01:50Z</time>
      </trkpt>
      <trkpt lat="43.78855" lon="3.38566">
        <ele>637.59836080361</ele>
        <time>2015-05-30T13:01:55Z</time>
      </trkpt>
      <trkpt lat="43.78855" lon="3.3856">
        <ele>637.59836080361</ele>
        <time>2015-05-30T13:02:00Z</time>
      </trkpt>
      <trkpt lat="43.78854" lon="3.38558">
        <ele>637.59836080361</ele>
        <time>2015-05-30T13:02:05Z</time>
      </trkpt>
      <trkpt lat="43.78856" lon="3.38552">
        <ele>637.8437476931</ele>
        <time>2015-05-30T13:02:10Z</time>
      </trkpt>
      <trkpt lat="43.78859" lon="3.38547">
        <ele>637.8437476931</ele>
        <time>2015-05-30T13:02:22Z</time>
      </trkpt>
      <trkpt lat="43.78866" lon="3.38531">
        <ele>638.14634601196</ele>
        <time>2015-05-30T13:02:26Z</time>
      </trkpt>
      <trkpt lat="43.78881" lon="3.38492">
        <ele>638.55908297054</ele>
        <time>2015-05-30T13:02:53Z</time>
      </trkpt>
      <trkpt lat="43.78882" lon="3.38488">
        <ele>638.55908297054</ele>
        <time>2015-05-30T13:02:55Z</time>
      </trkpt>
      <trkpt lat="43.7891" lon="3.38434">
        <ele>639.27468052507</ele>
        <time>2015-05-30T13:03:55Z</time>
      </trkpt>
      <trkpt lat="43.78914" lon="3.38427">
        <ele>639.27468052507</ele>
        <time>2015-05-30T13:04:00Z</time>
      </trkpt>
      <trkpt lat="43.78932" lon="3.38333">
        <ele>639.57725528444</ele>
        <time>2015-05-30T13:04:53Z</time>
      </trkpt>
      <trkpt lat="43.78934" lon="3.3833">
        <ele>639.57725528444</ele>
        <time>2015-05-30T13:04:55Z</time>
      </trkpt>
      <trkpt lat="43.78935" lon="3.38323">
        <ele>639.57725528444</ele>
        <time>2015-05-30T13:05:00Z</time>
      </trkpt>
      <trkpt lat="43.78939" lon="3.38307">
        <ele>639.71247638616</ele>
        <time>2015-05-30T13:05:10Z</time>
      </trkpt>
      <trkpt lat="43.78944" lon="3.38271">
        <ele>639.60571503165</ele>
        <time>2015-05-30T13:05:55Z</time>
      </trkpt>
      <trkpt lat="43.78947" lon="3.38232">
        <ele>639.51988103819</ele>
        <time>2015-05-30T13:06:53Z</time>
      </trkpt>
      <trkpt lat="43.78947" lon="3.38205">
        <ele>639.61197405741</ele>
        <time>2015-05-30T13:06:55Z</time>
      </trkpt>
      <trkpt lat="43.78944" lon="3.38196">
        <ele>639.61197405741</ele>
        <time>2015-05-30T13:07:18Z</time>
      </trkpt>
      <trkpt lat="43.78943" lon="3.38183">
        <ele>639.76749623863</ele>
        <time>2015-05-30T13:07:20Z</time>
      </trkpt>
      <trkpt lat="43.78947" lon="3.38121">
        <ele>639.93776846677</ele>
        <time>2015-05-30T13:07:57Z</time>
      </trkpt>
      <trkpt lat="43.78947" lon="3.38116">
        <ele>639.93776846677</ele>
        <time>2015-05-30T13:08:00Z</time>
      </trkpt>
      <trkpt lat="43.78948" lon="3.38107">
        <ele>640.10641608518</ele>
        <time>2015-05-30T13:08:05Z</time>
      </trkpt>
      <trkpt lat="43.78949" lon="3.38095">
        <ele>640.10641608518</ele>
        <time>2015-05-30T13:08:13Z</time>
      </trkpt>
      <trkpt lat="43.78947" lon="3.38091">
        <ele>640.31587057999</ele>
        <time>2015-05-30T13:08:15Z</time>
      </trkpt>
      <trkpt lat="43.7895" lon="3.38047">
        <ele>640.66293731171</ele>
        <time>2015-05-30T13:08:40Z</time>
      </trkpt>
      <trkpt lat="43.7895" lon="3.38041">
        <ele>640.66293731171</ele>
        <time>2015-05-30T13:08:53Z</time>
      </trkpt>
      <trkpt lat="43.7895" lon="3.38015">
        <ele>641.20806982975</ele>
        <time>2015-05-30T13:09:00Z</time>
      </trkpt>
      <trkpt lat="43.78949" lon="3.38008">
        <ele>641.20806982975</ele>
        <time>2015-05-30T13:09:05Z</time>
      </trkpt>
      <trkpt lat="43.7895" lon="3.37997">
        <ele>641.89141124829</ele>
        <time>2015-05-30T13:09:12Z</time>
      </trkpt>
      <trkpt lat="43.78951" lon="3.37995">
        <ele>641.89141124829</ele>
        <time>2015-05-30T13:09:18Z</time>
      </trkpt>
      <trkpt lat="43.78944" lon="3.37983">
        <ele>642.78679727828</ele>
        <time>2015-05-30T13:09:35Z</time>
      </trkpt>
      <trkpt lat="43.78953" lon="3.37978">
        <ele>643.81792573947</ele>
        <time>2015-05-30T13:09:58Z</time>
      </trkpt>
      <trkpt lat="43.78954" lon="3.37975">
        <ele>643.81792573947</ele>
        <time>2015-05-30T13:10:00Z</time>
      </trkpt>
      <trkpt lat="43.78954" lon="3.3797">
        <ele>643.81792573947</ele>
        <time>2015-05-30T13:10:05Z</time>
      </trkpt>
      <trkpt lat="43.78955" lon="3.37967">
        <ele>643.81792573947</ele>
        <time>2015-05-30T13:10:16Z</time>
      </trkpt>
      <trkpt lat="43.78953" lon="3.37945">
        <ele>645.18753224648</ele>
        <time>2015-05-30T13:10:41Z</time>
      </trkpt>
      <trkpt lat="43.78953" lon="3.37945">
        <ele>645.18753224648</ele>
        <time>2015-05-30T13:10:45Z</time>
      </trkpt>
      <trkpt lat="43.78953" lon="3.37944">
        <ele>645.18753224648</ele>
        <time>2015-05-30T13:10:50Z</time>
      </trkpt>
      <trkpt lat="43.78957" lon="3.37935">
        <ele>646.66460039069</ele>
        <time>2015-05-30T13:10:55Z</time>
      </trkpt>
      <trkpt lat="43.78953" lon="3.37923">
        <ele>648.10686243039</ele>
        <time>2015-05-30T13:11:00Z</time>
      </trkpt>
      <trkpt lat="43.78954" lon="3.37914">
        <ele>648.10686243039</ele>
        <time>2015-05-30T13:11:05Z</time>
      </trkpt>
      <trkpt lat="43.78953" lon="3.3791">
        <ele>649.44027904448</ele>
        <time>2015-05-30T13:11:15Z</time>
      </trkpt>
      <trkpt lat="43.78954" lon="3.37907">
        <ele>649.44027904448</ele>
        <time>2015-05-30T13:11:57Z</time>
      </trkpt>
      <trkpt lat="43.78971" lon="3.37906">
        <ele>650.92805736534</ele>
        <time>2015-05-30T13:12:00Z</time>
      </trkpt>
      <trkpt lat="43.78958" lon="3.3784">
        <ele>652.55429279789</ele>
        <time>2015-05-30T13:13:00Z</time>
      </trkpt>
      <trkpt lat="43.78956" lon="3.37834">
        <ele>652.55429279789</ele>
        <time>2015-05-30T13:13:05Z</time>
      </trkpt>
      <trkpt lat="43.78962" lon="3.37828">
        <ele>654.04452632293</ele>
        <time>2015-05-30T13:13:16Z</time>
      </trkpt>
      <trkpt lat="43.7895" lon="3.37801">
        <ele>655.69253972465</ele>
        <time>2015-05-30T13:14:05Z</time>
      </trkpt>
      <trkpt lat="43.7895" lon="3.37796">
        <ele>655.69253972465</ele>
        <time>2015-05-30T13:14:10Z</time>
      </trkpt>
      <trkpt lat="43.78953" lon="3.37798">
        <ele>655.69253972465</ele>
        <time>2015-05-30T13:14:15Z</time>
      </trkpt>
      <trkpt lat="43.78949" lon="3.37805">
        <ele>657.12167337865</ele>
        <time>2015-05-30T13:14:20Z</time>
      </trkpt>
      <trkpt lat="43.78948" lon="3.37804">
        <ele>657.12167337865</ele>
        <time>2015-05-30T13:14:31Z</time>
      </trkpt>
      <trkpt lat="43.78947" lon="3.378">
        <ele>657.12167337865</ele>
        <time>2015-05-30T13:14:40Z</time>
      </trkpt>
      <trkpt lat="43.78943" lon="3.37794">
        <ele>658.47361916353</ele>
        <time>2015-05-30T13:15:02Z</time>
      </trkpt>
      <trkpt lat="43.78941" lon="3.37786">
        <ele>658.47361916353</ele>
        <time>2015-05-30T13:15:10Z</time>
      </trkpt>
      <trkpt lat="43.78942" lon="3.37782">
        <ele>659.75027237465</ele>
        <time>2015-05-30T13:15:18Z</time>
      </trkpt>
      <trkpt lat="43.78944" lon="3.37773">
        <ele>659.75027237465</ele>
        <time>2015-05-30T13:15:20Z</time>
      </trkpt>
      <trkpt lat="43.78951" lon="3.37749">
        <ele>661.19868981789</ele>
        <time>2015-05-30T13:16:01Z</time>
      </trkpt>
      <trkpt lat="43.78949" lon="3.37742">
        <ele>661.19868981789</ele>
        <time>2015-05-30T13:16:05Z</time>
      </trkpt>
      <trkpt lat="43.78943" lon="3.37734">
        <ele>662.51418999285</ele>
        <time>2015-05-30T13:16:10Z</time>
      </trkpt>
      <trkpt lat="43.78945" lon="3.3773">
        <ele>662.51418999285</ele>
        <time>2015-05-30T13:16:15Z</time>
      </trkpt>
      <trkpt lat="43.78947" lon="3.37731">
        <ele>662.51418999285</ele>
        <time>2015-05-30T13:16:20Z</time>
      </trkpt>
      <trkpt lat="43.78932" lon="3.37712">
        <ele>663.71758614888</ele>
        <time>2015-05-30T13:16:31Z</time>
      </trkpt>
      <trkpt lat="43.78932" lon="3.37706">
        <ele>663.71758614888</ele>
        <time>2015-05-30T13:16:35Z</time>
      </trkpt>
      <trkpt lat="43.78932" lon="3.37705">
        <ele>663.71758614888</ele>
        <time>2015-05-30T13:16:40Z</time>
      </trkpt>
      <trkpt lat="43.78932" lon="3.37701">
        <ele>663.71758614888</ele>
        <time>2015-05-30T13:16:47Z</time>
      </trkpt>
      <trkpt lat="43.78929" lon="3.37698">
        <ele>664.81417418822</ele>
        <time>2015-05-30T13:16:50Z</time>
      </trkpt>
      <trkpt lat="43.78925" lon="3.37692">
        <ele>664.81417418822</ele>
        <time>2015-05-30T13:17:00Z</time>
      </trkpt>
      <trkpt lat="43.78928" lon="3.37691">
        <ele>664.81417418822</ele>
        <time>2015-05-30T13:17:05Z</time>
      </trkpt>
      <trkpt lat="43.78928" lon="3.37685">
        <ele>665.76603607615</ele>
        <time>2015-05-30T13:17:10Z</time>
      </trkpt>
      <trkpt lat="43.78928" lon="3.37683">
        <ele>665.76603607615</ele>
        <time>2015-05-30T13:17:17Z</time>
      </trkpt>
      <trkpt lat="43.78926" lon="3.37659">
        <ele>666.61060891519</ele>
        <time>2015-05-30T13:17:25Z</time>
      </trkpt>
      <trkpt lat="43.78926" lon="3.37654">
        <ele>666.61060891519</ele>
        <time>2015-05-30T13:17:30Z</time>
      </trkpt>
      <trkpt lat="43.78923" lon="3.37651">
        <ele>666.61060891519</ele>
        <time>2015-05-30T13:17:35Z</time>
      </trkpt>
      <trkpt lat="43.78918" lon="3.37643">
        <ele>667.33975334036</ele>
        <time>2015-05-30T13:17:40Z</time>
      </trkpt>
      <trkpt lat="43.78918" lon="3.37641">
        <ele>667.33975334036</ele>
        <time>2015-05-30T13:17:45Z</time>
      </trkpt>
      <trkpt lat="43.78918" lon="3.37638">
        <ele>667.33975334036</ele>
        <time>2015-05-30T13:17:54Z</time>
      </trkpt>
      <trkpt lat="43.7892" lon="3.37639">
        <ele>667.33975334036</ele>
        <time>2015-05-30T13:18:03Z</time>
      </trkpt>
      <trkpt lat="43.78919" lon="3.3764">
        <ele>667.33975334036</ele>
        <time>2015-05-30T13:18:08Z</time>
      </trkpt>
      <trkpt lat="43.78901" lon="3.37597">
        <ele>668.01841025866</ele>
        <time>2015-05-30T13:19:05Z</time>
      </trkpt>
      <trkpt lat="43.78903" lon="3.37601">
        <ele>668.01841025866</ele>
        <time>2015-05-30T13:19:10Z</time>
      </trkpt>
      <trkpt lat="43.78903" lon="3.37606">
        <ele>668.01841025866</ele>
        <time>2015-05-30T13:19:15Z</time>
      </trkpt>
      <trkpt lat="43.78893" lon="3.37592">
        <ele>668.59170156245</ele>
        <time>2015-05-30T13:19:30Z</time>
      </trkpt>
      <trkpt lat="43.78879" lon="3.37567">
        <ele>669.05240338959</ele>
        <time>2015-05-30T13:20:05Z</time>
      </trkpt>
      <trkpt lat="43.78878" lon="3.37566">
        <ele>669.05240338959</ele>
        <time>2015-05-30T13:20:12Z</time>
      </trkpt>
      <trkpt lat="43.78877" lon="3.37567">
        <ele>669.05240338959</ele>
        <time>2015-05-30T13:20:16Z</time>
      </trkpt>
      <trkpt lat="43.78878" lon="3.37564">
        <ele>669.05240338959</ele>
        <time>2015-05-30T13:20:30Z</time>
      </trkpt>
      <trkpt lat="43.78876" lon="3.37569">
        <ele>669.05240338959</ele>
        <time>2015-05-30T13:20:35Z</time>
      </trkpt>
      <trkpt lat="43.78873" lon="3.37566">
        <ele>669.42304903075</ele>
        <time>2015-05-30T13:20:40Z</time>
      </trkpt>
      <trkpt lat="43.78871" lon="3.37566">
        <ele>669.42304903075</ele>
        <time>2015-05-30T13:20:45Z</time>
      </trkpt>
      <trkpt lat="43.78872" lon="3.37568">
        <ele>669.42304903075</ele>
        <time>2015-05-30T13:20:50Z</time>
      </trkpt>
      <trkpt lat="43.7887" lon="3.37572">
        <ele>669.42304903075</ele>
        <time>2015-05-30T13:20:56Z</time>
      </trkpt>
      <trkpt lat="43.7887" lon="3.37571">
        <ele>669.42304903075</ele>
        <time>2015-05-30T13:21:00Z</time>
      </trkpt>
      <trkpt lat="43.78871" lon="3.37565">
        <ele>669.66720677834</ele>
        <time>2015-05-30T13:21:05Z</time>
      </trkpt>
      <trkpt lat="43.7887" lon="3.37564">
        <ele>669.66720677834</ele>
        <time>2015-05-30T13:21:10Z</time>
      </trkpt>
      <trkpt lat="43.78873" lon="3.37537">
        <ele>669.82360683694</ele>
        <time>2015-05-30T13:22:00Z</time>
      </trkpt>
      <trkpt lat="43.7887" lon="3.37534">
        <ele>669.82360683694</ele>
        <time>2015-05-30T13:22:05Z</time>
      </trkpt>
      <trkpt lat="43.78868" lon="3.3753">
        <ele>669.82360683694</ele>
        <time>2015-05-30T13:22:10Z</time>
      </trkpt>
      <trkpt lat="43.78841" lon="3.37505">
        <ele>670.07255974519</ele>
        <time>2015-05-30T13:24:04Z</time>
      </trkpt>
      <trkpt lat="43.78842" lon="3.37509">
        <ele>670.07255974519</ele>
        <time>2015-05-30T13:24:05Z</time>
      </trkpt>
      <trkpt lat="43.78846" lon="3.37509">
        <ele>670.07255974519</ele>
        <time>2015-05-30T13:24:10Z</time>
      </trkpt>
      <trkpt lat="43.78847" lon="3.37508">
        <ele>670.07255974519</ele>
        <time>2015-05-30T13:24:15Z</time>
      </trkpt>
      <trkpt lat="43.78849" lon="3.37502">
        <ele>671.27266704759</ele>
        <time>2015-05-30T13:24:36Z</time>
      </trkpt>
      <trkpt lat="43.78849" lon="3.37501">
        <ele>671.27266704759</ele>
        <time>2015-05-30T13:24:40Z</time>
      </trkpt>
      <trkpt lat="43.78851" lon="3.37501">
        <ele>671.27266704759</ele>
        <time>2015-05-30T13:24:50Z</time>
      </trkpt>
      <trkpt lat="43.78848" lon="3.37499">
        <ele>671.27266704759</ele>
        <time>2015-05-30T13:24:55Z</time>
      </trkpt>
      <trkpt lat="43.7885" lon="3.37497">
        <ele>671.27266704759</ele>
        <time>2015-05-30T13:25:00Z</time>
      </trkpt>
      <trkpt lat="43.78844" lon="3.37488">
        <ele>672.44428014113</ele>
        <time>2015-05-30T13:25:09Z</time>
      </trkpt>
      <trkpt lat="43.78843" lon="3.37489">
        <ele>672.44428014113</ele>
        <time>2015-05-30T13:25:10Z</time>
      </trkpt>
      <trkpt lat="43.7884" lon="3.37487">
        <ele>672.44428014113</ele>
        <time>2015-05-30T13:25:19Z</time>
      </trkpt>
      <trkpt lat="43.78842" lon="3.3748">
        <ele>673.40040641429</ele>
        <time>2015-05-30T13:25:20Z</time>
      </trkpt>
      <trkpt lat="43.78839" lon="3.37474">
        <ele>673.40040641429</ele>
        <time>2015-05-30T13:25:55Z</time>
      </trkpt>
      <trkpt lat="43.78834" lon="3.3747">
        <ele>674.32872684358</ele>
        <time>2015-05-30T13:26:02Z</time>
      </trkpt>
      <trkpt lat="43.7883" lon="3.37472">
        <ele>674.32872684358</ele>
        <time>2015-05-30T13:26:06Z</time>
      </trkpt>
      <trkpt lat="43.78829" lon="3.37472">
        <ele>674.32872684358</ele>
        <time>2015-05-30T13:26:11Z</time>
      </trkpt>
      <trkpt lat="43.78828" lon="3.37478">
        <ele>675.21592338286</ele>
        <time>2015-05-30T13:26:15Z</time>
      </trkpt>
      <trkpt lat="43.78829" lon="3.37475">
        <ele>675.21592338286</ele>
        <time>2015-05-30T13:26:25Z</time>
      </trkpt>
      <trkpt lat="43.78828" lon="3.37458">
        <ele>676.45333702273</ele>
        <time>2015-05-30T13:26:50Z</time>
      </trkpt>
      <trkpt lat="43.78819" lon="3.37455">
        <ele>676.45333702273</ele>
        <time>2015-05-30T13:27:06Z</time>
      </trkpt>
      <trkpt lat="43.78817" lon="3.37461">
        <ele>677.73972081598</ele>
        <time>2015-05-30T13:27:17Z</time>
      </trkpt>
      <trkpt lat="43.78809" lon="3.37457">
        <ele>677.73972081598</ele>
        <time>2015-05-30T13:27:31Z</time>
      </trkpt>
      <trkpt lat="43.78806" lon="3.37456">
        <ele>679.09850720519</ele>
        <time>2015-05-30T13:27:35Z</time>
      </trkpt>
      <trkpt lat="43.78803" lon="3.37457">
        <ele>679.09850720519</ele>
        <time>2015-05-30T13:27:40Z</time>
      </trkpt>
      <trkpt lat="43.78803" lon="3.37458">
        <ele>679.09850720519</ele>
        <time>2015-05-30T13:27:49Z</time>
      </trkpt>
      <trkpt lat="43.78808" lon="3.3745">
        <ele>680.20539170466</ele>
        <time>2015-05-30T13:28:07Z</time>
      </trkpt>
      <trkpt lat="43.7881" lon="3.37446">
        <ele>680.20539170466</ele>
        <time>2015-05-30T13:28:10Z</time>
      </trkpt>
      <trkpt lat="43.78809" lon="3.37438">
        <ele>680.20539170466</ele>
        <time>2015-05-30T13:28:15Z</time>
      </trkpt>
      <trkpt lat="43.78809" lon="3.37429">
        <ele>681.03446542709</ele>
        <time>2015-05-30T13:28:20Z</time>
      </trkpt>
      <trkpt lat="43.7881" lon="3.37421">
        <ele>681.03446542709</ele>
        <time>2015-05-30T13:28:25Z</time>
      </trkpt>
      <trkpt lat="43.78811" lon="3.37415">
        <ele>681.72107791179</ele>
        <time>2015-05-30T13:28:30Z</time>
      </trkpt>
      <trkpt lat="43.78817" lon="3.37381">
        <ele>682.20374211988</ele>
        <time>2015-05-30T13:28:56Z</time>
      </trkpt>
      <trkpt lat="43.78816" lon="3.37374">
        <ele>682.20374211988</ele>
        <time>2015-05-30T13:29:00Z</time>
      </trkpt>
      <trkpt lat="43.78811" lon="3.37366">
        <ele>682.58462907875</ele>
        <time>2015-05-30T13:29:08Z</time>
      </trkpt>
      <trkpt lat="43.7881" lon="3.37363">
        <ele>682.58462907875</ele>
        <time>2015-05-30T13:29:10Z</time>
      </trkpt>
      <trkpt lat="43.78801" lon="3.37326">
        <ele>682.97314268587</ele>
        <time>2015-05-30T13:29:35Z</time>
      </trkpt>
      <trkpt lat="43.788" lon="3.37322">
        <ele>682.97314268587</ele>
        <time>2015-05-30T13:29:40Z</time>
      </trkpt>
      <trkpt lat="43.78799" lon="3.37321">
        <ele>682.97314268587</ele>
        <time>2015-05-30T13:29:45Z</time>
      </trkpt>
      <trkpt lat="43.78799" lon="3.37317">
        <ele>682.97314268587</ele>
        <time>2015-05-30T13:29:55Z</time>
      </trkpt>
      <trkpt lat="43.78797" lon="3.37307">
        <ele>683.34096456197</ele>
        <time>2015-05-30T13:30:02Z</time>
      </trkpt>
      <trkpt lat="43.78797" lon="3.373">
        <ele>683.34096456197</ele>
        <time>2015-05-30T13:30:05Z</time>
      </trkpt>
      <trkpt lat="43.78796" lon="3.37293">
        <ele>683.5898888413</ele>
        <time>2015-05-30T13:30:10Z</time>
      </trkpt>
      <trkpt lat="43.78798" lon="3.37283">
        <ele>683.5898888413</ele>
        <time>2015-05-30T13:30:15Z</time>
      </trkpt>
      <trkpt lat="43.78799" lon="3.37276">
        <ele>683.6292807155</ele>
        <time>2015-05-30T13:30:20Z</time>
      </trkpt>
      <trkpt lat="43.78799" lon="3.37268">
        <ele>683.6292807155</ele>
        <time>2015-05-30T13:30:25Z</time>
      </trkpt>
      <trkpt lat="43.78798" lon="3.37261">
        <ele>683.39017859085</ele>
        <time>2015-05-30T13:30:34Z</time>
      </trkpt>
      <trkpt lat="43.78795" lon="3.37251">
        <ele>683.39017859085</ele>
        <time>2015-05-30T13:30:35Z</time>
      </trkpt>
      <trkpt lat="43.78792" lon="3.37211">
        <ele>682.49243098061</ele>
        <time>2015-05-30T13:31:05Z</time>
      </trkpt>
      <trkpt lat="43.78795" lon="3.37191">
        <ele>681.59443534482</ele>
        <time>2015-05-30T13:31:10Z</time>
      </trkpt>
      <trkpt lat="43.78794" lon="3.37182">
        <ele>681.59443534482</ele>
        <time>2015-05-30T13:31:15Z</time>
      </trkpt>
      <trkpt lat="43.78792" lon="3.37166">
        <ele>680.78741009768</ele>
        <time>2015-05-30T13:31:25Z</time>
      </trkpt>
      <trkpt lat="43.78817" lon="3.37171">
        <ele>680.02589150591</ele>
        <time>2015-05-30T13:32:08Z</time>
      </trkpt>
      <trkpt lat="43.78821" lon="3.37173">
        <ele>680.02589150591</ele>
        <time>2015-05-30T13:32:35Z</time>
      </trkpt>
      <trkpt lat="43.78831" lon="3.37174">
        <ele>679.1955345136</ele>
        <time>2015-05-30T13:32:46Z</time>
      </trkpt>
      <trkpt lat="43.78854" lon="3.37181">
        <ele>678.30582733401</ele>
        <time>2015-05-30T13:33:07Z</time>
      </trkpt>
      <trkpt lat="43.78855" lon="3.3718">
        <ele>678.30582733401</ele>
        <time>2015-05-30T13:33:10Z</time>
      </trkpt>
      <trkpt lat="43.78855" lon="3.3718">
        <ele>678.30582733401</ele>
        <time>2015-05-30T13:33:31Z</time>
      </trkpt>
      <trkpt lat="43.78888" lon="3.37178">
        <ele>677.17832451989</ele>
        <time>2015-05-30T13:33:45Z</time>
      </trkpt>
      <trkpt lat="43.78891" lon="3.37172">
        <ele>677.17832451989</ele>
        <time>2015-05-30T13:33:50Z</time>
      </trkpt>
      <trkpt lat="43.78892" lon="3.37166">
        <ele>675.97974343042</ele>
        <time>2015-05-30T13:33:55Z</time>
      </trkpt>
      <trkpt lat="43.78891" lon="3.3716">
        <ele>675.97974343042</ele>
        <time>2015-05-30T13:34:00Z</time>
      </trkpt>
      <trkpt lat="43.78889" lon="3.37158">
        <ele>675.97974343042</ele>
        <time>2015-05-30T13:34:05Z</time>
      </trkpt>
      <trkpt lat="43.7889" lon="3.37148">
        <ele>674.60527531653</ele>
        <time>2015-05-30T13:34:35Z</time>
      </trkpt>
      <trkpt lat="43.78886" lon="3.37119">
        <ele>673.30408261235</ele>
        <time>2015-05-30T13:34:45Z</time>
      </trkpt>
      <trkpt lat="43.78879" lon="3.37103">
        <ele>672.14819910596</ele>
        <time>2015-05-30T13:35:03Z</time>
      </trkpt>
      <trkpt lat="43.78877" lon="3.371">
        <ele>672.14819910596</ele>
        <time>2015-05-30T13:35:03Z</time>
      </trkpt>
      <trkpt lat="43.78877" lon="3.37098">
        <ele>672.14819910596</ele>
        <time>2015-05-30T13:35:05Z</time>
      </trkpt>
      <trkpt lat="43.78872" lon="3.37092">
        <ele>671.11738708188</ele>
        <time>2015-05-30T13:35:12Z</time>
      </trkpt>
      <trkpt lat="43.78859" lon="3.37056">
        <ele>669.97626524174</ele>
        <time>2015-05-30T13:36:02Z</time>
      </trkpt>
      <trkpt lat="43.78851" lon="3.37053">
        <ele>669.97626524174</ele>
        <time>2015-05-30T13:37:10Z</time>
      </trkpt>
      <trkpt lat="43.7885" lon="3.3705">
        <ele>668.65104530615</ele>
        <time>2015-05-30T13:37:20Z</time>
      </trkpt>
      <trkpt lat="43.78847" lon="3.37034">
        <ele>667.3907968292</ele>
        <time>2015-05-30T13:38:10Z</time>
      </trkpt>
      <trkpt lat="43.7884" lon="3.3701">
        <ele>666.20981571039</ele>
        <time>2015-05-30T13:38:25Z</time>
      </trkpt>
      <trkpt lat="43.78831" lon="3.36985">
        <ele>665.14981557568</ele>
        <time>2015-05-30T13:38:40Z</time>
      </trkpt>
      <trkpt lat="43.78825" lon="3.36959">
        <ele>664.14809377743</ele>
        <time>2015-05-30T13:38:55Z</time>
      </trkpt>
      <trkpt lat="43.78815" lon="3.36931">
        <ele>663.17507611278</ele>
        <time>2015-05-30T13:39:11Z</time>
      </trkpt>
      <trkpt lat="43.78814" lon="3.36922">
        <ele>663.17507611278</ele>
        <time>2015-05-30T13:39:15Z</time>
      </trkpt>
      <trkpt lat="43.78813" lon="3.36903">
        <ele>662.34725482906</ele>
        <time>2015-05-30T13:39:25Z</time>
      </trkpt>
      <trkpt lat="43.78811" lon="3.36892">
        <ele>662.34725482906</ele>
        <time>2015-05-30T13:40:13Z</time>
      </trkpt>
      <trkpt lat="43.78808" lon="3.36889">
        <ele>661.74319953263</ele>
        <time>2015-05-30T13:41:05Z</time>
      </trkpt>
      <trkpt lat="43.78789" lon="3.36825">
        <ele>661.33406943498</ele>
        <time>2015-05-30T13:42:01Z</time>
      </trkpt>
      <trkpt lat="43.78784" lon="3.36804">
        <ele>660.96276612803</ele>
        <time>2015-05-30T13:42:11Z</time>
      </trkpt>
      <trkpt lat="43.78783" lon="3.36794">
        <ele>660.96276612803</ele>
        <time>2015-05-30T13:42:17Z</time>
      </trkpt>
      <trkpt lat="43.7878" lon="3.36787">
        <ele>660.52673430433</ele>
        <time>2015-05-30T13:42:22Z</time>
      </trkpt>
      <trkpt lat="43.78778" lon="3.36782">
        <ele>660.52673430433</ele>
        <time>2015-05-30T13:42:33Z</time>
      </trkpt>
      <trkpt lat="43.78765" lon="3.36752">
        <ele>660.23364867045</ele>
        <time>2015-05-30T13:43:13Z</time>
      </trkpt>
      <trkpt lat="43.78763" lon="3.36752">
        <ele>660.23364867045</ele>
        <time>2015-05-30T13:43:15Z</time>
      </trkpt>
      <trkpt lat="43.78759" lon="3.36754">
        <ele>660.23364867045</ele>
        <time>2015-05-30T13:43:20Z</time>
      </trkpt>
      <trkpt lat="43.78757" lon="3.36754">
        <ele>660.23364867045</ele>
        <time>2015-05-30T13:43:26Z</time>
      </trkpt>
      <trkpt lat="43.78757" lon="3.36752">
        <ele>660.10248160297</ele>
        <time>2015-05-30T13:43:30Z</time>
      </trkpt>
      <trkpt lat="43.78731" lon="3.36748">
        <ele>659.97731859705</ele>
        <time>2015-05-30T13:44:08Z</time>
      </trkpt>
      <trkpt lat="43.78727" lon="3.36738">
        <ele>659.97731859705</ele>
        <time>2015-05-30T13:44:11Z</time>
      </trkpt>
      <trkpt lat="43.7871" lon="3.36661">
        <ele>660.00180579111</ele>
        <time>2015-05-30T13:45:19Z</time>
      </trkpt>
      <trkpt lat="43.78709" lon="3.36652">
        <ele>660.00180579111</ele>
        <time>2015-05-30T13:46:00Z</time>
      </trkpt>
      <trkpt lat="43.78702" lon="3.36625">
        <ele>659.90501541788</ele>
        <time>2015-05-30T13:46:08Z</time>
      </trkpt>
      <trkpt lat="43.78702" lon="3.36626">
        <ele>659.90501541788</ele>
        <time>2015-05-30T13:46:10Z</time>
      </trkpt>
      <trkpt lat="43.78701" lon="3.36619">
        <ele>659.90501541788</ele>
        <time>2015-05-30T13:46:25Z</time>
      </trkpt>
      <trkpt lat="43.78702" lon="3.36611">
        <ele>659.94056842396</ele>
        <time>2015-05-30T13:46:30Z</time>
      </trkpt>
      <trkpt lat="43.78703" lon="3.36602">
        <ele>659.94056842396</ele>
        <time>2015-05-30T13:46:35Z</time>
      </trkpt>
      <trkpt lat="43.7871" lon="3.36574">
        <ele>660.02596414288</ele>
        <time>2015-05-30T13:46:51Z</time>
      </trkpt>
      <trkpt lat="43.78712" lon="3.36565">
        <ele>660.02596414288</ele>
        <time>2015-05-30T13:47:00Z</time>
      </trkpt>
      <trkpt lat="43.78715" lon="3.36538">
        <ele>660.17102217959</ele>
        <time>2015-05-30T13:47:13Z</time>
      </trkpt>
      <trkpt lat="43.78729" lon="3.36477">
        <ele>660.51431453002</ele>
        <time>2015-05-30T13:47:55Z</time>
      </trkpt>
      <trkpt lat="43.78729" lon="3.36477">
        <ele>660.51431453002</ele>
        <time>2015-05-30T13:48:00Z</time>
      </trkpt>
      <trkpt lat="43.78733" lon="3.36478">
        <ele>660.51431453002</ele>
        <time>2015-05-30T13:48:05Z</time>
      </trkpt>
      <trkpt lat="43.78739" lon="3.36485">
        <ele>661.03951620723</ele>
        <time>2015-05-30T13:48:13Z</time>
      </trkpt>
      <trkpt lat="43.78741" lon="3.3649">
        <ele>661.03951620723</ele>
        <time>2015-05-30T13:48:17Z</time>
      </trkpt>
      <trkpt lat="43.78743" lon="3.36492">
        <ele>661.03951620723</ele>
        <time>2015-05-30T13:48:23Z</time>
      </trkpt>
      <trkpt lat="43.78751" lon="3.36504">
        <ele>661.64448326932</ele>
        <time>2015-05-30T13:48:31Z</time>
      </trkpt>
      <trkpt lat="43.78752" lon="3.36505">
        <ele>661.64448326932</ele>
        <time>2015-05-30T13:48:52Z</time>
      </trkpt>
      <trkpt lat="43.78764" lon="3.36512">
        <ele>662.43607574076</ele>
        <time>2015-05-30T13:49:14Z</time>
      </trkpt>
      <trkpt lat="43.7878" lon="3.36522">
        <ele>663.29659249156</ele>
        <time>2015-05-30T13:50:04Z</time>
      </trkpt>
      <trkpt lat="43.78782" lon="3.36523">
        <ele>663.29659249156</ele>
        <time>2015-05-30T13:50:12Z</time>
      </trkpt>
      <trkpt lat="43.78792" lon="3.36525">
        <ele>664.14559701985</ele>
        <time>2015-05-30T13:50:21Z</time>
      </trkpt>
      <trkpt lat="43.78831" lon="3.36518">
        <ele>665.12476072672</ele>
        <time>2015-05-30T13:50:45Z</time>
      </trkpt>
      <trkpt lat="43.78831" lon="3.36517">
        <ele>665.12476072672</ele>
        <time>2015-05-30T13:50:58Z</time>
      </trkpt>
      <trkpt lat="43.78842" lon="3.36523">
        <ele>666.1632375752</ele>
        <time>2015-05-30T13:51:13Z</time>
      </trkpt>
      <trkpt lat="43.78845" lon="3.36524">
        <ele>666.1632375752</ele>
        <time>2015-05-30T13:51:16Z</time>
      </trkpt>
      <trkpt lat="43.78872" lon="3.36517">
        <ele>667.36817354572</ele>
        <time>2015-05-30T13:51:41Z</time>
      </trkpt>
      <trkpt lat="43.78882" lon="3.36515">
        <ele>668.76635223916</ele>
        <time>2015-05-30T13:51:48Z</time>
      </trkpt>
      <trkpt lat="43.78883" lon="3.36514">
        <ele>668.76635223916</ele>
        <time>2015-05-30T13:51:53Z</time>
      </trkpt>
      <trkpt lat="43.78891" lon="3.36513">
        <ele>670.22356688164</ele>
        <time>2015-05-30T13:51:57Z</time>
      </trkpt>
      <trkpt lat="43.78897" lon="3.36511">
        <ele>670.22356688164</ele>
        <time>2015-05-30T13:52:06Z</time>
      </trkpt>
      <trkpt lat="43.78905" lon="3.3651">
        <ele>671.84593394197</ele>
        <time>2015-05-30T13:52:06Z</time>
      </trkpt>
      <trkpt lat="43.78915" lon="3.36509">
        <ele>673.38550732812</ele>
        <time>2015-05-30T13:52:14Z</time>
      </trkpt>
      <trkpt lat="43.78916" lon="3.36509">
        <ele>673.38550732812</ele>
        <time>2015-05-30T13:52:15Z</time>
      </trkpt>
      <trkpt lat="43.78921" lon="3.36509">
        <ele>673.38550732812</ele>
        <time>2015-05-30T13:52:20Z</time>
      </trkpt>
      <trkpt lat="43.78928" lon="3.36509">
        <ele>674.88667129484</ele>
        <time>2015-05-30T13:52:25Z</time>
      </trkpt>
      <trkpt lat="43.78936" lon="3.3651">
        <ele>674.88667129484</ele>
        <time>2015-05-30T13:52:34Z</time>
      </trkpt>
      <trkpt lat="43.7896" lon="3.36508">
        <ele>676.62131787192</ele>
        <time>2015-05-30T13:52:53Z</time>
      </trkpt>
      <trkpt lat="43.78961" lon="3.36508">
        <ele>676.62131787192</ele>
        <time>2015-05-30T13:53:00Z</time>
      </trkpt>
      <trkpt lat="43.78982" lon="3.36507">
        <ele>678.68228096528</ele>
        <time>2015-05-30T13:53:12Z</time>
      </trkpt>
      <trkpt lat="43.78985" lon="3.36506">
        <ele>678.68228096528</ele>
        <time>2015-05-30T13:53:17Z</time>
      </trkpt>
      <trkpt lat="43.78991" lon="3.36507">
        <ele>680.67919405272</ele>
        <time>2015-05-30T13:53:25Z</time>
      </trkpt>
      <trkpt lat="43.79004" lon="3.36509">
        <ele>682.76945728371</ele>
        <time>2015-05-30T13:53:30Z</time>
      </trkpt>
      <trkpt lat="43.79017" lon="3.36512">
        <ele>684.89701079203</ele>
        <time>2015-05-30T13:53:41Z</time>
      </trkpt>
      <trkpt lat="43.79041" lon="3.36514">
        <ele>686.85141445734</ele>
        <time>2015-05-30T13:54:09Z</time>
      </trkpt>
      <trkpt lat="43.79043" lon="3.36515">
        <ele>686.85141445734</ele>
        <time>2015-05-30T13:54:10Z</time>
      </trkpt>
      <trkpt lat="43.79073" lon="3.36537">
        <ele>689.02916479529</ele>
        <time>2015-05-30T13:55:06Z</time>
      </trkpt>
      <trkpt lat="43.79073" lon="3.36537">
        <ele>689.02916479529</ele>
        <time>2015-05-30T13:55:10Z</time>
      </trkpt>
      <trkpt lat="43.79082" lon="3.36546">
        <ele>691.11982597445</ele>
        <time>2015-05-30T13:55:35Z</time>
      </trkpt>
      <trkpt lat="43.79083" lon="3.36555">
        <ele>691.11982597445</ele>
        <time>2015-05-30T13:55:40Z</time>
      </trkpt>
      <trkpt lat="43.79083" lon="3.36565">
        <ele>692.93703721809</ele>
        <time>2015-05-30T13:55:46Z</time>
      </trkpt>
      <trkpt lat="43.79083" lon="3.36587">
        <ele>694.53962500341</ele>
        <time>2015-05-30T13:56:00Z</time>
      </trkpt>
      <trkpt lat="43.79087" lon="3.36598">
        <ele>695.99726208145</ele>
        <time>2015-05-30T13:56:06Z</time>
      </trkpt>
      <trkpt lat="43.79088" lon="3.366">
        <ele>695.99726208145</ele>
        <time>2015-05-30T13:56:11Z</time>
      </trkpt>
      <trkpt lat="43.79093" lon="3.36618">
        <ele>697.30300847919</ele>
        <time>2015-05-30T13:56:18Z</time>
      </trkpt>
      <trkpt lat="43.79094" lon="3.36624">
        <ele>697.30300847919</ele>
        <time>2015-05-30T13:56:22Z</time>
      </trkpt>
      <trkpt lat="43.79094" lon="3.36627">
        <ele>697.30300847919</ele>
        <time>2015-05-30T13:56:29Z</time>
      </trkpt>
      <trkpt lat="43.79117" lon="3.36701">
        <ele>698.60953491526</ele>
        <time>2015-05-30T13:57:13Z</time>
      </trkpt>
      <trkpt lat="43.79133" lon="3.36727">
        <ele>699.82786624507</ele>
        <time>2015-05-30T13:58:05Z</time>
      </trkpt>
      <trkpt lat="43.79178" lon="3.36761">
        <ele>701.4956348552</ele>
        <time>2015-05-30T13:58:15Z</time>
      </trkpt>
      <trkpt lat="43.79179" lon="3.36762">
        <ele>701.4956348552</ele>
        <time>2015-05-30T13:58:23Z</time>
      </trkpt>
      <trkpt lat="43.79181" lon="3.36766">
        <ele>701.4956348552</ele>
        <time>2015-05-30T13:59:26Z</time>
      </trkpt>
      <trkpt lat="43.79191" lon="3.36787">
        <ele>702.89932672015</ele>
        <time>2015-05-30T14:01:20Z</time>
      </trkpt>
      <trkpt lat="43.79194" lon="3.36787">
        <ele>702.89932672015</ele>
        <time>2015-05-30T14:02:58Z</time>
      </trkpt>
      <trkpt lat="43.79216" lon="3.36808">
        <ele>704.11368847613</ele>
        <time>2015-05-30T14:03:12Z</time>
      </trkpt>
      <trkpt lat="43.79234" lon="3.36812">
        <ele>705.20864148735</ele>
        <time>2015-05-30T14:03:25Z</time>
      </trkpt>
      <trkpt lat="43.7925" lon="3.36808">
        <ele>706.19179080646</ele>
        <time>2015-05-30T14:03:36Z</time>
      </trkpt>
      <trkpt lat="43.79253" lon="3.36807">
        <ele>706.19179080646</ele>
        <time>2015-05-30T14:03:47Z</time>
      </trkpt>
      <trkpt lat="43.79267" lon="3.36813">
        <ele>707.41648721009</ele>
        <time>2015-05-30T14:03:56Z</time>
      </trkpt>
      <trkpt lat="43.79276" lon="3.36812">
        <ele>708.9213430583</ele>
        <time>2015-05-30T14:04:00Z</time>
      </trkpt>
      <trkpt lat="43.79276" lon="3.36811">
        <ele>708.9213430583</ele>
        <time>2015-05-30T14:04:05Z</time>
      </trkpt>
      <trkpt lat="43.7928" lon="3.36812">
        <ele>708.9213430583</ele>
        <time>2015-05-30T14:04:15Z</time>
      </trkpt>
      <trkpt lat="43.79284" lon="3.36812">
        <ele>708.9213430583</ele>
        <time>2015-05-30T14:04:20Z</time>
      </trkpt>
      <trkpt lat="43.79289" lon="3.36814">
        <ele>710.33795045785</ele>
        <time>2015-05-30T14:04:25Z</time>
      </trkpt>
      <trkpt lat="43.79295" lon="3.36815">
        <ele>710.33795045785</ele>
        <time>2015-05-30T14:04:30Z</time>
      </trkpt>
      <trkpt lat="43.79302" lon="3.36818">
        <ele>711.59913218487</ele>
        <time>2015-05-30T14:04:35Z</time>
      </trkpt>
      <trkpt lat="43.79308" lon="3.36819">
        <ele>711.59913218487</ele>
        <time>2015-05-30T14:04:40Z</time>
      </trkpt>
      <trkpt lat="43.79307" lon="3.36819">
        <ele>711.59913218487</ele>
        <time>2015-05-30T14:04:51Z</time>
      </trkpt>
      <trkpt lat="43.79309" lon="3.36823">
        <ele>712.77288658051</ele>
        <time>2015-05-30T14:05:03Z</time>
      </trkpt>
      <trkpt lat="43.79311" lon="3.36824">
        <ele>712.77288658051</ele>
        <time>2015-05-30T14:05:11Z</time>
      </trkpt>
      <trkpt lat="43.79324" lon="3.36831">
        <ele>713.64875070007</ele>
        <time>2015-05-30T14:05:19Z</time>
      </trkpt>
      <trkpt lat="43.79329" lon="3.36835">
        <ele>713.64875070007</ele>
        <time>2015-05-30T14:05:23Z</time>
      </trkpt>
      <trkpt lat="43.79333" lon="3.36839">
        <ele>714.33528481482</ele>
        <time>2015-05-30T14:05:25Z</time>
      </trkpt>
      <trkpt lat="43.79338" lon="3.36851">
        <ele>714.83281377354</ele>
        <time>2015-05-30T14:05:34Z</time>
      </trkpt>
      <trkpt lat="43.79339" lon="3.36852">
        <ele>714.83281377354</ele>
        <time>2015-05-30T14:05:35Z</time>
      </trkpt>
      <trkpt lat="43.79342" lon="3.3686">
        <ele>714.83281377354</ele>
        <time>2015-05-30T14:05:40Z</time>
      </trkpt>
      <trkpt lat="43.79344" lon="3.36868">
        <ele>715.35841300772</ele>
        <time>2015-05-30T14:05:45Z</time>
      </trkpt>
      <trkpt lat="43.79347" lon="3.3688">
        <ele>715.70968960592</ele>
        <time>2015-05-30T14:05:52Z</time>
      </trkpt>
      <trkpt lat="43.79362" lon="3.36937">
        <ele>715.64202019109</ele>
        <time>2015-05-30T14:06:25Z</time>
      </trkpt>
      <trkpt lat="43.79427" lon="3.36976">
        <ele>715.65052873886</ele>
        <time>2015-05-30T14:07:27Z</time>
      </trkpt>
      <trkpt lat="43.79431" lon="3.36975">
        <ele>715.65052873886</ele>
        <time>2015-05-30T14:07:30Z</time>
      </trkpt>
      <trkpt lat="43.79458" lon="3.36971">
        <ele>715.77586686921</ele>
        <time>2015-05-30T14:08:04Z</time>
      </trkpt>
      <trkpt lat="43.79468" lon="3.36968">
        <ele>715.75276261817</ele>
        <time>2015-05-30T14:08:26Z</time>
      </trkpt>
      <trkpt lat="43.79473" lon="3.36968">
        <ele>715.75276261817</ele>
        <time>2015-05-30T14:08:38Z</time>
      </trkpt>
      <trkpt lat="43.79485" lon="3.36961">
        <ele>715.63849333843</ele>
        <time>2015-05-30T14:08:41Z</time>
      </trkpt>
      <trkpt lat="43.79497" lon="3.36957">
        <ele>715.42874224125</ele>
        <time>2015-05-30T14:08:59Z</time>
      </trkpt>
      <trkpt lat="43.79515" lon="3.36954">
        <ele>715.22064723049</ele>
        <time>2015-05-30T14:09:14Z</time>
      </trkpt>
      <trkpt lat="43.79547" lon="3.36953">
        <ele>715.36358849197</ele>
        <time>2015-05-30T14:09:37Z</time>
      </trkpt>
      <trkpt lat="43.79559" lon="3.36951">
        <ele>715.61823689229</ele>
        <time>2015-05-30T14:09:43Z</time>
      </trkpt>
      <trkpt lat="43.79585" lon="3.3695">
        <ele>716.28129925328</ele>
        <time>2015-05-30T14:10:00Z</time>
      </trkpt>
      <trkpt lat="43.79621" lon="3.36943">
        <ele>717.03564923012</ele>
        <time>2015-05-30T14:10:27Z</time>
      </trkpt>
      <trkpt lat="43.79625" lon="3.36941">
        <ele>717.03564923012</ele>
        <time>2015-05-30T14:10:30Z</time>
      </trkpt>
      <trkpt lat="43.79655" lon="3.36943">
        <ele>717.90420748009</ele>
        <time>2015-05-30T14:10:57Z</time>
      </trkpt>
      <trkpt lat="43.79669" lon="3.36942">
        <ele>718.69168616145</ele>
        <time>2015-05-30T14:11:13Z</time>
      </trkpt>
      <trkpt lat="43.79688" lon="3.36937">
        <ele>719.0876330223</ele>
        <time>2015-05-30T14:11:20Z</time>
      </trkpt>
      <trkpt lat="43.79697" lon="3.36934">
        <ele>719.0876330223</ele>
        <time>2015-05-30T14:11:28Z</time>
      </trkpt>
      <trkpt lat="43.79699" lon="3.36932">
        <ele>719.35308432425</ele>
        <time>2015-05-30T14:11:30Z</time>
      </trkpt>
      <trkpt lat="43.79702" lon="3.3693">
        <ele>719.35308432425</ele>
        <time>2015-05-30T14:11:35Z</time>
      </trkpt>
      <trkpt lat="43.79703" lon="3.3693">
        <ele>719.35308432425</ele>
        <time>2015-05-30T14:11:40Z</time>
      </trkpt>
      <trkpt lat="43.79707" lon="3.36926">
        <ele>719.7302278875</ele>
        <time>2015-05-30T14:11:45Z</time>
      </trkpt>
      <trkpt lat="43.79713" lon="3.36925">
        <ele>719.7302278875</ele>
        <time>2015-05-30T14:11:50Z</time>
      </trkpt>
      <trkpt lat="43.79719" lon="3.36923">
        <ele>720.06841733621</ele>
        <time>2015-05-30T14:11:55Z</time>
      </trkpt>
      <trkpt lat="43.79726" lon="3.36921">
        <ele>720.06841733621</ele>
        <time>2015-05-30T14:12:00Z</time>
      </trkpt>
      <trkpt lat="43.79735" lon="3.36916">
        <ele>720.28578311047</ele>
        <time>2015-05-30T14:12:05Z</time>
      </trkpt>
      <trkpt lat="43.79741" lon="3.36909">
        <ele>720.28578311047</ele>
        <time>2015-05-30T14:12:10Z</time>
      </trkpt>
      <trkpt lat="43.79742" lon="3.36911">
        <ele>720.34999610511</ele>
        <time>2015-05-30T14:12:15Z</time>
      </trkpt>
      <trkpt lat="43.79742" lon="3.36917">
        <ele>720.34999610511</ele>
        <time>2015-05-30T14:12:20Z</time>
      </trkpt>
      <trkpt lat="43.79742" lon="3.3692">
        <ele>720.34999610511</ele>
        <time>2015-05-30T14:12:25Z</time>
      </trkpt>
      <trkpt lat="43.7974" lon="3.36917">
        <ele>720.34999610511</ele>
        <time>2015-05-30T14:12:30Z</time>
      </trkpt>
      <trkpt lat="43.79742" lon="3.36905">
        <ele>720.20266054826</ele>
        <time>2015-05-30T14:12:35Z</time>
      </trkpt>
      <trkpt lat="43.79748" lon="3.36902">
        <ele>720.20266054826</ele>
        <time>2015-05-30T14:12:40Z</time>
      </trkpt>
      <trkpt lat="43.79752" lon="3.36898">
        <ele>719.9631446009</ele>
        <time>2015-05-30T14:12:45Z</time>
      </trkpt>
      <trkpt lat="43.79755" lon="3.36891">
        <ele>719.9631446009</ele>
        <time>2015-05-30T14:12:50Z</time>
      </trkpt>
      <trkpt lat="43.79758" lon="3.3688">
        <ele>719.65578256207</ele>
        <time>2015-05-30T14:12:55Z</time>
      </trkpt>
      <trkpt lat="43.79761" lon="3.3687">
        <ele>719.65578256207</ele>
        <time>2015-05-30T14:13:00Z</time>
      </trkpt>
      <trkpt lat="43.79763" lon="3.36861">
        <ele>719.2888384146</ele>
        <time>2015-05-30T14:13:05Z</time>
      </trkpt>
      <trkpt lat="43.79764" lon="3.36854">
        <ele>719.2888384146</ele>
        <time>2015-05-30T14:13:10Z</time>
      </trkpt>
      <trkpt lat="43.79767" lon="3.36846">
        <ele>718.85565800957</ele>
        <time>2015-05-30T14:13:15Z</time>
      </trkpt>
      <trkpt lat="43.79769" lon="3.36839">
        <ele>718.85565800957</ele>
        <time>2015-05-30T14:13:20Z</time>
      </trkpt>
      <trkpt lat="43.79772" lon="3.36832">
        <ele>718.3934230016</ele>
        <time>2015-05-30T14:13:25Z</time>
      </trkpt>
      <trkpt lat="43.79768" lon="3.36822">
        <ele>718.3934230016</ele>
        <time>2015-05-30T14:13:30Z</time>
      </trkpt>
      <trkpt lat="43.79767" lon="3.36813">
        <ele>718.00864390277</ele>
        <time>2015-05-30T14:13:35Z</time>
      </trkpt>
      <trkpt lat="43.79769" lon="3.36806">
        <ele>718.00864390277</ele>
        <time>2015-05-30T14:13:40Z</time>
      </trkpt>
      <trkpt lat="43.79773" lon="3.368">
        <ele>717.59795287309</ele>
        <time>2015-05-30T14:13:45Z</time>
      </trkpt>
      <trkpt lat="43.7978" lon="3.36792">
        <ele>717.22408542947</ele>
        <time>2015-05-30T14:13:50Z</time>
      </trkpt>
      <trkpt lat="43.79784" lon="3.36783">
        <ele>717.22408542947</ele>
        <time>2015-05-30T14:13:55Z</time>
      </trkpt>
      <trkpt lat="43.79789" lon="3.36776">
        <ele>716.88733284113</ele>
        <time>2015-05-30T14:14:00Z</time>
      </trkpt>
      <trkpt lat="43.79797" lon="3.36772">
        <ele>716.88733284113</ele>
        <time>2015-05-30T14:14:07Z</time>
      </trkpt>
      <trkpt lat="43.79803" lon="3.36769">
        <ele>716.68864861984</ele>
        <time>2015-05-30T14:14:10Z</time>
      </trkpt>
      <trkpt lat="43.79825" lon="3.36752">
        <ele>717.15342620142</ele>
        <time>2015-05-30T14:14:30Z</time>
      </trkpt>
      <trkpt lat="43.7983" lon="3.3675">
        <ele>717.15342620142</ele>
        <time>2015-05-30T14:14:43Z</time>
      </trkpt>
      <trkpt lat="43.79831" lon="3.36749">
        <ele>717.15342620142</ele>
        <time>2015-05-30T14:15:09Z</time>
      </trkpt>
      <trkpt lat="43.79893" lon="3.36727">
        <ele>718.39182614665</ele>
        <time>2015-05-30T14:15:28Z</time>
      </trkpt>
      <trkpt lat="43.79895" lon="3.36727">
        <ele>718.39182614665</ele>
        <time>2015-05-30T14:15:30Z</time>
      </trkpt>
      <trkpt lat="43.799" lon="3.36724">
        <ele>718.39182614665</ele>
        <time>2015-05-30T14:15:42Z</time>
      </trkpt>
      <trkpt lat="43.79912" lon="3.36719">
        <ele>719.53811943841</ele>
        <time>2015-05-30T14:15:50Z</time>
      </trkpt>
      <trkpt lat="43.79931" lon="3.36719">
        <ele>720.1362232124</ele>
        <time>2015-05-30T14:16:00Z</time>
      </trkpt>
      <trkpt lat="43.79936" lon="3.36719">
        <ele>720.1362232124</ele>
        <time>2015-05-30T14:16:07Z</time>
      </trkpt>
      <trkpt lat="43.79942" lon="3.36722">
        <ele>720.96115252597</ele>
        <time>2015-05-30T14:16:25Z</time>
      </trkpt>
      <trkpt lat="43.79946" lon="3.36728">
        <ele>720.96115252597</ele>
        <time>2015-05-30T14:16:31Z</time>
      </trkpt>
      <trkpt lat="43.79947" lon="3.36729">
        <ele>720.96115252597</ele>
        <time>2015-05-30T14:16:35Z</time>
      </trkpt>
      <trkpt lat="43.79949" lon="3.36729">
        <ele>721.62063990848</ele>
        <time>2015-05-30T14:16:41Z</time>
      </trkpt>
      <trkpt lat="43.79951" lon="3.36729">
        <ele>721.62063990848</ele>
        <time>2015-05-30T14:16:45Z</time>
      </trkpt>
      <trkpt lat="43.79953" lon="3.36734">
        <ele>721.62063990848</ele>
        <time>2015-05-30T14:16:54Z</time>
      </trkpt>
      <trkpt lat="43.79958" lon="3.3674">
        <ele>722.12633509892</ele>
        <time>2015-05-30T14:16:55Z</time>
      </trkpt>
      <trkpt lat="43.7997" lon="3.36752">
        <ele>722.50382794183</ele>
        <time>2015-05-30T14:17:07Z</time>
      </trkpt>
      <trkpt lat="43.79974" lon="3.36757">
        <ele>722.50382794183</ele>
        <time>2015-05-30T14:17:19Z</time>
      </trkpt>
      <trkpt lat="43.79996" lon="3.36782">
        <ele>722.70508982468</ele>
        <time>2015-05-30T14:17:32Z</time>
      </trkpt>
      <trkpt lat="43.79998" lon="3.36785">
        <ele>722.70508982468</ele>
        <time>2015-05-30T14:17:41Z</time>
      </trkpt>
      <trkpt lat="43.80012" lon="3.36787">
        <ele>722.80136346719</ele>
        <time>2015-05-30T14:17:53Z</time>
      </trkpt>
      <trkpt lat="43.80032" lon="3.36792">
        <ele>722.68598028899</ele>
        <time>2015-05-30T14:18:19Z</time>
      </trkpt>
      <trkpt lat="43.80069" lon="3.36817">
        <ele>722.36153992241</ele>
        <time>2015-05-30T14:18:32Z</time>
      </trkpt>
      <trkpt lat="43.80072" lon="3.36821">
        <ele>722.36153992241</ele>
        <time>2015-05-30T14:18:43Z</time>
      </trkpt>
      <trkpt lat="43.80092" lon="3.36827">
        <ele>722.01834157774</ele>
        <time>2015-05-30T14:19:30Z</time>
      </trkpt>
      <trkpt lat="43.80117" lon="3.36811">
        <ele>721.51567047268</ele>
        <time>2015-05-30T14:19:35Z</time>
      </trkpt>
      <trkpt lat="43.80122" lon="3.36805">
        <ele>721.51567047268</ele>
        <time>2015-05-30T14:19:40Z</time>
      </trkpt>
      <trkpt lat="43.80126" lon="3.36798">
        <ele>721.04059486236</ele>
        <time>2015-05-30T14:19:45Z</time>
      </trkpt>
      <trkpt lat="43.80133" lon="3.36785">
        <ele>720.62220368207</ele>
        <time>2015-05-30T14:19:59Z</time>
      </trkpt>
      <trkpt lat="43.80172" lon="3.36728">
        <ele>720.17194926957</ele>
        <time>2015-05-30T14:20:36Z</time>
      </trkpt>
      <trkpt lat="43.80183" lon="3.36626">
        <ele>719.8960461721</ele>
        <time>2015-05-30T14:21:37Z</time>
      </trkpt>
      <trkpt lat="43.80184" lon="3.36621">
        <ele>719.8960461721</ele>
        <time>2015-05-30T14:21:48Z</time>
      </trkpt>
      <trkpt lat="43.80215" lon="3.36529">
        <ele>720.24441673437</ele>
        <time>2015-05-30T14:22:40Z</time>
      </trkpt>
      <trkpt lat="43.80203" lon="3.36494">
        <ele>720.79628258644</ele>
        <time>2015-05-30T14:23:20Z</time>
      </trkpt>
      <trkpt lat="43.80186" lon="3.36483">
        <ele>721.69436598358</ele>
        <time>2015-05-30T14:23:25Z</time>
      </trkpt>
      <trkpt lat="43.8018" lon="3.36478">
        <ele>721.69436598358</ele>
        <time>2015-05-30T14:23:30Z</time>
      </trkpt>
      <trkpt lat="43.80175" lon="3.36474">
        <ele>722.47903362996</ele>
        <time>2015-05-30T14:23:35Z</time>
      </trkpt>
      <trkpt lat="43.80169" lon="3.36469">
        <ele>722.47903362996</ele>
        <time>2015-05-30T14:23:40Z</time>
      </trkpt>
      <trkpt lat="43.80165" lon="3.36464">
        <ele>722.88321941078</ele>
        <time>2015-05-30T14:23:45Z</time>
      </trkpt>
      <trkpt lat="43.8016" lon="3.36459">
        <ele>722.88321941078</ele>
        <time>2015-05-30T14:23:50Z</time>
      </trkpt>
      <trkpt lat="43.80155" lon="3.36453">
        <ele>722.90550016554</ele>
        <time>2015-05-30T14:23:55Z</time>
      </trkpt>
      <trkpt lat="43.80151" lon="3.36447">
        <ele>722.90550016554</ele>
        <time>2015-05-30T14:24:00Z</time>
      </trkpt>
      <trkpt lat="43.80147" lon="3.3644">
        <ele>722.61765611966</ele>
        <time>2015-05-30T14:24:05Z</time>
      </trkpt>
      <trkpt lat="43.80145" lon="3.36435">
        <ele>722.61765611966</ele>
        <time>2015-05-30T14:24:10Z</time>
      </trkpt>
      <trkpt lat="43.80131" lon="3.36414">
        <ele>722.14468209781</ele>
        <time>2015-05-30T14:24:25Z</time>
      </trkpt>
      <trkpt lat="43.8012" lon="3.36396">
        <ele>721.41553733484</ele>
        <time>2015-05-30T14:24:37Z</time>
      </trkpt>
      <trkpt lat="43.80118" lon="3.3639">
        <ele>721.41553733484</ele>
        <time>2015-05-30T14:24:40Z</time>
      </trkpt>
      <trkpt lat="43.80115" lon="3.36382">
        <ele>720.66772024805</ele>
        <time>2015-05-30T14:24:51Z</time>
      </trkpt>
      <trkpt lat="43.80109" lon="3.36325">
        <ele>719.90513270131</ele>
        <time>2015-05-30T14:25:15Z</time>
      </trkpt>
      <trkpt lat="43.80109" lon="3.36317">
        <ele>719.90513270131</ele>
        <time>2015-05-30T14:25:20Z</time>
      </trkpt>
      <trkpt lat="43.80107" lon="3.3631">
        <ele>719.56372533602</ele>
        <time>2015-05-30T14:25:25Z</time>
      </trkpt>
      <trkpt lat="43.80105" lon="3.36306">
        <ele>719.56372533602</ele>
        <time>2015-05-30T14:25:30Z</time>
      </trkpt>
      <trkpt lat="43.80095" lon="3.36292">
        <ele>719.31123298145</ele>
        <time>2015-05-30T14:25:39Z</time>
      </trkpt>
      <trkpt lat="43.80095" lon="3.3629">
        <ele>719.31123298145</ele>
        <time>2015-05-30T14:25:40Z</time>
      </trkpt>
      <trkpt lat="43.80091" lon="3.36284">
        <ele>719.31123298145</ele>
        <time>2015-05-30T14:25:45Z</time>
      </trkpt>
      <trkpt lat="43.80083" lon="3.3627">
        <ele>718.8539153247</ele>
        <time>2015-05-30T14:25:55Z</time>
      </trkpt>
      <trkpt lat="43.80079" lon="3.36263">
        <ele>718.8539153247</ele>
        <time>2015-05-30T14:26:03Z</time>
      </trkpt>
      <trkpt lat="43.80077" lon="3.36257">
        <ele>718.28041637298</ele>
        <time>2015-05-30T14:26:06Z</time>
      </trkpt>
      <trkpt lat="43.80064" lon="3.36229">
        <ele>717.55785800783</ele>
        <time>2015-05-30T14:26:26Z</time>
      </trkpt>
      <trkpt lat="43.8006" lon="3.36224">
        <ele>717.55785800783</ele>
        <time>2015-05-30T14:26:37Z</time>
      </trkpt>
      <trkpt lat="43.80058" lon="3.36225">
        <ele>717.55785800783</ele>
        <time>2015-05-30T14:26:37Z</time>
      </trkpt>
      <trkpt lat="43.80054" lon="3.36215">
        <ele>716.80025751242</ele>
        <time>2015-05-30T14:26:40Z</time>
      </trkpt>
      <trkpt lat="43.80034" lon="3.36172">
        <ele>716.01242550334</ele>
        <time>2015-05-30T14:27:04Z</time>
      </trkpt>
      <trkpt lat="43.80033" lon="3.36169">
        <ele>716.01242550334</ele>
        <time>2015-05-30T14:27:09Z</time>
      </trkpt>
      <trkpt lat="43.80032" lon="3.3616">
        <ele>715.25649441834</ele>
        <time>2015-05-30T14:27:14Z</time>
      </trkpt>
      <trkpt lat="43.80027" lon="3.36154">
        <ele>715.25649441834</ele>
        <time>2015-05-30T14:27:15Z</time>
      </trkpt>
      <trkpt lat="43.80017" lon="3.36134">
        <ele>714.41695288672</ele>
        <time>2015-05-30T14:27:30Z</time>
      </trkpt>
      <trkpt lat="43.80017" lon="3.36132">
        <ele>714.41695288672</ele>
        <time>2015-05-30T14:27:30Z</time>
      </trkpt>
      <trkpt lat="43.80012" lon="3.3612">
        <ele>713.5887060171</ele>
        <time>2015-05-30T14:27:39Z</time>
      </trkpt>
      <trkpt lat="43.80011" lon="3.3612">
        <ele>713.5887060171</ele>
        <time>2015-05-30T14:27:41Z</time>
      </trkpt>
      <trkpt lat="43.80007" lon="3.36114">
        <ele>713.5887060171</ele>
        <time>2015-05-30T14:27:45Z</time>
      </trkpt>
      <trkpt lat="43.80007" lon="3.36114">
        <ele>713.5887060171</ele>
        <time>2015-05-30T14:27:50Z</time>
      </trkpt>
      <trkpt lat="43.80004" lon="3.36104">
        <ele>712.62901619078</ele>
        <time>2015-05-30T14:27:55Z</time>
      </trkpt>
      <trkpt lat="43.80001" lon="3.36087">
        <ele>711.80944764737</ele>
        <time>2015-05-30T14:28:21Z</time>
      </trkpt>
      <trkpt lat="43.79996" lon="3.36083">
        <ele>711.80944764737</ele>
        <time>2015-05-30T14:28:35Z</time>
      </trkpt>
      <trkpt lat="43.79995" lon="3.36077">
        <ele>711.2514575478</ele>
        <time>2015-05-30T14:28:41Z</time>
      </trkpt>
      <trkpt lat="43.79995" lon="3.36069">
        <ele>711.2514575478</ele>
        <time>2015-05-30T14:28:54Z</time>
      </trkpt>
      <trkpt lat="43.79976" lon="3.36023">
        <ele>710.92267057699</ele>
        <time>2015-05-30T14:29:12Z</time>
      </trkpt>
      <trkpt lat="43.79961" lon="3.35993">
        <ele>710.8788494058</ele>
        <time>2015-05-30T14:29:36Z</time>
      </trkpt>
      <trkpt lat="43.79959" lon="3.35986">
        <ele>710.8788494058</ele>
        <time>2015-05-30T14:29:44Z</time>
      </trkpt>
      <trkpt lat="43.79949" lon="3.35968">
        <ele>710.98345572512</ele>
        <time>2015-05-30T14:29:52Z</time>
      </trkpt>
      <trkpt lat="43.79944" lon="3.3596">
        <ele>710.98345572512</ele>
        <time>2015-05-30T14:30:00Z</time>
      </trkpt>
      <trkpt lat="43.79923" lon="3.35924">
        <ele>711.71477687838</ele>
        <time>2015-05-30T14:30:26Z</time>
      </trkpt>
      <trkpt lat="43.79936" lon="3.35925">
        <ele>712.43332633659</ele>
        <time>2015-05-30T14:30:38Z</time>
      </trkpt>
      <trkpt lat="43.79937" lon="3.35926">
        <ele>712.43332633659</ele>
        <time>2015-05-30T14:30:43Z</time>
      </trkpt>
      <trkpt lat="43.79942" lon="3.3593">
        <ele>712.43332633659</ele>
        <time>2015-05-30T14:30:46Z</time>
      </trkpt>
      <trkpt lat="43.79948" lon="3.3593">
        <ele>713.13744727554</ele>
        <time>2015-05-30T14:30:50Z</time>
      </trkpt>
      <trkpt lat="43.79946" lon="3.35929">
        <ele>713.13744727554</ele>
        <time>2015-05-30T14:31:40Z</time>
      </trkpt>
      <trkpt lat="43.7997" lon="3.35933">
        <ele>713.17711535498</ele>
        <time>2015-05-30T14:32:34Z</time>
      </trkpt>
      <trkpt lat="43.7997" lon="3.35933">
        <ele>713.17711535498</ele>
        <time>2015-05-30T14:32:35Z</time>
      </trkpt>
      <trkpt lat="43.79975" lon="3.35933">
        <ele>713.17711535498</ele>
        <time>2015-05-30T14:32:48Z</time>
      </trkpt>
      <trkpt lat="43.80022" lon="3.3594">
        <ele>713.30654438037</ele>
        <time>2015-05-30T14:33:17Z</time>
      </trkpt>
      <trkpt lat="43.8003" lon="3.35941">
        <ele>713.30654438037</ele>
        <time>2015-05-30T14:33:20Z</time>
      </trkpt>
      <trkpt lat="43.80035" lon="3.35942">
        <ele>713.54695513082</ele>
        <time>2015-05-30T14:33:30Z</time>
      </trkpt>
      <trkpt lat="43.80054" lon="3.3594">
        <ele>713.87445545842</ele>
        <time>2015-05-30T14:33:38Z</time>
      </trkpt>
      <trkpt lat="43.80057" lon="3.3594">
        <ele>713.87445545842</ele>
        <time>2015-05-30T14:33:42Z</time>
      </trkpt>
      <trkpt lat="43.80064" lon="3.35938">
        <ele>714.35312610367</ele>
        <time>2015-05-30T14:33:50Z</time>
      </trkpt>
      <trkpt lat="43.80067" lon="3.35936">
        <ele>714.35312610367</ele>
        <time>2015-05-30T14:33:52Z</time>
      </trkpt>
      <trkpt lat="43.8008" lon="3.35933">
        <ele>715.20043986479</ele>
        <time>2015-05-30T14:34:05Z</time>
      </trkpt>
      <trkpt lat="43.80131" lon="3.35909">
        <ele>716.14130093504</ele>
        <time>2015-05-30T14:34:38Z</time>
      </trkpt>
      <trkpt lat="43.80132" lon="3.35909">
        <ele>716.14130093504</ele>
        <time>2015-05-30T14:34:40Z</time>
      </trkpt>
      <trkpt lat="43.80141" lon="3.35898">
        <ele>716.60352928835</ele>
        <time>2015-05-30T14:34:45Z</time>
      </trkpt>
      <trkpt lat="43.80149" lon="3.35893">
        <ele>716.9085961435</ele>
        <time>2015-05-30T14:34:50Z</time>
      </trkpt>
      <trkpt lat="43.8016" lon="3.35892">
        <ele>716.99454606992</ele>
        <time>2015-05-30T14:34:59Z</time>
      </trkpt>
      <trkpt lat="43.80164" lon="3.3589">
        <ele>716.99454606992</ele>
        <time>2015-05-30T14:35:08Z</time>
      </trkpt>
      <trkpt lat="43.8018" lon="3.3589">
        <ele>716.63168375555</ele>
        <time>2015-05-30T14:35:10Z</time>
      </trkpt>
      <trkpt lat="43.80195" lon="3.35889">
        <ele>716.22815167601</ele>
        <time>2015-05-30T14:35:23Z</time>
      </trkpt>
      <trkpt lat="43.80198" lon="3.35889">
        <ele>716.22815167601</ele>
        <time>2015-05-30T14:35:25Z</time>
      </trkpt>
      <trkpt lat="43.80208" lon="3.35885">
        <ele>715.93167236915</ele>
        <time>2015-05-30T14:35:35Z</time>
      </trkpt>
      <trkpt lat="43.80211" lon="3.35885">
        <ele>715.93167236915</ele>
        <time>2015-05-30T14:35:47Z</time>
      </trkpt>
      <trkpt lat="43.80214" lon="3.35885">
        <ele>715.93167236915</ele>
        <time>2015-05-30T14:35:48Z</time>
      </trkpt>
      <trkpt lat="43.80279" lon="3.35879">
        <ele>715.64826157297</ele>
        <time>2015-05-30T14:36:40Z</time>
      </trkpt>
      <trkpt lat="43.8029" lon="3.35873">
        <ele>715.29082219131</ele>
        <time>2015-05-30T14:36:48Z</time>
      </trkpt>
      <trkpt lat="43.80292" lon="3.35872">
        <ele>715.29082219131</ele>
        <time>2015-05-30T14:36:50Z</time>
      </trkpt>
      <trkpt lat="43.80297" lon="3.3587">
        <ele>715.29082219131</ele>
        <time>2015-05-30T14:36:55Z</time>
      </trkpt>
      <trkpt lat="43.80305" lon="3.35867">
        <ele>714.86534635692</ele>
        <time>2015-05-30T14:37:00Z</time>
      </trkpt>
      <trkpt lat="43.80311" lon="3.35864">
        <ele>714.86534635692</ele>
        <time>2015-05-30T14:37:05Z</time>
      </trkpt>
      <trkpt lat="43.80311" lon="3.35862">
        <ele>714.86534635692</ele>
        <time>2015-05-30T14:37:10Z</time>
      </trkpt>
      <trkpt lat="43.8031" lon="3.35858">
        <ele>714.13260119107</ele>
        <time>2015-05-30T14:37:55Z</time>
      </trkpt>
      <trkpt lat="43.80319" lon="3.35851">
        <ele>713.41942153181</ele>
        <time>2015-05-30T14:38:02Z</time>
      </trkpt>
      <trkpt lat="43.80322" lon="3.35848">
        <ele>713.41942153181</ele>
        <time>2015-05-30T14:38:05Z</time>
      </trkpt>
      <trkpt lat="43.80328" lon="3.35841">
        <ele>712.75477203411</ele>
        <time>2015-05-30T14:38:10Z</time>
      </trkpt>
      <trkpt lat="43.80343" lon="3.35789">
        <ele>712.16535396958</ele>
        <time>2015-05-30T14:38:42Z</time>
      </trkpt>
      <trkpt lat="43.80347" lon="3.3578">
        <ele>712.16535396958</ele>
        <time>2015-05-30T14:38:48Z</time>
      </trkpt>
      <trkpt lat="43.8035" lon="3.35777">
        <ele>711.83421495625</ele>
        <time>2015-05-30T14:38:50Z</time>
      </trkpt>
      <trkpt lat="43.80352" lon="3.3577">
        <ele>711.83421495625</ele>
        <time>2015-05-30T14:38:55Z</time>
      </trkpt>
      <trkpt lat="43.80353" lon="3.35763">
        <ele>711.72846983908</ele>
        <time>2015-05-30T14:39:00Z</time>
      </trkpt>
      <trkpt lat="43.80355" lon="3.35754">
        <ele>711.72846983908</ele>
        <time>2015-05-30T14:39:05Z</time>
      </trkpt>
      <trkpt lat="43.80357" lon="3.35744">
        <ele>711.81700988349</ele>
        <time>2015-05-30T14:39:10Z</time>
      </trkpt>
      <trkpt lat="43.8036" lon="3.35736">
        <ele>711.81700988349</ele>
        <time>2015-05-30T14:39:15Z</time>
      </trkpt>
      <trkpt lat="43.80363" lon="3.35731">
        <ele>712.05604914587</ele>
        <time>2015-05-30T14:39:20Z</time>
      </trkpt>
      <trkpt lat="43.80369" lon="3.35724">
        <ele>712.05604914587</ele>
        <time>2015-05-30T14:39:25Z</time>
      </trkpt>
      <trkpt lat="43.80373" lon="3.35719">
        <ele>712.20283596869</ele>
        <time>2015-05-30T14:39:34Z</time>
      </trkpt>
      <trkpt lat="43.80375" lon="3.35717">
        <ele>712.20283596869</ele>
        <time>2015-05-30T14:39:37Z</time>
      </trkpt>
      <trkpt lat="43.80385" lon="3.35705">
        <ele>712.11917447234</ele>
        <time>2015-05-30T14:39:40Z</time>
      </trkpt>
      <trkpt lat="43.8039" lon="3.35702">
        <ele>712.11917447234</ele>
        <time>2015-05-30T14:39:45Z</time>
      </trkpt>
      <trkpt lat="43.80395" lon="3.357">
        <ele>711.937067021</ele>
        <time>2015-05-30T14:39:50Z</time>
      </trkpt>
      <trkpt lat="43.80422" lon="3.35683">
        <ele>711.98085249384</ele>
        <time>2015-05-30T14:40:15Z</time>
      </trkpt>
      <trkpt lat="43.80427" lon="3.35678">
        <ele>711.98085249384</ele>
        <time>2015-05-30T14:40:20Z</time>
      </trkpt>
      <trkpt lat="43.8043" lon="3.35673">
        <ele>712.20454640459</ele>
        <time>2015-05-30T14:40:25Z</time>
      </trkpt>
      <trkpt lat="43.80437" lon="3.35663">
        <ele>712.65150895744</ele>
        <time>2015-05-30T14:40:30Z</time>
      </trkpt>
      <trkpt lat="43.80444" lon="3.35657">
        <ele>712.65150895744</ele>
        <time>2015-05-30T14:40:40Z</time>
      </trkpt>
      <trkpt lat="43.80452" lon="3.35649">
        <ele>713.5486414525</ele>
        <time>2015-05-30T14:40:45Z</time>
      </trkpt>
      <trkpt lat="43.80458" lon="3.35643">
        <ele>713.5486414525</ele>
        <time>2015-05-30T14:40:50Z</time>
      </trkpt>
      <trkpt lat="43.8046" lon="3.35637">
        <ele>714.57171620384</ele>
        <time>2015-05-30T14:40:55Z</time>
      </trkpt>
      <trkpt lat="43.80464" lon="3.3563">
        <ele>714.57171620384</ele>
        <time>2015-05-30T14:41:03Z</time>
      </trkpt>
      <trkpt lat="43.80467" lon="3.35623">
        <ele>715.67938972064</ele>
        <time>2015-05-30T14:41:05Z</time>
      </trkpt>
      <trkpt lat="43.80487" lon="3.35583">
        <ele>717.13577974707</ele>
        <time>2015-05-30T14:41:30Z</time>
      </trkpt>
      <trkpt lat="43.80487" lon="3.35573">
        <ele>717.13577974707</ele>
        <time>2015-05-30T14:41:37Z</time>
      </trkpt>
      <trkpt lat="43.80486" lon="3.35568">
        <ele>718.75232766966</ele>
        <time>2015-05-30T14:41:40Z</time>
      </trkpt>
      <trkpt lat="43.80485" lon="3.35558">
        <ele>718.75232766966</ele>
        <time>2015-05-30T14:41:45Z</time>
      </trkpt>
      <trkpt lat="43.80486" lon="3.35551">
        <ele>720.39715745596</ele>
        <time>2015-05-30T14:41:52Z</time>
      </trkpt>
      <trkpt lat="43.80487" lon="3.35541">
        <ele>720.39715745596</ele>
        <time>2015-05-30T14:41:55Z</time>
      </trkpt>
      <trkpt lat="43.80489" lon="3.35527">
        <ele>722.0921697165</ele>
        <time>2015-05-30T14:42:00Z</time>
      </trkpt>
      <trkpt lat="43.80493" lon="3.35519">
        <ele>722.0921697165</ele>
        <time>2015-05-30T14:42:05Z</time>
      </trkpt>
      <trkpt lat="43.80495" lon="3.35514">
        <ele>723.54053789709</ele>
        <time>2015-05-30T14:42:10Z</time>
      </trkpt>
      <trkpt lat="43.80496" lon="3.35506">
        <ele>723.54053789709</ele>
        <time>2015-05-30T14:42:15Z</time>
      </trkpt>
      <trkpt lat="43.80497" lon="3.35492">
        <ele>724.756229778</ele>
        <time>2015-05-30T14:42:20Z</time>
      </trkpt>
      <trkpt lat="43.80501" lon="3.35476">
        <ele>725.5655768186</ele>
        <time>2015-05-30T14:42:28Z</time>
      </trkpt>
      <trkpt lat="43.80517" lon="3.35402">
        <ele>725.34773598464</ele>
        <time>2015-05-30T14:43:10Z</time>
      </trkpt>
      <trkpt lat="43.80518" lon="3.35395">
        <ele>725.34773598464</ele>
        <time>2015-05-30T14:43:15Z</time>
      </trkpt>
      <trkpt lat="43.80521" lon="3.35384">
        <ele>724.92831303337</ele>
        <time>2015-05-30T14:43:20Z</time>
      </trkpt>
      <trkpt lat="43.80524" lon="3.35374">
        <ele>724.92831303337</ele>
        <time>2015-05-30T14:43:25Z</time>
      </trkpt>
      <trkpt lat="43.80526" lon="3.35364">
        <ele>724.1650066824</ele>
        <time>2015-05-30T14:43:30Z</time>
      </trkpt>
      <trkpt lat="43.80526" lon="3.35355">
        <ele>724.1650066824</ele>
        <time>2015-05-30T14:43:35Z</time>
      </trkpt>
      <trkpt lat="43.80522" lon="3.35345">
        <ele>723.21522296261</ele>
        <time>2015-05-30T14:43:42Z</time>
      </trkpt>
      <trkpt lat="43.80519" lon="3.35337">
        <ele>723.21522296261</ele>
        <time>2015-05-30T14:43:45Z</time>
      </trkpt>
      <trkpt lat="43.80516" lon="3.35328">
        <ele>722.08127185683</ele>
        <time>2015-05-30T14:43:50Z</time>
      </trkpt>
      <trkpt lat="43.80515" lon="3.35322">
        <ele>722.08127185683</ele>
        <time>2015-05-30T14:43:55Z</time>
      </trkpt>
      <trkpt lat="43.80514" lon="3.35312">
        <ele>720.69379641458</ele>
        <time>2015-05-30T14:44:00Z</time>
      </trkpt>
      <trkpt lat="43.80515" lon="3.35303">
        <ele>720.69379641458</ele>
        <time>2015-05-30T14:44:05Z</time>
      </trkpt>
      <trkpt lat="43.80516" lon="3.35296">
        <ele>719.10456216885</ele>
        <time>2015-05-30T14:44:10Z</time>
      </trkpt>
      <trkpt lat="43.80519" lon="3.35291">
        <ele>719.10456216885</ele>
        <time>2015-05-30T14:44:19Z</time>
      </trkpt>
      <trkpt lat="43.80521" lon="3.35285">
        <ele>719.10456216885</ele>
        <time>2015-05-30T14:44:20Z</time>
      </trkpt>
      <trkpt lat="43.8052" lon="3.35277">
        <ele>717.21799903133</ele>
        <time>2015-05-30T14:44:25Z</time>
      </trkpt>
      <trkpt lat="43.80519" lon="3.35276">
        <ele>717.21799903133</ele>
        <time>2015-05-30T14:44:30Z</time>
      </trkpt>
      <trkpt lat="43.80524" lon="3.35274">
        <ele>717.21799903133</ele>
        <time>2015-05-30T14:44:40Z</time>
      </trkpt>
      <trkpt lat="43.80527" lon="3.35269">
        <ele>715.14814341531</ele>
        <time>2015-05-30T14:44:45Z</time>
      </trkpt>
      <trkpt lat="43.80525" lon="3.35266">
        <ele>715.14814341531</ele>
        <time>2015-05-30T14:44:50Z</time>
      </trkpt>
      <trkpt lat="43.80521" lon="3.35265">
        <ele>715.14814341531</ele>
        <time>2015-05-30T14:45:00Z</time>
      </trkpt>
      <trkpt lat="43.80526" lon="3.35238">
        <ele>713.40466061778</ele>
        <time>2015-05-30T14:45:12Z</time>
      </trkpt>
      <trkpt lat="43.80527" lon="3.35233">
        <ele>713.40466061778</ele>
        <time>2015-05-30T14:45:15Z</time>
      </trkpt>
      <trkpt lat="43.80528" lon="3.35227">
        <ele>713.40466061778</ele>
        <time>2015-05-30T14:45:20Z</time>
      </trkpt>
      <trkpt lat="43.80529" lon="3.35213">
        <ele>712.01208180144</ele>
        <time>2015-05-30T14:45:25Z</time>
      </trkpt>
      <trkpt lat="43.80531" lon="3.35206">
        <ele>712.01208180144</ele>
        <time>2015-05-30T14:45:30Z</time>
      </trkpt>
      <trkpt lat="43.80532" lon="3.352">
        <ele>710.89122700735</ele>
        <time>2015-05-30T14:45:35Z</time>
      </trkpt>
      <trkpt lat="43.80529" lon="3.35194">
        <ele>710.89122700735</ele>
        <time>2015-05-30T14:45:40Z</time>
      </trkpt>
      <trkpt lat="43.8053" lon="3.35191">
        <ele>710.89122700735</ele>
        <time>2015-05-30T14:45:45Z</time>
      </trkpt>
      <trkpt lat="43.80529" lon="3.35183">
        <ele>710.11202536854</ele>
        <time>2015-05-30T14:45:50Z</time>
      </trkpt>
      <trkpt lat="43.8053" lon="3.35177">
        <ele>710.11202536854</ele>
        <time>2015-05-30T14:45:55Z</time>
      </trkpt>
      <trkpt lat="43.8053" lon="3.35172">
        <ele>710.11202536854</ele>
        <time>2015-05-30T14:46:00Z</time>
      </trkpt>
      <trkpt lat="43.80536" lon="3.35171">
        <ele>709.66619290254</ele>
        <time>2015-05-30T14:46:05Z</time>
      </trkpt>
      <trkpt lat="43.80541" lon="3.35168">
        <ele>709.66619290254</ele>
        <time>2015-05-30T14:46:10Z</time>
      </trkpt>
      <trkpt lat="43.80546" lon="3.35163">
        <ele>709.31447610094</ele>
        <time>2015-05-30T14:46:15Z</time>
      </trkpt>
      <trkpt lat="43.80551" lon="3.35157">
        <ele>709.31447610094</ele>
        <time>2015-05-30T14:46:20Z</time>
      </trkpt>
      <trkpt lat="43.80553" lon="3.35149">
        <ele>709.18073445763</ele>
        <time>2015-05-30T14:46:25Z</time>
      </trkpt>
      <trkpt lat="43.80556" lon="3.3514">
        <ele>709.18073445763</ele>
        <time>2015-05-30T14:46:30Z</time>
      </trkpt>
      <trkpt lat="43.80558" lon="3.35132">
        <ele>709.10524265118</ele>
        <time>2015-05-30T14:46:35Z</time>
      </trkpt>
      <trkpt lat="43.80558" lon="3.3513">
        <ele>709.10524265118</ele>
        <time>2015-05-30T14:46:43Z</time>
      </trkpt>
      <trkpt lat="43.80561" lon="3.35119">
        <ele>709.06948488634</ele>
        <time>2015-05-30T14:46:45Z</time>
      </trkpt>
      <trkpt lat="43.80566" lon="3.3511">
        <ele>709.06948488634</ele>
        <time>2015-05-30T14:46:50Z</time>
      </trkpt>
      <trkpt lat="43.8057" lon="3.35102">
        <ele>709.18583764463</ele>
        <time>2015-05-30T14:46:55Z</time>
      </trkpt>
      <trkpt lat="43.80577" lon="3.35096">
        <ele>709.18583764463</ele>
        <time>2015-05-30T14:47:00Z</time>
      </trkpt>
      <trkpt lat="43.8058" lon="3.3509">
        <ele>709.45706611104</ele>
        <time>2015-05-30T14:47:05Z</time>
      </trkpt>
      <trkpt lat="43.80585" lon="3.35082">
        <ele>709.45706611104</ele>
        <time>2015-05-30T14:47:10Z</time>
      </trkpt>
      <trkpt lat="43.80588" lon="3.35075">
        <ele>710.01495204348</ele>
        <time>2015-05-30T14:47:15Z</time>
      </trkpt>
      <trkpt lat="43.80591" lon="3.35068">
        <ele>710.01495204348</ele>
        <time>2015-05-30T14:47:20Z</time>
      </trkpt>
      <trkpt lat="43.80593" lon="3.35061">
        <ele>710.80782010084</ele>
        <time>2015-05-30T14:47:25Z</time>
      </trkpt>
      <trkpt lat="43.80596" lon="3.35054">
        <ele>710.80782010084</ele>
        <time>2015-05-30T14:47:30Z</time>
      </trkpt>
      <trkpt lat="43.80599" lon="3.35047">
        <ele>711.68622314453</ele>
        <time>2015-05-30T14:47:35Z</time>
      </trkpt>
      <trkpt lat="43.80602" lon="3.35039">
        <ele>711.68622314453</ele>
        <time>2015-05-30T14:47:40Z</time>
      </trkpt>
      <trkpt lat="43.80606" lon="3.35033">
        <ele>712.58348613179</ele>
        <time>2015-05-30T14:47:45Z</time>
      </trkpt>
      <trkpt lat="43.80611" lon="3.35028">
        <ele>712.58348613179</ele>
        <time>2015-05-30T14:47:50Z</time>
      </trkpt>
      <trkpt lat="43.80618" lon="3.35024">
        <ele>713.55305567582</ele>
        <time>2015-05-30T14:47:55Z</time>
      </trkpt>
      <trkpt lat="43.80622" lon="3.35019">
        <ele>713.55305567582</ele>
        <time>2015-05-30T14:48:00Z</time>
      </trkpt>
      <trkpt lat="43.80626" lon="3.35013">
        <ele>714.75953594851</ele>
        <time>2015-05-30T14:48:05Z</time>
      </trkpt>
      <trkpt lat="43.80633" lon="3.3501">
        <ele>714.75953594851</ele>
        <time>2015-05-30T14:48:10Z</time>
      </trkpt>
      <trkpt lat="43.80639" lon="3.35006">
        <ele>715.90803747293</ele>
        <time>2015-05-30T14:48:15Z</time>
      </trkpt>
      <trkpt lat="43.80644" lon="3.35002">
        <ele>715.90803747293</ele>
        <time>2015-05-30T14:48:20Z</time>
      </trkpt>
      <trkpt lat="43.8065" lon="3.35">
        <ele>717.04255716054</ele>
        <time>2015-05-30T14:48:25Z</time>
      </trkpt>
      <trkpt lat="43.80655" lon="3.34999">
        <ele>717.04255716054</ele>
        <time>2015-05-30T14:48:30Z</time>
      </trkpt>
      <trkpt lat="43.80661" lon="3.34998">
        <ele>718.10304710941</ele>
        <time>2015-05-30T14:48:35Z</time>
      </trkpt>
      <trkpt lat="43.80668" lon="3.34996">
        <ele>718.10304710941</ele>
        <time>2015-05-30T14:48:40Z</time>
      </trkpt>
      <trkpt lat="43.80674" lon="3.34992">
        <ele>719.10616774135</ele>
        <time>2015-05-30T14:48:45Z</time>
      </trkpt>
      <trkpt lat="43.80678" lon="3.34986">
        <ele>719.10616774135</ele>
        <time>2015-05-30T14:48:50Z</time>
      </trkpt>
      <trkpt lat="43.80678" lon="3.3498">
        <ele>720.11079103477</ele>
        <time>2015-05-30T14:48:55Z</time>
      </trkpt>
      <trkpt lat="43.80673" lon="3.34975">
        <ele>720.11079103477</ele>
        <time>2015-05-30T14:49:00Z</time>
      </trkpt>
      <trkpt lat="43.80668" lon="3.3497">
        <ele>720.98416264017</ele>
        <time>2015-05-30T14:49:05Z</time>
      </trkpt>
      <trkpt lat="43.80664" lon="3.34966">
        <ele>720.98416264017</ele>
        <time>2015-05-30T14:49:10Z</time>
      </trkpt>
      <trkpt lat="43.8066" lon="3.34963">
        <ele>721.8198672389</ele>
        <time>2015-05-30T14:49:21Z</time>
      </trkpt>
      <trkpt lat="43.8064" lon="3.34947">
        <ele>722.56066518899</ele>
        <time>2015-05-30T14:49:35Z</time>
      </trkpt>
      <trkpt lat="43.80635" lon="3.3494">
        <ele>722.56066518899</ele>
        <time>2015-05-30T14:49:40Z</time>
      </trkpt>
      <trkpt lat="43.80631" lon="3.34935">
        <ele>723.32678007739</ele>
        <time>2015-05-30T14:49:45Z</time>
      </trkpt>
      <trkpt lat="43.80626" lon="3.34931">
        <ele>723.32678007739</ele>
        <time>2015-05-30T14:49:50Z</time>
      </trkpt>
      <trkpt lat="43.80623" lon="3.34924">
        <ele>724.14312722893</ele>
        <time>2015-05-30T14:49:55Z</time>
      </trkpt>
      <trkpt lat="43.80621" lon="3.34916">
        <ele>724.14312722893</ele>
        <time>2015-05-30T14:50:00Z</time>
      </trkpt>
      <trkpt lat="43.80617" lon="3.34913">
        <ele>724.85977996851</ele>
        <time>2015-05-30T14:50:05Z</time>
      </trkpt>
      <trkpt lat="43.80613" lon="3.3491">
        <ele>724.85977996851</ele>
        <time>2015-05-30T14:50:10Z</time>
      </trkpt>
      <trkpt lat="43.80604" lon="3.34906">
        <ele>725.59756868663</ele>
        <time>2015-05-30T14:50:15Z</time>
      </trkpt>
      <trkpt lat="43.80599" lon="3.34897">
        <ele>725.59756868663</ele>
        <time>2015-05-30T14:50:20Z</time>
      </trkpt>
      <trkpt lat="43.80598" lon="3.34889">
        <ele>726.43963092912</ele>
        <time>2015-05-30T14:50:25Z</time>
      </trkpt>
      <trkpt lat="43.80598" lon="3.34883">
        <ele>726.43963092912</ele>
        <time>2015-05-30T14:50:30Z</time>
      </trkpt>
      <trkpt lat="43.80599" lon="3.34874">
        <ele>727.34748130031</ele>
        <time>2015-05-30T14:50:35Z</time>
      </trkpt>
      <trkpt lat="43.80599" lon="3.34867">
        <ele>727.34748130031</ele>
        <time>2015-05-30T14:50:40Z</time>
      </trkpt>
      <trkpt lat="43.80597" lon="3.34858">
        <ele>728.32857705967</ele>
        <time>2015-05-30T14:50:45Z</time>
      </trkpt>
      <trkpt lat="43.80599" lon="3.3485">
        <ele>728.32857705967</ele>
        <time>2015-05-30T14:50:50Z</time>
      </trkpt>
      <trkpt lat="43.80604" lon="3.34844">
        <ele>729.28881227147</ele>
        <time>2015-05-30T14:50:55Z</time>
      </trkpt>
      <trkpt lat="43.80608" lon="3.34838">
        <ele>729.28881227147</ele>
        <time>2015-05-30T14:51:00Z</time>
      </trkpt>
      <trkpt lat="43.80611" lon="3.34833">
        <ele>730.2708217348</ele>
        <time>2015-05-30T14:51:05Z</time>
      </trkpt>
      <trkpt lat="43.80611" lon="3.34827">
        <ele>730.2708217348</ele>
        <time>2015-05-30T14:51:14Z</time>
      </trkpt>
      <trkpt lat="43.80621" lon="3.34812">
        <ele>731.1555951939</ele>
        <time>2015-05-30T14:51:20Z</time>
      </trkpt>
      <trkpt lat="43.80629" lon="3.34803">
        <ele>731.94849732515</ele>
        <time>2015-05-30T14:51:30Z</time>
      </trkpt>
      <trkpt lat="43.80632" lon="3.34797">
        <ele>731.94849732515</ele>
        <time>2015-05-30T14:51:35Z</time>
      </trkpt>
      <trkpt lat="43.80636" lon="3.34793">
        <ele>733.14480590834</ele>
        <time>2015-05-30T14:51:40Z</time>
      </trkpt>
      <trkpt lat="43.8064" lon="3.3479">
        <ele>733.14480590834</ele>
        <time>2015-05-30T14:51:45Z</time>
      </trkpt>
      <trkpt lat="43.80648" lon="3.34787">
        <ele>734.19357792523</ele>
        <time>2015-05-30T14:51:50Z</time>
      </trkpt>
      <trkpt lat="43.80652" lon="3.34788">
        <ele>734.19357792523</ele>
        <time>2015-05-30T14:51:55Z</time>
      </trkpt>
      <trkpt lat="43.80657" lon="3.34787">
        <ele>735.06039501182</ele>
        <time>2015-05-30T14:52:00Z</time>
      </trkpt>
      <trkpt lat="43.8066" lon="3.34783">
        <ele>735.06039501182</ele>
        <time>2015-05-30T14:52:05Z</time>
      </trkpt>
      <trkpt lat="43.80662" lon="3.3478">
        <ele>735.06039501182</ele>
        <time>2015-05-30T14:52:15Z</time>
      </trkpt>
      <trkpt lat="43.80672" lon="3.34777">
        <ele>736.0742277568</ele>
        <time>2015-05-30T14:52:39Z</time>
      </trkpt>
      <trkpt lat="43.80672" lon="3.34778">
        <ele>736.0742277568</ele>
        <time>2015-05-30T14:52:40Z</time>
      </trkpt>
      <trkpt lat="43.80676" lon="3.34781">
        <ele>736.0742277568</ele>
        <time>2015-05-30T14:52:48Z</time>
      </trkpt>
      <trkpt lat="43.80676" lon="3.34781">
        <ele>736.0742277568</ele>
        <time>2015-05-30T14:52:50Z</time>
      </trkpt>
      <trkpt lat="43.80677" lon="3.34782">
        <ele>736.0742277568</ele>
        <time>2015-05-30T14:52:55Z</time>
      </trkpt>
      <trkpt lat="43.80684" lon="3.34787">
        <ele>737.17926294184</ele>
        <time>2015-05-30T14:53:15Z</time>
      </trkpt>
      <trkpt lat="43.80688" lon="3.34789">
        <ele>737.17926294184</ele>
        <time>2015-05-30T14:53:20Z</time>
      </trkpt>
      <trkpt lat="43.80692" lon="3.3479">
        <ele>737.17926294184</ele>
        <time>2015-05-30T14:53:25Z</time>
      </trkpt>
      <trkpt lat="43.80698" lon="3.34794">
        <ele>738.39565969227</ele>
        <time>2015-05-30T14:53:31Z</time>
      </trkpt>
      <trkpt lat="43.80702" lon="3.34794">
        <ele>738.39565969227</ele>
        <time>2015-05-30T14:53:35Z</time>
      </trkpt>
      <trkpt lat="43.80706" lon="3.34794">
        <ele>738.39565969227</ele>
        <time>2015-05-30T14:53:40Z</time>
      </trkpt>
      <trkpt lat="43.8071" lon="3.34792">
        <ele>739.66980121807</ele>
        <time>2015-05-30T14:53:45Z</time>
      </trkpt>
      <trkpt lat="43.80715" lon="3.34791">
        <ele>739.66980121807</ele>
        <time>2015-05-30T14:53:50Z</time>
      </trkpt>
      <trkpt lat="43.80719" lon="3.34794">
        <ele>740.98074342517</ele>
        <time>2015-05-30T14:53:55Z</time>
      </trkpt>
      <trkpt lat="43.80724" lon="3.34792">
        <ele>740.98074342517</ele>
        <time>2015-05-30T14:54:00Z</time>
      </trkpt>
      <trkpt lat="43.80731" lon="3.34789">
        <ele>742.35228584939</ele>
        <time>2015-05-30T14:54:05Z</time>
      </trkpt>
      <trkpt lat="43.80738" lon="3.34784">
        <ele>742.35228584939</ele>
        <time>2015-05-30T14:54:10Z</time>
      </trkpt>
      <trkpt lat="43.8074" lon="3.34784">
        <ele>743.66227471392</ele>
        <time>2015-05-30T14:54:15Z</time>
      </trkpt>
      <trkpt lat="43.8074" lon="3.34784">
        <ele>743.66227471392</ele>
        <time>2015-05-30T14:54:20Z</time>
      </trkpt>
      <trkpt lat="43.80747" lon="3.3477">
        <ele>745.15805770999</ele>
        <time>2015-05-30T14:54:50Z</time>
      </trkpt>
      <trkpt lat="43.80768" lon="3.34746">
        <ele>746.99631517876</ele>
        <time>2015-05-30T14:55:50Z</time>
      </trkpt>
      <trkpt lat="43.80776" lon="3.34739">
        <ele>749.14840601545</ele>
        <time>2015-05-30T14:55:55Z</time>
      </trkpt>
      <trkpt lat="43.80777" lon="3.34738">
        <ele>749.14840601545</ele>
        <time>2015-05-30T14:56:00Z</time>
      </trkpt>
      <trkpt lat="43.80778" lon="3.34733">
        <ele>749.14840601545</ele>
        <time>2015-05-30T14:56:05Z</time>
      </trkpt>
      <trkpt lat="43.80779" lon="3.3473">
        <ele>749.14840601545</ele>
        <time>2015-05-30T14:56:10Z</time>
      </trkpt>
      <trkpt lat="43.80787" lon="3.34724">
        <ele>751.81757761395</ele>
        <time>2015-05-30T14:56:15Z</time>
      </trkpt>
      <trkpt lat="43.80791" lon="3.3472">
        <ele>751.81757761395</ele>
        <time>2015-05-30T14:56:20Z</time>
      </trkpt>
      <trkpt lat="43.80792" lon="3.34714">
        <ele>754.58552308886</ele>
        <time>2015-05-30T14:56:25Z</time>
      </trkpt>
      <trkpt lat="43.80795" lon="3.3471">
        <ele>754.58552308886</ele>
        <time>2015-05-30T14:56:30Z</time>
      </trkpt>
      <trkpt lat="43.80799" lon="3.34706">
        <ele>757.33829990475</ele>
        <time>2015-05-30T14:56:35Z</time>
      </trkpt>
      <trkpt lat="43.80802" lon="3.347">
        <ele>757.33829990475</ele>
        <time>2015-05-30T14:56:40Z</time>
      </trkpt>
      <trkpt lat="43.80805" lon="3.34698">
        <ele>757.33829990475</ele>
        <time>2015-05-30T14:56:45Z</time>
      </trkpt>
      <trkpt lat="43.80809" lon="3.34692">
        <ele>760.04254412251</ele>
        <time>2015-05-30T14:56:50Z</time>
      </trkpt>
      <trkpt lat="43.80814" lon="3.34687">
        <ele>760.04254412251</ele>
        <time>2015-05-30T14:56:55Z</time>
      </trkpt>
      <trkpt lat="43.80816" lon="3.3468">
        <ele>762.62436406441</ele>
        <time>2015-05-30T14:57:00Z</time>
      </trkpt>
      <trkpt lat="43.80821" lon="3.34676">
        <ele>762.62436406441</ele>
        <time>2015-05-30T14:57:05Z</time>
      </trkpt>
      <trkpt lat="43.80824" lon="3.34672">
        <ele>765.10223172522</ele>
        <time>2015-05-30T14:57:10Z</time>
      </trkpt>
      <trkpt lat="43.80828" lon="3.3467">
        <ele>765.10223172522</ele>
        <time>2015-05-30T14:57:15Z</time>
      </trkpt>
      <trkpt lat="43.8083" lon="3.34667">
        <ele>765.10223172522</ele>
        <time>2015-05-30T14:57:20Z</time>
      </trkpt>
      <trkpt lat="43.80827" lon="3.34655">
        <ele>767.55132920103</ele>
        <time>2015-05-30T14:57:25Z</time>
      </trkpt>
      <trkpt lat="43.80824" lon="3.34647">
        <ele>767.55132920103</ele>
        <time>2015-05-30T14:57:30Z</time>
      </trkpt>
      <trkpt lat="43.80821" lon="3.34638">
        <ele>769.85418674052</ele>
        <time>2015-05-30T14:57:35Z</time>
      </trkpt>
      <trkpt lat="43.80819" lon="3.3463">
        <ele>769.85418674052</ele>
        <time>2015-05-30T14:57:40Z</time>
      </trkpt>
      <trkpt lat="43.80816" lon="3.34623">
        <ele>771.97456666017</ele>
        <time>2015-05-30T14:57:45Z</time>
      </trkpt>
      <trkpt lat="43.80814" lon="3.34618">
        <ele>771.97456666017</ele>
        <time>2015-05-30T14:57:50Z</time>
      </trkpt>
      <trkpt lat="43.80812" lon="3.34611">
        <ele>773.89395378677</ele>
        <time>2015-05-30T14:57:55Z</time>
      </trkpt>
      <trkpt lat="43.80811" lon="3.34604">
        <ele>773.89395378677</ele>
        <time>2015-05-30T14:58:00Z</time>
      </trkpt>
      <trkpt lat="43.8081" lon="3.34594">
        <ele>775.63912652416</ele>
        <time>2015-05-30T14:58:05Z</time>
      </trkpt>
      <trkpt lat="43.80808" lon="3.34583">
        <ele>775.63912652416</ele>
        <time>2015-05-30T14:58:10Z</time>
      </trkpt>
      <trkpt lat="43.80808" lon="3.34574">
        <ele>777.26434041638</ele>
        <time>2015-05-30T14:58:15Z</time>
      </trkpt>
      <trkpt lat="43.80807" lon="3.34567">
        <ele>777.26434041638</ele>
        <time>2015-05-30T14:58:20Z</time>
      </trkpt>
      <trkpt lat="43.80804" lon="3.3456">
        <ele>778.77709740655</ele>
        <time>2015-05-30T14:58:25Z</time>
      </trkpt>
      <trkpt lat="43.80798" lon="3.34553">
        <ele>778.77709740655</ele>
        <time>2015-05-30T14:58:30Z</time>
      </trkpt>
      <trkpt lat="43.80795" lon="3.34551">
        <ele>780.17037574424</ele>
        <time>2015-05-30T14:58:35Z</time>
      </trkpt>
      <trkpt lat="43.80794" lon="3.3455">
        <ele>780.17037574424</ele>
        <time>2015-05-30T14:58:40Z</time>
      </trkpt>
      <trkpt lat="43.80789" lon="3.34548">
        <ele>780.17037574424</ele>
        <time>2015-05-30T14:59:40Z</time>
      </trkpt>
      <trkpt lat="43.80788" lon="3.34538">
        <ele>781.56782118692</ele>
        <time>2015-05-30T14:59:45Z</time>
      </trkpt>
      <trkpt lat="43.80785" lon="3.34531">
        <ele>781.56782118692</ele>
        <time>2015-05-30T14:59:50Z</time>
      </trkpt>
      <trkpt lat="43.80782" lon="3.34522">
        <ele>782.82469394056</ele>
        <time>2015-05-30T14:59:55Z</time>
      </trkpt>
      <trkpt lat="43.8078" lon="3.34515">
        <ele>782.82469394056</ele>
        <time>2015-05-30T15:00:00Z</time>
      </trkpt>
      <trkpt lat="43.80777" lon="3.34508">
        <ele>783.99472697315</ele>
        <time>2015-05-30T15:00:05Z</time>
      </trkpt>
      <trkpt lat="43.80775" lon="3.34499">
        <ele>783.99472697315</ele>
        <time>2015-05-30T15:00:10Z</time>
      </trkpt>
      <trkpt lat="43.80777" lon="3.34492">
        <ele>785.02716495511</ele>
        <time>2015-05-30T15:00:15Z</time>
      </trkpt>
      <trkpt lat="43.80777" lon="3.34485">
        <ele>785.02716495511</ele>
        <time>2015-05-30T15:00:20Z</time>
      </trkpt>
      <trkpt lat="43.80775" lon="3.34475">
        <ele>785.87545120398</ele>
        <time>2015-05-30T15:00:25Z</time>
      </trkpt>
      <trkpt lat="43.80775" lon="3.34468">
        <ele>785.87545120398</ele>
        <time>2015-05-30T15:00:30Z</time>
      </trkpt>
      <trkpt lat="43.80777" lon="3.34458">
        <ele>786.61232922463</ele>
        <time>2015-05-30T15:00:35Z</time>
      </trkpt>
      <trkpt lat="43.80777" lon="3.34452">
        <ele>786.61232922463</ele>
        <time>2015-05-30T15:00:40Z</time>
      </trkpt>
      <trkpt lat="43.80779" lon="3.34444">
        <ele>787.21910907643</ele>
        <time>2015-05-30T15:00:45Z</time>
      </trkpt>
      <trkpt lat="43.80781" lon="3.34437">
        <ele>787.21910907643</ele>
        <time>2015-05-30T15:00:50Z</time>
      </trkpt>
      <trkpt lat="43.80783" lon="3.34429">
        <ele>787.73653687726</ele>
        <time>2015-05-30T15:00:55Z</time>
      </trkpt>
      <trkpt lat="43.80783" lon="3.34423">
        <ele>787.73653687726</ele>
        <time>2015-05-30T15:01:00Z</time>
      </trkpt>
      <trkpt lat="43.80787" lon="3.3442">
        <ele>787.73653687726</ele>
        <time>2015-05-30T15:01:05Z</time>
      </trkpt>
      <trkpt lat="43.80789" lon="3.34419">
        <ele>788.26030342804</ele>
        <time>2015-05-30T15:01:10Z</time>
      </trkpt>
      <trkpt lat="43.80791" lon="3.34414">
        <ele>788.26030342804</ele>
        <time>2015-05-30T15:01:15Z</time>
      </trkpt>
      <trkpt lat="43.80792" lon="3.34405">
        <ele>788.79261760173</ele>
        <time>2015-05-30T15:01:20Z</time>
      </trkpt>
      <trkpt lat="43.80793" lon="3.34395">
        <ele>788.79261760173</ele>
        <time>2015-05-30T15:01:25Z</time>
      </trkpt>
      <trkpt lat="43.80793" lon="3.34386">
        <ele>789.30670130622</ele>
        <time>2015-05-30T15:01:30Z</time>
      </trkpt>
      <trkpt lat="43.80793" lon="3.34377">
        <ele>789.30670130622</ele>
        <time>2015-05-30T15:01:35Z</time>
      </trkpt>
      <trkpt lat="43.80793" lon="3.3437">
        <ele>789.83545087588</ele>
        <time>2015-05-30T15:01:40Z</time>
      </trkpt>
      <trkpt lat="43.80794" lon="3.34363">
        <ele>789.83545087588</ele>
        <time>2015-05-30T15:01:45Z</time>
      </trkpt>
      <trkpt lat="43.80792" lon="3.34359">
        <ele>789.83545087588</ele>
        <time>2015-05-30T15:01:50Z</time>
      </trkpt>
      <trkpt lat="43.80793" lon="3.34353">
        <ele>790.39489653456</ele>
        <time>2015-05-30T15:01:55Z</time>
      </trkpt>
      <trkpt lat="43.80794" lon="3.34347">
        <ele>790.39489653456</ele>
        <time>2015-05-30T15:02:00Z</time>
      </trkpt>
      <trkpt lat="43.80796" lon="3.34339">
        <ele>790.97097701762</ele>
        <time>2015-05-30T15:02:05Z</time>
      </trkpt>
      <trkpt lat="43.80795" lon="3.34331">
        <ele>790.97097701762</ele>
        <time>2015-05-30T15:02:10Z</time>
      </trkpt>
      <trkpt lat="43.80794" lon="3.34325">
        <ele>791.53619308971</ele>
        <time>2015-05-30T15:02:15Z</time>
      </trkpt>
      <trkpt lat="43.80796" lon="3.34316">
        <ele>791.53619308971</ele>
        <time>2015-05-30T15:02:20Z</time>
      </trkpt>
      <trkpt lat="43.80797" lon="3.3431">
        <ele>792.09389833847</ele>
        <time>2015-05-30T15:02:25Z</time>
      </trkpt>
      <trkpt lat="43.80796" lon="3.34303">
        <ele>792.09389833847</ele>
        <time>2015-05-30T15:02:30Z</time>
      </trkpt>
      <trkpt lat="43.80797" lon="3.34296">
        <ele>792.64719487536</ele>
        <time>2015-05-30T15:02:35Z</time>
      </trkpt>
      <trkpt lat="43.80799" lon="3.34286">
        <ele>792.64719487536</ele>
        <time>2015-05-30T15:02:40Z</time>
      </trkpt>
      <trkpt lat="43.80801" lon="3.34278">
        <ele>793.24217083476</ele>
        <time>2015-05-30T15:02:45Z</time>
      </trkpt>
      <trkpt lat="43.80801" lon="3.3427">
        <ele>793.24217083476</ele>
        <time>2015-05-30T15:02:50Z</time>
      </trkpt>
      <trkpt lat="43.80802" lon="3.34262">
        <ele>793.83490822189</ele>
        <time>2015-05-30T15:02:55Z</time>
      </trkpt>
      <trkpt lat="43.80804" lon="3.34256">
        <ele>793.83490822189</ele>
        <time>2015-05-30T15:03:00Z</time>
      </trkpt>
      <trkpt lat="43.80807" lon="3.34249">
        <ele>794.45673572631</ele>
        <time>2015-05-30T15:03:05Z</time>
      </trkpt>
      <trkpt lat="43.80808" lon="3.34245">
        <ele>794.45673572631</ele>
        <time>2015-05-30T15:03:10Z</time>
      </trkpt>
      <trkpt lat="43.80813" lon="3.34241">
        <ele>795.16537616713</ele>
        <time>2015-05-30T15:03:15Z</time>
      </trkpt>
      <trkpt lat="43.80815" lon="3.34232">
        <ele>795.16537616713</ele>
        <time>2015-05-30T15:03:20Z</time>
      </trkpt>
      <trkpt lat="43.80816" lon="3.34224">
        <ele>795.89873145162</ele>
        <time>2015-05-30T15:03:25Z</time>
      </trkpt>
      <trkpt lat="43.80815" lon="3.34216">
        <ele>795.89873145162</ele>
        <time>2015-05-30T15:03:30Z</time>
      </trkpt>
      <trkpt lat="43.80813" lon="3.34208">
        <ele>796.68561207528</ele>
        <time>2015-05-30T15:03:35Z</time>
      </trkpt>
      <trkpt lat="43.80813" lon="3.34203">
        <ele>796.68561207528</ele>
        <time>2015-05-30T15:03:40Z</time>
      </trkpt>
      <trkpt lat="43.80817" lon="3.34199">
        <ele>796.68561207528</ele>
        <time>2015-05-30T15:03:45Z</time>
      </trkpt>
      <trkpt lat="43.80818" lon="3.34194">
        <ele>797.5525100016</ele>
        <time>2015-05-30T15:03:50Z</time>
      </trkpt>
      <trkpt lat="43.80816" lon="3.34187">
        <ele>797.5525100016</ele>
        <time>2015-05-30T15:03:55Z</time>
      </trkpt>
      <trkpt lat="43.80813" lon="3.34184">
        <ele>797.5525100016</ele>
        <time>2015-05-30T15:04:00Z</time>
      </trkpt>
      <trkpt lat="43.80814" lon="3.34182">
        <ele>798.72544997736</ele>
        <time>2015-05-30T15:04:05Z</time>
      </trkpt>
      <trkpt lat="43.80814" lon="3.34182">
        <ele>798.72544997736</ele>
        <time>2015-05-30T15:04:10Z</time>
      </trkpt>
      <trkpt lat="43.80815" lon="3.34184">
        <ele>798.72544997736</ele>
        <time>2015-05-30T15:05:10Z</time>
      </trkpt>
      <trkpt lat="43.80814" lon="3.34184">
        <ele>798.72544997736</ele>
        <time>2015-05-30T15:05:15Z</time>
      </trkpt>
      <trkpt lat="43.80814" lon="3.34185">
        <ele>798.72544997736</ele>
        <time>2015-05-30T15:05:20Z</time>
      </trkpt>
      <trkpt lat="43.80819" lon="3.34179">
        <ele>800.80204457322</ele>
        <time>2015-05-30T15:06:20Z</time>
      </trkpt>
      <trkpt lat="43.80821" lon="3.34178">
        <ele>800.80204457322</ele>
        <time>2015-05-30T15:06:25Z</time>
      </trkpt>
      <trkpt lat="43.80825" lon="3.34175">
        <ele>800.80204457322</ele>
        <time>2015-05-30T15:06:30Z</time>
      </trkpt>
      <trkpt lat="43.80827" lon="3.3417">
        <ele>802.76261322778</ele>
        <time>2015-05-30T15:06:35Z</time>
      </trkpt>
      <trkpt lat="43.80827" lon="3.3417">
        <ele>802.76261322778</ele>
        <time>2015-05-30T15:06:40Z</time>
      </trkpt>
      <trkpt lat="43.80827" lon="3.34163">
        <ele>802.76261322778</ele>
        <time>2015-05-30T15:07:10Z</time>
      </trkpt>
      <trkpt lat="43.80827" lon="3.3416">
        <ele>802.76261322778</ele>
        <time>2015-05-30T15:07:15Z</time>
      </trkpt>
      <trkpt lat="43.80827" lon="3.34159">
        <ele>802.76261322778</ele>
        <time>2015-05-30T15:07:20Z</time>
      </trkpt>
      <trkpt lat="43.80835" lon="3.34152">
        <ele>805.47846814848</ele>
        <time>2015-05-30T15:12:25Z</time>
      </trkpt>
      <trkpt lat="43.80834" lon="3.34151">
        <ele>805.47846814848</ele>
        <time>2015-05-30T15:12:30Z</time>
      </trkpt>
      <trkpt lat="43.80834" lon="3.34158">
        <ele>805.47846814848</ele>
        <time>2015-05-30T15:31:55Z</time>
      </trkpt>
      <trkpt lat="43.80834" lon="3.34159">
        <ele>805.47846814848</ele>
        <time>2015-05-30T15:32:00Z</time>
      </trkpt>
      <trkpt lat="43.80834" lon="3.34158">
        <ele>805.47846814848</ele>
        <time>2015-05-30T15:32:30Z</time>
      </trkpt>
      <trkpt lat="43.80836" lon="3.34163">
        <ele>808.32806790341</ele>
        <time>2015-05-30T15:32:35Z</time>
      </trkpt>
      <trkpt lat="43.80838" lon="3.34166">
        <ele>808.32806790341</ele>
        <time>2015-05-30T15:32:40Z</time>
      </trkpt>
      <trkpt lat="43.80836" lon="3.3417">
        <ele>808.32806790341</ele>
        <time>2015-05-30T15:32:45Z</time>
      </trkpt>
      <trkpt lat="43.80834" lon="3.34174">
        <ele>810.90807102796</ele>
        <time>2015-05-30T15:32:50Z</time>
      </trkpt>
      <trkpt lat="43.80831" lon="3.34178">
        <ele>810.90807102796</ele>
        <time>2015-05-30T15:32:55Z</time>
      </trkpt>
      <trkpt lat="43.80829" lon="3.34184">
        <ele>810.90807102796</ele>
        <time>2015-05-30T15:33:00Z</time>
      </trkpt>
      <trkpt lat="43.80827" lon="3.3419">
        <ele>813.22020614658</ele>
        <time>2015-05-30T15:33:05Z</time>
      </trkpt>
      <trkpt lat="43.80826" lon="3.34196">
        <ele>813.22020614658</ele>
        <time>2015-05-30T15:33:10Z</time>
      </trkpt>
      <trkpt lat="43.80824" lon="3.34199">
        <ele>813.22020614658</ele>
        <time>2015-05-30T15:33:15Z</time>
      </trkpt>
      <trkpt lat="43.80821" lon="3.34205">
        <ele>815.22359932079</ele>
        <time>2015-05-30T15:33:20Z</time>
      </trkpt>
      <trkpt lat="43.80816" lon="3.34206">
        <ele>815.22359932079</ele>
        <time>2015-05-30T15:33:25Z</time>
      </trkpt>
      <trkpt lat="43.80815" lon="3.34206">
        <ele>815.22359932079</ele>
        <time>2015-05-30T15:33:30Z</time>
      </trkpt>
      <trkpt lat="43.80812" lon="3.34208">
        <ele>815.22359932079</ele>
        <time>2015-05-30T15:33:35Z</time>
      </trkpt>
      <trkpt lat="43.80811" lon="3.34208">
        <ele>816.93890421521</ele>
        <time>2015-05-30T15:33:40Z</time>
      </trkpt>
      <trkpt lat="43.80807" lon="3.34217">
        <ele>816.93890421521</ele>
        <time>2015-05-30T15:34:00Z</time>
      </trkpt>
      <trkpt lat="43.80803" lon="3.34221">
        <ele>818.41490726869</ele>
        <time>2015-05-30T15:34:05Z</time>
      </trkpt>
      <trkpt lat="43.80798" lon="3.3422">
        <ele>818.41490726869</ele>
        <time>2015-05-30T15:34:10Z</time>
      </trkpt>
      <trkpt lat="43.80795" lon="3.34224">
        <ele>819.65427100459</ele>
        <time>2015-05-30T15:34:15Z</time>
      </trkpt>
      <trkpt lat="43.8079" lon="3.34224">
        <ele>819.65427100459</ele>
        <time>2015-05-30T15:34:20Z</time>
      </trkpt>
      <trkpt lat="43.80786" lon="3.34223">
        <ele>819.65427100459</ele>
        <time>2015-05-30T15:34:25Z</time>
      </trkpt>
      <trkpt lat="43.80781" lon="3.3422">
        <ele>820.63132577822</ele>
        <time>2015-05-30T15:34:30Z</time>
      </trkpt>
      <trkpt lat="43.80776" lon="3.34218">
        <ele>820.63132577822</ele>
        <time>2015-05-30T15:34:35Z</time>
      </trkpt>
      <trkpt lat="43.80768" lon="3.34216">
        <ele>821.38068745771</ele>
        <time>2015-05-30T15:34:40Z</time>
      </trkpt>
      <trkpt lat="43.80764" lon="3.34213">
        <ele>821.38068745771</ele>
        <time>2015-05-30T15:34:45Z</time>
      </trkpt>
      <trkpt lat="43.80757" lon="3.34209">
        <ele>821.90626086855</ele>
        <time>2015-05-30T15:34:50Z</time>
      </trkpt>
      <trkpt lat="43.80753" lon="3.34208">
        <ele>821.90626086855</ele>
        <time>2015-05-30T15:34:55Z</time>
      </trkpt>
      <trkpt lat="43.80746" lon="3.34206">
        <ele>822.24112344177</ele>
        <time>2015-05-30T15:35:00Z</time>
      </trkpt>
      <trkpt lat="43.80742" lon="3.34204">
        <ele>822.24112344177</ele>
        <time>2015-05-30T15:35:05Z</time>
      </trkpt>
      <trkpt lat="43.80736" lon="3.342">
        <ele>822.32999307256</ele>
        <time>2015-05-30T15:35:10Z</time>
      </trkpt>
      <trkpt lat="43.80731" lon="3.34197">
        <ele>822.32999307256</ele>
        <time>2015-05-30T15:35:15Z</time>
      </trkpt>
      <trkpt lat="43.80725" lon="3.34195">
        <ele>822.26644331159</ele>
        <time>2015-05-30T15:35:20Z</time>
      </trkpt>
      <trkpt lat="43.80719" lon="3.34194">
        <ele>822.26644331159</ele>
        <time>2015-05-30T15:35:25Z</time>
      </trkpt>
      <trkpt lat="43.80715" lon="3.34194">
        <ele>822.06552970952</ele>
        <time>2015-05-30T15:35:30Z</time>
      </trkpt>
      <trkpt lat="43.80709" lon="3.34194">
        <ele>822.06552970952</ele>
        <time>2015-05-30T15:35:35Z</time>
      </trkpt>
      <trkpt lat="43.80704" lon="3.34195">
        <ele>821.62627167844</ele>
        <time>2015-05-30T15:35:40Z</time>
      </trkpt>
      <trkpt lat="43.80698" lon="3.34194">
        <ele>821.62627167844</ele>
        <time>2015-05-30T15:35:45Z</time>
      </trkpt>
      <trkpt lat="43.80692" lon="3.34195">
        <ele>821.07190439808</ele>
        <time>2015-05-30T15:35:50Z</time>
      </trkpt>
      <trkpt lat="43.80687" lon="3.34194">
        <ele>821.07190439808</ele>
        <time>2015-05-30T15:35:55Z</time>
      </trkpt>
      <trkpt lat="43.80683" lon="3.34193">
        <ele>820.44482871059</ele>
        <time>2015-05-30T15:36:00Z</time>
      </trkpt>
      <trkpt lat="43.80676" lon="3.34196">
        <ele>820.44482871059</ele>
        <time>2015-05-30T15:36:05Z</time>
      </trkpt>
      <trkpt lat="43.80672" lon="3.34196">
        <ele>819.59712961064</ele>
        <time>2015-05-30T15:36:10Z</time>
      </trkpt>
      <trkpt lat="43.80672" lon="3.34196">
        <ele>819.59712961064</ele>
        <time>2015-05-30T15:36:15Z</time>
      </trkpt>
      <trkpt lat="43.8067" lon="3.34201">
        <ele>819.59712961064</ele>
        <time>2015-05-30T15:36:40Z</time>
      </trkpt>
      <trkpt lat="43.80666" lon="3.34208">
        <ele>818.30583712819</ele>
        <time>2015-05-30T15:36:45Z</time>
      </trkpt>
      <trkpt lat="43.80663" lon="3.34211">
        <ele>818.30583712819</ele>
        <time>2015-05-30T15:36:50Z</time>
      </trkpt>
      <trkpt lat="43.80658" lon="3.34214">
        <ele>817.01401971114</ele>
        <time>2015-05-30T15:36:55Z</time>
      </trkpt>
      <trkpt lat="43.80652" lon="3.34214">
        <ele>817.01401971114</ele>
        <time>2015-05-30T15:37:00Z</time>
      </trkpt>
      <trkpt lat="43.80646" lon="3.34214">
        <ele>815.7141790585</ele>
        <time>2015-05-30T15:37:05Z</time>
      </trkpt>
      <trkpt lat="43.80643" lon="3.34215">
        <ele>815.7141790585</ele>
        <time>2015-05-30T15:37:10Z</time>
      </trkpt>
      <trkpt lat="43.8064" lon="3.34216">
        <ele>815.7141790585</ele>
        <time>2015-05-30T15:37:15Z</time>
      </trkpt>
      <trkpt lat="43.80636" lon="3.3422">
        <ele>814.38486801076</ele>
        <time>2015-05-30T15:37:20Z</time>
      </trkpt>
      <trkpt lat="43.80633" lon="3.34227">
        <ele>814.38486801076</ele>
        <time>2015-05-30T15:37:25Z</time>
      </trkpt>
      <trkpt lat="43.80628" lon="3.3423">
        <ele>813.03499657618</ele>
        <time>2015-05-30T15:37:30Z</time>
      </trkpt>
      <trkpt lat="43.80621" lon="3.34235">
        <ele>813.03499657618</ele>
        <time>2015-05-30T15:37:35Z</time>
      </trkpt>
      <trkpt lat="43.80617" lon="3.34237">
        <ele>811.71597711766</ele>
        <time>2015-05-30T15:37:40Z</time>
      </trkpt>
      <trkpt lat="43.80611" lon="3.34239">
        <ele>811.71597711766</ele>
        <time>2015-05-30T15:37:45Z</time>
      </trkpt>
      <trkpt lat="43.80608" lon="3.34245">
        <ele>810.38874811649</ele>
        <time>2015-05-30T15:37:50Z</time>
      </trkpt>
      <trkpt lat="43.80606" lon="3.34248">
        <ele>810.38874811649</ele>
        <time>2015-05-30T15:37:55Z</time>
      </trkpt>
      <trkpt lat="43.806" lon="3.34255">
        <ele>809.00257678017</ele>
        <time>2015-05-30T15:38:00Z</time>
      </trkpt>
      <trkpt lat="43.80594" lon="3.34253">
        <ele>809.00257678017</ele>
        <time>2015-05-30T15:38:05Z</time>
      </trkpt>
      <trkpt lat="43.80593" lon="3.34248">
        <ele>807.56810657819</ele>
        <time>2015-05-30T15:38:10Z</time>
      </trkpt>
      <trkpt lat="43.80593" lon="3.34241">
        <ele>807.56810657819</ele>
        <time>2015-05-30T15:38:15Z</time>
      </trkpt>
      <trkpt lat="43.80591" lon="3.34238">
        <ele>807.56810657819</ele>
        <time>2015-05-30T15:38:20Z</time>
      </trkpt>
      <trkpt lat="43.80589" lon="3.34235">
        <ele>805.99428937598</ele>
        <time>2015-05-30T15:38:25Z</time>
      </trkpt>
      <trkpt lat="43.80587" lon="3.34233">
        <ele>805.99428937598</ele>
        <time>2015-05-30T15:38:30Z</time>
      </trkpt>
      <trkpt lat="43.80583" lon="3.34234">
        <ele>805.99428937598</ele>
        <time>2015-05-30T15:38:35Z</time>
      </trkpt>
      <trkpt lat="43.80579" lon="3.34236">
        <ele>804.32668232995</ele>
        <time>2015-05-30T15:38:40Z</time>
      </trkpt>
      <trkpt lat="43.80577" lon="3.34235">
        <ele>804.32668232995</ele>
        <time>2015-05-30T15:38:45Z</time>
      </trkpt>
      <trkpt lat="43.80577" lon="3.34235">
        <ele>804.32668232995</ele>
        <time>2015-05-30T15:38:50Z</time>
      </trkpt>
      <trkpt lat="43.80582" lon="3.3423">
        <ele>804.32668232995</ele>
        <time>2015-05-30T15:42:40Z</time>
      </trkpt>
      <trkpt lat="43.80582" lon="3.34234">
        <ele>801.2961649539</ele>
        <time>2015-05-30T15:42:45Z</time>
      </trkpt>
      <trkpt lat="43.80584" lon="3.34239">
        <ele>801.2961649539</ele>
        <time>2015-05-30T15:42:50Z</time>
      </trkpt>
      <trkpt lat="43.80586" lon="3.34242">
        <ele>801.2961649539</ele>
        <time>2015-05-30T15:42:55Z</time>
      </trkpt>
      <trkpt lat="43.80586" lon="3.34249">
        <ele>798.55505611988</ele>
        <time>2015-05-30T15:43:00Z</time>
      </trkpt>
      <trkpt lat="43.80584" lon="3.34255">
        <ele>798.55505611988</ele>
        <time>2015-05-30T15:43:05Z</time>
      </trkpt>
      <trkpt lat="43.80583" lon="3.34259">
        <ele>798.55505611988</ele>
        <time>2015-05-30T15:43:10Z</time>
      </trkpt>
      <trkpt lat="43.80578" lon="3.34263">
        <ele>796.03364847481</ele>
        <time>2015-05-30T15:43:15Z</time>
      </trkpt>
      <trkpt lat="43.80574" lon="3.34267">
        <ele>796.03364847481</ele>
        <time>2015-05-30T15:43:20Z</time>
      </trkpt>
      <trkpt lat="43.80571" lon="3.3427">
        <ele>793.69534865627</ele>
        <time>2015-05-30T15:43:25Z</time>
      </trkpt>
      <trkpt lat="43.80567" lon="3.34276">
        <ele>793.69534865627</ele>
        <time>2015-05-30T15:43:30Z</time>
      </trkpt>
      <trkpt lat="43.80563" lon="3.3428">
        <ele>791.54874918456</ele>
        <time>2015-05-30T15:43:35Z</time>
      </trkpt>
      <trkpt lat="43.80559" lon="3.34282">
        <ele>791.54874918456</ele>
        <time>2015-05-30T15:43:40Z</time>
      </trkpt>
      <trkpt lat="43.80555" lon="3.34281">
        <ele>791.54874918456</ele>
        <time>2015-05-30T15:43:45Z</time>
      </trkpt>
      <trkpt lat="43.80554" lon="3.3428">
        <ele>789.57222324586</ele>
        <time>2015-05-30T15:43:50Z</time>
      </trkpt>
      <trkpt lat="43.80553" lon="3.34276">
        <ele>789.57222324586</ele>
        <time>2015-05-30T15:43:55Z</time>
      </trkpt>
      <trkpt lat="43.80553" lon="3.34273">
        <ele>789.57222324586</ele>
        <time>2015-05-30T15:44:00Z</time>
      </trkpt>
      <trkpt lat="43.80553" lon="3.34268">
        <ele>789.57222324586</ele>
        <time>2015-05-30T15:44:05Z</time>
      </trkpt>
      <trkpt lat="43.80555" lon="3.34265">
        <ele>787.68737943108</ele>
        <time>2015-05-30T15:44:10Z</time>
      </trkpt>
      <trkpt lat="43.80554" lon="3.34262">
        <ele>787.68737943108</ele>
        <time>2015-05-30T15:44:15Z</time>
      </trkpt>
      <trkpt lat="43.80553" lon="3.34262">
        <ele>787.68737943108</ele>
        <time>2015-05-30T15:44:20Z</time>
      </trkpt>
      <trkpt lat="43.80544" lon="3.34262">
        <ele>785.95079480168</ele>
        <time>2015-05-30T15:45:20Z</time>
      </trkpt>
      <trkpt lat="43.8054" lon="3.34263">
        <ele>785.95079480168</ele>
        <time>2015-05-30T15:47:00Z</time>
      </trkpt>
      <trkpt lat="43.80541" lon="3.34248">
        <ele>783.07400612131</ele>
        <time>2015-05-30T15:48:45Z</time>
      </trkpt>
      <trkpt lat="43.80548" lon="3.34267">
        <ele>780.5178086735</ele>
        <time>2015-05-30T15:49:05Z</time>
      </trkpt>
      <trkpt lat="43.80549" lon="3.34268">
        <ele>780.5178086735</ele>
        <time>2015-05-30T15:49:10Z</time>
      </trkpt>
      <trkpt lat="43.80551" lon="3.34273">
        <ele>780.5178086735</ele>
        <time>2015-05-30T15:49:15Z</time>
      </trkpt>
      <trkpt lat="43.80551" lon="3.34276">
        <ele>780.5178086735</ele>
        <time>2015-05-30T15:49:20Z</time>
      </trkpt>
      <trkpt lat="43.80551" lon="3.34285">
        <ele>778.29431905165</ele>
        <time>2015-05-30T15:49:25Z</time>
      </trkpt>
      <trkpt lat="43.80551" lon="3.34285">
        <ele>778.29431905165</ele>
        <time>2015-05-30T15:49:30Z</time>
      </trkpt>
      <trkpt lat="43.80551" lon="3.34286">
        <ele>778.29431905165</ele>
        <time>2015-05-30T15:49:35Z</time>
      </trkpt>
      <trkpt lat="43.80548" lon="3.34293">
        <ele>778.29431905165</ele>
        <time>2015-05-30T15:49:50Z</time>
      </trkpt>
      <trkpt lat="43.80543" lon="3.34296">
        <ele>776.58652720461</ele>
        <time>2015-05-30T15:49:55Z</time>
      </trkpt>
      <trkpt lat="43.80538" lon="3.34298">
        <ele>776.58652720461</ele>
        <time>2015-05-30T15:50:00Z</time>
      </trkpt>
      <trkpt lat="43.80535" lon="3.34299">
        <ele>776.58652720461</ele>
        <time>2015-05-30T15:50:05Z</time>
      </trkpt>
      <trkpt lat="43.80533" lon="3.34301">
        <ele>775.02908729322</ele>
        <time>2015-05-30T15:50:10Z</time>
      </trkpt>
      <trkpt lat="43.80533" lon="3.343">
        <ele>775.02908729322</ele>
        <time>2015-05-30T15:50:20Z</time>
      </trkpt>
      <trkpt lat="43.80527" lon="3.34295">
        <ele>775.02908729322</ele>
        <time>2015-05-30T15:50:30Z</time>
      </trkpt>
      <trkpt lat="43.80525" lon="3.3429">
        <ele>773.77281697795</ele>
        <time>2015-05-30T15:50:35Z</time>
      </trkpt>
      <trkpt lat="43.80525" lon="3.34286">
        <ele>773.77281697795</ele>
        <time>2015-05-30T15:50:40Z</time>
      </trkpt>
      <trkpt lat="43.80524" lon="3.34283">
        <ele>773.77281697795</ele>
        <time>2015-05-30T15:50:45Z</time>
      </trkpt>
      <trkpt lat="43.80524" lon="3.34282">
        <ele>773.77281697795</ele>
        <time>2015-05-30T15:50:50Z</time>
      </trkpt>
      <trkpt lat="43.80524" lon="3.34282">
        <ele>773.77281697795</ele>
        <time>2015-05-30T15:50:55Z</time>
      </trkpt>
      <trkpt lat="43.80526" lon="3.34278">
        <ele>772.65375329921</ele>
        <time>2015-05-30T15:51:35Z</time>
      </trkpt>
      <trkpt lat="43.80526" lon="3.34277">
        <ele>772.65375329921</ele>
        <time>2015-05-30T15:51:40Z</time>
      </trkpt>
      <trkpt lat="43.80519" lon="3.34275">
        <ele>772.65375329921</ele>
        <time>2015-05-30T15:51:50Z</time>
      </trkpt>
      <trkpt lat="43.80517" lon="3.34278">
        <ele>771.64907930238</ele>
        <time>2015-05-30T15:52:10Z</time>
      </trkpt>
      <trkpt lat="43.80521" lon="3.34278">
        <ele>771.64907930238</ele>
        <time>2015-05-30T15:52:15Z</time>
      </trkpt>
      <trkpt lat="43.80523" lon="3.34279">
        <ele>771.64907930238</ele>
        <time>2015-05-30T15:52:20Z</time>
      </trkpt>
      <trkpt lat="43.80525" lon="3.34278">
        <ele>771.64907930238</ele>
        <time>2015-05-30T15:52:25Z</time>
      </trkpt>
      <trkpt lat="43.80513" lon="3.34291">
        <ele>770.93888635874</ele>
        <time>2015-05-30T15:52:45Z</time>
      </trkpt>
      <trkpt lat="43.80509" lon="3.34292">
        <ele>770.93888635874</ele>
        <time>2015-05-30T15:52:50Z</time>
      </trkpt>
      <trkpt lat="43.80503" lon="3.34289">
        <ele>770.41520920584</ele>
        <time>2015-05-30T15:53:10Z</time>
      </trkpt>
      <trkpt lat="43.805" lon="3.34292">
        <ele>770.41520920584</ele>
        <time>2015-05-30T15:53:15Z</time>
      </trkpt>
      <trkpt lat="43.80496" lon="3.34292">
        <ele>770.41520920584</ele>
        <time>2015-05-30T15:53:20Z</time>
      </trkpt>
      <trkpt lat="43.80491" lon="3.34293">
        <ele>770.04936987494</ele>
        <time>2015-05-30T15:53:25Z</time>
      </trkpt>
      <trkpt lat="43.80487" lon="3.34291">
        <ele>770.04936987494</ele>
        <time>2015-05-30T15:53:30Z</time>
      </trkpt>
      <trkpt lat="43.80486" lon="3.3429">
        <ele>770.04936987494</ele>
        <time>2015-05-30T15:53:35Z</time>
      </trkpt>
      <trkpt lat="43.80485" lon="3.34288">
        <ele>770.04936987494</ele>
        <time>2015-05-30T15:53:40Z</time>
      </trkpt>
      <trkpt lat="43.80485" lon="3.34286">
        <ele>770.04936987494</ele>
        <time>2015-05-30T15:53:45Z</time>
      </trkpt>
      <trkpt lat="43.80482" lon="3.34283">
        <ele>770.00153783168</ele>
        <time>2015-05-30T15:54:05Z</time>
      </trkpt>
      <trkpt lat="43.80482" lon="3.34282">
        <ele>770.00153783168</ele>
        <time>2015-05-30T15:54:10Z</time>
      </trkpt>
      <trkpt lat="43.80482" lon="3.34282">
        <ele>770.00153783168</ele>
        <time>2015-05-30T15:54:15Z</time>
      </trkpt>
      <trkpt lat="43.80482" lon="3.34284">
        <ele>770.00153783168</ele>
        <time>2015-05-30T15:54:45Z</time>
      </trkpt>
      <trkpt lat="43.80484" lon="3.34289">
        <ele>770.00153783168</ele>
        <time>2015-05-30T15:54:50Z</time>
      </trkpt>
      <trkpt lat="43.80486" lon="3.34293">
        <ele>769.92910151643</ele>
        <time>2015-05-30T15:54:55Z</time>
      </trkpt>
      <trkpt lat="43.8049" lon="3.34297">
        <ele>769.92910151643</ele>
        <time>2015-05-30T15:55:00Z</time>
      </trkpt>
      <trkpt lat="43.80492" lon="3.343">
        <ele>769.92910151643</ele>
        <time>2015-05-30T15:55:05Z</time>
      </trkpt>
      <trkpt lat="43.80491" lon="3.3431">
        <ele>770.03335831977</ele>
        <time>2015-05-30T15:55:12Z</time>
      </trkpt>
      <trkpt lat="43.80487" lon="3.34315">
        <ele>770.03335831977</ele>
        <time>2015-05-30T15:55:16Z</time>
      </trkpt>
      <trkpt lat="43.8048" lon="3.34324">
        <ele>770.25522250967</ele>
        <time>2015-05-30T15:55:25Z</time>
      </trkpt>
      <trkpt lat="43.80476" lon="3.34327">
        <ele>770.25522250967</ele>
        <time>2015-05-30T15:55:32Z</time>
      </trkpt>
      <trkpt lat="43.80472" lon="3.3433">
        <ele>770.25522250967</ele>
        <time>2015-05-30T15:55:37Z</time>
      </trkpt>
      <trkpt lat="43.80467" lon="3.34335">
        <ele>770.56834693222</ele>
        <time>2015-05-30T15:55:40Z</time>
      </trkpt>
      <trkpt lat="43.80465" lon="3.34339">
        <ele>770.56834693222</ele>
        <time>2015-05-30T15:55:52Z</time>
      </trkpt>
      <trkpt lat="43.80452" lon="3.34341">
        <ele>770.87593094166</ele>
        <time>2015-05-30T15:56:06Z</time>
      </trkpt>
      <trkpt lat="43.80451" lon="3.34339">
        <ele>770.87593094166</ele>
        <time>2015-05-30T15:56:10Z</time>
      </trkpt>
      <trkpt lat="43.8045" lon="3.34338">
        <ele>770.87593094166</ele>
        <time>2015-05-30T15:56:15Z</time>
      </trkpt>
      <trkpt lat="43.80447" lon="3.34336">
        <ele>770.87593094166</ele>
        <time>2015-05-30T15:56:20Z</time>
      </trkpt>
      <trkpt lat="43.80446" lon="3.3433">
        <ele>771.23235066159</ele>
        <time>2015-05-30T15:56:25Z</time>
      </trkpt>
      <trkpt lat="43.80442" lon="3.34322">
        <ele>771.23235066159</ele>
        <time>2015-05-30T15:56:32Z</time>
      </trkpt>
      <trkpt lat="43.80441" lon="3.34321">
        <ele>771.23235066159</ele>
        <time>2015-05-30T15:56:44Z</time>
      </trkpt>
      <trkpt lat="43.80436" lon="3.34308">
        <ele>771.58692790901</ele>
        <time>2015-05-30T15:57:02Z</time>
      </trkpt>
      <trkpt lat="43.80428" lon="3.34304">
        <ele>771.80621541739</ele>
        <time>2015-05-30T15:57:15Z</time>
      </trkpt>
      <trkpt lat="43.80427" lon="3.34304">
        <ele>771.80621541739</ele>
        <time>2015-05-30T15:57:20Z</time>
      </trkpt>
      <trkpt lat="43.80424" lon="3.34308">
        <ele>771.80621541739</ele>
        <time>2015-05-30T15:58:08Z</time>
      </trkpt>
      <trkpt lat="43.8042" lon="3.3431">
        <ele>771.49311950789</ele>
        <time>2015-05-30T15:59:11Z</time>
      </trkpt>
      <trkpt lat="43.80421" lon="3.34311">
        <ele>771.49311950789</ele>
        <time>2015-05-30T15:59:15Z</time>
      </trkpt>
      <trkpt lat="43.8042" lon="3.34314">
        <ele>771.49311950789</ele>
        <time>2015-05-30T15:59:20Z</time>
      </trkpt>
      <trkpt lat="43.80415" lon="3.34313">
        <ele>771.49311950789</ele>
        <time>2015-05-30T15:59:30Z</time>
      </trkpt>
      <trkpt lat="43.80415" lon="3.34313">
        <ele>771.49311950789</ele>
        <time>2015-05-30T15:59:38Z</time>
      </trkpt>
      <trkpt lat="43.80418" lon="3.34312">
        <ele>771.17469262286</ele>
        <time>2015-05-30T15:59:51Z</time>
      </trkpt>
      <trkpt lat="43.80424" lon="3.3431">
        <ele>771.17469262286</ele>
        <time>2015-05-30T16:00:10Z</time>
      </trkpt>
      <trkpt lat="43.80429" lon="3.3431">
        <ele>771.07988724554</ele>
        <time>2015-05-30T16:00:20Z</time>
      </trkpt>
      <trkpt lat="43.80431" lon="3.34315">
        <ele>771.07988724554</ele>
        <time>2015-05-30T16:00:25Z</time>
      </trkpt>
      <trkpt lat="43.80434" lon="3.34318">
        <ele>771.07988724554</ele>
        <time>2015-05-30T16:00:35Z</time>
      </trkpt>
      <trkpt lat="43.80435" lon="3.34321">
        <ele>771.04553041031</ele>
        <time>2015-05-30T16:00:35Z</time>
      </trkpt>
      <trkpt lat="43.80436" lon="3.34324">
        <ele>771.04553041031</ele>
        <time>2015-05-30T16:00:48Z</time>
      </trkpt>
      <trkpt lat="43.80446" lon="3.34339">
        <ele>771.15086058135</ele>
        <time>2015-05-30T16:01:00Z</time>
      </trkpt>
      <trkpt lat="43.80451" lon="3.34343">
        <ele>771.15086058135</ele>
        <time>2015-05-30T16:01:05Z</time>
      </trkpt>
      <trkpt lat="43.80453" lon="3.34346">
        <ele>771.15086058135</ele>
        <time>2015-05-30T16:01:10Z</time>
      </trkpt>
      <trkpt lat="43.80457" lon="3.34349">
        <ele>771.3824607156</ele>
        <time>2015-05-30T16:01:15Z</time>
      </trkpt>
      <trkpt lat="43.80463" lon="3.34348">
        <ele>771.3824607156</ele>
        <time>2015-05-30T16:01:20Z</time>
      </trkpt>
      <trkpt lat="43.80468" lon="3.34345">
        <ele>771.77081021145</ele>
        <time>2015-05-30T16:01:25Z</time>
      </trkpt>
      <trkpt lat="43.80472" lon="3.34342">
        <ele>771.77081021145</ele>
        <time>2015-05-30T16:01:30Z</time>
      </trkpt>
      <trkpt lat="43.80477" lon="3.34338">
        <ele>772.27169403858</ele>
        <time>2015-05-30T16:01:35Z</time>
      </trkpt>
      <trkpt lat="43.80481" lon="3.34335">
        <ele>772.27169403858</ele>
        <time>2015-05-30T16:01:40Z</time>
      </trkpt>
      <trkpt lat="43.80486" lon="3.34332">
        <ele>772.91593354307</ele>
        <time>2015-05-30T16:01:45Z</time>
      </trkpt>
      <trkpt lat="43.80489" lon="3.34329">
        <ele>772.91593354307</ele>
        <time>2015-05-30T16:01:50Z</time>
      </trkpt>
      <trkpt lat="43.80491" lon="3.34323">
        <ele>773.67409670411</ele>
        <time>2015-05-30T16:01:55Z</time>
      </trkpt>
      <trkpt lat="43.80491" lon="3.34319">
        <ele>773.67409670411</ele>
        <time>2015-05-30T16:02:05Z</time>
      </trkpt>
      <trkpt lat="43.80497" lon="3.34305">
        <ele>774.70600526593</ele>
        <time>2015-05-30T16:02:15Z</time>
      </trkpt>
      <trkpt lat="43.80507" lon="3.34298">
        <ele>775.72671541216</ele>
        <time>2015-05-30T16:02:20Z</time>
      </trkpt>
      <trkpt lat="43.80515" lon="3.34297">
        <ele>775.72671541216</ele>
        <time>2015-05-30T16:02:25Z</time>
      </trkpt>
      <trkpt lat="43.80518" lon="3.34297">
        <ele>776.8037881365</ele>
        <time>2015-05-30T16:02:35Z</time>
      </trkpt>
      <trkpt lat="43.80526" lon="3.343">
        <ele>776.8037881365</ele>
        <time>2015-05-30T16:02:45Z</time>
      </trkpt>
      <trkpt lat="43.80529" lon="3.34299">
        <ele>778.02858110459</ele>
        <time>2015-05-30T16:02:57Z</time>
      </trkpt>
      <trkpt lat="43.80548" lon="3.34297">
        <ele>779.44219830046</ele>
        <time>2015-05-30T16:03:20Z</time>
      </trkpt>
      <trkpt lat="43.80553" lon="3.34293">
        <ele>779.44219830046</ele>
        <time>2015-05-30T16:03:25Z</time>
      </trkpt>
      <trkpt lat="43.80558" lon="3.34291">
        <ele>780.92378671671</ele>
        <time>2015-05-30T16:03:34Z</time>
      </trkpt>
      <trkpt lat="43.80603" lon="3.34252">
        <ele>783.29802818515</ele>
        <time>2015-05-30T16:04:22Z</time>
      </trkpt>
      <trkpt lat="43.80605" lon="3.34251">
        <ele>783.29802818515</ele>
        <time>2015-05-30T16:04:25Z</time>
      </trkpt>
      <trkpt lat="43.80608" lon="3.34246">
        <ele>783.29802818515</ele>
        <time>2015-05-30T16:04:30Z</time>
      </trkpt>
      <trkpt lat="43.80612" lon="3.34244">
        <ele>785.65496671718</ele>
        <time>2015-05-30T16:04:35Z</time>
      </trkpt>
      <trkpt lat="43.80617" lon="3.34242">
        <ele>785.65496671718</ele>
        <time>2015-05-30T16:04:40Z</time>
      </trkpt>
      <trkpt lat="43.80622" lon="3.34239">
        <ele>788.04517778401</ele>
        <time>2015-05-30T16:04:45Z</time>
      </trkpt>
      <trkpt lat="43.80627" lon="3.34237">
        <ele>788.04517778401</ele>
        <time>2015-05-30T16:04:50Z</time>
      </trkpt>
      <trkpt lat="43.80636" lon="3.34225">
        <ele>790.50117896227</ele>
        <time>2015-05-30T16:05:01Z</time>
      </trkpt>
      <trkpt lat="43.80637" lon="3.34223">
        <ele>790.50117896227</ele>
        <time>2015-05-30T16:05:12Z</time>
      </trkpt>
      <trkpt lat="43.8065" lon="3.34218">
        <ele>793.00985590092</ele>
        <time>2015-05-30T16:05:22Z</time>
      </trkpt>
      <trkpt lat="43.80653" lon="3.34217">
        <ele>793.00985590092</ele>
        <time>2015-05-30T16:05:25Z</time>
      </trkpt>
      <trkpt lat="43.8066" lon="3.34214">
        <ele>795.54468512006</ele>
        <time>2015-05-30T16:05:30Z</time>
      </trkpt>
      <trkpt lat="43.8067" lon="3.34202">
        <ele>798.1388596766</ele>
        <time>2015-05-30T16:05:41Z</time>
      </trkpt>
      <trkpt lat="43.80674" lon="3.34198">
        <ele>798.1388596766</ele>
        <time>2015-05-30T16:05:45Z</time>
      </trkpt>
      <trkpt lat="43.8068" lon="3.34196">
        <ele>800.62141858145</ele>
        <time>2015-05-30T16:05:50Z</time>
      </trkpt>
      <trkpt lat="43.80685" lon="3.34196">
        <ele>800.62141858145</ele>
        <time>2015-05-30T16:05:55Z</time>
      </trkpt>
      <trkpt lat="43.80688" lon="3.34195">
        <ele>800.62141858145</ele>
        <time>2015-05-30T16:06:00Z</time>
      </trkpt>
      <trkpt lat="43.8069" lon="3.34194">
        <ele>803.00742042819</ele>
        <time>2015-05-30T16:06:05Z</time>
      </trkpt>
      <trkpt lat="43.80698" lon="3.34197">
        <ele>803.00742042819</ele>
        <time>2015-05-30T16:06:11Z</time>
      </trkpt>
      <trkpt lat="43.80699" lon="3.342">
        <ele>805.34013150312</ele>
        <time>2015-05-30T16:06:21Z</time>
      </trkpt>
      <trkpt lat="43.80713" lon="3.34201">
        <ele>807.70324830024</ele>
        <time>2015-05-30T16:06:26Z</time>
      </trkpt>
      <trkpt lat="43.80759" lon="3.34215">
        <ele>810.43386356181</ele>
        <time>2015-05-30T16:07:06Z</time>
      </trkpt>
      <trkpt lat="43.80765" lon="3.34219">
        <ele>810.43386356181</ele>
        <time>2015-05-30T16:07:10Z</time>
      </trkpt>
      <trkpt lat="43.80777" lon="3.34223">
        <ele>813.09413138302</ele>
        <time>2015-05-30T16:07:19Z</time>
      </trkpt>
      <trkpt lat="43.80778" lon="3.34224">
        <ele>813.09413138302</ele>
        <time>2015-05-30T16:07:20Z</time>
      </trkpt>
      <trkpt lat="43.80782" lon="3.34226">
        <ele>813.09413138302</ele>
        <time>2015-05-30T16:07:29Z</time>
      </trkpt>
      <trkpt lat="43.80825" lon="3.34232">
        <ele>816.48933812967</ele>
        <time>2015-05-30T16:08:25Z</time>
      </trkpt>
      <trkpt lat="43.80824" lon="3.34238">
        <ele>816.48933812967</ele>
        <time>2015-05-30T16:08:30Z</time>
      </trkpt>
      <trkpt lat="43.80818" lon="3.34253">
        <ele>819.62004903672</ele>
        <time>2015-05-30T16:08:41Z</time>
      </trkpt>
      <trkpt lat="43.80818" lon="3.34257">
        <ele>819.62004903672</ele>
        <time>2015-05-30T16:08:49Z</time>
      </trkpt>
      <trkpt lat="43.80812" lon="3.34278">
        <ele>822.44031315923</ele>
        <time>2015-05-30T16:09:11Z</time>
      </trkpt>
      <trkpt lat="43.80808" lon="3.343">
        <ele>824.90867478784</ele>
        <time>2015-05-30T16:09:23Z</time>
      </trkpt>
      <trkpt lat="43.80808" lon="3.34313">
        <ele>827.04560478298</ele>
        <time>2015-05-30T16:09:25Z</time>
      </trkpt>
      <trkpt lat="43.80804" lon="3.34321">
        <ele>827.04560478298</ele>
        <time>2015-05-30T16:09:40Z</time>
      </trkpt>
      <trkpt lat="43.80795" lon="3.34354">
        <ele>828.82801345302</ele>
        <time>2015-05-30T16:10:00Z</time>
      </trkpt>
      <trkpt lat="43.80797" lon="3.3437">
        <ele>830.27897577971</ele>
        <time>2015-05-30T16:10:10Z</time>
      </trkpt>
      <trkpt lat="43.80797" lon="3.34403">
        <ele>831.23368797721</ele>
        <time>2015-05-30T16:10:25Z</time>
      </trkpt>
      <trkpt lat="43.80782" lon="3.34445">
        <ele>831.4257734529</ele>
        <time>2015-05-30T16:11:09Z</time>
      </trkpt>
      <trkpt lat="43.8078" lon="3.34473">
        <ele>831.30249730346</ele>
        <time>2015-05-30T16:11:17Z</time>
      </trkpt>
      <trkpt lat="43.80781" lon="3.34482">
        <ele>831.30249730346</ele>
        <time>2015-05-30T16:11:23Z</time>
      </trkpt>
      <trkpt lat="43.8078" lon="3.34484">
        <ele>831.30249730346</ele>
        <time>2015-05-30T16:11:25Z</time>
      </trkpt>
      <trkpt lat="43.80778" lon="3.34494">
        <ele>830.80376726405</ele>
        <time>2015-05-30T16:11:30Z</time>
      </trkpt>
      <trkpt lat="43.80787" lon="3.34532">
        <ele>829.24102577898</ele>
        <time>2015-05-30T16:11:55Z</time>
      </trkpt>
      <trkpt lat="43.80794" lon="3.34542">
        <ele>827.420521776</ele>
        <time>2015-05-30T16:12:03Z</time>
      </trkpt>
      <trkpt lat="43.8081" lon="3.34569">
        <ele>824.82192067168</ele>
        <time>2015-05-30T16:12:23Z</time>
      </trkpt>
      <trkpt lat="43.8081" lon="3.34573">
        <ele>824.82192067168</ele>
        <time>2015-05-30T16:12:25Z</time>
      </trkpt>
      <trkpt lat="43.80814" lon="3.34587">
        <ele>822.01737067641</ele>
        <time>2015-05-30T16:12:35Z</time>
      </trkpt>
      <trkpt lat="43.80815" lon="3.34596">
        <ele>822.01737067641</ele>
        <time>2015-05-30T16:12:41Z</time>
      </trkpt>
      <trkpt lat="43.80821" lon="3.34631">
        <ele>818.54323016438</ele>
        <time>2015-05-30T16:13:12Z</time>
      </trkpt>
      <trkpt lat="43.80826" lon="3.34655">
        <ele>814.87968745333</ele>
        <time>2015-05-30T16:13:24Z</time>
      </trkpt>
      <trkpt lat="43.80827" lon="3.34657">
        <ele>814.87968745333</ele>
        <time>2015-05-30T16:13:25Z</time>
      </trkpt>
      <trkpt lat="43.80827" lon="3.34659">
        <ele>814.87968745333</ele>
        <time>2015-05-30T16:13:30Z</time>
      </trkpt>
      <trkpt lat="43.80829" lon="3.34666">
        <ele>814.87968745333</ele>
        <time>2015-05-30T16:14:10Z</time>
      </trkpt>
      <trkpt lat="43.80832" lon="3.34666">
        <ele>810.89569791621</ele>
        <time>2015-05-30T16:14:25Z</time>
      </trkpt>
      <trkpt lat="43.80827" lon="3.3467">
        <ele>810.89569791621</ele>
        <time>2015-05-30T16:14:30Z</time>
      </trkpt>
      <trkpt lat="43.80824" lon="3.34673">
        <ele>807.09033836571</ele>
        <time>2015-05-30T16:14:39Z</time>
      </trkpt>
      <trkpt lat="43.80815" lon="3.34682">
        <ele>803.47866096361</ele>
        <time>2015-05-30T16:14:45Z</time>
      </trkpt>
      <trkpt lat="43.80811" lon="3.34692">
        <ele>803.47866096361</ele>
        <time>2015-05-30T16:14:55Z</time>
      </trkpt>
      <trkpt lat="43.80809" lon="3.34693">
        <ele>799.62717445221</ele>
        <time>2015-05-30T16:15:00Z</time>
      </trkpt>
      <trkpt lat="43.808" lon="3.34705">
        <ele>795.29324625747</ele>
        <time>2015-05-30T16:15:25Z</time>
      </trkpt>
      <trkpt lat="43.80795" lon="3.34709">
        <ele>795.29324625747</ele>
        <time>2015-05-30T16:15:30Z</time>
      </trkpt>
      <trkpt lat="43.80791" lon="3.34718">
        <ele>791.10346839258</ele>
        <time>2015-05-30T16:15:41Z</time>
      </trkpt>
      <trkpt lat="43.80788" lon="3.34723">
        <ele>791.10346839258</ele>
        <time>2015-05-30T16:15:41Z</time>
      </trkpt>
      <trkpt lat="43.80783" lon="3.34726">
        <ele>787.10455385411</ele>
        <time>2015-05-30T16:15:45Z</time>
      </trkpt>
      <trkpt lat="43.80769" lon="3.34751">
        <ele>783.07959036753</ele>
        <time>2015-05-30T16:16:06Z</time>
      </trkpt>
      <trkpt lat="43.80765" lon="3.34755">
        <ele>783.07959036753</ele>
        <time>2015-05-30T16:16:15Z</time>
      </trkpt>
      <trkpt lat="43.80752" lon="3.34773">
        <ele>778.82739295457</ele>
        <time>2015-05-30T16:16:33Z</time>
      </trkpt>
      <trkpt lat="43.80744" lon="3.34783">
        <ele>774.59422746538</ele>
        <time>2015-05-30T16:16:49Z</time>
      </trkpt>
      <trkpt lat="43.80743" lon="3.34784">
        <ele>774.59422746538</ele>
        <time>2015-05-30T16:16:50Z</time>
      </trkpt>
      <trkpt lat="43.80737" lon="3.34786">
        <ele>774.59422746538</ele>
        <time>2015-05-30T16:16:55Z</time>
      </trkpt>
      <trkpt lat="43.80729" lon="3.34786">
        <ele>770.63672255757</ele>
        <time>2015-05-30T16:17:05Z</time>
      </trkpt>
      <trkpt lat="43.80696" lon="3.34787">
        <ele>766.49981808357</ele>
        <time>2015-05-30T16:17:30Z</time>
      </trkpt>
      <trkpt lat="43.80694" lon="3.34786">
        <ele>766.49981808357</ele>
        <time>2015-05-30T16:17:41Z</time>
      </trkpt>
      <trkpt lat="43.80682" lon="3.34777">
        <ele>762.00703142736</ele>
        <time>2015-05-30T16:18:07Z</time>
      </trkpt>
      <trkpt lat="43.80653" lon="3.34783">
        <ele>757.28371009635</ele>
        <time>2015-05-30T16:18:34Z</time>
      </trkpt>
      <trkpt lat="43.80609" lon="3.34809">
        <ele>752.25892968716</ele>
        <time>2015-05-30T16:19:10Z</time>
      </trkpt>
      <trkpt lat="43.80602" lon="3.34802">
        <ele>752.25892968716</ele>
        <time>2015-05-30T16:19:29Z</time>
      </trkpt>
      <trkpt lat="43.80587" lon="3.34798">
        <ele>747.19889985897</ele>
        <time>2015-05-30T16:20:50Z</time>
      </trkpt>
      <trkpt lat="43.80538" lon="3.34793">
        <ele>741.77354005972</ele>
        <time>2015-05-30T16:21:31Z</time>
      </trkpt>
      <trkpt lat="43.80472" lon="3.34785">
        <ele>735.115606717</ele>
        <time>2015-05-30T16:22:26Z</time>
      </trkpt>
      <trkpt lat="43.80468" lon="3.34784">
        <ele>735.115606717</ele>
        <time>2015-05-30T16:22:30Z</time>
      </trkpt>
      <trkpt lat="43.80461" lon="3.34785">
        <ele>728.90331847705</ele>
        <time>2015-05-30T16:22:35Z</time>
      </trkpt>
      <trkpt lat="43.80455" lon="3.34786">
        <ele>728.90331847705</ele>
        <time>2015-05-30T16:22:40Z</time>
      </trkpt>
      <trkpt lat="43.80445" lon="3.34787">
        <ele>723.01824572045</ele>
        <time>2015-05-30T16:22:57Z</time>
      </trkpt>
      <trkpt lat="43.8043" lon="3.34785">
        <ele>717.3348901261</ele>
        <time>2015-05-30T16:23:00Z</time>
      </trkpt>
      <trkpt lat="43.80428" lon="3.34786">
        <ele>717.3348901261</ele>
        <time>2015-05-30T16:23:11Z</time>
      </trkpt>
      <trkpt lat="43.80399" lon="3.34768">
        <ele>711.54861299645</ele>
        <time>2015-05-30T16:23:30Z</time>
      </trkpt>
      <trkpt lat="43.80397" lon="3.34765">
        <ele>711.54861299645</ele>
        <time>2015-05-30T16:23:35Z</time>
      </trkpt>
      <trkpt lat="43.80395" lon="3.34759">
        <ele>711.54861299645</ele>
        <time>2015-05-30T16:23:46Z</time>
      </trkpt>
      <trkpt lat="43.80368" lon="3.34726">
        <ele>706.28488920736</ele>
        <time>2015-05-30T16:24:35Z</time>
      </trkpt>
      <trkpt lat="43.80355" lon="3.34722">
        <ele>701.77545916562</ele>
        <time>2015-05-30T16:25:08Z</time>
      </trkpt>
      <trkpt lat="43.80351" lon="3.34723">
        <ele>701.77545916562</ele>
        <time>2015-05-30T16:25:13Z</time>
      </trkpt>
      <trkpt lat="43.80349" lon="3.34723">
        <ele>701.77545916562</ele>
        <time>2015-05-30T16:25:21Z</time>
      </trkpt>
      <trkpt lat="43.8033" lon="3.34743">
        <ele>697.72808365744</ele>
        <time>2015-05-30T16:25:35Z</time>
      </trkpt>
      <trkpt lat="43.80323" lon="3.34758">
        <ele>694.23053073893</ele>
        <time>2015-05-30T16:25:55Z</time>
      </trkpt>
      <trkpt lat="43.80314" lon="3.3477">
        <ele>691.13157272541</ele>
        <time>2015-05-30T16:26:05Z</time>
      </trkpt>
      <trkpt lat="43.80305" lon="3.3477">
        <ele>691.13157272541</ele>
        <time>2015-05-30T16:26:20Z</time>
      </trkpt>
      <trkpt lat="43.80281" lon="3.34776">
        <ele>688.17427402576</ele>
        <time>2015-05-30T16:26:35Z</time>
      </trkpt>
      <trkpt lat="43.80277" lon="3.34776">
        <ele>688.17427402576</ele>
        <time>2015-05-30T16:26:40Z</time>
      </trkpt>
      <trkpt lat="43.80258" lon="3.34797">
        <ele>685.50888751795</ele>
        <time>2015-05-30T16:27:01Z</time>
      </trkpt>
      <trkpt lat="43.80252" lon="3.34799">
        <ele>685.50888751795</ele>
        <time>2015-05-30T16:27:05Z</time>
      </trkpt>
      <trkpt lat="43.80234" lon="3.34804">
        <ele>683.20138915962</ele>
        <time>2015-05-30T16:27:16Z</time>
      </trkpt>
      <trkpt lat="43.80228" lon="3.34806">
        <ele>683.20138915962</ele>
        <time>2015-05-30T16:27:20Z</time>
      </trkpt>
      <trkpt lat="43.80222" lon="3.34805">
        <ele>681.21068703305</ele>
        <time>2015-05-30T16:27:29Z</time>
      </trkpt>
      <trkpt lat="43.8021" lon="3.34805">
        <ele>679.46868423038</ele>
        <time>2015-05-30T16:27:37Z</time>
      </trkpt>
      <trkpt lat="43.80206" lon="3.34805">
        <ele>679.46868423038</ele>
        <time>2015-05-30T16:27:43Z</time>
      </trkpt>
      <trkpt lat="43.80198" lon="3.34807">
        <ele>677.98335979429</ele>
        <time>2015-05-30T16:27:53Z</time>
      </trkpt>
      <trkpt lat="43.80167" lon="3.3481">
        <ele>676.47290887581</ele>
        <time>2015-05-30T16:28:10Z</time>
      </trkpt>
      <trkpt lat="43.80147" lon="3.34803">
        <ele>675.07958337512</ele>
        <time>2015-05-30T16:28:28Z</time>
      </trkpt>
      <trkpt lat="43.80143" lon="3.34804">
        <ele>675.07958337512</ele>
        <time>2015-05-30T16:28:30Z</time>
      </trkpt>
      <trkpt lat="43.80138" lon="3.34801">
        <ele>673.97789307301</ele>
        <time>2015-05-30T16:28:38Z</time>
      </trkpt>
      <trkpt lat="43.80133" lon="3.348">
        <ele>673.97789307301</ele>
        <time>2015-05-30T16:28:40Z</time>
      </trkpt>
      <trkpt lat="43.80115" lon="3.34799">
        <ele>672.69445201287</ele>
        <time>2015-05-30T16:28:57Z</time>
      </trkpt>
      <trkpt lat="43.80089" lon="3.348">
        <ele>671.35305009756</ele>
        <time>2015-05-30T16:29:15Z</time>
      </trkpt>
      <trkpt lat="43.80071" lon="3.34799">
        <ele>670.27018572429</ele>
        <time>2015-05-30T16:29:35Z</time>
      </trkpt>
      <trkpt lat="43.80065" lon="3.34797">
        <ele>670.27018572429</ele>
        <time>2015-05-30T16:29:40Z</time>
      </trkpt>
      <trkpt lat="43.80063" lon="3.34797">
        <ele>670.27018572429</ele>
        <time>2015-05-30T16:29:50Z</time>
      </trkpt>
      <trkpt lat="43.80059" lon="3.34798">
        <ele>669.42124650385</ele>
        <time>2015-05-30T16:29:50Z</time>
      </trkpt>
      <trkpt lat="43.80056" lon="3.34799">
        <ele>669.42124650385</ele>
        <time>2015-05-30T16:30:00Z</time>
      </trkpt>
      <trkpt lat="43.80019" lon="3.34806">
        <ele>668.82593835302</ele>
        <time>2015-05-30T16:30:24Z</time>
      </trkpt>
      <trkpt lat="43.79998" lon="3.34809">
        <ele>668.24236512585</ele>
        <time>2015-05-30T16:30:38Z</time>
      </trkpt>
      <trkpt lat="43.79995" lon="3.34811">
        <ele>668.24236512585</ele>
        <time>2015-05-30T16:30:40Z</time>
      </trkpt>
      <trkpt lat="43.7997" lon="3.34816">
        <ele>667.47516996758</ele>
        <time>2015-05-30T16:31:11Z</time>
      </trkpt>
      <trkpt lat="43.79932" lon="3.34829">
        <ele>666.63208674806</ele>
        <time>2015-05-30T16:31:35Z</time>
      </trkpt>
      <trkpt lat="43.79925" lon="3.34828">
        <ele>666.63208674806</ele>
        <time>2015-05-30T16:31:40Z</time>
      </trkpt>
      <trkpt lat="43.7991" lon="3.34829">
        <ele>665.81317092759</ele>
        <time>2015-05-30T16:31:50Z</time>
      </trkpt>
      <trkpt lat="43.79901" lon="3.34824">
        <ele>665.01022333517</ele>
        <time>2015-05-30T16:32:03Z</time>
      </trkpt>
      <trkpt lat="43.79897" lon="3.34824">
        <ele>665.01022333517</ele>
        <time>2015-05-30T16:32:05Z</time>
      </trkpt>
      <trkpt lat="43.79875" lon="3.34813">
        <ele>663.95625915641</ele>
        <time>2015-05-30T16:32:30Z</time>
      </trkpt>
      <trkpt lat="43.79867" lon="3.34806">
        <ele>663.15405995033</ele>
        <time>2015-05-30T16:32:37Z</time>
      </trkpt>
      <trkpt lat="43.79866" lon="3.34803">
        <ele>663.15405995033</ele>
        <time>2015-05-30T16:32:40Z</time>
      </trkpt>
      <trkpt lat="43.79857" lon="3.34794">
        <ele>662.5212296014</ele>
        <time>2015-05-30T16:32:49Z</time>
      </trkpt>
      <trkpt lat="43.79856" lon="3.34793">
        <ele>662.5212296014</ele>
        <time>2015-05-30T16:32:50Z</time>
      </trkpt>
      <trkpt lat="43.79828" lon="3.34767">
        <ele>661.77929134991</ele>
        <time>2015-05-30T16:33:15Z</time>
      </trkpt>
      <trkpt lat="43.79825" lon="3.34763">
        <ele>661.77929134991</ele>
        <time>2015-05-30T16:33:30Z</time>
      </trkpt>
      <trkpt lat="43.798" lon="3.3475">
        <ele>661.29031846883</ele>
        <time>2015-05-30T16:33:35Z</time>
      </trkpt>
      <trkpt lat="43.79793" lon="3.34743">
        <ele>661.29031846883</ele>
        <time>2015-05-30T16:33:40Z</time>
      </trkpt>
      <trkpt lat="43.79785" lon="3.34736">
        <ele>661.1442091196</ele>
        <time>2015-05-30T16:33:55Z</time>
      </trkpt>
      <trkpt lat="43.79774" lon="3.3471">
        <ele>661.36578485741</ele>
        <time>2015-05-30T16:34:12Z</time>
      </trkpt>
      <trkpt lat="43.79762" lon="3.34689">
        <ele>661.91951463058</ele>
        <time>2015-05-30T16:34:36Z</time>
      </trkpt>
      <trkpt lat="43.79756" lon="3.34689">
        <ele>661.91951463058</ele>
        <time>2015-05-30T16:34:46Z</time>
      </trkpt>
      <trkpt lat="43.79729" lon="3.3468">
        <ele>662.90140710846</ele>
        <time>2015-05-30T16:35:07Z</time>
      </trkpt>
      <trkpt lat="43.79728" lon="3.3468">
        <ele>662.90140710846</ele>
        <time>2015-05-30T16:35:12Z</time>
      </trkpt>
      <trkpt lat="43.79719" lon="3.34677">
        <ele>663.95264949163</ele>
        <time>2015-05-30T16:35:16Z</time>
      </trkpt>
      <trkpt lat="43.79703" lon="3.34665">
        <ele>665.17311946204</ele>
        <time>2015-05-30T16:35:36Z</time>
      </trkpt>
      <trkpt lat="43.797" lon="3.34661">
        <ele>665.17311946204</ele>
        <time>2015-05-30T16:35:40Z</time>
      </trkpt>
      <trkpt lat="43.79689" lon="3.34619">
        <ele>666.7127375696</ele>
        <time>2015-05-30T16:36:05Z</time>
      </trkpt>
      <trkpt lat="43.79683" lon="3.34617">
        <ele>666.7127375696</ele>
        <time>2015-05-30T16:36:16Z</time>
      </trkpt>
      <trkpt lat="43.79669" lon="3.3459">
        <ele>668.39269807529</ele>
        <time>2015-05-30T16:36:36Z</time>
      </trkpt>
      <trkpt lat="43.79666" lon="3.3458">
        <ele>668.39269807529</ele>
        <time>2015-05-30T16:36:44Z</time>
      </trkpt>
      <trkpt lat="43.79621" lon="3.3456">
        <ele>670.20570156899</ele>
        <time>2015-05-30T16:37:25Z</time>
      </trkpt>
      <trkpt lat="43.79619" lon="3.34559">
        <ele>670.20570156899</ele>
        <time>2015-05-30T16:37:25Z</time>
      </trkpt>
      <trkpt lat="43.79606" lon="3.34552">
        <ele>671.98634756424</ele>
        <time>2015-05-30T16:37:35Z</time>
      </trkpt>
      <trkpt lat="43.79602" lon="3.34552">
        <ele>671.98634756424</ele>
        <time>2015-05-30T16:37:46Z</time>
      </trkpt>
      <trkpt lat="43.79592" lon="3.34556">
        <ele>673.71144916717</ele>
        <time>2015-05-30T16:37:50Z</time>
      </trkpt>
      <trkpt lat="43.79579" lon="3.34557">
        <ele>675.28790802821</ele>
        <time>2015-05-30T16:38:05Z</time>
      </trkpt>
      <trkpt lat="43.79575" lon="3.34553">
        <ele>675.28790802821</ele>
        <time>2015-05-30T16:38:19Z</time>
      </trkpt>
      <trkpt lat="43.7956" lon="3.3454">
        <ele>676.60135451262</ele>
        <time>2015-05-30T16:38:20Z</time>
      </trkpt>
      <trkpt lat="43.79557" lon="3.34536">
        <ele>676.60135451262</ele>
        <time>2015-05-30T16:38:32Z</time>
      </trkpt>
      <trkpt lat="43.79545" lon="3.34529">
        <ele>677.80626079091</ele>
        <time>2015-05-30T16:38:33Z</time>
      </trkpt>
      <trkpt lat="43.79541" lon="3.34526">
        <ele>677.80626079091</ele>
        <time>2015-05-30T16:38:36Z</time>
      </trkpt>
      <trkpt lat="43.79537" lon="3.34523">
        <ele>678.95989645652</ele>
        <time>2015-05-30T16:38:40Z</time>
      </trkpt>
      <trkpt lat="43.7953" lon="3.34521">
        <ele>678.95989645652</ele>
        <time>2015-05-30T16:38:45Z</time>
      </trkpt>
      <trkpt lat="43.79523" lon="3.34526">
        <ele>679.91402144281</ele>
        <time>2015-05-30T16:38:53Z</time>
      </trkpt>
      <trkpt lat="43.79515" lon="3.34533">
        <ele>680.80596526483</ele>
        <time>2015-05-30T16:39:03Z</time>
      </trkpt>
      <trkpt lat="43.79496" lon="3.34539">
        <ele>681.69139542894</ele>
        <time>2015-05-30T16:39:18Z</time>
      </trkpt>
      <trkpt lat="43.79483" lon="3.3454">
        <ele>682.52133461588</ele>
        <time>2015-05-30T16:39:30Z</time>
      </trkpt>
      <trkpt lat="43.79481" lon="3.34548">
        <ele>682.52133461588</ele>
        <time>2015-05-30T16:39:35Z</time>
      </trkpt>
      <trkpt lat="43.7948" lon="3.34556">
        <ele>683.27968073235</ele>
        <time>2015-05-30T16:39:41Z</time>
      </trkpt>
      <trkpt lat="43.7948" lon="3.34564">
        <ele>683.27968073235</ele>
        <time>2015-05-30T16:39:45Z</time>
      </trkpt>
      <trkpt lat="43.7948" lon="3.34566">
        <ele>683.27968073235</ele>
        <time>2015-05-30T16:40:04Z</time>
      </trkpt>
      <trkpt lat="43.79471" lon="3.34624">
        <ele>683.64937531953</ele>
        <time>2015-05-30T16:40:27Z</time>
      </trkpt>
      <trkpt lat="43.79473" lon="3.34627">
        <ele>683.64937531953</ele>
        <time>2015-05-30T16:40:30Z</time>
      </trkpt>
      <trkpt lat="43.79471" lon="3.34643">
        <ele>684.0441719856</ele>
        <time>2015-05-30T16:40:37Z</time>
      </trkpt>
      <trkpt lat="43.79473" lon="3.34648">
        <ele>684.0441719856</ele>
        <time>2015-05-30T16:40:41Z</time>
      </trkpt>
      <trkpt lat="43.79474" lon="3.34656">
        <ele>684.45853729848</ele>
        <time>2015-05-30T16:40:52Z</time>
      </trkpt>
      <trkpt lat="43.79476" lon="3.34709">
        <ele>684.65697929506</ele>
        <time>2015-05-30T16:41:13Z</time>
      </trkpt>
      <trkpt lat="43.79476" lon="3.3471">
        <ele>684.65697929506</ele>
        <time>2015-05-30T16:41:20Z</time>
      </trkpt>
      <trkpt lat="43.79482" lon="3.34747">
        <ele>685.08507969505</ele>
        <time>2015-05-30T16:41:40Z</time>
      </trkpt>
      <trkpt lat="43.79484" lon="3.34753">
        <ele>685.08507969505</ele>
        <time>2015-05-30T16:41:45Z</time>
      </trkpt>
      <trkpt lat="43.79483" lon="3.34762">
        <ele>685.65090210993</ele>
        <time>2015-05-30T16:41:57Z</time>
      </trkpt>
      <trkpt lat="43.79478" lon="3.34805">
        <ele>686.34117079004</ele>
        <time>2015-05-30T16:42:21Z</time>
      </trkpt>
      <trkpt lat="43.7948" lon="3.34831">
        <ele>687.08582058199</ele>
        <time>2015-05-30T16:42:45Z</time>
      </trkpt>
      <trkpt lat="43.79489" lon="3.34884">
        <ele>687.60383454939</ele>
        <time>2015-05-30T16:42:59Z</time>
      </trkpt>
      <trkpt lat="43.79492" lon="3.34896">
        <ele>687.60383454939</ele>
        <time>2015-05-30T16:43:05Z</time>
      </trkpt>
      <trkpt lat="43.79493" lon="3.34901">
        <ele>687.80862015475</ele>
        <time>2015-05-30T16:43:10Z</time>
      </trkpt>
      <trkpt lat="43.79495" lon="3.34908">
        <ele>687.80862015475</ele>
        <time>2015-05-30T16:43:15Z</time>
      </trkpt>
      <trkpt lat="43.79496" lon="3.34913">
        <ele>687.83719363459</ele>
        <time>2015-05-30T16:43:27Z</time>
      </trkpt>
      <trkpt lat="43.79486" lon="3.34931">
        <ele>687.67308047812</ele>
        <time>2015-05-30T16:43:33Z</time>
      </trkpt>
      <trkpt lat="43.79486" lon="3.34932">
        <ele>687.67308047812</ele>
        <time>2015-05-30T16:43:35Z</time>
      </trkpt>
      <trkpt lat="43.79482" lon="3.34938">
        <ele>687.67308047812</ele>
        <time>2015-05-30T16:43:40Z</time>
      </trkpt>
      <trkpt lat="43.79479" lon="3.3494">
        <ele>687.3737911447</ele>
        <time>2015-05-30T16:43:45Z</time>
      </trkpt>
      <trkpt lat="43.79478" lon="3.34945">
        <ele>687.3737911447</ele>
        <time>2015-05-30T16:43:50Z</time>
      </trkpt>
      <trkpt lat="43.79472" lon="3.34949">
        <ele>686.99315558944</ele>
        <time>2015-05-30T16:43:55Z</time>
      </trkpt>
      <trkpt lat="43.79467" lon="3.34955">
        <ele>686.99315558944</ele>
        <time>2015-05-30T16:44:00Z</time>
      </trkpt>
      <trkpt lat="43.79465" lon="3.34959">
        <ele>686.62466186032</ele>
        <time>2015-05-30T16:44:05Z</time>
      </trkpt>
      <trkpt lat="43.79463" lon="3.34964">
        <ele>686.62466186032</ele>
        <time>2015-05-30T16:44:10Z</time>
      </trkpt>
      <trkpt lat="43.7946" lon="3.34966">
        <ele>686.62466186032</ele>
        <time>2015-05-30T16:44:15Z</time>
      </trkpt>
      <trkpt lat="43.79456" lon="3.34968">
        <ele>686.16768838174</ele>
        <time>2015-05-30T16:44:20Z</time>
      </trkpt>
      <trkpt lat="43.79454" lon="3.34972">
        <ele>686.16768838174</ele>
        <time>2015-05-30T16:44:25Z</time>
      </trkpt>
      <trkpt lat="43.79447" lon="3.34975">
        <ele>685.75995378669</ele>
        <time>2015-05-30T16:44:30Z</time>
      </trkpt>
      <trkpt lat="43.79444" lon="3.3498">
        <ele>685.75995378669</ele>
        <time>2015-05-30T16:44:35Z</time>
      </trkpt>
      <trkpt lat="43.7944" lon="3.34986">
        <ele>685.44256432654</ele>
        <time>2015-05-30T16:44:40Z</time>
      </trkpt>
      <trkpt lat="43.79435" lon="3.34992">
        <ele>685.44256432654</ele>
        <time>2015-05-30T16:44:45Z</time>
      </trkpt>
      <trkpt lat="43.79429" lon="3.35001">
        <ele>685.15257197491</ele>
        <time>2015-05-30T16:44:50Z</time>
      </trkpt>
      <trkpt lat="43.79424" lon="3.35009">
        <ele>685.15257197491</ele>
        <time>2015-05-30T16:44:55Z</time>
      </trkpt>
      <trkpt lat="43.79417" lon="3.35017">
        <ele>684.84607199844</ele>
        <time>2015-05-30T16:45:02Z</time>
      </trkpt>
      <trkpt lat="43.79414" lon="3.35021">
        <ele>684.84607199844</ele>
        <time>2015-05-30T16:45:06Z</time>
      </trkpt>
      <trkpt lat="43.79413" lon="3.35029">
        <ele>684.54014976568</ele>
        <time>2015-05-30T16:45:12Z</time>
      </trkpt>
      <trkpt lat="43.7941" lon="3.35043">
        <ele>684.2795203116</ele>
        <time>2015-05-30T16:45:20Z</time>
      </trkpt>
      <trkpt lat="43.794" lon="3.35055">
        <ele>684.09113067251</ele>
        <time>2015-05-30T16:45:29Z</time>
      </trkpt>
      <trkpt lat="43.79399" lon="3.35055">
        <ele>684.09113067251</ele>
        <time>2015-05-30T16:45:33Z</time>
      </trkpt>
      <trkpt lat="43.79396" lon="3.35058">
        <ele>684.09113067251</ele>
        <time>2015-05-30T16:45:37Z</time>
      </trkpt>
      <trkpt lat="43.79389" lon="3.35063">
        <ele>683.99979229205</ele>
        <time>2015-05-30T16:45:40Z</time>
      </trkpt>
      <trkpt lat="43.79374" lon="3.35078">
        <ele>684.07149445275</ele>
        <time>2015-05-30T16:46:00Z</time>
      </trkpt>
      <trkpt lat="43.79341" lon="3.35106">
        <ele>684.72723369754</ele>
        <time>2015-05-30T16:46:25Z</time>
      </trkpt>
      <trkpt lat="43.79335" lon="3.3511">
        <ele>684.72723369754</ele>
        <time>2015-05-30T16:46:30Z</time>
      </trkpt>
      <trkpt lat="43.79326" lon="3.35118">
        <ele>685.54845059674</ele>
        <time>2015-05-30T16:46:38Z</time>
      </trkpt>
      <trkpt lat="43.79324" lon="3.35118">
        <ele>685.54845059674</ele>
        <time>2015-05-30T16:46:40Z</time>
      </trkpt>
      <trkpt lat="43.79316" lon="3.35122">
        <ele>686.52158793401</ele>
        <time>2015-05-30T16:46:47Z</time>
      </trkpt>
      <trkpt lat="43.7931" lon="3.35128">
        <ele>686.52158793401</ele>
        <time>2015-05-30T16:46:51Z</time>
      </trkpt>
      <trkpt lat="43.79299" lon="3.35137">
        <ele>687.73456776732</ele>
        <time>2015-05-30T16:47:02Z</time>
      </trkpt>
      <trkpt lat="43.79292" lon="3.35145">
        <ele>687.73456776732</ele>
        <time>2015-05-30T16:47:07Z</time>
      </trkpt>
      <trkpt lat="43.7929" lon="3.3515">
        <ele>688.96558195824</ele>
        <time>2015-05-30T16:47:10Z</time>
      </trkpt>
      <trkpt lat="43.7928" lon="3.35166">
        <ele>690.21085987292</ele>
        <time>2015-05-30T16:47:21Z</time>
      </trkpt>
      <trkpt lat="43.79256" lon="3.35201">
        <ele>691.7983668161</ele>
        <time>2015-05-30T16:47:45Z</time>
      </trkpt>
      <trkpt lat="43.79253" lon="3.35208">
        <ele>691.7983668161</ele>
        <time>2015-05-30T16:47:59Z</time>
      </trkpt>
      <trkpt lat="43.79235" lon="3.35247">
        <ele>693.51226427523</ele>
        <time>2015-05-30T16:48:16Z</time>
      </trkpt>
      <trkpt lat="43.79231" lon="3.3526">
        <ele>694.86404582562</ele>
        <time>2015-05-30T16:48:20Z</time>
      </trkpt>
      <trkpt lat="43.79228" lon="3.3527">
        <ele>694.86404582562</ele>
        <time>2015-05-30T16:48:25Z</time>
      </trkpt>
      <trkpt lat="43.79225" lon="3.35276">
        <ele>695.96419797302</ele>
        <time>2015-05-30T16:48:30Z</time>
      </trkpt>
      <trkpt lat="43.79223" lon="3.35283">
        <ele>695.96419797302</ele>
        <time>2015-05-30T16:48:35Z</time>
      </trkpt>
      <trkpt lat="43.79222" lon="3.3529">
        <ele>696.87262494908</ele>
        <time>2015-05-30T16:48:40Z</time>
      </trkpt>
      <trkpt lat="43.79219" lon="3.35297">
        <ele>696.87262494908</ele>
        <time>2015-05-30T16:48:45Z</time>
      </trkpt>
      <trkpt lat="43.79216" lon="3.35304">
        <ele>697.55896421731</ele>
        <time>2015-05-30T16:48:50Z</time>
      </trkpt>
      <trkpt lat="43.79213" lon="3.35312">
        <ele>697.55896421731</ele>
        <time>2015-05-30T16:48:55Z</time>
      </trkpt>
      <trkpt lat="43.79211" lon="3.35318">
        <ele>697.96694577239</ele>
        <time>2015-05-30T16:49:00Z</time>
      </trkpt>
      <trkpt lat="43.79208" lon="3.35323">
        <ele>697.96694577239</ele>
        <time>2015-05-30T16:49:05Z</time>
      </trkpt>
      <trkpt lat="43.792" lon="3.35329">
        <ele>697.95880502269</ele>
        <time>2015-05-30T16:49:12Z</time>
      </trkpt>
      <trkpt lat="43.79199" lon="3.3533">
        <ele>697.95880502269</ele>
        <time>2015-05-30T16:49:22Z</time>
      </trkpt>
      <trkpt lat="43.79171" lon="3.35359">
        <ele>696.91813736116</ele>
        <time>2015-05-30T16:49:43Z</time>
      </trkpt>
      <trkpt lat="43.79169" lon="3.35361">
        <ele>696.91813736116</ele>
        <time>2015-05-30T16:49:48Z</time>
      </trkpt>
      <trkpt lat="43.79167" lon="3.35369">
        <ele>696.91813736116</ele>
        <time>2015-05-30T16:49:50Z</time>
      </trkpt>
      <trkpt lat="43.79168" lon="3.3537">
        <ele>695.76110087415</ele>
        <time>2015-05-30T16:49:55Z</time>
      </trkpt>
      <trkpt lat="43.79157" lon="3.35385">
        <ele>694.84692960959</ele>
        <time>2015-05-30T16:50:17Z</time>
      </trkpt>
      <trkpt lat="43.79161" lon="3.35427">
        <ele>694.06105653451</ele>
        <time>2015-05-30T16:50:45Z</time>
      </trkpt>
      <trkpt lat="43.79165" lon="3.35436">
        <ele>694.06105653451</ele>
        <time>2015-05-30T16:50:50Z</time>
      </trkpt>
      <trkpt lat="43.79189" lon="3.3548">
        <ele>693.06639257595</ele>
        <time>2015-05-30T16:51:37Z</time>
      </trkpt>
      <trkpt lat="43.79189" lon="3.35481">
        <ele>693.06639257595</ele>
        <time>2015-05-30T16:51:40Z</time>
      </trkpt>
      <trkpt lat="43.79189" lon="3.35482">
        <ele>693.06639257595</ele>
        <time>2015-05-30T16:51:45Z</time>
      </trkpt>
      <trkpt lat="43.79191" lon="3.35483">
        <ele>693.06639257595</ele>
        <time>2015-05-30T16:51:55Z</time>
      </trkpt>
      <trkpt lat="43.79196" lon="3.35486">
        <ele>691.72411640091</ele>
        <time>2015-05-30T16:52:00Z</time>
      </trkpt>
      <trkpt lat="43.79202" lon="3.35493">
        <ele>691.72411640091</ele>
        <time>2015-05-30T16:52:07Z</time>
      </trkpt>
      <trkpt lat="43.79228" lon="3.35508">
        <ele>690.28124197644</ele>
        <time>2015-05-30T16:52:29Z</time>
      </trkpt>
      <trkpt lat="43.7923" lon="3.35509">
        <ele>690.28124197644</ele>
        <time>2015-05-30T16:52:30Z</time>
      </trkpt>
      <trkpt lat="43.79234" lon="3.35513">
        <ele>690.28124197644</ele>
        <time>2015-05-30T16:52:41Z</time>
      </trkpt>
      <trkpt lat="43.79249" lon="3.35526">
        <ele>688.89482496453</ele>
        <time>2015-05-30T16:52:46Z</time>
      </trkpt>
      <trkpt lat="43.79253" lon="3.35531">
        <ele>688.89482496453</ele>
        <time>2015-05-30T16:52:50Z</time>
      </trkpt>
      <trkpt lat="43.79257" lon="3.35537">
        <ele>687.53723983303</ele>
        <time>2015-05-30T16:52:55Z</time>
      </trkpt>
      <trkpt lat="43.79264" lon="3.35539">
        <ele>687.53723983303</ele>
        <time>2015-05-30T16:53:00Z</time>
      </trkpt>
      <trkpt lat="43.79272" lon="3.35543">
        <ele>686.26921202531</ele>
        <time>2015-05-30T16:53:09Z</time>
      </trkpt>
      <trkpt lat="43.7928" lon="3.3556">
        <ele>685.07462450614</ele>
        <time>2015-05-30T16:53:30Z</time>
      </trkpt>
      <trkpt lat="43.79273" lon="3.35582">
        <ele>684.14001029113</ele>
        <time>2015-05-30T16:53:35Z</time>
      </trkpt>
      <trkpt lat="43.7927" lon="3.35587">
        <ele>684.14001029113</ele>
        <time>2015-05-30T16:53:40Z</time>
      </trkpt>
      <trkpt lat="43.79266" lon="3.35593">
        <ele>683.43562467777</ele>
        <time>2015-05-30T16:53:45Z</time>
      </trkpt>
      <trkpt lat="43.7926" lon="3.35599">
        <ele>683.43562467777</ele>
        <time>2015-05-30T16:53:50Z</time>
      </trkpt>
      <trkpt lat="43.79256" lon="3.35607">
        <ele>683.005223239</ele>
        <time>2015-05-30T16:53:55Z</time>
      </trkpt>
      <trkpt lat="43.79254" lon="3.35614">
        <ele>683.005223239</ele>
        <time>2015-05-30T16:54:00Z</time>
      </trkpt>
      <trkpt lat="43.79249" lon="3.35623">
        <ele>682.4273259898</ele>
        <time>2015-05-30T16:54:05Z</time>
      </trkpt>
      <trkpt lat="43.79248" lon="3.35631">
        <ele>682.4273259898</ele>
        <time>2015-05-30T16:54:10Z</time>
      </trkpt>
      <trkpt lat="43.79249" lon="3.35639">
        <ele>681.41260766111</ele>
        <time>2015-05-30T16:54:15Z</time>
      </trkpt>
      <trkpt lat="43.79249" lon="3.35647">
        <ele>681.41260766111</ele>
        <time>2015-05-30T16:54:20Z</time>
      </trkpt>
      <trkpt lat="43.79248" lon="3.35655">
        <ele>680.25615562751</ele>
        <time>2015-05-30T16:54:25Z</time>
      </trkpt>
      <trkpt lat="43.79248" lon="3.35664">
        <ele>680.25615562751</ele>
        <time>2015-05-30T16:54:30Z</time>
      </trkpt>
      <trkpt lat="43.79237" lon="3.35694">
        <ele>678.49670790562</ele>
        <time>2015-05-30T16:54:50Z</time>
      </trkpt>
      <trkpt lat="43.79231" lon="3.35708">
        <ele>676.70283733629</ele>
        <time>2015-05-30T16:55:00Z</time>
      </trkpt>
      <trkpt lat="43.79228" lon="3.35717">
        <ele>676.70283733629</ele>
        <time>2015-05-30T16:55:06Z</time>
      </trkpt>
      <trkpt lat="43.79225" lon="3.35792">
        <ele>674.7528316962</ele>
        <time>2015-05-30T16:55:49Z</time>
      </trkpt>
      <trkpt lat="43.79226" lon="3.35793">
        <ele>674.7528316962</ele>
        <time>2015-05-30T16:55:54Z</time>
      </trkpt>
      <trkpt lat="43.79249" lon="3.35821">
        <ele>672.69275806575</ele>
        <time>2015-05-30T16:56:15Z</time>
      </trkpt>
      <trkpt lat="43.79258" lon="3.35829">
        <ele>670.72400083587</ele>
        <time>2015-05-30T16:56:24Z</time>
      </trkpt>
      <trkpt lat="43.79259" lon="3.3583">
        <ele>670.72400083587</ele>
        <time>2015-05-30T16:56:25Z</time>
      </trkpt>
      <trkpt lat="43.79279" lon="3.3586">
        <ele>668.39866794365</ele>
        <time>2015-05-30T16:56:50Z</time>
      </trkpt>
      <trkpt lat="43.79279" lon="3.35867">
        <ele>668.39866794365</ele>
        <time>2015-05-30T16:56:55Z</time>
      </trkpt>
      <trkpt lat="43.7928" lon="3.35875">
        <ele>666.23934721997</ele>
        <time>2015-05-30T16:57:02Z</time>
      </trkpt>
      <trkpt lat="43.79284" lon="3.35909">
        <ele>664.06670873637</ele>
        <time>2015-05-30T16:57:17Z</time>
      </trkpt>
      <trkpt lat="43.79284" lon="3.35915">
        <ele>664.06670873637</ele>
        <time>2015-05-30T16:57:20Z</time>
      </trkpt>
      <trkpt lat="43.79284" lon="3.35923">
        <ele>661.9450535711</ele>
        <time>2015-05-30T16:57:25Z</time>
      </trkpt>
      <trkpt lat="43.79285" lon="3.35931">
        <ele>661.9450535711</ele>
        <time>2015-05-30T16:57:34Z</time>
      </trkpt>
      <trkpt lat="43.79279" lon="3.35947">
        <ele>660.10658727802</ele>
        <time>2015-05-30T16:57:47Z</time>
      </trkpt>
      <trkpt lat="43.79263" lon="3.35959">
        <ele>658.39080894033</ele>
        <time>2015-05-30T16:57:50Z</time>
      </trkpt>
      <trkpt lat="43.79256" lon="3.35961">
        <ele>658.39080894033</ele>
        <time>2015-05-30T16:57:55Z</time>
      </trkpt>
      <trkpt lat="43.79251" lon="3.35966">
        <ele>656.77819728289</ele>
        <time>2015-05-30T16:58:07Z</time>
      </trkpt>
      <trkpt lat="43.79221" lon="3.35984">
        <ele>655.33667651238</ele>
        <time>2015-05-30T16:58:27Z</time>
      </trkpt>
      <trkpt lat="43.79219" lon="3.35987">
        <ele>655.33667651238</ele>
        <time>2015-05-30T16:58:30Z</time>
      </trkpt>
      <trkpt lat="43.79216" lon="3.35991">
        <ele>655.33667651238</ele>
        <time>2015-05-30T16:58:38Z</time>
      </trkpt>
      <trkpt lat="43.79201" lon="3.35995">
        <ele>654.20059371824</ele>
        <time>2015-05-30T16:58:49Z</time>
      </trkpt>
      <trkpt lat="43.79195" lon="3.36">
        <ele>654.20059371824</ele>
        <time>2015-05-30T16:59:00Z</time>
      </trkpt>
      <trkpt lat="43.79162" lon="3.36022">
        <ele>653.30606709962</ele>
        <time>2015-05-30T16:59:20Z</time>
      </trkpt>
      <trkpt lat="43.79148" lon="3.36028">
        <ele>652.6651336497</ele>
        <time>2015-05-30T16:59:37Z</time>
      </trkpt>
      <trkpt lat="43.79138" lon="3.36034">
        <ele>652.34573611511</ele>
        <time>2015-05-30T16:59:41Z</time>
      </trkpt>
      <trkpt lat="43.79127" lon="3.36037">
        <ele>652.17921393073</ele>
        <time>2015-05-30T16:59:48Z</time>
      </trkpt>
      <trkpt lat="43.79122" lon="3.36041">
        <ele>652.17921393073</ele>
        <time>2015-05-30T16:59:50Z</time>
      </trkpt>
      <trkpt lat="43.79117" lon="3.36044">
        <ele>652.19609176268</ele>
        <time>2015-05-30T16:59:59Z</time>
      </trkpt>
      <trkpt lat="43.79101" lon="3.36046">
        <ele>652.1934526813</ele>
        <time>2015-05-30T17:00:14Z</time>
      </trkpt>
      <trkpt lat="43.79093" lon="3.36045">
        <ele>652.1934526813</ele>
        <time>2015-05-30T17:00:15Z</time>
      </trkpt>
      <trkpt lat="43.79084" lon="3.36046">
        <ele>652.34352555857</ele>
        <time>2015-05-30T17:00:22Z</time>
      </trkpt>
      <trkpt lat="43.79083" lon="3.36046">
        <ele>652.34352555857</ele>
        <time>2015-05-30T17:00:31Z</time>
      </trkpt>
      <trkpt lat="43.79054" lon="3.36059">
        <ele>652.97831410234</ele>
        <time>2015-05-30T17:00:53Z</time>
      </trkpt>
      <trkpt lat="43.79046" lon="3.36065">
        <ele>653.68345439724</ele>
        <time>2015-05-30T17:00:57Z</time>
      </trkpt>
      <trkpt lat="43.79039" lon="3.36068">
        <ele>653.68345439724</ele>
        <time>2015-05-30T17:01:01Z</time>
      </trkpt>
      <trkpt lat="43.79035" lon="3.36072">
        <ele>654.52152124038</ele>
        <time>2015-05-30T17:01:10Z</time>
      </trkpt>
      <trkpt lat="43.79017" lon="3.3609">
        <ele>655.91036740758</ele>
        <time>2015-05-30T17:01:25Z</time>
      </trkpt>
      <trkpt lat="43.79009" lon="3.36097">
        <ele>655.91036740758</ele>
        <time>2015-05-30T17:01:30Z</time>
      </trkpt>
      <trkpt lat="43.78999" lon="3.36108">
        <ele>657.32769246575</ele>
        <time>2015-05-30T17:01:47Z</time>
      </trkpt>
      <trkpt lat="43.78988" lon="3.36119">
        <ele>658.93799001822</ele>
        <time>2015-05-30T17:01:50Z</time>
      </trkpt>
      <trkpt lat="43.78982" lon="3.36124">
        <ele>658.93799001822</ele>
        <time>2015-05-30T17:02:04Z</time>
      </trkpt>
      <trkpt lat="43.78947" lon="3.36163">
        <ele>661.0084427678</ele>
        <time>2015-05-30T17:02:28Z</time>
      </trkpt>
      <trkpt lat="43.78946" lon="3.36165">
        <ele>661.0084427678</ele>
        <time>2015-05-30T17:02:36Z</time>
      </trkpt>
      <trkpt lat="43.7894" lon="3.36181">
        <ele>663.09362659124</ele>
        <time>2015-05-30T17:02:40Z</time>
      </trkpt>
      <trkpt lat="43.78934" lon="3.36187">
        <ele>663.09362659124</ele>
        <time>2015-05-30T17:02:49Z</time>
      </trkpt>
      <trkpt lat="43.78933" lon="3.36188">
        <ele>665.2420165788</ele>
        <time>2015-05-30T17:02:50Z</time>
      </trkpt>
      <trkpt lat="43.78926" lon="3.36191">
        <ele>665.2420165788</ele>
        <time>2015-05-30T17:02:55Z</time>
      </trkpt>
      <trkpt lat="43.78897" lon="3.36212">
        <ele>667.97400073011</ele>
        <time>2015-05-30T17:03:21Z</time>
      </trkpt>
      <trkpt lat="43.78891" lon="3.36214">
        <ele>667.97400073011</ele>
        <time>2015-05-30T17:03:25Z</time>
      </trkpt>
      <trkpt lat="43.7888" lon="3.36223">
        <ele>671.03524033189</ele>
        <time>2015-05-30T17:03:37Z</time>
      </trkpt>
      <trkpt lat="43.78863" lon="3.36233">
        <ele>674.37662674878</ele>
        <time>2015-05-30T17:03:50Z</time>
      </trkpt>
      <trkpt lat="43.78848" lon="3.36248">
        <ele>677.77908648904</ele>
        <time>2015-05-30T17:04:02Z</time>
      </trkpt>
      <trkpt lat="43.78806" lon="3.36313">
        <ele>681.50079231385</ele>
        <time>2015-05-30T17:04:51Z</time>
      </trkpt>
      <trkpt lat="43.78803" lon="3.36318">
        <ele>681.50079231385</ele>
        <time>2015-05-30T17:04:55Z</time>
      </trkpt>
      <trkpt lat="43.78803" lon="3.3632">
        <ele>681.50079231385</ele>
        <time>2015-05-30T17:05:06Z</time>
      </trkpt>
      <trkpt lat="43.78801" lon="3.36352">
        <ele>684.39677766192</ele>
        <time>2015-05-30T17:05:14Z</time>
      </trkpt>
      <trkpt lat="43.78799" lon="3.36355">
        <ele>684.39677766192</ele>
        <time>2015-05-30T17:05:16Z</time>
      </trkpt>
      <trkpt lat="43.78789" lon="3.36391">
        <ele>686.61924003825</ele>
        <time>2015-05-30T17:05:42Z</time>
      </trkpt>
      <trkpt lat="43.78789" lon="3.36393">
        <ele>686.61924003825</ele>
        <time>2015-05-30T17:05:50Z</time>
      </trkpt>
      <trkpt lat="43.78779" lon="3.36406">
        <ele>688.38335899316</ele>
        <time>2015-05-30T17:05:55Z</time>
      </trkpt>
      <trkpt lat="43.78776" lon="3.3641">
        <ele>688.38335899316</ele>
        <time>2015-05-30T17:06:00Z</time>
      </trkpt>
      <trkpt lat="43.78767" lon="3.36419">
        <ele>689.97648394822</ele>
        <time>2015-05-30T17:06:10Z</time>
      </trkpt>
      <trkpt lat="43.78746" lon="3.36433">
        <ele>691.33410587561</ele>
        <time>2015-05-30T17:06:26Z</time>
      </trkpt>
      <trkpt lat="43.78743" lon="3.36435">
        <ele>691.33410587561</ele>
        <time>2015-05-30T17:06:38Z</time>
      </trkpt>
      <trkpt lat="43.78725" lon="3.36469">
        <ele>692.48380600835</ele>
        <time>2015-05-30T17:06:55Z</time>
      </trkpt>
      <trkpt lat="43.78722" lon="3.36485">
        <ele>692.84667439242</ele>
        <time>2015-05-30T17:07:00Z</time>
      </trkpt>
      <trkpt lat="43.78718" lon="3.36501">
        <ele>692.75341149187</ele>
        <time>2015-05-30T17:07:09Z</time>
      </trkpt>
      <trkpt lat="43.78718" lon="3.36503">
        <ele>692.75341149187</ele>
        <time>2015-05-30T17:07:10Z</time>
      </trkpt>
      <trkpt lat="43.78708" lon="3.36548">
        <ele>692.612780043</ele>
        <time>2015-05-30T17:07:47Z</time>
      </trkpt>
      <trkpt lat="43.78707" lon="3.36572">
        <ele>692.42914266539</ele>
        <time>2015-05-30T17:07:52Z</time>
      </trkpt>
      <trkpt lat="43.78704" lon="3.36593">
        <ele>691.94742901438</ele>
        <time>2015-05-30T17:08:38Z</time>
      </trkpt>
      <trkpt lat="43.78712" lon="3.36674">
        <ele>690.80259103469</ele>
        <time>2015-05-30T17:08:55Z</time>
      </trkpt>
      <trkpt lat="43.78713" lon="3.36683">
        <ele>690.80259103469</ele>
        <time>2015-05-30T17:09:00Z</time>
      </trkpt>
      <trkpt lat="43.78713" lon="3.36691">
        <ele>689.45099817493</ele>
        <time>2015-05-30T17:09:05Z</time>
      </trkpt>
      <trkpt lat="43.78715" lon="3.36702">
        <ele>689.45099817493</ele>
        <time>2015-05-30T17:09:13Z</time>
      </trkpt>
      <trkpt lat="43.78714" lon="3.36704">
        <ele>687.91267284529</ele>
        <time>2015-05-30T17:09:15Z</time>
      </trkpt>
      <trkpt lat="43.78717" lon="3.36709">
        <ele>687.91267284529</ele>
        <time>2015-05-30T17:09:27Z</time>
      </trkpt>
      <trkpt lat="43.78728" lon="3.36749">
        <ele>685.7888539998</ele>
        <time>2015-05-30T17:09:51Z</time>
      </trkpt>
      <trkpt lat="43.78737" lon="3.3676">
        <ele>683.5908558115</ele>
        <time>2015-05-30T17:09:55Z</time>
      </trkpt>
      <trkpt lat="43.78742" lon="3.36759">
        <ele>683.5908558115</ele>
        <time>2015-05-30T17:10:05Z</time>
      </trkpt>
      <trkpt lat="43.78755" lon="3.36756">
        <ele>681.08653196786</ele>
        <time>2015-05-30T17:10:11Z</time>
      </trkpt>
      <trkpt lat="43.78763" lon="3.36749">
        <ele>678.73898345789</ele>
        <time>2015-05-30T17:10:19Z</time>
      </trkpt>
      <trkpt lat="43.78764" lon="3.36749">
        <ele>678.73898345789</ele>
        <time>2015-05-30T17:10:20Z</time>
      </trkpt>
      <trkpt lat="43.78765" lon="3.36749">
        <ele>678.73898345789</ele>
        <time>2015-05-30T17:10:25Z</time>
      </trkpt>
      <trkpt lat="43.78772" lon="3.36749">
        <ele>676.58774036061</ele>
        <time>2015-05-30T17:10:35Z</time>
      </trkpt>
      <trkpt lat="43.78776" lon="3.36755">
        <ele>676.58774036061</ele>
        <time>2015-05-30T17:10:40Z</time>
      </trkpt>
      <trkpt lat="43.78776" lon="3.36761">
        <ele>674.59678881956</ele>
        <time>2015-05-30T17:10:45Z</time>
      </trkpt>
      <trkpt lat="43.78776" lon="3.36765">
        <ele>674.59678881956</ele>
        <time>2015-05-30T17:10:50Z</time>
      </trkpt>
      <trkpt lat="43.78778" lon="3.36774">
        <ele>672.77549103798</ele>
        <time>2015-05-30T17:10:55Z</time>
      </trkpt>
      <trkpt lat="43.7878" lon="3.36781">
        <ele>672.77549103798</ele>
        <time>2015-05-30T17:11:00Z</time>
      </trkpt>
      <trkpt lat="43.7878" lon="3.36785">
        <ele>672.77549103798</ele>
        <time>2015-05-30T17:11:11Z</time>
      </trkpt>
      <trkpt lat="43.78786" lon="3.36816">
        <ele>671.07433152857</ele>
        <time>2015-05-30T17:11:21Z</time>
      </trkpt>
      <trkpt lat="43.78786" lon="3.36823">
        <ele>671.07433152857</ele>
        <time>2015-05-30T17:11:25Z</time>
      </trkpt>
      <trkpt lat="43.78787" lon="3.3683">
        <ele>669.51906762703</ele>
        <time>2015-05-30T17:11:30Z</time>
      </trkpt>
      <trkpt lat="43.78788" lon="3.36838">
        <ele>669.51906762703</ele>
        <time>2015-05-30T17:11:35Z</time>
      </trkpt>
      <trkpt lat="43.78794" lon="3.36847">
        <ele>668.06100546245</ele>
        <time>2015-05-30T17:11:40Z</time>
      </trkpt>
      <trkpt lat="43.78798" lon="3.36855">
        <ele>668.06100546245</ele>
        <time>2015-05-30T17:11:45Z</time>
      </trkpt>
      <trkpt lat="43.78802" lon="3.36863">
        <ele>666.68347458025</ele>
        <time>2015-05-30T17:11:51Z</time>
      </trkpt>
      <trkpt lat="43.78803" lon="3.36867">
        <ele>666.68347458025</ele>
        <time>2015-05-30T17:11:55Z</time>
      </trkpt>
      <trkpt lat="43.78805" lon="3.36875">
        <ele>665.44274869378</ele>
        <time>2015-05-30T17:12:02Z</time>
      </trkpt>
      <trkpt lat="43.78807" lon="3.36893">
        <ele>664.34723536456</ele>
        <time>2015-05-30T17:12:13Z</time>
      </trkpt>
      <trkpt lat="43.78808" lon="3.36896">
        <ele>664.34723536456</ele>
        <time>2015-05-30T17:12:15Z</time>
      </trkpt>
      <trkpt lat="43.78811" lon="3.36916">
        <ele>663.38978752826</ele>
        <time>2015-05-30T17:12:26Z</time>
      </trkpt>
      <trkpt lat="43.78821" lon="3.3695">
        <ele>662.57768680243</ele>
        <time>2015-05-30T17:12:52Z</time>
      </trkpt>
      <trkpt lat="43.78827" lon="3.36964">
        <ele>661.91715211557</ele>
        <time>2015-05-30T17:13:00Z</time>
      </trkpt>
      <trkpt lat="43.78849" lon="3.37033">
        <ele>661.70162485858</ele>
        <time>2015-05-30T17:13:38Z</time>
      </trkpt>
      <trkpt lat="43.7885" lon="3.37037">
        <ele>661.70162485858</ele>
        <time>2015-05-30T17:13:40Z</time>
      </trkpt>
      <trkpt lat="43.78851" lon="3.37046">
        <ele>661.59636123601</ele>
        <time>2015-05-30T17:13:45Z</time>
      </trkpt>
      <trkpt lat="43.78852" lon="3.37054">
        <ele>661.59636123601</ele>
        <time>2015-05-30T17:13:50Z</time>
      </trkpt>
      <trkpt lat="43.78855" lon="3.37061">
        <ele>661.57901239265</ele>
        <time>2015-05-30T17:13:57Z</time>
      </trkpt>
      <trkpt lat="43.78859" lon="3.37068">
        <ele>661.57901239265</ele>
        <time>2015-05-30T17:14:05Z</time>
      </trkpt>
      <trkpt lat="43.78882" lon="3.37116">
        <ele>661.80145729672</ele>
        <time>2015-05-30T17:14:35Z</time>
      </trkpt>
      <trkpt lat="43.78883" lon="3.37119">
        <ele>661.80145729672</ele>
        <time>2015-05-30T17:14:47Z</time>
      </trkpt>
      <trkpt lat="43.7889" lon="3.37138">
        <ele>662.1586643845</ele>
        <time>2015-05-30T17:14:52Z</time>
      </trkpt>
      <trkpt lat="43.78889" lon="3.37143">
        <ele>662.1586643845</ele>
        <time>2015-05-30T17:14:55Z</time>
      </trkpt>
      <trkpt lat="43.78889" lon="3.3715">
        <ele>662.59609054904</ele>
        <time>2015-05-30T17:15:02Z</time>
      </trkpt>
      <trkpt lat="43.7886" lon="3.37178">
        <ele>663.26465800311</ele>
        <time>2015-05-30T17:15:55Z</time>
      </trkpt>
      <trkpt lat="43.78853" lon="3.37174">
        <ele>663.26465800311</ele>
        <time>2015-05-30T17:16:07Z</time>
      </trkpt>
      <trkpt lat="43.78837" lon="3.37171">
        <ele>664.00085948618</ele>
        <time>2015-05-30T17:16:15Z</time>
      </trkpt>
      <trkpt lat="43.78786" lon="3.37144">
        <ele>664.53767020972</ele>
        <time>2015-05-30T17:16:55Z</time>
      </trkpt>
      <trkpt lat="43.78782" lon="3.37141">
        <ele>664.53767020972</ele>
        <time>2015-05-30T17:17:05Z</time>
      </trkpt>
      <trkpt lat="43.78764" lon="3.37133">
        <ele>664.93083410741</ele>
        <time>2015-05-30T17:17:15Z</time>
      </trkpt>
      <trkpt lat="43.78728" lon="3.37115">
        <ele>665.08826164656</ele>
        <time>2015-05-30T17:17:44Z</time>
      </trkpt>
      <trkpt lat="43.78727" lon="3.37114">
        <ele>665.08826164656</ele>
        <time>2015-05-30T17:17:45Z</time>
      </trkpt>
      <trkpt lat="43.78721" lon="3.37109">
        <ele>665.08826164656</ele>
        <time>2015-05-30T17:17:53Z</time>
      </trkpt>
      <trkpt lat="43.78717" lon="3.37105">
        <ele>665.22790019004</ele>
        <time>2015-05-30T17:17:55Z</time>
      </trkpt>
      <trkpt lat="43.78711" lon="3.37101">
        <ele>665.22790019004</ele>
        <time>2015-05-30T17:18:00Z</time>
      </trkpt>
      <trkpt lat="43.78706" lon="3.37098">
        <ele>665.40760898241</ele>
        <time>2015-05-30T17:18:14Z</time>
      </trkpt>
      <trkpt lat="43.78693" lon="3.3709">
        <ele>665.70969550074</ele>
        <time>2015-05-30T17:18:15Z</time>
      </trkpt>
      <trkpt lat="43.78649" lon="3.3707">
        <ele>666.22448266451</ele>
        <time>2015-05-30T17:18:55Z</time>
      </trkpt>
      <trkpt lat="43.78642" lon="3.37069">
        <ele>666.22448266451</ele>
        <time>2015-05-30T17:19:00Z</time>
      </trkpt>
      <trkpt lat="43.78638" lon="3.37068">
        <ele>666.81889430823</ele>
        <time>2015-05-30T17:19:08Z</time>
      </trkpt>
      <trkpt lat="43.78631" lon="3.37067">
        <ele>666.81889430823</ele>
        <time>2015-05-30T17:19:11Z</time>
      </trkpt>
      <trkpt lat="43.78645" lon="3.37025">
        <ele>667.05236677466</ele>
        <time>2015-05-30T17:19:56Z</time>
      </trkpt>
      <trkpt lat="43.78618" lon="3.37014">
        <ele>667.25268930976</ele>
        <time>2015-05-30T17:20:20Z</time>
      </trkpt>
      <trkpt lat="43.78608" lon="3.37015">
        <ele>667.47869023547</ele>
        <time>2015-05-30T17:20:30Z</time>
      </trkpt>
      <trkpt lat="43.78582" lon="3.37032">
        <ele>667.62629957307</ele>
        <time>2015-05-30T17:20:55Z</time>
      </trkpt>
      <trkpt lat="43.78578" lon="3.37038">
        <ele>667.62629957307</ele>
        <time>2015-05-30T17:21:00Z</time>
      </trkpt>
      <trkpt lat="43.78571" lon="3.37042">
        <ele>667.46963144166</ele>
        <time>2015-05-30T17:21:08Z</time>
      </trkpt>
      <trkpt lat="43.7857" lon="3.37042">
        <ele>667.46963144166</ele>
        <time>2015-05-30T17:21:10Z</time>
      </trkpt>
      <trkpt lat="43.78555" lon="3.3704">
        <ele>667.102900439</ele>
        <time>2015-05-30T17:21:21Z</time>
      </trkpt>
      <trkpt lat="43.78511" lon="3.3704">
        <ele>665.77816260626</ele>
        <time>2015-05-30T17:22:07Z</time>
      </trkpt>
      <trkpt lat="43.78493" lon="3.37054">
        <ele>664.303874292</ele>
        <time>2015-05-30T17:22:30Z</time>
      </trkpt>
      <trkpt lat="43.78492" lon="3.37056">
        <ele>664.303874292</ele>
        <time>2015-05-30T17:22:44Z</time>
      </trkpt>
      <trkpt lat="43.78495" lon="3.37055">
        <ele>664.303874292</ele>
        <time>2015-05-30T17:24:30Z</time>
      </trkpt>
      <trkpt lat="43.78494" lon="3.37053">
        <ele>664.303874292</ele>
        <time>2015-05-30T17:24:42Z</time>
      </trkpt>
      <trkpt lat="43.78473" lon="3.3705">
        <ele>659.14942037248</ele>
        <time>2015-05-30T17:25:22Z</time>
      </trkpt>
      <trkpt lat="43.78481" lon="3.37064">
        <ele>654.34587141044</ele>
        <time>2015-05-30T17:25:40Z</time>
      </trkpt>
      <trkpt lat="43.78506" lon="3.37095">
        <ele>648.95794377605</ele>
        <time>2015-05-30T17:26:02Z</time>
      </trkpt>
      <trkpt lat="43.78511" lon="3.37094">
        <ele>648.95794377605</ele>
        <time>2015-05-30T17:26:05Z</time>
      </trkpt>
      <trkpt lat="43.78523" lon="3.371">
        <ele>643.43202895043</ele>
        <time>2015-05-30T17:26:15Z</time>
      </trkpt>
      <trkpt lat="43.78526" lon="3.37112">
        <ele>637.85054061604</ele>
        <time>2015-05-30T17:26:30Z</time>
      </trkpt>
      <trkpt lat="43.78525" lon="3.37113">
        <ele>637.85054061604</ele>
        <time>2015-05-30T17:26:35Z</time>
      </trkpt>
      <trkpt lat="43.78509" lon="3.37106">
        <ele>632.33307596903</ele>
        <time>2015-05-30T17:26:50Z</time>
      </trkpt>
      <trkpt lat="43.78504" lon="3.37105">
        <ele>632.33307596903</ele>
        <time>2015-05-30T17:26:57Z</time>
      </trkpt>
      <trkpt lat="43.78501" lon="3.37104">
        <ele>632.33307596903</ele>
        <time>2015-05-30T17:27:00Z</time>
      </trkpt>
      <trkpt lat="43.78499" lon="3.37102">
        <ele>627.00449467242</ele>
        <time>2015-05-30T17:27:05Z</time>
      </trkpt>
      <trkpt lat="43.78494" lon="3.37098">
        <ele>627.00449467242</ele>
        <time>2015-05-30T17:27:10Z</time>
      </trkpt>
      <trkpt lat="43.78489" lon="3.37097">
        <ele>621.96533152035</ele>
        <time>2015-05-30T17:27:15Z</time>
      </trkpt>
      <trkpt lat="43.78439" lon="3.37067">
        <ele>616.65918707</ele>
        <time>2015-05-30T17:28:00Z</time>
      </trkpt>
      <trkpt lat="43.78434" lon="3.37066">
        <ele>616.65918707</ele>
        <time>2015-05-30T17:28:07Z</time>
      </trkpt>
      <trkpt lat="43.78429" lon="3.37057">
        <ele>611.69509268676</ele>
        <time>2015-05-30T17:28:23Z</time>
      </trkpt>
      <trkpt lat="43.78417" lon="3.37058">
        <ele>606.90113838528</ele>
        <time>2015-05-30T17:28:59Z</time>
      </trkpt>
      <trkpt lat="43.78417" lon="3.37058">
        <ele>606.90113838528</ele>
        <time>2015-05-30T17:29:00Z</time>
      </trkpt>
      <trkpt lat="43.78414" lon="3.3706">
        <ele>606.90113838528</ele>
        <time>2015-05-30T17:29:05Z</time>
      </trkpt>
      <trkpt lat="43.78411" lon="3.37059">
        <ele>606.90113838528</ele>
        <time>2015-05-30T17:29:11Z</time>
      </trkpt>
      <trkpt lat="43.78408" lon="3.37065">
        <ele>602.46314219166</ele>
        <time>2015-05-30T17:29:20Z</time>
      </trkpt>
      <trkpt lat="43.78406" lon="3.37067">
        <ele>602.46314219166</ele>
        <time>2015-05-30T17:29:25Z</time>
      </trkpt>
      <trkpt lat="43.78407" lon="3.37069">
        <ele>602.46314219166</ele>
        <time>2015-05-30T17:29:30Z</time>
      </trkpt>
      <trkpt lat="43.78406" lon="3.3706">
        <ele>598.49432889371</ele>
        <time>2015-05-30T17:29:50Z</time>
      </trkpt>
      <trkpt lat="43.78403" lon="3.37058">
        <ele>598.49432889371</ele>
        <time>2015-05-30T17:29:55Z</time>
      </trkpt>
      <trkpt lat="43.78401" lon="3.37057">
        <ele>598.49432889371</ele>
        <time>2015-05-30T17:30:00Z</time>
      </trkpt>
      <trkpt lat="43.78398" lon="3.37055">
        <ele>598.49432889371</ele>
        <time>2015-05-30T17:30:05Z</time>
      </trkpt>
      <trkpt lat="43.78393" lon="3.37053">
        <ele>594.46389392894</ele>
        <time>2015-05-30T17:30:10Z</time>
      </trkpt>
      <trkpt lat="43.78391" lon="3.37053">
        <ele>594.46389392894</ele>
        <time>2015-05-30T17:30:15Z</time>
      </trkpt>
      <trkpt lat="43.78385" lon="3.37049">
        <ele>590.78778933414</ele>
        <time>2015-05-30T17:30:20Z</time>
      </trkpt>
      <trkpt lat="43.78378" lon="3.37047">
        <ele>590.78778933414</ele>
        <time>2015-05-30T17:30:25Z</time>
      </trkpt>
      <trkpt lat="43.78373" lon="3.37045">
        <ele>587.44659795042</ele>
        <time>2015-05-30T17:30:30Z</time>
      </trkpt>
      <trkpt lat="43.78368" lon="3.37048">
        <ele>587.44659795042</ele>
        <time>2015-05-30T17:30:35Z</time>
      </trkpt>
      <trkpt lat="43.78364" lon="3.37049">
        <ele>584.40667396382</ele>
        <time>2015-05-30T17:30:40Z</time>
      </trkpt>
      <trkpt lat="43.78358" lon="3.37054">
        <ele>584.40667396382</ele>
        <time>2015-05-30T17:30:45Z</time>
      </trkpt>
      <trkpt lat="43.78356" lon="3.37054">
        <ele>581.69334496173</ele>
        <time>2015-05-30T17:30:50Z</time>
      </trkpt>
      <trkpt lat="43.78352" lon="3.37051">
        <ele>581.69334496173</ele>
        <time>2015-05-30T17:30:55Z</time>
      </trkpt>
      <trkpt lat="43.78346" lon="3.37042">
        <ele>579.30005202901</ele>
        <time>2015-05-30T17:31:00Z</time>
      </trkpt>
      <trkpt lat="43.78339" lon="3.37045">
        <ele>579.30005202901</ele>
        <time>2015-05-30T17:31:05Z</time>
      </trkpt>
      <trkpt lat="43.78333" lon="3.3705">
        <ele>577.20513441015</ele>
        <time>2015-05-30T17:31:10Z</time>
      </trkpt>
      <trkpt lat="43.78328" lon="3.37049">
        <ele>577.20513441015</ele>
        <time>2015-05-30T17:31:15Z</time>
      </trkpt>
      <trkpt lat="43.78321" lon="3.3705">
        <ele>575.28654801075</ele>
        <time>2015-05-30T17:31:20Z</time>
      </trkpt>
      <trkpt lat="43.78318" lon="3.37048">
        <ele>575.28654801075</ele>
        <time>2015-05-30T17:31:25Z</time>
      </trkpt>
      <trkpt lat="43.78313" lon="3.37052">
        <ele>573.54576556066</ele>
        <time>2015-05-30T17:31:30Z</time>
      </trkpt>
      <trkpt lat="43.78311" lon="3.37051">
        <ele>573.54576556066</ele>
        <time>2015-05-30T17:31:35Z</time>
      </trkpt>
      <trkpt lat="43.78305" lon="3.37051">
        <ele>573.54576556066</ele>
        <time>2015-05-30T17:31:40Z</time>
      </trkpt>
      <trkpt lat="43.78301" lon="3.37052">
        <ele>571.81049470179</ele>
        <time>2015-05-30T17:31:45Z</time>
      </trkpt>
      <trkpt lat="43.78298" lon="3.37048">
        <ele>571.81049470179</ele>
        <time>2015-05-30T17:31:50Z</time>
      </trkpt>
      <trkpt lat="43.78292" lon="3.37047">
        <ele>570.20910042694</ele>
        <time>2015-05-30T17:31:55Z</time>
      </trkpt>
      <trkpt lat="43.78285" lon="3.37051">
        <ele>570.20910042694</ele>
        <time>2015-05-30T17:32:00Z</time>
      </trkpt>
      <trkpt lat="43.78281" lon="3.37049">
        <ele>568.70143308939</ele>
        <time>2015-05-30T17:32:05Z</time>
      </trkpt>
      <trkpt lat="43.78276" lon="3.37048">
        <ele>568.70143308939</ele>
        <time>2015-05-30T17:32:10Z</time>
      </trkpt>
      <trkpt lat="43.78271" lon="3.37047">
        <ele>567.30750559156</ele>
        <time>2015-05-30T17:32:15Z</time>
      </trkpt>
      <trkpt lat="43.78266" lon="3.37045">
        <ele>567.30750559156</ele>
        <time>2015-05-30T17:32:20Z</time>
      </trkpt>
      <trkpt lat="43.78262" lon="3.37044">
        <ele>566.04539201512</ele>
        <time>2015-05-30T17:32:25Z</time>
      </trkpt>
      <trkpt lat="43.78254" lon="3.37044">
        <ele>566.04539201512</ele>
        <time>2015-05-30T17:32:30Z</time>
      </trkpt>
      <trkpt lat="43.78251" lon="3.37042">
        <ele>564.8592824385</ele>
        <time>2015-05-30T17:32:35Z</time>
      </trkpt>
      <trkpt lat="43.78245" lon="3.37036">
        <ele>564.8592824385</ele>
        <time>2015-05-30T17:32:40Z</time>
      </trkpt>
      <trkpt lat="43.7824" lon="3.37036">
        <ele>563.66831869558</ele>
        <time>2015-05-30T17:32:45Z</time>
      </trkpt>
      <trkpt lat="43.78234" lon="3.37035">
        <ele>563.66831869558</ele>
        <time>2015-05-30T17:32:50Z</time>
      </trkpt>
      <trkpt lat="43.78229" lon="3.37033">
        <ele>562.45514577417</ele>
        <time>2015-05-30T17:32:55Z</time>
      </trkpt>
      <trkpt lat="43.78223" lon="3.37033">
        <ele>562.45514577417</ele>
        <time>2015-05-30T17:33:00Z</time>
      </trkpt>
      <trkpt lat="43.78217" lon="3.37031">
        <ele>561.33336839526</ele>
        <time>2015-05-30T17:33:05Z</time>
      </trkpt>
      <trkpt lat="43.78212" lon="3.37031">
        <ele>561.33336839526</ele>
        <time>2015-05-30T17:33:10Z</time>
      </trkpt>
      <trkpt lat="43.78207" lon="3.3703">
        <ele>560.27822841617</ele>
        <time>2015-05-30T17:33:15Z</time>
      </trkpt>
      <trkpt lat="43.78201" lon="3.37028">
        <ele>560.27822841617</ele>
        <time>2015-05-30T17:33:20Z</time>
      </trkpt>
      <trkpt lat="43.78195" lon="3.37027">
        <ele>559.28096518797</ele>
        <time>2015-05-30T17:33:25Z</time>
      </trkpt>
      <trkpt lat="43.78191" lon="3.37025">
        <ele>559.28096518797</ele>
        <time>2015-05-30T17:33:30Z</time>
      </trkpt>
      <trkpt lat="43.78186" lon="3.37027">
        <ele>558.30444664207</ele>
        <time>2015-05-30T17:33:35Z</time>
      </trkpt>
      <trkpt lat="43.78183" lon="3.37025">
        <ele>558.30444664207</ele>
        <time>2015-05-30T17:33:40Z</time>
      </trkpt>
      <trkpt lat="43.78179" lon="3.37025">
        <ele>558.30444664207</ele>
        <time>2015-05-30T17:33:45Z</time>
      </trkpt>
      <trkpt lat="43.78172" lon="3.37025">
        <ele>557.22772734033</ele>
        <time>2015-05-30T17:33:50Z</time>
      </trkpt>
      <trkpt lat="43.78166" lon="3.37022">
        <ele>557.22772734033</ele>
        <time>2015-05-30T17:33:55Z</time>
      </trkpt>
      <trkpt lat="43.78162" lon="3.37017">
        <ele>556.12636909971</ele>
        <time>2015-05-30T17:34:00Z</time>
      </trkpt>
      <trkpt lat="43.78158" lon="3.37017">
        <ele>556.12636909971</ele>
        <time>2015-05-30T17:34:05Z</time>
      </trkpt>
      <trkpt lat="43.78152" lon="3.37014">
        <ele>554.98399454384</ele>
        <time>2015-05-30T17:34:10Z</time>
      </trkpt>
      <trkpt lat="43.78147" lon="3.37013">
        <ele>554.98399454384</ele>
        <time>2015-05-30T17:34:15Z</time>
      </trkpt>
      <trkpt lat="43.78143" lon="3.37013">
        <ele>553.81438655626</ele>
        <time>2015-05-30T17:34:20Z</time>
      </trkpt>
      <trkpt lat="43.78138" lon="3.37012">
        <ele>553.81438655626</ele>
        <time>2015-05-30T17:34:25Z</time>
      </trkpt>
      <trkpt lat="43.78136" lon="3.37011">
        <ele>553.81438655626</ele>
        <time>2015-05-30T17:34:30Z</time>
      </trkpt>
      <trkpt lat="43.78133" lon="3.37012">
        <ele>552.48630997451</ele>
        <time>2015-05-30T17:34:35Z</time>
      </trkpt>
      <trkpt lat="43.78129" lon="3.37008">
        <ele>552.48630997451</ele>
        <time>2015-05-30T17:34:40Z</time>
      </trkpt>
      <trkpt lat="43.78124" lon="3.37001">
        <ele>550.95070720423</ele>
        <time>2015-05-30T17:34:45Z</time>
      </trkpt>
      <trkpt lat="43.78119" lon="3.36996">
        <ele>550.95070720423</ele>
        <time>2015-05-30T17:34:50Z</time>
      </trkpt>
      <trkpt lat="43.78109" lon="3.3699">
        <ele>549.07628260384</ele>
        <time>2015-05-30T17:34:55Z</time>
      </trkpt>
      <trkpt lat="43.78108" lon="3.36988">
        <ele>549.07628260384</ele>
        <time>2015-05-30T17:35:00Z</time>
      </trkpt>
      <trkpt lat="43.78104" lon="3.36985">
        <ele>549.07628260384</ele>
        <time>2015-05-30T17:35:05Z</time>
      </trkpt>
      <trkpt lat="43.78102" lon="3.36984">
        <ele>549.07628260384</ele>
        <time>2015-05-30T17:35:14Z</time>
      </trkpt>
      <trkpt lat="43.78097" lon="3.36979">
        <ele>546.33886985884</ele>
        <time>2015-05-30T17:35:28Z</time>
      </trkpt>
      <trkpt lat="43.78087" lon="3.36976">
        <ele>543.76844092753</ele>
        <time>2015-05-30T17:35:30Z</time>
      </trkpt>
      <trkpt lat="43.78072" lon="3.36972">
        <ele>541.41098065532</ele>
        <time>2015-05-30T17:36:31Z</time>
      </trkpt>
      <trkpt lat="43.78064" lon="3.36969">
        <ele>541.41098065532</ele>
        <time>2015-05-30T17:36:48Z</time>
      </trkpt>
      <trkpt lat="43.7806" lon="3.36966">
        <ele>539.19324871488</ele>
        <time>2015-05-30T17:36:50Z</time>
      </trkpt>
      <trkpt lat="43.78058" lon="3.36962">
        <ele>539.19324871488</ele>
        <time>2015-05-30T17:36:55Z</time>
      </trkpt>
      <trkpt lat="43.78056" lon="3.3696">
        <ele>539.19324871488</ele>
        <time>2015-05-30T17:37:00Z</time>
      </trkpt>
      <trkpt lat="43.78051" lon="3.36957">
        <ele>537.13349553746</ele>
        <time>2015-05-30T17:37:06Z</time>
      </trkpt>
      <trkpt lat="43.78043" lon="3.36952">
        <ele>535.3779220625</ele>
        <time>2015-05-30T17:37:15Z</time>
      </trkpt>
      <trkpt lat="43.78029" lon="3.3694">
        <ele>533.60001437998</ele>
        <time>2015-05-30T17:37:30Z</time>
      </trkpt>
      <trkpt lat="43.78017" lon="3.36931">
        <ele>531.88644179641</ele>
        <time>2015-05-30T17:37:39Z</time>
      </trkpt>
      <trkpt lat="43.78017" lon="3.36931">
        <ele>531.88644179641</ele>
        <time>2015-05-30T17:37:40Z</time>
      </trkpt>
      <trkpt lat="43.7801" lon="3.36933">
        <ele>531.88644179641</ele>
        <time>2015-05-30T17:37:45Z</time>
      </trkpt>
      <trkpt lat="43.78006" lon="3.36932">
        <ele>530.07237374929</ele>
        <time>2015-05-30T17:37:55Z</time>
      </trkpt>
      <trkpt lat="43.77981" lon="3.3694">
        <ele>528.29363014312</ele>
        <time>2015-05-30T17:38:17Z</time>
      </trkpt>
      <trkpt lat="43.77979" lon="3.3694">
        <ele>528.29363014312</ele>
        <time>2015-05-30T17:38:27Z</time>
      </trkpt>
      <trkpt lat="43.7797" lon="3.36941">
        <ele>526.71922739213</ele>
        <time>2015-05-30T17:38:30Z</time>
      </trkpt>
      <trkpt lat="43.77966" lon="3.36941">
        <ele>526.71922739213</ele>
        <time>2015-05-30T17:38:35Z</time>
      </trkpt>
      <trkpt lat="43.77961" lon="3.3694">
        <ele>525.24583404516</ele>
        <time>2015-05-30T17:38:40Z</time>
      </trkpt>
      <trkpt lat="43.77957" lon="3.36939">
        <ele>525.24583404516</ele>
        <time>2015-05-30T17:38:50Z</time>
      </trkpt>
      <trkpt lat="43.77951" lon="3.36935">
        <ele>523.83511388841</ele>
        <time>2015-05-30T17:38:55Z</time>
      </trkpt>
      <trkpt lat="43.77922" lon="3.36923">
        <ele>522.37936144887</ele>
        <time>2015-05-30T17:39:19Z</time>
      </trkpt>
      <trkpt lat="43.77921" lon="3.36922">
        <ele>522.37936144887</ele>
        <time>2015-05-30T17:39:20Z</time>
      </trkpt>
      <trkpt lat="43.77915" lon="3.36921">
        <ele>522.37936144887</ele>
        <time>2015-05-30T17:39:25Z</time>
      </trkpt>
      <trkpt lat="43.77908" lon="3.3692">
        <ele>521.06718086772</ele>
        <time>2015-05-30T17:39:30Z</time>
      </trkpt>
      <trkpt lat="43.77906" lon="3.36923">
        <ele>521.06718086772</ele>
        <time>2015-05-30T17:39:35Z</time>
      </trkpt>
      <trkpt lat="43.77899" lon="3.36924">
        <ele>519.77033729663</ele>
        <time>2015-05-30T17:39:40Z</time>
      </trkpt>
      <trkpt lat="43.77895" lon="3.36924">
        <ele>519.77033729663</ele>
        <time>2015-05-30T17:39:45Z</time>
      </trkpt>
      <trkpt lat="43.7789" lon="3.36926">
        <ele>518.55737247693</ele>
        <time>2015-05-30T17:39:55Z</time>
      </trkpt>
      <trkpt lat="43.77873" lon="3.36929">
        <ele>517.30427130339</ele>
        <time>2015-05-30T17:40:06Z</time>
      </trkpt>
      <trkpt lat="43.7787" lon="3.36926">
        <ele>517.30427130339</ele>
        <time>2015-05-30T17:40:10Z</time>
      </trkpt>
      <trkpt lat="43.77849" lon="3.36916">
        <ele>515.83865742781</ele>
        <time>2015-05-30T17:40:31Z</time>
      </trkpt>
      <trkpt lat="43.77844" lon="3.36912">
        <ele>515.83865742781</ele>
        <time>2015-05-30T17:40:37Z</time>
      </trkpt>
      <trkpt lat="43.77841" lon="3.36913">
        <ele>515.83865742781</ele>
        <time>2015-05-30T17:40:40Z</time>
      </trkpt>
      <trkpt lat="43.77827" lon="3.36913">
        <ele>514.33293147905</ele>
        <time>2015-05-30T17:40:49Z</time>
      </trkpt>
      <trkpt lat="43.77824" lon="3.36915">
        <ele>514.33293147905</ele>
        <time>2015-05-30T17:40:50Z</time>
      </trkpt>
      <trkpt lat="43.77821" lon="3.36918">
        <ele>514.33293147905</ele>
        <time>2015-05-30T17:40:55Z</time>
      </trkpt>
      <trkpt lat="43.77816" lon="3.36917">
        <ele>512.50026057016</ele>
        <time>2015-05-30T17:41:00Z</time>
      </trkpt>
      <trkpt lat="43.77813" lon="3.36915">
        <ele>512.50026057016</ele>
        <time>2015-05-30T17:41:05Z</time>
      </trkpt>
      <trkpt lat="43.77808" lon="3.36914">
        <ele>512.50026057016</ele>
        <time>2015-05-30T17:41:12Z</time>
      </trkpt>
      <trkpt lat="43.77801" lon="3.3691">
        <ele>510.43613942587</ele>
        <time>2015-05-30T17:41:21Z</time>
      </trkpt>
      <trkpt lat="43.778" lon="3.36909">
        <ele>510.43613942587</ele>
        <time>2015-05-30T17:41:30Z</time>
      </trkpt>
      <trkpt lat="43.77793" lon="3.36907">
        <ele>510.43613942587</ele>
        <time>2015-05-30T17:41:36Z</time>
      </trkpt>
      <trkpt lat="43.77788" lon="3.36904">
        <ele>508.25857851326</ele>
        <time>2015-05-30T17:41:40Z</time>
      </trkpt>
      <trkpt lat="43.77781" lon="3.36903">
        <ele>508.25857851326</ele>
        <time>2015-05-30T17:41:45Z</time>
      </trkpt>
      <trkpt lat="43.77772" lon="3.36902">
        <ele>506.04847043191</ele>
        <time>2015-05-30T17:41:52Z</time>
      </trkpt>
      <trkpt lat="43.7772" lon="3.36876">
        <ele>503.31887229091</ele>
        <time>2015-05-30T17:42:35Z</time>
      </trkpt>
      <trkpt lat="43.77716" lon="3.36877">
        <ele>503.31887229091</ele>
        <time>2015-05-30T17:42:40Z</time>
      </trkpt>
      <trkpt lat="43.77713" lon="3.36871">
        <ele>503.31887229091</ele>
        <time>2015-05-30T17:42:45Z</time>
      </trkpt>
      <trkpt lat="43.7771" lon="3.36872">
        <ele>500.58565591864</ele>
        <time>2015-05-30T17:42:53Z</time>
      </trkpt>
      <trkpt lat="43.77709" lon="3.36873">
        <ele>500.58565591864</ele>
        <time>2015-05-30T17:42:55Z</time>
      </trkpt>
      <trkpt lat="43.77715" lon="3.36897">
        <ele>496.95778413896</ele>
        <time>2015-05-30T17:43:20Z</time>
      </trkpt>
      <trkpt lat="43.77728" lon="3.36911">
        <ele>493.38477348958</ele>
        <time>2015-05-30T17:43:35Z</time>
      </trkpt>
      <trkpt lat="43.77736" lon="3.36918">
        <ele>490.0401001422</ele>
        <time>2015-05-30T17:43:42Z</time>
      </trkpt>
      <trkpt lat="43.77743" lon="3.36922">
        <ele>490.0401001422</ele>
        <time>2015-05-30T17:43:47Z</time>
      </trkpt>
      <trkpt lat="43.77779" lon="3.36935">
        <ele>486.16154023832</ele>
        <time>2015-05-30T17:44:10Z</time>
      </trkpt>
      <trkpt lat="43.77804" lon="3.36947">
        <ele>482.06753047628</ele>
        <time>2015-05-30T17:44:35Z</time>
      </trkpt>
      <trkpt lat="43.77808" lon="3.3695">
        <ele>482.06753047628</ele>
        <time>2015-05-30T17:44:40Z</time>
      </trkpt>
      <trkpt lat="43.77811" lon="3.36952">
        <ele>482.06753047628</ele>
        <time>2015-05-30T17:44:48Z</time>
      </trkpt>
      <trkpt lat="43.77816" lon="3.36953">
        <ele>478.22662057052</ele>
        <time>2015-05-30T17:44:50Z</time>
      </trkpt>
      <trkpt lat="43.77831" lon="3.36965">
        <ele>474.53897379041</ele>
        <time>2015-05-30T17:45:10Z</time>
      </trkpt>
      <trkpt lat="43.77865" lon="3.36981">
        <ele>470.88277710193</ele>
        <time>2015-05-30T17:45:33Z</time>
      </trkpt>
      <trkpt lat="43.7787" lon="3.36981">
        <ele>470.88277710193</ele>
        <time>2015-05-30T17:45:35Z</time>
      </trkpt>
      <trkpt lat="43.77876" lon="3.36982">
        <ele>467.46205380438</ele>
        <time>2015-05-30T17:45:40Z</time>
      </trkpt>
      <trkpt lat="43.77879" lon="3.36984">
        <ele>467.46205380438</ele>
        <time>2015-05-30T17:45:45Z</time>
      </trkpt>
      <trkpt lat="43.77882" lon="3.36988">
        <ele>467.46205380438</ele>
        <time>2015-05-30T17:45:50Z</time>
      </trkpt>
      <trkpt lat="43.77886" lon="3.36992">
        <ele>464.27775853518</ele>
        <time>2015-05-30T17:45:55Z</time>
      </trkpt>
      <trkpt lat="43.77888" lon="3.37">
        <ele>464.27775853518</ele>
        <time>2015-05-30T17:46:00Z</time>
      </trkpt>
      <trkpt lat="43.77894" lon="3.37003">
        <ele>461.30120861877</ele>
        <time>2015-05-30T17:46:05Z</time>
      </trkpt>
      <trkpt lat="43.779" lon="3.37007">
        <ele>461.30120861877</ele>
        <time>2015-05-30T17:46:19Z</time>
      </trkpt>
      <trkpt lat="43.7792" lon="3.37017">
        <ele>458.23134891195</ele>
        <time>2015-05-30T17:46:33Z</time>
      </trkpt>
      <trkpt lat="43.77922" lon="3.37018">
        <ele>458.23134891195</ele>
        <time>2015-05-30T17:46:35Z</time>
      </trkpt>
      <trkpt lat="43.77928" lon="3.37022">
        <ele>458.23134891195</ele>
        <time>2015-05-30T17:46:42Z</time>
      </trkpt>
      <trkpt lat="43.7793" lon="3.37024">
        <ele>455.46673676874</ele>
        <time>2015-05-30T17:46:45Z</time>
      </trkpt>
      <trkpt lat="43.77932" lon="3.37027">
        <ele>455.46673676874</ele>
        <time>2015-05-30T17:46:56Z</time>
      </trkpt>
      <trkpt lat="43.77945" lon="3.37032">
        <ele>452.85690816843</ele>
        <time>2015-05-30T17:47:01Z</time>
      </trkpt>
      <trkpt lat="43.77951" lon="3.37035">
        <ele>452.85690816843</ele>
        <time>2015-05-30T17:47:06Z</time>
      </trkpt>
      <trkpt lat="43.77955" lon="3.37039">
        <ele>450.4636880071</ele>
        <time>2015-05-30T17:47:10Z</time>
      </trkpt>
      <trkpt lat="43.77961" lon="3.37045">
        <ele>450.4636880071</ele>
        <time>2015-05-30T17:47:15Z</time>
      </trkpt>
      <trkpt lat="43.77964" lon="3.37051">
        <ele>448.31484740478</ele>
        <time>2015-05-30T17:47:20Z</time>
      </trkpt>
      <trkpt lat="43.77968" lon="3.37059">
        <ele>448.31484740478</ele>
        <time>2015-05-30T17:47:25Z</time>
      </trkpt>
      <trkpt lat="43.77975" lon="3.37063">
        <ele>446.37771023363</ele>
        <time>2015-05-30T17:47:30Z</time>
      </trkpt>
      <trkpt lat="43.7798" lon="3.37069">
        <ele>446.37771023363</ele>
        <time>2015-05-30T17:47:35Z</time>
      </trkpt>
      <trkpt lat="43.77986" lon="3.37076">
        <ele>444.62133635513</ele>
        <time>2015-05-30T17:47:40Z</time>
      </trkpt>
      <trkpt lat="43.77989" lon="3.3708">
        <ele>444.62133635513</ele>
        <time>2015-05-30T17:47:45Z</time>
      </trkpt>
      <trkpt lat="43.77992" lon="3.37084">
        <ele>444.62133635513</ele>
        <time>2015-05-30T17:47:50Z</time>
      </trkpt>
      <trkpt lat="43.77997" lon="3.3709">
        <ele>442.97325557808</ele>
        <time>2015-05-30T17:47:55Z</time>
      </trkpt>
      <trkpt lat="43.78005" lon="3.37099">
        <ele>441.58213116232</ele>
        <time>2015-05-30T17:48:00Z</time>
      </trkpt>
      <trkpt lat="43.78013" lon="3.37108">
        <ele>440.32554182082</ele>
        <time>2015-05-30T17:48:08Z</time>
      </trkpt>
      <trkpt lat="43.78026" lon="3.37123">
        <ele>439.08964974408</ele>
        <time>2015-05-30T17:48:30Z</time>
      </trkpt>
      <trkpt lat="43.78035" lon="3.37119">
        <ele>438.1003565474</ele>
        <time>2015-05-30T17:49:21Z</time>
      </trkpt>
      <trkpt lat="43.78036" lon="3.37119">
        <ele>438.1003565474</ele>
        <time>2015-05-30T17:49:25Z</time>
      </trkpt>
      <trkpt lat="43.78036" lon="3.37114">
        <ele>438.1003565474</ele>
        <time>2015-05-30T17:49:35Z</time>
      </trkpt>
      <trkpt lat="43.78036" lon="3.37113">
        <ele>438.1003565474</ele>
        <time>2015-05-30T17:49:40Z</time>
      </trkpt>
      <trkpt lat="43.78036" lon="3.3712">
        <ele>437.16275726505</ele>
        <time>2015-05-30T17:50:00Z</time>
      </trkpt>
      <trkpt lat="43.78046" lon="3.37145">
        <ele>436.85991252901</ele>
        <time>2015-05-30T17:50:25Z</time>
      </trkpt>
      <trkpt lat="43.78052" lon="3.37148">
        <ele>436.85991252901</ele>
        <time>2015-05-30T17:50:36Z</time>
      </trkpt>
      <trkpt lat="43.78062" lon="3.3716">
        <ele>436.8944439078</ele>
        <time>2015-05-30T17:50:40Z</time>
      </trkpt>
      <trkpt lat="43.78078" lon="3.37167">
        <ele>437.27812730989</ele>
        <time>2015-05-30T17:50:45Z</time>
      </trkpt>
      <trkpt lat="43.78089" lon="3.37175">
        <ele>437.83359984939</ele>
        <time>2015-05-30T17:51:00Z</time>
      </trkpt>
      <trkpt lat="43.78125" lon="3.37221">
        <ele>438.41052517404</ele>
        <time>2015-05-30T17:51:40Z</time>
      </trkpt>
      <trkpt lat="43.78127" lon="3.37225">
        <ele>438.41052517404</ele>
        <time>2015-05-30T17:51:45Z</time>
      </trkpt>
      <trkpt lat="43.78132" lon="3.37231">
        <ele>439.10021485891</ele>
        <time>2015-05-30T17:51:50Z</time>
      </trkpt>
      <trkpt lat="43.78138" lon="3.37238">
        <ele>439.10021485891</ele>
        <time>2015-05-30T17:51:55Z</time>
      </trkpt>
      <trkpt lat="43.78146" lon="3.37244">
        <ele>439.87177189558</ele>
        <time>2015-05-30T17:52:02Z</time>
      </trkpt>
      <trkpt lat="43.78154" lon="3.37257">
        <ele>440.6099936206</ele>
        <time>2015-05-30T17:52:30Z</time>
      </trkpt>
      <trkpt lat="43.78191" lon="3.37283">
        <ele>441.35248120175</ele>
        <time>2015-05-30T17:52:47Z</time>
      </trkpt>
      <trkpt lat="43.78202" lon="3.3729">
        <ele>442.01892310903</ele>
        <time>2015-05-30T17:52:55Z</time>
      </trkpt>
      <trkpt lat="43.78204" lon="3.37291">
        <ele>442.01892310903</ele>
        <time>2015-05-30T17:52:55Z</time>
      </trkpt>
      <trkpt lat="43.78237" lon="3.37318">
        <ele>442.50646096529</ele>
        <time>2015-05-30T17:53:30Z</time>
      </trkpt>
      <trkpt lat="43.7824" lon="3.37322">
        <ele>442.50646096529</ele>
        <time>2015-05-30T17:53:38Z</time>
      </trkpt>
      <trkpt lat="43.78242" lon="3.3733">
        <ele>443.06633374286</ele>
        <time>2015-05-30T17:53:40Z</time>
      </trkpt>
      <trkpt lat="43.78247" lon="3.37336">
        <ele>443.06633374286</ele>
        <time>2015-05-30T17:53:46Z</time>
      </trkpt>
      <trkpt lat="43.78261" lon="3.37349">
        <ele>443.51338041189</ele>
        <time>2015-05-30T17:54:00Z</time>
      </trkpt>
      <trkpt lat="43.78274" lon="3.37358">
        <ele>443.69095685143</ele>
        <time>2015-05-30T17:54:11Z</time>
      </trkpt>
      <trkpt lat="43.78304" lon="3.37366">
        <ele>443.69986257319</ele>
        <time>2015-05-30T17:54:30Z</time>
      </trkpt>
      <trkpt lat="43.78305" lon="3.37366">
        <ele>443.69986257319</ele>
        <time>2015-05-30T17:54:35Z</time>
      </trkpt>
      <trkpt lat="43.78306" lon="3.3736">
        <ele>443.69986257319</ele>
        <time>2015-05-30T17:54:50Z</time>
      </trkpt>
      <trkpt lat="43.78303" lon="3.37359">
        <ele>443.53328163397</ele>
        <time>2015-05-30T17:54:55Z</time>
      </trkpt>
      <trkpt lat="43.78297" lon="3.37361">
        <ele>443.53328163397</ele>
        <time>2015-05-30T17:55:00Z</time>
      </trkpt>
      <trkpt lat="43.78293" lon="3.37362">
        <ele>443.12794017873</ele>
        <time>2015-05-30T17:55:05Z</time>
      </trkpt>
      <trkpt lat="43.78289" lon="3.37362">
        <ele>443.12794017873</ele>
        <time>2015-05-30T17:55:10Z</time>
      </trkpt>
      <trkpt lat="43.78283" lon="3.37362">
        <ele>442.75752927516</ele>
        <time>2015-05-30T17:55:15Z</time>
      </trkpt>
      <trkpt lat="43.7828" lon="3.37363">
        <ele>442.75752927516</ele>
        <time>2015-05-30T17:55:20Z</time>
      </trkpt>
      <trkpt lat="43.78274" lon="3.37367">
        <ele>442.45955795977</ele>
        <time>2015-05-30T17:55:25Z</time>
      </trkpt>
      <trkpt lat="43.78267" lon="3.37372">
        <ele>442.45955795977</ele>
        <time>2015-05-30T17:55:30Z</time>
      </trkpt>
      <trkpt lat="43.78262" lon="3.37375">
        <ele>442.15347127003</ele>
        <time>2015-05-30T17:55:35Z</time>
      </trkpt>
      <trkpt lat="43.78259" lon="3.37375">
        <ele>442.15347127003</ele>
        <time>2015-05-30T17:55:40Z</time>
      </trkpt>
      <trkpt lat="43.78254" lon="3.37375">
        <ele>442.15347127003</ele>
        <time>2015-05-30T17:55:45Z</time>
      </trkpt>
      <trkpt lat="43.7825" lon="3.37376">
        <ele>441.8513000831</ele>
        <time>2015-05-30T17:55:50Z</time>
      </trkpt>
      <trkpt lat="43.78245" lon="3.37373">
        <ele>441.8513000831</ele>
        <time>2015-05-30T17:55:55Z</time>
      </trkpt>
      <trkpt lat="43.78244" lon="3.37368">
        <ele>441.8513000831</ele>
        <time>2015-05-30T17:56:00Z</time>
      </trkpt>
      <trkpt lat="43.78242" lon="3.37364">
        <ele>441.4634767086</ele>
        <time>2015-05-30T17:56:05Z</time>
      </trkpt>
      <trkpt lat="43.78233" lon="3.37362">
        <ele>441.06594458492</ele>
        <time>2015-05-30T17:56:10Z</time>
      </trkpt>
      <trkpt lat="43.78227" lon="3.3736">
        <ele>441.06594458492</ele>
        <time>2015-05-30T17:56:15Z</time>
      </trkpt>
      <trkpt lat="43.78223" lon="3.37356">
        <ele>440.6860259248</ele>
        <time>2015-05-30T17:56:20Z</time>
      </trkpt>
      <trkpt lat="43.78217" lon="3.37354">
        <ele>440.6860259248</ele>
        <time>2015-05-30T17:56:25Z</time>
      </trkpt>
      <trkpt lat="43.78213" lon="3.37353">
        <ele>440.30591117674</ele>
        <time>2015-05-30T17:56:30Z</time>
      </trkpt>
      <trkpt lat="43.78205" lon="3.3735">
        <ele>440.30591117674</ele>
        <time>2015-05-30T17:56:35Z</time>
      </trkpt>
      <trkpt lat="43.78199" lon="3.37348">
        <ele>439.95248535408</ele>
        <time>2015-05-30T17:56:40Z</time>
      </trkpt>
      <trkpt lat="43.78192" lon="3.37349">
        <ele>439.95248535408</ele>
        <time>2015-05-30T17:56:45Z</time>
      </trkpt>
      <trkpt lat="43.78185" lon="3.37349">
        <ele>439.57867475449</ele>
        <time>2015-05-30T17:56:50Z</time>
      </trkpt>
      <trkpt lat="43.78178" lon="3.37347">
        <ele>439.57867475449</ele>
        <time>2015-05-30T17:56:55Z</time>
      </trkpt>
      <trkpt lat="43.78174" lon="3.37348">
        <ele>439.18429522738</ele>
        <time>2015-05-30T17:57:00Z</time>
      </trkpt>
      <trkpt lat="43.78166" lon="3.37349">
        <ele>439.18429522738</ele>
        <time>2015-05-30T17:57:05Z</time>
      </trkpt>
      <trkpt lat="43.78163" lon="3.3735">
        <ele>438.62525771385</ele>
        <time>2015-05-30T17:57:10Z</time>
      </trkpt>
      <trkpt lat="43.78163" lon="3.37354">
        <ele>438.62525771385</ele>
        <time>2015-05-30T17:57:15Z</time>
      </trkpt>
      <trkpt lat="43.78161" lon="3.37358">
        <ele>438.62525771385</ele>
        <time>2015-05-30T17:57:20Z</time>
      </trkpt>
      <trkpt lat="43.78161" lon="3.37354">
        <ele>437.55248095114</ele>
        <time>2015-05-30T17:57:25Z</time>
      </trkpt>
      <trkpt lat="43.78167" lon="3.37359">
        <ele>437.55248095114</ele>
        <time>2015-05-30T17:57:50Z</time>
      </trkpt>
      <trkpt lat="43.78169" lon="3.3736">
        <ele>437.55248095114</ele>
        <time>2015-05-30T17:57:55Z</time>
      </trkpt>
      <trkpt lat="43.78171" lon="3.37361">
        <ele>435.51438633934</ele>
        <time>2015-05-30T17:58:00Z</time>
      </trkpt>
      <trkpt lat="43.78181" lon="3.37366">
        <ele>433.27709337477</ele>
        <time>2015-05-30T17:58:20Z</time>
      </trkpt>
      <trkpt lat="43.78185" lon="3.37371">
        <ele>433.27709337477</ele>
        <time>2015-05-30T17:58:25Z</time>
      </trkpt>
      <trkpt lat="43.78188" lon="3.37374">
        <ele>430.98905860566</ele>
        <time>2015-05-30T17:58:30Z</time>
      </trkpt>
      <trkpt lat="43.78192" lon="3.37377">
        <ele>430.98905860566</ele>
        <time>2015-05-30T17:58:35Z</time>
      </trkpt>
      <trkpt lat="43.78194" lon="3.3738">
        <ele>430.98905860566</ele>
        <time>2015-05-30T17:58:40Z</time>
      </trkpt>
      <trkpt lat="43.78196" lon="3.37383">
        <ele>428.71599276172</ele>
        <time>2015-05-30T17:58:45Z</time>
      </trkpt>
      <trkpt lat="43.78199" lon="3.37387">
        <ele>428.71599276172</ele>
        <time>2015-05-30T17:58:50Z</time>
      </trkpt>
      <trkpt lat="43.78202" lon="3.37389">
        <ele>428.71599276172</ele>
        <time>2015-05-30T17:58:55Z</time>
      </trkpt>
      <trkpt lat="43.78204" lon="3.3739">
        <ele>426.44673667613</ele>
        <time>2015-05-30T17:59:00Z</time>
      </trkpt>
      <trkpt lat="43.78205" lon="3.37392">
        <ele>426.44673667613</ele>
        <time>2015-05-30T17:59:05Z</time>
      </trkpt>
      <trkpt lat="43.78207" lon="3.37398">
        <ele>426.44673667613</ele>
        <time>2015-05-30T17:59:10Z</time>
      </trkpt>
      <trkpt lat="43.78214" lon="3.37406">
        <ele>424.24303337506</ele>
        <time>2015-05-30T17:59:15Z</time>
      </trkpt>
      <trkpt lat="43.78218" lon="3.37411">
        <ele>424.24303337506</ele>
        <time>2015-05-30T17:59:20Z</time>
      </trkpt>
      <trkpt lat="43.78224" lon="3.37415">
        <ele>422.13310592</ele>
        <time>2015-05-30T17:59:25Z</time>
      </trkpt>
      <trkpt lat="43.78231" lon="3.37423">
        <ele>420.15725981841</ele>
        <time>2015-05-30T17:59:30Z</time>
      </trkpt>
      <trkpt lat="43.78238" lon="3.37427">
        <ele>420.15725981841</ele>
        <time>2015-05-30T17:59:35Z</time>
      </trkpt>
      <trkpt lat="43.78244" lon="3.37431">
        <ele>418.26599215607</ele>
        <time>2015-05-30T17:59:40Z</time>
      </trkpt>
      <trkpt lat="43.78248" lon="3.37432">
        <ele>418.26599215607</ele>
        <time>2015-05-30T17:59:45Z</time>
      </trkpt>
      <trkpt lat="43.78251" lon="3.37434">
        <ele>418.26599215607</ele>
        <time>2015-05-30T17:59:50Z</time>
      </trkpt>
      <trkpt lat="43.7825" lon="3.37436">
        <ele>418.26599215607</ele>
        <time>2015-05-30T17:59:55Z</time>
      </trkpt>
      <trkpt lat="43.7825" lon="3.37437">
        <ele>418.26599215607</ele>
        <time>2015-05-30T18:00:00Z</time>
      </trkpt>
      <trkpt lat="43.78258" lon="3.3743">
        <ele>415.85114919487</ele>
        <time>2015-05-30T18:00:25Z</time>
      </trkpt>
      <trkpt lat="43.78264" lon="3.37428">
        <ele>415.85114919487</ele>
        <time>2015-05-30T18:00:30Z</time>
      </trkpt>
      <trkpt lat="43.78267" lon="3.37428">
        <ele>413.64769411115</ele>
        <time>2015-05-30T18:00:35Z</time>
      </trkpt>
      <trkpt lat="43.7827" lon="3.37429">
        <ele>413.64769411115</ele>
        <time>2015-05-30T18:00:40Z</time>
      </trkpt>
      <trkpt lat="43.78271" lon="3.37433">
        <ele>413.64769411115</ele>
        <time>2015-05-30T18:00:45Z</time>
      </trkpt>
      <trkpt lat="43.78271" lon="3.37439">
        <ele>411.52894766419</ele>
        <time>2015-05-30T18:00:50Z</time>
      </trkpt>
      <trkpt lat="43.78272" lon="3.37442">
        <ele>411.52894766419</ele>
        <time>2015-05-30T18:00:55Z</time>
      </trkpt>
      <trkpt lat="43.78275" lon="3.37447">
        <ele>411.52894766419</ele>
        <time>2015-05-30T18:01:00Z</time>
      </trkpt>
      <trkpt lat="43.78285" lon="3.3746">
        <ele>409.56459718757</ele>
        <time>2015-05-30T18:01:11Z</time>
      </trkpt>
      <trkpt lat="43.78288" lon="3.37465">
        <ele>409.56459718757</ele>
        <time>2015-05-30T18:01:22Z</time>
      </trkpt>
      <trkpt lat="43.78295" lon="3.37477">
        <ele>407.76107917418</ele>
        <time>2015-05-30T18:01:25Z</time>
      </trkpt>
      <trkpt lat="43.78299" lon="3.37484">
        <ele>407.76107917418</ele>
        <time>2015-05-30T18:01:39Z</time>
      </trkpt>
      <trkpt lat="43.7831" lon="3.375">
        <ele>406.0517904318</ele>
        <time>2015-05-30T18:01:48Z</time>
      </trkpt>
      <trkpt lat="43.7831" lon="3.37502">
        <ele>406.0517904318</ele>
        <time>2015-05-30T18:01:50Z</time>
      </trkpt>
      <trkpt lat="43.78326" lon="3.37525">
        <ele>404.60526976521</ele>
        <time>2015-05-30T18:02:10Z</time>
      </trkpt>
      <trkpt lat="43.78329" lon="3.37528">
        <ele>404.60526976521</ele>
        <time>2015-05-30T18:02:15Z</time>
      </trkpt>
      <trkpt lat="43.78331" lon="3.37537">
        <ele>403.37511617793</ele>
        <time>2015-05-30T18:02:28Z</time>
      </trkpt>
      <trkpt lat="43.78329" lon="3.37539">
        <ele>403.37511617793</ele>
        <time>2015-05-30T18:02:33Z</time>
      </trkpt>
      <trkpt lat="43.78304" lon="3.37554">
        <ele>402.40413066923</ele>
        <time>2015-05-30T18:02:50Z</time>
      </trkpt>
      <trkpt lat="43.78304" lon="3.37564">
        <ele>402.40413066923</ele>
        <time>2015-05-30T18:03:00Z</time>
      </trkpt>
      <trkpt lat="43.78298" lon="3.37586">
        <ele>401.55824514998</ele>
        <time>2015-05-30T18:03:23Z</time>
      </trkpt>
      <trkpt lat="43.78307" lon="3.37585">
        <ele>400.91458398448</ele>
        <time>2015-05-30T18:03:50Z</time>
      </trkpt>
      <trkpt lat="43.7831" lon="3.37596">
        <ele>400.91458398448</ele>
        <time>2015-05-30T18:03:55Z</time>
      </trkpt>
      <trkpt lat="43.78314" lon="3.37599">
        <ele>400.39987193446</ele>
        <time>2015-05-30T18:04:00Z</time>
      </trkpt>
      <trkpt lat="43.78317" lon="3.37602">
        <ele>400.39987193446</ele>
        <time>2015-05-30T18:04:05Z</time>
      </trkpt>
      <trkpt lat="43.78323" lon="3.37608">
        <ele>400.0034499609</ele>
        <time>2015-05-30T18:04:18Z</time>
      </trkpt>
      <trkpt lat="43.78336" lon="3.37614">
        <ele>399.71506810388</ele>
        <time>2015-05-30T18:04:20Z</time>
      </trkpt>
      <trkpt lat="43.78341" lon="3.37615">
        <ele>399.71506810388</ele>
        <time>2015-05-30T18:04:25Z</time>
      </trkpt>
      <trkpt lat="43.78347" lon="3.37619">
        <ele>399.52489204959</ele>
        <time>2015-05-30T18:04:35Z</time>
      </trkpt>
      <trkpt lat="43.78369" lon="3.37623">
        <ele>399.42350847217</ele>
        <time>2015-05-30T18:04:50Z</time>
      </trkpt>
      <trkpt lat="43.78378" lon="3.37626">
        <ele>399.41634022649</ele>
        <time>2015-05-30T18:04:55Z</time>
      </trkpt>
      <trkpt lat="43.78401" lon="3.37647">
        <ele>399.46490555175</ele>
        <time>2015-05-30T18:05:25Z</time>
      </trkpt>
      <trkpt lat="43.78404" lon="3.37652">
        <ele>399.46490555175</ele>
        <time>2015-05-30T18:05:30Z</time>
      </trkpt>
      <trkpt lat="43.78413" lon="3.37667">
        <ele>399.53339329471</ele>
        <time>2015-05-30T18:05:41Z</time>
      </trkpt>
      <trkpt lat="43.78421" lon="3.37684">
        <ele>399.67504251474</ele>
        <time>2015-05-30T18:05:51Z</time>
      </trkpt>
      <trkpt lat="43.78423" lon="3.37689">
        <ele>399.67504251474</ele>
        <time>2015-05-30T18:05:59Z</time>
      </trkpt>
      <trkpt lat="43.78428" lon="3.37696">
        <ele>399.85252653836</ele>
        <time>2015-05-30T18:06:04Z</time>
      </trkpt>
      <trkpt lat="43.78438" lon="3.37708">
        <ele>400.06000756745</ele>
        <time>2015-05-30T18:06:15Z</time>
      </trkpt>
      <trkpt lat="43.78442" lon="3.3773">
        <ele>400.32084764787</ele>
        <time>2015-05-30T18:06:35Z</time>
      </trkpt>
      <trkpt lat="43.78442" lon="3.37732">
        <ele>400.32084764787</ele>
        <time>2015-05-30T18:06:40Z</time>
      </trkpt>
      <trkpt lat="43.78458" lon="3.37735">
        <ele>400.5557053937</ele>
        <time>2015-05-30T18:07:35Z</time>
      </trkpt>
      <trkpt lat="43.78462" lon="3.37736">
        <ele>400.5557053937</ele>
        <time>2015-05-30T18:07:40Z</time>
      </trkpt>
      <trkpt lat="43.78465" lon="3.3774">
        <ele>400.5557053937</ele>
        <time>2015-05-30T18:07:45Z</time>
      </trkpt>
      <trkpt lat="43.78469" lon="3.37746">
        <ele>400.82088783477</ele>
        <time>2015-05-30T18:07:50Z</time>
      </trkpt>
      <trkpt lat="43.78473" lon="3.37751">
        <ele>400.82088783477</ele>
        <time>2015-05-30T18:07:55Z</time>
      </trkpt>
      <trkpt lat="43.78482" lon="3.3776">
        <ele>401.11088967189</ele>
        <time>2015-05-30T18:08:05Z</time>
      </trkpt>
      <trkpt lat="43.78488" lon="3.37767">
        <ele>401.11088967189</ele>
        <time>2015-05-30T18:08:17Z</time>
      </trkpt>
      <trkpt lat="43.78501" lon="3.37789">
        <ele>401.37736634415</ele>
        <time>2015-05-30T18:08:30Z</time>
      </trkpt>
      <trkpt lat="43.78505" lon="3.37797">
        <ele>401.37736634415</ele>
        <time>2015-05-30T18:08:35Z</time>
      </trkpt>
      <trkpt lat="43.78524" lon="3.37821">
        <ele>401.61888848471</ele>
        <time>2015-05-30T18:08:50Z</time>
      </trkpt>
      <trkpt lat="43.78528" lon="3.37828">
        <ele>401.61888848471</ele>
        <time>2015-05-30T18:08:55Z</time>
      </trkpt>
      <trkpt lat="43.7853" lon="3.37833">
        <ele>401.86309306223</ele>
        <time>2015-05-30T18:09:07Z</time>
      </trkpt>
      <trkpt lat="43.78542" lon="3.37841">
        <ele>402.0491856101</ele>
        <time>2015-05-30T18:09:15Z</time>
      </trkpt>
      <trkpt lat="43.78551" lon="3.37856">
        <ele>402.20754346233</ele>
        <time>2015-05-30T18:09:24Z</time>
      </trkpt>
      <trkpt lat="43.78552" lon="3.37857">
        <ele>402.20754346233</ele>
        <time>2015-05-30T18:09:25Z</time>
      </trkpt>
      <trkpt lat="43.78552" lon="3.37861">
        <ele>402.20754346233</ele>
        <time>2015-05-30T18:09:30Z</time>
      </trkpt>
      <trkpt lat="43.78549" lon="3.37871">
        <ele>402.43852463007</ele>
        <time>2015-05-30T18:09:41Z</time>
      </trkpt>
      <trkpt lat="43.78549" lon="3.37875">
        <ele>402.43852463007</ele>
        <time>2015-05-30T18:09:49Z</time>
      </trkpt>
      <trkpt lat="43.7855" lon="3.37875">
        <ele>402.43852463007</ele>
        <time>2015-05-30T18:09:50Z</time>
      </trkpt>
      <trkpt lat="43.7855" lon="3.37874">
        <ele>402.43852463007</ele>
        <time>2015-05-30T18:09:56Z</time>
      </trkpt>
      <trkpt lat="43.78544" lon="3.37874">
        <ele>402.70529208345</ele>
        <time>2015-05-30T18:10:28Z</time>
      </trkpt>
      <trkpt lat="43.78527" lon="3.37875">
        <ele>403.06016409983</ele>
        <time>2015-05-30T18:10:40Z</time>
      </trkpt>
      <trkpt lat="43.78519" lon="3.37872">
        <ele>403.06016409983</ele>
        <time>2015-05-30T18:10:45Z</time>
      </trkpt>
      <trkpt lat="43.78517" lon="3.37872">
        <ele>403.45057563301</ele>
        <time>2015-05-30T18:10:50Z</time>
      </trkpt>
      <trkpt lat="43.78511" lon="3.37879">
        <ele>403.45057563301</ele>
        <time>2015-05-30T18:10:55Z</time>
      </trkpt>
      <trkpt lat="43.78508" lon="3.37885">
        <ele>403.82781017823</ele>
        <time>2015-05-30T18:11:00Z</time>
      </trkpt>
      <trkpt lat="43.78503" lon="3.37912">
        <ele>404.21891112315</ele>
        <time>2015-05-30T18:11:17Z</time>
      </trkpt>
      <trkpt lat="43.78502" lon="3.37913">
        <ele>404.21891112315</ele>
        <time>2015-05-30T18:11:20Z</time>
      </trkpt>
      <trkpt lat="43.78498" lon="3.37917">
        <ele>404.21891112315</ele>
        <time>2015-05-30T18:11:25Z</time>
      </trkpt>
      <trkpt lat="43.7848" lon="3.3792">
        <ele>404.60575325588</ele>
        <time>2015-05-30T18:11:36Z</time>
      </trkpt>
      <trkpt lat="43.78477" lon="3.3792">
        <ele>404.60575325588</ele>
        <time>2015-05-30T18:11:44Z</time>
      </trkpt>
      <trkpt lat="43.78469" lon="3.37908">
        <ele>404.97164621793</ele>
        <time>2015-05-30T18:11:52Z</time>
      </trkpt>
      <trkpt lat="43.78459" lon="3.37902">
        <ele>405.33009894503</ele>
        <time>2015-05-30T18:11:55Z</time>
      </trkpt>
      <trkpt lat="43.78455" lon="3.37906">
        <ele>405.33009894503</ele>
        <time>2015-05-30T18:12:00Z</time>
      </trkpt>
      <trkpt lat="43.78448" lon="3.37916">
        <ele>405.60727468113</ele>
        <time>2015-05-30T18:12:05Z</time>
      </trkpt>
      <trkpt lat="43.78445" lon="3.37921">
        <ele>405.60727468113</ele>
        <time>2015-05-30T18:12:16Z</time>
      </trkpt>
      <trkpt lat="43.78437" lon="3.37933">
        <ele>405.70625842642</ele>
        <time>2015-05-30T18:12:22Z</time>
      </trkpt>
      <trkpt lat="43.78434" lon="3.37962">
        <ele>405.69636724953</ele>
        <time>2015-05-30T18:12:35Z</time>
      </trkpt>
      <trkpt lat="43.78433" lon="3.37968">
        <ele>405.69636724953</ele>
        <time>2015-05-30T18:12:40Z</time>
      </trkpt>
      <trkpt lat="43.78435" lon="3.37979">
        <ele>405.64221991639</ele>
        <time>2015-05-30T18:12:45Z</time>
      </trkpt>
      <trkpt lat="43.78437" lon="3.37985">
        <ele>405.64221991639</ele>
        <time>2015-05-30T18:12:50Z</time>
      </trkpt>
      <trkpt lat="43.78439" lon="3.37991">
        <ele>405.56066419038</ele>
        <time>2015-05-30T18:12:55Z</time>
      </trkpt>
      <trkpt lat="43.78443" lon="3.38002">
        <ele>405.56066419038</ele>
        <time>2015-05-30T18:13:01Z</time>
      </trkpt>
      <trkpt lat="43.78443" lon="3.38004">
        <ele>405.43864603617</ele>
        <time>2015-05-30T18:13:17Z</time>
      </trkpt>
      <trkpt lat="43.78442" lon="3.38036">
        <ele>405.26426077472</ele>
        <time>2015-05-30T18:13:25Z</time>
      </trkpt>
      <trkpt lat="43.78433" lon="3.3805">
        <ele>405.01228635399</ele>
        <time>2015-05-30T18:14:00Z</time>
      </trkpt>
      <trkpt lat="43.78445" lon="3.38065">
        <ele>404.63081627153</ele>
        <time>2015-05-30T18:14:05Z</time>
      </trkpt>
      <trkpt lat="43.78445" lon="3.38068">
        <ele>404.63081627153</ele>
        <time>2015-05-30T18:14:10Z</time>
      </trkpt>
      <trkpt lat="43.78444" lon="3.38072">
        <ele>404.63081627153</ele>
        <time>2015-05-30T18:14:15Z</time>
      </trkpt>
      <trkpt lat="43.78441" lon="3.38077">
        <ele>404.21629343647</ele>
        <time>2015-05-30T18:14:20Z</time>
      </trkpt>
      <trkpt lat="43.78435" lon="3.38084">
        <ele>404.21629343647</ele>
        <time>2015-05-30T18:14:25Z</time>
      </trkpt>
      <trkpt lat="43.7843" lon="3.38091">
        <ele>403.82940291735</ele>
        <time>2015-05-30T18:14:33Z</time>
      </trkpt>
      <trkpt lat="43.78429" lon="3.3809">
        <ele>403.82940291735</ele>
        <time>2015-05-30T18:14:35Z</time>
      </trkpt>
      <trkpt lat="43.78409" lon="3.381">
        <ele>403.56957848101</ele>
        <time>2015-05-30T18:15:07Z</time>
      </trkpt>
      <trkpt lat="43.78404" lon="3.38128">
        <ele>403.34129408402</ele>
        <time>2015-05-30T18:15:15Z</time>
      </trkpt>
      <trkpt lat="43.78386" lon="3.38185">
        <ele>403.05599323349</ele>
        <time>2015-05-30T18:15:51Z</time>
      </trkpt>
      <trkpt lat="43.78384" lon="3.38194">
        <ele>403.05599323349</ele>
        <time>2015-05-30T18:15:56Z</time>
      </trkpt>
      <trkpt lat="43.78382" lon="3.38202">
        <ele>402.70387665409</ele>
        <time>2015-05-30T18:16:00Z</time>
      </trkpt>
      <trkpt lat="43.7838" lon="3.38213">
        <ele>402.70387665409</ele>
        <time>2015-05-30T18:16:05Z</time>
      </trkpt>
      <trkpt lat="43.78412" lon="3.38251">
        <ele>402.52107390025</ele>
        <time>2015-05-30T18:16:51Z</time>
      </trkpt>
      <trkpt lat="43.78416" lon="3.38256">
        <ele>402.52107390025</ele>
        <time>2015-05-30T18:16:55Z</time>
      </trkpt>
      <trkpt lat="43.78419" lon="3.38261">
        <ele>402.38005583874</ele>
        <time>2015-05-30T18:17:00Z</time>
      </trkpt>
      <trkpt lat="43.78424" lon="3.38265">
        <ele>402.38005583874</ele>
        <time>2015-05-30T18:17:05Z</time>
      </trkpt>
      <trkpt lat="43.78427" lon="3.38269">
        <ele>402.22021463344</ele>
        <time>2015-05-30T18:17:10Z</time>
      </trkpt>
      <trkpt lat="43.78431" lon="3.38272">
        <ele>402.22021463344</ele>
        <time>2015-05-30T18:17:15Z</time>
      </trkpt>
      <trkpt lat="43.78436" lon="3.38274">
        <ele>402.05752616173</ele>
        <time>2015-05-30T18:17:23Z</time>
      </trkpt>
      <trkpt lat="43.78437" lon="3.38274">
        <ele>402.05752616173</ele>
        <time>2015-05-30T18:17:30Z</time>
      </trkpt>
      <trkpt lat="43.78443" lon="3.38279">
        <ele>402.05752616173</ele>
        <time>2015-05-30T18:17:57Z</time>
      </trkpt>
      <trkpt lat="43.78441" lon="3.38293">
        <ele>401.8635880998</ele>
        <time>2015-05-30T18:18:30Z</time>
      </trkpt>
      <trkpt lat="43.78436" lon="3.38306">
        <ele>401.66983513264</ele>
        <time>2015-05-30T18:18:51Z</time>
      </trkpt>
      <trkpt lat="43.78458" lon="3.383">
        <ele>401.49099736422</ele>
        <time>2015-05-30T18:20:00Z</time>
      </trkpt>
      <trkpt lat="43.78447" lon="3.3831">
        <ele>401.41275082261</ele>
        <time>2015-05-30T18:20:05Z</time>
      </trkpt>
      <trkpt lat="43.7844" lon="3.38317">
        <ele>401.41275082261</ele>
        <time>2015-05-30T18:20:13Z</time>
      </trkpt>
      <trkpt lat="43.78439" lon="3.38321">
        <ele>401.31245246308</ele>
        <time>2015-05-30T18:20:16Z</time>
      </trkpt>
      <trkpt lat="43.78435" lon="3.38335">
        <ele>401.23506368867</ele>
        <time>2015-05-30T18:20:58Z</time>
      </trkpt>
      <trkpt lat="43.78425" lon="3.38387">
        <ele>401.22218876547</ele>
        <time>2015-05-30T18:21:00Z</time>
      </trkpt>
      <trkpt lat="43.78423" lon="3.38392">
        <ele>401.22218876547</ele>
        <time>2015-05-30T18:21:05Z</time>
      </trkpt>
      <trkpt lat="43.7842" lon="3.38395">
        <ele>401.22218876547</ele>
        <time>2015-05-30T18:21:10Z</time>
      </trkpt>
      <trkpt lat="43.78417" lon="3.38397">
        <ele>401.26897070628</ele>
        <time>2015-05-30T18:21:17Z</time>
      </trkpt>
      <trkpt lat="43.78414" lon="3.38402">
        <ele>401.26897070628</ele>
        <time>2015-05-30T18:21:28Z</time>
      </trkpt>
      <trkpt lat="43.78424" lon="3.38407">
        <ele>401.44280664999</ele>
        <time>2015-05-30T18:22:00Z</time>
      </trkpt>
      <trkpt lat="43.78425" lon="3.38407">
        <ele>401.44280664999</ele>
        <time>2015-05-30T18:22:06Z</time>
      </trkpt>
      <trkpt lat="43.7842" lon="3.38412">
        <ele>401.44280664999</ele>
        <time>2015-05-30T18:22:20Z</time>
      </trkpt>
      <trkpt lat="43.78415" lon="3.3842">
        <ele>401.63286233713</ele>
        <time>2015-05-30T18:23:05Z</time>
      </trkpt>
      <trkpt lat="43.78414" lon="3.38419">
        <ele>401.63286233713</ele>
        <time>2015-05-30T18:23:10Z</time>
      </trkpt>
      <trkpt lat="43.78407" lon="3.38428">
        <ele>401.83728776129</ele>
        <time>2015-05-30T18:23:21Z</time>
      </trkpt>
      <trkpt lat="43.78407" lon="3.3843">
        <ele>401.83728776129</ele>
        <time>2015-05-30T18:23:29Z</time>
      </trkpt>
      <trkpt lat="43.78401" lon="3.38434">
        <ele>401.83728776129</ele>
        <time>2015-05-30T18:23:30Z</time>
      </trkpt>
      <trkpt lat="43.78399" lon="3.38436">
        <ele>402.0543396837</ele>
        <time>2015-05-30T18:23:41Z</time>
      </trkpt>
      <trkpt lat="43.78387" lon="3.38476">
        <ele>402.2535576134</ele>
        <time>2015-05-30T18:24:00Z</time>
      </trkpt>
      <trkpt lat="43.78383" lon="3.38484">
        <ele>402.2535576134</ele>
        <time>2015-05-30T18:24:07Z</time>
      </trkpt>
      <trkpt lat="43.78378" lon="3.38487">
        <ele>402.39237091464</ele>
        <time>2015-05-30T18:24:10Z</time>
      </trkpt>
      <trkpt lat="43.78373" lon="3.38515">
        <ele>402.35946386795</ele>
        <time>2015-05-30T18:24:20Z</time>
      </trkpt>
      <trkpt lat="43.78363" lon="3.3854">
        <ele>402.25394905442</ele>
        <time>2015-05-30T18:24:40Z</time>
      </trkpt>
      <trkpt lat="43.78352" lon="3.38572">
        <ele>402.16787506731</ele>
        <time>2015-05-30T18:25:05Z</time>
      </trkpt>
      <trkpt lat="43.78354" lon="3.38605">
        <ele>402.22971960033</ele>
        <time>2015-05-30T18:25:25Z</time>
      </trkpt>
      <trkpt lat="43.78354" lon="3.38612">
        <ele>402.22971960033</ele>
        <time>2015-05-30T18:25:35Z</time>
      </trkpt>
      <trkpt lat="43.78351" lon="3.38626">
        <ele>402.34195189942</ele>
        <time>2015-05-30T18:25:44Z</time>
      </trkpt>
      <trkpt lat="43.78343" lon="3.38668">
        <ele>402.60141971712</ele>
        <time>2015-05-30T18:26:05Z</time>
      </trkpt>
      <trkpt lat="43.78345" lon="3.38677">
        <ele>402.60141971712</ele>
        <time>2015-05-30T18:26:10Z</time>
      </trkpt>
      <trkpt lat="43.78345" lon="3.38684">
        <ele>402.92452114487</ele>
        <time>2015-05-30T18:26:15Z</time>
      </trkpt>
      <trkpt lat="43.78347" lon="3.3869">
        <ele>402.92452114487</ele>
        <time>2015-05-30T18:26:20Z</time>
      </trkpt>
      <trkpt lat="43.78349" lon="3.38699">
        <ele>403.29127380328</ele>
        <time>2015-05-30T18:26:26Z</time>
      </trkpt>
      <trkpt lat="43.7837" lon="3.38724">
        <ele>403.81275480035</ele>
        <time>2015-05-30T18:26:48Z</time>
      </trkpt>
      <trkpt lat="43.78371" lon="3.38727">
        <ele>403.81275480035</ele>
        <time>2015-05-30T18:26:50Z</time>
      </trkpt>
      <trkpt lat="43.78373" lon="3.38731">
        <ele>403.81275480035</ele>
        <time>2015-05-30T18:26:55Z</time>
      </trkpt>
      <trkpt lat="43.78379" lon="3.38736">
        <ele>404.3464747813</ele>
        <time>2015-05-30T18:27:01Z</time>
      </trkpt>
      <trkpt lat="43.78386" lon="3.3874">
        <ele>404.3464747813</ele>
        <time>2015-05-30T18:27:05Z</time>
      </trkpt>
      <trkpt lat="43.78406" lon="3.38767">
        <ele>405.03420749178</ele>
        <time>2015-05-30T18:27:30Z</time>
      </trkpt>
      <trkpt lat="43.78407" lon="3.38769">
        <ele>405.03420749178</ele>
        <time>2015-05-30T18:27:41Z</time>
      </trkpt>
      <trkpt lat="43.78419" lon="3.3878">
        <ele>405.761913255</ele>
        <time>2015-05-30T18:27:50Z</time>
      </trkpt>
      <trkpt lat="43.7843" lon="3.38784">
        <ele>406.52472113922</ele>
        <time>2015-05-30T18:28:00Z</time>
      </trkpt>
      <trkpt lat="43.78438" lon="3.38788">
        <ele>406.52472113922</ele>
        <time>2015-05-30T18:28:09Z</time>
      </trkpt>
      <trkpt lat="43.78466" lon="3.38791">
        <ele>407.51980502436</ele>
        <time>2015-05-30T18:28:24Z</time>
      </trkpt>
      <trkpt lat="43.78467" lon="3.38792">
        <ele>407.51980502436</ele>
        <time>2015-05-30T18:28:25Z</time>
      </trkpt>
      <trkpt lat="43.78486" lon="3.38799">
        <ele>408.66983724503</ele>
        <time>2015-05-30T18:28:45Z</time>
      </trkpt>
      <trkpt lat="43.78491" lon="3.38803">
        <ele>408.66983724503</ele>
        <time>2015-05-30T18:28:50Z</time>
      </trkpt>
      <trkpt lat="43.78492" lon="3.38806">
        <ele>408.66983724503</ele>
        <time>2015-05-30T18:29:00Z</time>
      </trkpt>
      <trkpt lat="43.78501" lon="3.38818">
        <ele>409.9892422887</ele>
        <time>2015-05-30T18:29:05Z</time>
      </trkpt>
      <trkpt lat="43.78502" lon="3.38821">
        <ele>409.9892422887</ele>
        <time>2015-05-30T18:29:14Z</time>
      </trkpt>
      <trkpt lat="43.78493" lon="3.38829">
        <ele>411.37566654065</ele>
        <time>2015-05-30T18:29:30Z</time>
      </trkpt>
      <trkpt lat="43.78493" lon="3.38834">
        <ele>411.37566654065</ele>
        <time>2015-05-30T18:29:35Z</time>
      </trkpt>
      <trkpt lat="43.78491" lon="3.38845">
        <ele>412.63326113654</ele>
        <time>2015-05-30T18:29:45Z</time>
      </trkpt>
      <trkpt lat="43.78481" lon="3.3886">
        <ele>413.8836167763</ele>
        <time>2015-05-30T18:30:05Z</time>
      </trkpt>
      <trkpt lat="43.78479" lon="3.38875">
        <ele>415.02330879301</ele>
        <time>2015-05-30T18:30:15Z</time>
      </trkpt>
      <trkpt lat="43.78472" lon="3.38907">
        <ele>416.05776553606</ele>
        <time>2015-05-30T18:30:35Z</time>
      </trkpt>
      <trkpt lat="43.78472" lon="3.38916">
        <ele>416.05776553606</ele>
        <time>2015-05-30T18:30:40Z</time>
      </trkpt>
      <trkpt lat="43.78475" lon="3.38927">
        <ele>417.06443768565</ele>
        <time>2015-05-30T18:30:47Z</time>
      </trkpt>
      <trkpt lat="43.78475" lon="3.38938">
        <ele>417.06443768565</ele>
        <time>2015-05-30T18:31:02Z</time>
      </trkpt>
      <trkpt lat="43.78477" lon="3.38958">
        <ele>417.98553660543</ele>
        <time>2015-05-30T18:31:05Z</time>
      </trkpt>
      <trkpt lat="43.78488" lon="3.38982">
        <ele>418.85429879055</ele>
        <time>2015-05-30T18:31:30Z</time>
      </trkpt>
      <trkpt lat="43.78488" lon="3.38983">
        <ele>418.85429879055</ele>
        <time>2015-05-30T18:31:39Z</time>
      </trkpt>
      <trkpt lat="43.7849" lon="3.3899">
        <ele>418.85429879055</ele>
        <time>2015-05-30T18:31:40Z</time>
      </trkpt>
      <trkpt lat="43.78488" lon="3.38993">
        <ele>419.70173948202</ele>
        <time>2015-05-30T18:31:45Z</time>
      </trkpt>
      <trkpt lat="43.78487" lon="3.38995">
        <ele>419.70173948202</ele>
        <time>2015-05-30T18:31:58Z</time>
      </trkpt>
      <trkpt lat="43.78479" lon="3.39006">
        <ele>420.61437303434</ele>
        <time>2015-05-30T18:32:03Z</time>
      </trkpt>
      <trkpt lat="43.78477" lon="3.39007">
        <ele>420.61437303434</ele>
        <time>2015-05-30T18:32:05Z</time>
      </trkpt>
      <trkpt lat="43.78472" lon="3.39012">
        <ele>420.61437303434</ele>
        <time>2015-05-30T18:32:10Z</time>
      </trkpt>
      <trkpt lat="43.78468" lon="3.39018">
        <ele>421.49931472798</ele>
        <time>2015-05-30T18:32:15Z</time>
      </trkpt>
      <trkpt lat="43.78465" lon="3.39024">
        <ele>421.49931472798</ele>
        <time>2015-05-30T18:32:20Z</time>
      </trkpt>
      <trkpt lat="43.78462" lon="3.39034">
        <ele>422.31388564233</ele>
        <time>2015-05-30T18:32:25Z</time>
      </trkpt>
      <trkpt lat="43.7846" lon="3.39044">
        <ele>422.31388564233</ele>
        <time>2015-05-30T18:32:30Z</time>
      </trkpt>
      <trkpt lat="43.78461" lon="3.3905">
        <ele>423.06204299165</ele>
        <time>2015-05-30T18:32:35Z</time>
      </trkpt>
      <trkpt lat="43.78461" lon="3.3906">
        <ele>423.06204299165</ele>
        <time>2015-05-30T18:32:40Z</time>
      </trkpt>
      <trkpt lat="43.78462" lon="3.39071">
        <ele>423.70447466084</ele>
        <time>2015-05-30T18:32:48Z</time>
      </trkpt>
      <trkpt lat="43.78461" lon="3.39074">
        <ele>423.70447466084</ele>
        <time>2015-05-30T18:32:50Z</time>
      </trkpt>
      <trkpt lat="43.78456" lon="3.39087">
        <ele>424.26276337111</ele>
        <time>2015-05-30T18:33:00Z</time>
      </trkpt>
      <trkpt lat="43.78454" lon="3.39092">
        <ele>424.26276337111</ele>
        <time>2015-05-30T18:33:05Z</time>
      </trkpt>
      <trkpt lat="43.78454" lon="3.39101">
        <ele>424.69956064894</ele>
        <time>2015-05-30T18:33:12Z</time>
      </trkpt>
      <trkpt lat="43.78456" lon="3.39112">
        <ele>424.69956064894</ele>
        <time>2015-05-30T18:33:21Z</time>
      </trkpt>
      <trkpt lat="43.78444" lon="3.39122">
        <ele>425.15359471507</ele>
        <time>2015-05-30T18:34:12Z</time>
      </trkpt>
      <trkpt lat="43.78438" lon="3.39189">
        <ele>425.94075428812</ele>
        <time>2015-05-30T18:34:15Z</time>
      </trkpt>
      <trkpt lat="43.78437" lon="3.39193">
        <ele>425.94075428812</ele>
        <time>2015-05-30T18:34:25Z</time>
      </trkpt>
      <trkpt lat="43.78438" lon="3.39214">
        <ele>426.81962923243</ele>
        <time>2015-05-30T18:34:35Z</time>
      </trkpt>
      <trkpt lat="43.78437" lon="3.39225">
        <ele>426.81962923243</ele>
        <time>2015-05-30T18:34:40Z</time>
      </trkpt>
      <trkpt lat="43.78435" lon="3.39232">
        <ele>428.07072519281</ele>
        <time>2015-05-30T18:34:45Z</time>
      </trkpt>
      <trkpt lat="43.78432" lon="3.39241">
        <ele>428.07072519281</ele>
        <time>2015-05-30T18:34:50Z</time>
      </trkpt>
      <trkpt lat="43.78432" lon="3.39248">
        <ele>429.44855864881</ele>
        <time>2015-05-30T18:34:55Z</time>
      </trkpt>
      <trkpt lat="43.78435" lon="3.39254">
        <ele>429.44855864881</ele>
        <time>2015-05-30T18:35:00Z</time>
      </trkpt>
      <trkpt lat="43.78436" lon="3.39262">
        <ele>430.72537451711</ele>
        <time>2015-05-30T18:35:05Z</time>
      </trkpt>
      <trkpt lat="43.78436" lon="3.3927">
        <ele>430.72537451711</ele>
        <time>2015-05-30T18:35:10Z</time>
      </trkpt>
      <trkpt lat="43.78436" lon="3.39275">
        <ele>431.93547338995</ele>
        <time>2015-05-30T18:35:15Z</time>
      </trkpt>
      <trkpt lat="43.78435" lon="3.39283">
        <ele>431.93547338995</ele>
        <time>2015-05-30T18:35:20Z</time>
      </trkpt>
      <trkpt lat="43.78434" lon="3.3929">
        <ele>433.03882193539</ele>
        <time>2015-05-30T18:35:25Z</time>
      </trkpt>
      <trkpt lat="43.78432" lon="3.39299">
        <ele>433.03882193539</ele>
        <time>2015-05-30T18:35:30Z</time>
      </trkpt>
      <trkpt lat="43.78431" lon="3.39305">
        <ele>433.98427096762</ele>
        <time>2015-05-30T18:35:35Z</time>
      </trkpt>
      <trkpt lat="43.78431" lon="3.39309">
        <ele>433.98427096762</ele>
        <time>2015-05-30T18:35:40Z</time>
      </trkpt>
      <trkpt lat="43.78431" lon="3.39315">
        <ele>433.98427096762</ele>
        <time>2015-05-30T18:35:45Z</time>
      </trkpt>
      <trkpt lat="43.78427" lon="3.39322">
        <ele>434.82580409727</ele>
        <time>2015-05-30T18:35:55Z</time>
      </trkpt>
      <trkpt lat="43.7842" lon="3.39331">
        <ele>435.54172843687</ele>
        <time>2015-05-30T18:36:00Z</time>
      </trkpt>
      <trkpt lat="43.78416" lon="3.3933">
        <ele>435.54172843687</ele>
        <time>2015-05-30T18:36:05Z</time>
      </trkpt>
      <trkpt lat="43.78413" lon="3.39328">
        <ele>435.54172843687</ele>
        <time>2015-05-30T18:36:10Z</time>
      </trkpt>
      <trkpt lat="43.78411" lon="3.39329">
        <ele>436.15558100964</ele>
        <time>2015-05-30T18:36:15Z</time>
      </trkpt>
      <trkpt lat="43.78406" lon="3.39326">
        <ele>436.15558100964</ele>
        <time>2015-05-30T18:36:20Z</time>
      </trkpt>
      <trkpt lat="43.78402" lon="3.39324">
        <ele>436.68950336198</ele>
        <time>2015-05-30T18:36:25Z</time>
      </trkpt>
      <trkpt lat="43.78401" lon="3.39326">
        <ele>436.68950336198</ele>
        <time>2015-05-30T18:36:30Z</time>
      </trkpt>
      <trkpt lat="43.78398" lon="3.39329">
        <ele>436.68950336198</ele>
        <time>2015-05-30T18:36:35Z</time>
      </trkpt>
      <trkpt lat="43.78396" lon="3.39334">
        <ele>437.1210443974</ele>
        <time>2015-05-30T18:36:40Z</time>
      </trkpt>
      <trkpt lat="43.78392" lon="3.39339">
        <ele>437.1210443974</ele>
        <time>2015-05-30T18:36:45Z</time>
      </trkpt>
      <trkpt lat="43.7839" lon="3.39342">
        <ele>437.1210443974</ele>
        <time>2015-05-30T18:36:50Z</time>
      </trkpt>
      <trkpt lat="43.78386" lon="3.39341">
        <ele>437.44413868773</ele>
        <time>2015-05-30T18:36:55Z</time>
      </trkpt>
      <trkpt lat="43.78382" lon="3.39343">
        <ele>437.44413868773</ele>
        <time>2015-05-30T18:37:00Z</time>
      </trkpt>
      <trkpt lat="43.78375" lon="3.39343">
        <ele>437.71114777588</ele>
        <time>2015-05-30T18:37:05Z</time>
      </trkpt>
      <trkpt lat="43.78368" lon="3.39349">
        <ele>437.71114777588</ele>
        <time>2015-05-30T18:37:10Z</time>
      </trkpt>
      <trkpt lat="43.78364" lon="3.39358">
        <ele>437.94194883179</ele>
        <time>2015-05-30T18:37:15Z</time>
      </trkpt>
      <trkpt lat="43.78365" lon="3.39367">
        <ele>437.94194883179</ele>
        <time>2015-05-30T18:37:20Z</time>
      </trkpt>
      <trkpt lat="43.78362" lon="3.39371">
        <ele>438.12625918677</ele>
        <time>2015-05-30T18:37:25Z</time>
      </trkpt>
      <trkpt lat="43.78362" lon="3.39375">
        <ele>438.12625918677</ele>
        <time>2015-05-30T18:37:30Z</time>
      </trkpt>
      <trkpt lat="43.78362" lon="3.3938">
        <ele>438.12625918677</ele>
        <time>2015-05-30T18:37:35Z</time>
      </trkpt>
      <trkpt lat="43.78359" lon="3.39387">
        <ele>438.16822999911</ele>
        <time>2015-05-30T18:37:40Z</time>
      </trkpt>
      <trkpt lat="43.78355" lon="3.39389">
        <ele>438.16822999911</ele>
        <time>2015-05-30T18:37:45Z</time>
      </trkpt>
      <trkpt lat="43.78352" lon="3.39387">
        <ele>438.16822999911</ele>
        <time>2015-05-30T18:37:50Z</time>
      </trkpt>
      <trkpt lat="43.78352" lon="3.39386">
        <ele>438.16822999911</ele>
        <time>2015-05-30T18:38:01Z</time>
      </trkpt>
      <trkpt lat="43.78344" lon="3.39387">
        <ele>438.13798339491</ele>
        <time>2015-05-30T18:38:05Z</time>
      </trkpt>
      <trkpt lat="43.78338" lon="3.39387">
        <ele>438.13798339491</ele>
        <time>2015-05-30T18:38:12Z</time>
      </trkpt>
      <trkpt lat="43.78335" lon="3.39381">
        <ele>438.04305032433</ele>
        <time>2015-05-30T18:38:15Z</time>
      </trkpt>
      <trkpt lat="43.78333" lon="3.39378">
        <ele>438.04305032433</ele>
        <time>2015-05-30T18:38:20Z</time>
      </trkpt>
      <trkpt lat="43.78333" lon="3.39377">
        <ele>438.04305032433</ele>
        <time>2015-05-30T18:38:26Z</time>
      </trkpt>
      <trkpt lat="43.78319" lon="3.39384">
        <ele>438.26527475758</ele>
        <time>2015-05-30T18:39:15Z</time>
      </trkpt>
      <trkpt lat="43.78317" lon="3.39382">
        <ele>438.26527475758</ele>
        <time>2015-05-30T18:39:20Z</time>
      </trkpt>
      <trkpt lat="43.78317" lon="3.3938">
        <ele>438.26527475758</ele>
        <time>2015-05-30T18:39:27Z</time>
      </trkpt>
      <trkpt lat="43.78319" lon="3.39375">
        <ele>438.26527475758</ele>
        <time>2015-05-30T18:39:30Z</time>
      </trkpt>
      <trkpt lat="43.7831" lon="3.39369">
        <ele>438.40817279316</ele>
        <time>2015-05-30T18:39:42Z</time>
      </trkpt>
      <trkpt lat="43.78309" lon="3.39369">
        <ele>438.40817279316</ele>
        <time>2015-05-30T18:39:42Z</time>
      </trkpt>
      <trkpt lat="43.78305" lon="3.39366">
        <ele>438.40817279316</ele>
        <time>2015-05-30T18:39:53Z</time>
      </trkpt>
      <trkpt lat="43.78297" lon="3.39319">
        <ele>438.56574924192</ele>
        <time>2015-05-30T18:41:16Z</time>
      </trkpt>
      <trkpt lat="43.78292" lon="3.39232">
        <ele>438.92592118826</ele>
        <time>2015-05-30T18:41:20Z</time>
      </trkpt>
      <trkpt lat="43.78291" lon="3.39222">
        <ele>438.92592118826</ele>
        <time>2015-05-30T18:41:25Z</time>
      </trkpt>
      <trkpt lat="43.78287" lon="3.39212">
        <ele>439.22987779561</ele>
        <time>2015-05-30T18:41:30Z</time>
      </trkpt>
      <trkpt lat="43.78283" lon="3.39206">
        <ele>439.22987779561</ele>
        <time>2015-05-30T18:41:41Z</time>
      </trkpt>
      <trkpt lat="43.78278" lon="3.39188">
        <ele>439.45412040884</ele>
        <time>2015-05-30T18:41:45Z</time>
      </trkpt>
      <trkpt lat="43.78262" lon="3.39142">
        <ele>439.73559612525</ele>
        <time>2015-05-30T18:42:20Z</time>
      </trkpt>
      <trkpt lat="43.78264" lon="3.39133">
        <ele>439.73559612525</ele>
        <time>2015-05-30T18:42:25Z</time>
      </trkpt>
      <trkpt lat="43.78267" lon="3.3911">
        <ele>440.04248116349</ele>
        <time>2015-05-30T18:42:36Z</time>
      </trkpt>
      <trkpt lat="43.78266" lon="3.39098">
        <ele>440.04248116349</ele>
        <time>2015-05-30T18:42:42Z</time>
      </trkpt>
      <trkpt lat="43.78265" lon="3.39093">
        <ele>440.1578438709</ele>
        <time>2015-05-30T18:42:45Z</time>
      </trkpt>
      <trkpt lat="43.78261" lon="3.3909">
        <ele>440.1578438709</ele>
        <time>2015-05-30T18:43:00Z</time>
      </trkpt>
      <trkpt lat="43.78251" lon="3.39078">
        <ele>439.86678207737</ele>
        <time>2015-05-30T18:43:20Z</time>
      </trkpt>
      <trkpt lat="43.78247" lon="3.39076">
        <ele>439.86678207737</ele>
        <time>2015-05-30T18:43:25Z</time>
      </trkpt>
      <trkpt lat="43.78242" lon="3.39074">
        <ele>439.86678207737</ele>
        <time>2015-05-30T18:43:30Z</time>
      </trkpt>
      <trkpt lat="43.78239" lon="3.39073">
        <ele>439.50449614415</ele>
        <time>2015-05-30T18:43:42Z</time>
      </trkpt>
      <trkpt lat="43.78227" lon="3.39072">
        <ele>439.07908945012</ele>
        <time>2015-05-30T18:43:50Z</time>
      </trkpt>
      <trkpt lat="43.78213" lon="3.39079">
        <ele>438.6414357257</ele>
        <time>2015-05-30T18:43:57Z</time>
      </trkpt>
      <trkpt lat="43.78208" lon="3.39082">
        <ele>438.6414357257</ele>
        <time>2015-05-30T18:44:00Z</time>
      </trkpt>
      <trkpt lat="43.78196" lon="3.39079">
        <ele>438.12336662661</ele>
        <time>2015-05-30T18:44:05Z</time>
      </trkpt>
      <trkpt lat="43.78188" lon="3.39079">
        <ele>438.12336662661</ele>
        <time>2015-05-30T18:44:10Z</time>
      </trkpt>
      <trkpt lat="43.78181" lon="3.39083">
        <ele>437.47630222963</ele>
        <time>2015-05-30T18:44:15Z</time>
      </trkpt>
      <trkpt lat="43.78175" lon="3.39083">
        <ele>437.47630222963</ele>
        <time>2015-05-30T18:44:20Z</time>
      </trkpt>
      <trkpt lat="43.78169" lon="3.39084">
        <ele>436.72758724578</ele>
        <time>2015-05-30T18:44:25Z</time>
      </trkpt>
      <trkpt lat="43.78166" lon="3.39082">
        <ele>436.72758724578</ele>
        <time>2015-05-30T18:44:30Z</time>
      </trkpt>
      <trkpt lat="43.78162" lon="3.39079">
        <ele>436.72758724578</ele>
        <time>2015-05-30T18:44:35Z</time>
      </trkpt>
      <trkpt lat="43.78158" lon="3.39077">
        <ele>435.91718680985</ele>
        <time>2015-05-30T18:44:40Z</time>
      </trkpt>
      <trkpt lat="43.78156" lon="3.39073">
        <ele>435.91718680985</ele>
        <time>2015-05-30T18:44:45Z</time>
      </trkpt>
      <trkpt lat="43.78156" lon="3.39072">
        <ele>435.91718680985</ele>
        <time>2015-05-30T18:44:50Z</time>
      </trkpt>
      <trkpt lat="43.78154" lon="3.39066">
        <ele>435.15428614786</ele>
        <time>2015-05-30T18:44:55Z</time>
      </trkpt>
      <trkpt lat="43.78155" lon="3.39064">
        <ele>435.15428614786</ele>
        <time>2015-05-30T18:45:00Z</time>
      </trkpt>
      <trkpt lat="43.78158" lon="3.3906">
        <ele>435.15428614786</ele>
        <time>2015-05-30T18:45:05Z</time>
      </trkpt>
      <trkpt lat="43.78162" lon="3.3906">
        <ele>434.3380827136</ele>
        <time>2015-05-30T18:45:10Z</time>
      </trkpt>
      <trkpt lat="43.78166" lon="3.3906">
        <ele>434.3380827136</ele>
        <time>2015-05-30T18:45:15Z</time>
      </trkpt>
      <trkpt lat="43.7817" lon="3.39059">
        <ele>434.3380827136</ele>
        <time>2015-05-30T18:45:20Z</time>
      </trkpt>
      <trkpt lat="43.78176" lon="3.3906">
        <ele>433.54817856325</ele>
        <time>2015-05-30T18:45:25Z</time>
      </trkpt>
      <trkpt lat="43.7818" lon="3.39059">
        <ele>433.54817856325</ele>
        <time>2015-05-30T18:45:30Z</time>
      </trkpt>
      <trkpt lat="43.78184" lon="3.39059">
        <ele>433.54817856325</ele>
        <time>2015-05-30T18:45:35Z</time>
      </trkpt>
      <trkpt lat="43.78188" lon="3.39058">
        <ele>432.74287782579</ele>
        <time>2015-05-30T18:45:40Z</time>
      </trkpt>
      <trkpt lat="43.78196" lon="3.39059">
        <ele>432.74287782579</ele>
        <time>2015-05-30T18:45:45Z</time>
      </trkpt>
      <trkpt lat="43.78211" lon="3.39056">
        <ele>431.79703226056</ele>
        <time>2015-05-30T18:45:59Z</time>
      </trkpt>
      <trkpt lat="43.78212" lon="3.39056">
        <ele>431.79703226056</ele>
        <time>2015-05-30T18:46:05Z</time>
      </trkpt>
      <trkpt lat="43.78211" lon="3.39052">
        <ele>431.79703226056</ele>
        <time>2015-05-30T18:46:15Z</time>
      </trkpt>
      <trkpt lat="43.78199" lon="3.39037">
        <ele>430.79674116768</ele>
        <time>2015-05-30T18:46:22Z</time>
      </trkpt>
      <trkpt lat="43.78192" lon="3.39033">
        <ele>430.79674116768</ele>
        <time>2015-05-30T18:46:25Z</time>
      </trkpt>
      <trkpt lat="43.78132" lon="3.39031">
        <ele>429.50478739196</ele>
        <time>2015-05-30T18:47:08Z</time>
      </trkpt>
      <trkpt lat="43.7813" lon="3.39031">
        <ele>429.50478739196</ele>
        <time>2015-05-30T18:47:10Z</time>
      </trkpt>
      <trkpt lat="43.78124" lon="3.3903">
        <ele>429.50478739196</ele>
        <time>2015-05-30T18:47:15Z</time>
      </trkpt>
      <trkpt lat="43.78117" lon="3.3903">
        <ele>428.26412729971</ele>
        <time>2015-05-30T18:47:20Z</time>
      </trkpt>
      <trkpt lat="43.78112" lon="3.3903">
        <ele>428.26412729971</ele>
        <time>2015-05-30T18:47:25Z</time>
      </trkpt>
      <trkpt lat="43.78107" lon="3.39027">
        <ele>427.16169387145</ele>
        <time>2015-05-30T18:47:30Z</time>
      </trkpt>
      <trkpt lat="43.78079" lon="3.3902">
        <ele>426.10460079304</ele>
        <time>2015-05-30T18:47:55Z</time>
      </trkpt>
      <trkpt lat="43.78075" lon="3.39014">
        <ele>426.10460079304</ele>
        <time>2015-05-30T18:48:04Z</time>
      </trkpt>
      <trkpt lat="43.78054" lon="3.38997">
        <ele>424.92007577951</ele>
        <time>2015-05-30T18:48:20Z</time>
      </trkpt>
      <trkpt lat="43.78047" lon="3.38996">
        <ele>424.92007577951</ele>
        <time>2015-05-30T18:48:25Z</time>
      </trkpt>
      <trkpt lat="43.78042" lon="3.38994">
        <ele>423.70767788451</ele>
        <time>2015-05-30T18:48:30Z</time>
      </trkpt>
      <trkpt lat="43.78037" lon="3.38992">
        <ele>423.70767788451</ele>
        <time>2015-05-30T18:48:35Z</time>
      </trkpt>
      <trkpt lat="43.78027" lon="3.38993">
        <ele>422.50196633876</ele>
        <time>2015-05-30T18:48:44Z</time>
      </trkpt>
      <trkpt lat="43.78027" lon="3.38994">
        <ele>422.50196633876</ele>
        <time>2015-05-30T18:48:45Z</time>
      </trkpt>
      <trkpt lat="43.78011" lon="3.39011">
        <ele>421.33482125611</ele>
        <time>2015-05-30T18:48:58Z</time>
      </trkpt>
      <trkpt lat="43.78008" lon="3.39014">
        <ele>421.33482125611</ele>
        <time>2015-05-30T18:49:00Z</time>
      </trkpt>
      <trkpt lat="43.78001" lon="3.39015">
        <ele>420.24996093756</ele>
        <time>2015-05-30T18:49:05Z</time>
      </trkpt>
      <trkpt lat="43.77995" lon="3.39015">
        <ele>420.24996093756</ele>
        <time>2015-05-30T18:49:10Z</time>
      </trkpt>
      <trkpt lat="43.77989" lon="3.39016">
        <ele>419.11460443951</ele>
        <time>2015-05-30T18:49:15Z</time>
      </trkpt>
      <trkpt lat="43.77983" lon="3.39015">
        <ele>419.11460443951</ele>
        <time>2015-05-30T18:49:20Z</time>
      </trkpt>
      <trkpt lat="43.77976" lon="3.39015">
        <ele>417.96426521543</ele>
        <time>2015-05-30T18:49:25Z</time>
      </trkpt>
      <trkpt lat="43.77969" lon="3.39016">
        <ele>417.96426521543</ele>
        <time>2015-05-30T18:49:30Z</time>
      </trkpt>
      <trkpt lat="43.77962" lon="3.39015">
        <ele>416.86058912309</ele>
        <time>2015-05-30T18:49:35Z</time>
      </trkpt>
      <trkpt lat="43.77957" lon="3.39014">
        <ele>416.86058912309</ele>
        <time>2015-05-30T18:49:40Z</time>
      </trkpt>
      <trkpt lat="43.77952" lon="3.39013">
        <ele>415.81720720857</ele>
        <time>2015-05-30T18:49:45Z</time>
      </trkpt>
      <trkpt lat="43.77946" lon="3.3901">
        <ele>415.81720720857</ele>
        <time>2015-05-30T18:49:50Z</time>
      </trkpt>
      <trkpt lat="43.77936" lon="3.39006">
        <ele>414.84645943001</ele>
        <time>2015-05-30T18:50:02Z</time>
      </trkpt>
      <trkpt lat="43.77922" lon="3.38989">
        <ele>414.00269047354</ele>
        <time>2015-05-30T18:50:15Z</time>
      </trkpt>
      <trkpt lat="43.77916" lon="3.3898">
        <ele>414.00269047354</ele>
        <time>2015-05-30T18:50:22Z</time>
      </trkpt>
      <trkpt lat="43.77914" lon="3.38979">
        <ele>413.20608127143</ele>
        <time>2015-05-30T18:50:25Z</time>
      </trkpt>
      <trkpt lat="43.77896" lon="3.38966">
        <ele>412.38243219534</ele>
        <time>2015-05-30T18:50:45Z</time>
      </trkpt>
      <trkpt lat="43.77895" lon="3.38963">
        <ele>412.38243219534</ele>
        <time>2015-05-30T18:50:56Z</time>
      </trkpt>
      <trkpt lat="43.77881" lon="3.38956">
        <ele>411.57825148472</ele>
        <time>2015-05-30T18:51:04Z</time>
      </trkpt>
      <trkpt lat="43.77862" lon="3.38937">
        <ele>410.72118408071</ele>
        <time>2015-05-30T18:51:21Z</time>
      </trkpt>
      <trkpt lat="43.77859" lon="3.38931">
        <ele>410.72118408071</ele>
        <time>2015-05-30T18:51:25Z</time>
      </trkpt>
      <trkpt lat="43.77839" lon="3.38895">
        <ele>409.72982807717</ele>
        <time>2015-05-30T18:51:50Z</time>
      </trkpt>
      <trkpt lat="43.77833" lon="3.3889">
        <ele>409.72982807717</ele>
        <time>2015-05-30T18:51:59Z</time>
      </trkpt>
      <trkpt lat="43.7783" lon="3.38886">
        <ele>408.77403155008</ele>
        <time>2015-05-30T18:52:00Z</time>
      </trkpt>
      <trkpt lat="43.77822" lon="3.38875">
        <ele>407.73716255627</ele>
        <time>2015-05-30T18:52:09Z</time>
      </trkpt>
      <trkpt lat="43.77821" lon="3.38873">
        <ele>407.73716255627</ele>
        <time>2015-05-30T18:52:10Z</time>
      </trkpt>
      <trkpt lat="43.77817" lon="3.38869">
        <ele>407.73716255627</ele>
        <time>2015-05-30T18:52:22Z</time>
      </trkpt>
      <trkpt lat="43.77805" lon="3.38875">
        <ele>406.6121728502</ele>
        <time>2015-05-30T18:53:08Z</time>
      </trkpt>
      <trkpt lat="43.77803" lon="3.38868">
        <ele>406.6121728502</ele>
        <time>2015-05-30T18:53:15Z</time>
      </trkpt>
      <trkpt lat="43.77799" lon="3.3885">
        <ele>405.53680363862</ele>
        <time>2015-05-30T18:53:22Z</time>
      </trkpt>
      <trkpt lat="43.778" lon="3.38846">
        <ele>405.53680363862</ele>
        <time>2015-05-30T18:53:27Z</time>
      </trkpt>
      <trkpt lat="43.77795" lon="3.38844">
        <ele>405.53680363862</ele>
        <time>2015-05-30T18:54:02Z</time>
      </trkpt>
      <trkpt lat="43.77788" lon="3.3884">
        <ele>404.11965349077</ele>
        <time>2015-05-30T18:54:05Z</time>
      </trkpt>
      <trkpt lat="43.77784" lon="3.38822">
        <ele>402.73391534939</ele>
        <time>2015-05-30T18:54:16Z</time>
      </trkpt>
      <trkpt lat="43.77777" lon="3.38812">
        <ele>401.52344150954</ele>
        <time>2015-05-30T18:54:23Z</time>
      </trkpt>
      <trkpt lat="43.77775" lon="3.38809">
        <ele>401.52344150954</ele>
        <time>2015-05-30T18:54:25Z</time>
      </trkpt>
      <trkpt lat="43.77773" lon="3.38804">
        <ele>401.52344150954</ele>
        <time>2015-05-30T18:54:40Z</time>
      </trkpt>
      <trkpt lat="43.77772" lon="3.38786">
        <ele>400.33272161371</ele>
        <time>2015-05-30T18:54:49Z</time>
      </trkpt>
      <trkpt lat="43.77763" lon="3.38779">
        <ele>399.24811146082</ele>
        <time>2015-05-30T18:55:10Z</time>
      </trkpt>
      <trkpt lat="43.77761" lon="3.38785">
        <ele>399.24811146082</ele>
        <time>2015-05-30T18:55:37Z</time>
      </trkpt>
      <trkpt lat="43.77761" lon="3.38786">
        <ele>399.24811146082</ele>
        <time>2015-05-30T18:55:46Z</time>
      </trkpt>
      <trkpt lat="43.77763" lon="3.38789">
        <ele>398.73834875636</ele>
        <time>2015-05-30T18:56:10Z</time>
      </trkpt>
      <trkpt lat="43.77761" lon="3.38774">
        <ele>398.45785289678</ele>
        <time>2015-05-30T18:57:25Z</time>
      </trkpt>
      <trkpt lat="43.77755" lon="3.38767">
        <ele>398.45785289678</ele>
        <time>2015-05-30T18:57:40Z</time>
      </trkpt>
      <trkpt lat="43.77752" lon="3.38764">
        <ele>398.38835420202</ele>
        <time>2015-05-30T18:57:45Z</time>
      </trkpt>
      <trkpt lat="43.77749" lon="3.38762">
        <ele>398.38835420202</ele>
        <time>2015-05-30T18:57:50Z</time>
      </trkpt>
      <trkpt lat="43.77747" lon="3.38761">
        <ele>398.38835420202</ele>
        <time>2015-05-30T18:58:00Z</time>
      </trkpt>
      <trkpt lat="43.77728" lon="3.3874">
        <ele>398.36816498606</ele>
        <time>2015-05-30T18:58:43Z</time>
      </trkpt>
      <trkpt lat="43.777" lon="3.38737">
        <ele>398.62197898212</ele>
        <time>2015-05-30T18:59:29Z</time>
      </trkpt>
      <trkpt lat="43.77641" lon="3.38693">
        <ele>398.83837916434</ele>
        <time>2015-05-30T19:00:25Z</time>
      </trkpt>
      <trkpt lat="43.77637" lon="3.38693">
        <ele>398.83837916434</ele>
        <time>2015-05-30T19:00:30Z</time>
      </trkpt>
      <trkpt lat="43.77631" lon="3.38695">
        <ele>399.08918284802</ele>
        <time>2015-05-30T19:00:35Z</time>
      </trkpt>
      <trkpt lat="43.77622" lon="3.38699">
        <ele>399.35435426725</ele>
        <time>2015-05-30T19:00:42Z</time>
      </trkpt>
      <trkpt lat="43.77619" lon="3.38701">
        <ele>399.35435426725</ele>
        <time>2015-05-30T19:00:45Z</time>
      </trkpt>
      <trkpt lat="43.77614" lon="3.38704">
        <ele>399.35435426725</ele>
        <time>2015-05-30T19:00:50Z</time>
      </trkpt>
      <trkpt lat="43.77609" lon="3.38709">
        <ele>399.54322967526</ele>
        <time>2015-05-30T19:00:55Z</time>
      </trkpt>
      <trkpt lat="43.77604" lon="3.38708">
        <ele>399.54322967526</ele>
        <time>2015-05-30T19:01:00Z</time>
      </trkpt>
      <trkpt lat="43.776" lon="3.38711">
        <ele>399.84583644535</ele>
        <time>2015-05-30T19:01:05Z</time>
      </trkpt>
      <trkpt lat="43.77599" lon="3.38709">
        <ele>399.84583644535</ele>
        <time>2015-05-30T19:01:10Z</time>
      </trkpt>
      <trkpt lat="43.776" lon="3.38714">
        <ele>399.84583644535</ele>
        <time>2015-05-30T19:01:15Z</time>
      </trkpt>
      <trkpt lat="43.77599" lon="3.38722">
        <ele>401.59083019587</ele>
        <time>2015-05-30T19:01:20Z</time>
      </trkpt>
      <trkpt lat="43.77598" lon="3.38729">
        <ele>401.59083019587</ele>
        <time>2015-05-30T19:01:25Z</time>
      </trkpt>
      <trkpt lat="43.77598" lon="3.38734">
        <ele>401.59083019587</ele>
        <time>2015-05-30T19:01:30Z</time>
      </trkpt>
      <trkpt lat="43.77597" lon="3.38741">
        <ele>403.80034778993</ele>
        <time>2015-05-30T19:01:35Z</time>
      </trkpt>
      <trkpt lat="43.77597" lon="3.38748">
        <ele>403.80034778993</ele>
        <time>2015-05-30T19:01:40Z</time>
      </trkpt>
      <trkpt lat="43.77595" lon="3.38755">
        <ele>406.15795893971</ele>
        <time>2015-05-30T19:01:45Z</time>
      </trkpt>
      <trkpt lat="43.77591" lon="3.38762">
        <ele>406.15795893971</ele>
        <time>2015-05-30T19:01:50Z</time>
      </trkpt>
      <trkpt lat="43.77587" lon="3.3877">
        <ele>408.58629557768</ele>
        <time>2015-05-30T19:01:55Z</time>
      </trkpt>
      <trkpt lat="43.77586" lon="3.38778">
        <ele>408.58629557768</ele>
        <time>2015-05-30T19:02:00Z</time>
      </trkpt>
      <trkpt lat="43.77585" lon="3.38787">
        <ele>410.88386131302</ele>
        <time>2015-05-30T19:02:05Z</time>
      </trkpt>
      <trkpt lat="43.77583" lon="3.38792">
        <ele>410.88386131302</ele>
        <time>2015-05-30T19:02:10Z</time>
      </trkpt>
      <trkpt lat="43.7758" lon="3.388">
        <ele>413.15265706498</ele>
        <time>2015-05-30T19:02:15Z</time>
      </trkpt>
      <trkpt lat="43.7758" lon="3.38806">
        <ele>413.15265706498</ele>
        <time>2015-05-30T19:02:20Z</time>
      </trkpt>
      <trkpt lat="43.77582" lon="3.38806">
        <ele>413.15265706498</ele>
        <time>2015-05-30T19:02:25Z</time>
      </trkpt>
      <trkpt lat="43.77583" lon="3.38817">
        <ele>415.48739578613</ele>
        <time>2015-05-30T19:02:30Z</time>
      </trkpt>
      <trkpt lat="43.77586" lon="3.38821">
        <ele>415.48739578613</ele>
        <time>2015-05-30T19:02:35Z</time>
      </trkpt>
      <trkpt lat="43.7759" lon="3.38828">
        <ele>417.68756562145</ele>
        <time>2015-05-30T19:02:40Z</time>
      </trkpt>
      <trkpt lat="43.77596" lon="3.38835">
        <ele>417.68756562145</ele>
        <time>2015-05-30T19:02:45Z</time>
      </trkpt>
      <trkpt lat="43.77599" lon="3.38839">
        <ele>419.72643768979</ele>
        <time>2015-05-30T19:02:50Z</time>
      </trkpt>
      <trkpt lat="43.776" lon="3.38843">
        <ele>419.72643768979</ele>
        <time>2015-05-30T19:02:55Z</time>
      </trkpt>
      <trkpt lat="43.77602" lon="3.3885">
        <ele>419.72643768979</ele>
        <time>2015-05-30T19:03:00Z</time>
      </trkpt>
      <trkpt lat="43.77606" lon="3.38854">
        <ele>421.66633104016</ele>
        <time>2015-05-30T19:03:05Z</time>
      </trkpt>
      <trkpt lat="43.77609" lon="3.38859">
        <ele>421.66633104016</ele>
        <time>2015-05-30T19:03:10Z</time>
      </trkpt>
      <trkpt lat="43.77616" lon="3.38861">
        <ele>423.46456118491</ele>
        <time>2015-05-30T19:03:15Z</time>
      </trkpt>
      <trkpt lat="43.77618" lon="3.38868">
        <ele>423.46456118491</ele>
        <time>2015-05-30T19:03:20Z</time>
      </trkpt>
      <trkpt lat="43.77624" lon="3.38874">
        <ele>425.16862484076</ele>
        <time>2015-05-30T19:03:25Z</time>
      </trkpt>
      <trkpt lat="43.77628" lon="3.38878">
        <ele>425.16862484076</ele>
        <time>2015-05-30T19:03:30Z</time>
      </trkpt>
      <trkpt lat="43.77634" lon="3.38882">
        <ele>426.79415802645</ele>
        <time>2015-05-30T19:03:35Z</time>
      </trkpt>
      <trkpt lat="43.77637" lon="3.38885">
        <ele>426.79415802645</ele>
        <time>2015-05-30T19:03:40Z</time>
      </trkpt>
      <trkpt lat="43.77646" lon="3.38891">
        <ele>428.32723578155</ele>
        <time>2015-05-30T19:03:45Z</time>
      </trkpt>
      <trkpt lat="43.77653" lon="3.38896">
        <ele>428.32723578155</ele>
        <time>2015-05-30T19:03:50Z</time>
      </trkpt>
      <trkpt lat="43.77657" lon="3.38896">
        <ele>429.78422873414</ele>
        <time>2015-05-30T19:03:55Z</time>
      </trkpt>
      <trkpt lat="43.7766" lon="3.38897">
        <ele>429.78422873414</ele>
        <time>2015-05-30T19:04:00Z</time>
      </trkpt>
      <trkpt lat="43.77664" lon="3.38901">
        <ele>429.78422873414</ele>
        <time>2015-05-30T19:04:05Z</time>
      </trkpt>
      <trkpt lat="43.77671" lon="3.38904">
        <ele>431.16629843546</ele>
        <time>2015-05-30T19:04:10Z</time>
      </trkpt>
      <trkpt lat="43.77674" lon="3.38906">
        <ele>431.16629843546</ele>
        <time>2015-05-30T19:04:15Z</time>
      </trkpt>
      <trkpt lat="43.77681" lon="3.38915">
        <ele>432.46051016921</ele>
        <time>2015-05-30T19:04:20Z</time>
      </trkpt>
      <trkpt lat="43.77684" lon="3.3892">
        <ele>432.46051016921</ele>
        <time>2015-05-30T19:04:25Z</time>
      </trkpt>
      <trkpt lat="43.77685" lon="3.38924">
        <ele>432.46051016921</ele>
        <time>2015-05-30T19:04:30Z</time>
      </trkpt>
      <trkpt lat="43.77688" lon="3.38928">
        <ele>433.91471401907</ele>
        <time>2015-05-30T19:04:35Z</time>
      </trkpt>
      <trkpt lat="43.77692" lon="3.38932">
        <ele>433.91471401907</ele>
        <time>2015-05-30T19:04:40Z</time>
      </trkpt>
      <trkpt lat="43.77696" lon="3.38937">
        <ele>435.38360079278</ele>
        <time>2015-05-30T19:04:45Z</time>
      </trkpt>
      <trkpt lat="43.77702" lon="3.38941">
        <ele>435.38360079278</ele>
        <time>2015-05-30T19:04:50Z</time>
      </trkpt>
      <trkpt lat="43.77704" lon="3.38943">
        <ele>435.38360079278</ele>
        <time>2015-05-30T19:04:55Z</time>
      </trkpt>
      <trkpt lat="43.77713" lon="3.3895">
        <ele>436.99207743452</ele>
        <time>2015-05-30T19:05:00Z</time>
      </trkpt>
      <trkpt lat="43.77719" lon="3.38953">
        <ele>436.99207743452</ele>
        <time>2015-05-30T19:05:05Z</time>
      </trkpt>
      <trkpt lat="43.77724" lon="3.38957">
        <ele>438.55303053108</ele>
        <time>2015-05-30T19:05:10Z</time>
      </trkpt>
      <trkpt lat="43.77729" lon="3.38963">
        <ele>438.55303053108</ele>
        <time>2015-05-30T19:05:15Z</time>
      </trkpt>
      <trkpt lat="43.77733" lon="3.38967">
        <ele>440.09515860173</ele>
        <time>2015-05-30T19:05:20Z</time>
      </trkpt>
      <trkpt lat="43.7774" lon="3.38972">
        <ele>440.09515860173</ele>
        <time>2015-05-30T19:05:25Z</time>
      </trkpt>
      <trkpt lat="43.77743" lon="3.38979">
        <ele>441.68851327595</ele>
        <time>2015-05-30T19:05:30Z</time>
      </trkpt>
      <trkpt lat="43.77748" lon="3.38983">
        <ele>441.68851327595</ele>
        <time>2015-05-30T19:05:35Z</time>
      </trkpt>
      <trkpt lat="43.77757" lon="3.38991">
        <ele>443.26832875992</ele>
        <time>2015-05-30T19:05:40Z</time>
      </trkpt>
      <trkpt lat="43.7776" lon="3.38994">
        <ele>443.26832875992</ele>
        <time>2015-05-30T19:05:45Z</time>
      </trkpt>
      <trkpt lat="43.77764" lon="3.38995">
        <ele>443.26832875992</ele>
        <time>2015-05-30T19:05:50Z</time>
      </trkpt>
      <trkpt lat="43.77767" lon="3.38997">
        <ele>444.78921503401</ele>
        <time>2015-05-30T19:05:55Z</time>
      </trkpt>
      <trkpt lat="43.77774" lon="3.39002">
        <ele>444.78921503401</ele>
        <time>2015-05-30T19:06:00Z</time>
      </trkpt>
      <trkpt lat="43.77778" lon="3.39005">
        <ele>446.28150271126</ele>
        <time>2015-05-30T19:06:05Z</time>
      </trkpt>
      <trkpt lat="43.77782" lon="3.39009">
        <ele>446.28150271126</ele>
        <time>2015-05-30T19:06:10Z</time>
      </trkpt>
      <trkpt lat="43.77793" lon="3.39016">
        <ele>447.71589145743</ele>
        <time>2015-05-30T19:06:15Z</time>
      </trkpt>
      <trkpt lat="43.77796" lon="3.39022">
        <ele>447.71589145743</ele>
        <time>2015-05-30T19:06:20Z</time>
      </trkpt>
      <trkpt lat="43.77798" lon="3.39024">
        <ele>447.71589145743</ele>
        <time>2015-05-30T19:06:25Z</time>
      </trkpt>
      <trkpt lat="43.778" lon="3.39026">
        <ele>449.22407501698</ele>
        <time>2015-05-30T19:06:30Z</time>
      </trkpt>
      <trkpt lat="43.77808" lon="3.39034">
        <ele>450.71185150169</ele>
        <time>2015-05-30T19:06:35Z</time>
      </trkpt>
      <trkpt lat="43.77816" lon="3.39042">
        <ele>452.12096582142</ele>
        <time>2015-05-30T19:06:40Z</time>
      </trkpt>
      <trkpt lat="43.77821" lon="3.39047">
        <ele>452.12096582142</ele>
        <time>2015-05-30T19:06:45Z</time>
      </trkpt>
      <trkpt lat="43.77825" lon="3.39054">
        <ele>453.57073859137</ele>
        <time>2015-05-30T19:06:50Z</time>
      </trkpt>
      <trkpt lat="43.77829" lon="3.39059">
        <ele>453.57073859137</ele>
        <time>2015-05-30T19:06:55Z</time>
      </trkpt>
      <trkpt lat="43.77831" lon="3.39062">
        <ele>453.57073859137</ele>
        <time>2015-05-30T19:07:00Z</time>
      </trkpt>
      <trkpt lat="43.77836" lon="3.39069">
        <ele>455.1573373727</ele>
        <time>2015-05-30T19:07:05Z</time>
      </trkpt>
      <trkpt lat="43.77839" lon="3.39076">
        <ele>455.1573373727</ele>
        <time>2015-05-30T19:07:10Z</time>
      </trkpt>
      <trkpt lat="43.77845" lon="3.39081">
        <ele>456.81109178883</ele>
        <time>2015-05-30T19:07:15Z</time>
      </trkpt>
      <trkpt lat="43.77851" lon="3.3909">
        <ele>456.81109178883</ele>
        <time>2015-05-30T19:07:20Z</time>
      </trkpt>
      <trkpt lat="43.77854" lon="3.39096">
        <ele>458.45297803284</ele>
        <time>2015-05-30T19:07:25Z</time>
      </trkpt>
      <trkpt lat="43.77857" lon="3.39101">
        <ele>458.45297803284</ele>
        <time>2015-05-30T19:07:30Z</time>
      </trkpt>
      <trkpt lat="43.77861" lon="3.39107">
        <ele>459.9667011341</ele>
        <time>2015-05-30T19:07:35Z</time>
      </trkpt>
      <trkpt lat="43.77866" lon="3.39112">
        <ele>459.9667011341</ele>
        <time>2015-05-30T19:07:40Z</time>
      </trkpt>
      <trkpt lat="43.77869" lon="3.39116">
        <ele>461.44674383478</ele>
        <time>2015-05-30T19:07:45Z</time>
      </trkpt>
      <trkpt lat="43.7787" lon="3.39119">
        <ele>461.44674383478</ele>
        <time>2015-05-30T19:07:50Z</time>
      </trkpt>
      <trkpt lat="43.77868" lon="3.3912">
        <ele>461.44674383478</ele>
        <time>2015-05-30T19:07:55Z</time>
      </trkpt>
      <trkpt lat="43.77865" lon="3.39122">
        <ele>461.44674383478</ele>
        <time>2015-05-30T19:08:00Z</time>
      </trkpt>
      <trkpt lat="43.77863" lon="3.39128">
        <ele>463.12496926508</ele>
        <time>2015-05-30T19:08:05Z</time>
      </trkpt>
      <trkpt lat="43.77858" lon="3.3913">
        <ele>463.12496926508</ele>
        <time>2015-05-30T19:08:10Z</time>
      </trkpt>
      <trkpt lat="43.77852" lon="3.39131">
        <ele>464.74019618736</ele>
        <time>2015-05-30T19:08:15Z</time>
      </trkpt>
      <trkpt lat="43.77848" lon="3.39134">
        <ele>464.74019618736</ele>
        <time>2015-05-30T19:08:20Z</time>
      </trkpt>
      <trkpt lat="43.7784" lon="3.39135">
        <ele>466.41099096818</ele>
        <time>2015-05-30T19:08:25Z</time>
      </trkpt>
      <trkpt lat="43.77835" lon="3.39143">
        <ele>466.41099096818</ele>
        <time>2015-05-30T19:08:30Z</time>
      </trkpt>
      <trkpt lat="43.77831" lon="3.39146">
        <ele>468.00216795159</ele>
        <time>2015-05-30T19:08:35Z</time>
      </trkpt>
      <trkpt lat="43.77824" lon="3.3915">
        <ele>468.00216795159</ele>
        <time>2015-05-30T19:08:40Z</time>
      </trkpt>
      <trkpt lat="43.77821" lon="3.39159">
        <ele>469.61937213739</ele>
        <time>2015-05-30T19:08:45Z</time>
      </trkpt>
      <trkpt lat="43.77816" lon="3.39168">
        <ele>469.61937213739</ele>
        <time>2015-05-30T19:08:50Z</time>
      </trkpt>
      <trkpt lat="43.77813" lon="3.39181">
        <ele>471.11552048944</ele>
        <time>2015-05-30T19:08:55Z</time>
      </trkpt>
      <trkpt lat="43.7781" lon="3.39188">
        <ele>471.11552048944</ele>
        <time>2015-05-30T19:09:00Z</time>
      </trkpt>
      <trkpt lat="43.77808" lon="3.392">
        <ele>472.35476397979</ele>
        <time>2015-05-30T19:09:05Z</time>
      </trkpt>
      <trkpt lat="43.77805" lon="3.3921">
        <ele>472.35476397979</ele>
        <time>2015-05-30T19:09:10Z</time>
      </trkpt>
      <trkpt lat="43.77804" lon="3.39217">
        <ele>473.31291541076</ele>
        <time>2015-05-30T19:09:15Z</time>
      </trkpt>
      <trkpt lat="43.77804" lon="3.39228">
        <ele>473.31291541076</ele>
        <time>2015-05-30T19:09:20Z</time>
      </trkpt>
      <trkpt lat="43.77805" lon="3.39235">
        <ele>473.88196269473</ele>
        <time>2015-05-30T19:09:25Z</time>
      </trkpt>
      <trkpt lat="43.77804" lon="3.39245">
        <ele>473.88196269473</ele>
        <time>2015-05-30T19:09:30Z</time>
      </trkpt>
      <trkpt lat="43.77804" lon="3.39254">
        <ele>474.3664985219</ele>
        <time>2015-05-30T19:09:35Z</time>
      </trkpt>
      <trkpt lat="43.77803" lon="3.39262">
        <ele>474.3664985219</ele>
        <time>2015-05-30T19:09:40Z</time>
      </trkpt>
      <trkpt lat="43.77805" lon="3.39268">
        <ele>474.78963434094</ele>
        <time>2015-05-30T19:09:45Z</time>
      </trkpt>
      <trkpt lat="43.77805" lon="3.39277">
        <ele>474.78963434094</ele>
        <time>2015-05-30T19:09:50Z</time>
      </trkpt>
      <trkpt lat="43.77804" lon="3.39285">
        <ele>475.08653488748</ele>
        <time>2015-05-30T19:09:55Z</time>
      </trkpt>
      <trkpt lat="43.77804" lon="3.3929">
        <ele>475.08653488748</ele>
        <time>2015-05-30T19:10:00Z</time>
      </trkpt>
      <trkpt lat="43.77802" lon="3.393">
        <ele>475.31280435222</ele>
        <time>2015-05-30T19:10:05Z</time>
      </trkpt>
      <trkpt lat="43.77801" lon="3.39311">
        <ele>475.31280435222</ele>
        <time>2015-05-30T19:10:10Z</time>
      </trkpt>
      <trkpt lat="43.77801" lon="3.3932">
        <ele>475.41930437528</ele>
        <time>2015-05-30T19:10:15Z</time>
      </trkpt>
      <trkpt lat="43.77801" lon="3.39332">
        <ele>475.41930437528</ele>
        <time>2015-05-30T19:10:20Z</time>
      </trkpt>
      <trkpt lat="43.77801" lon="3.39339">
        <ele>475.38967437228</ele>
        <time>2015-05-30T19:10:25Z</time>
      </trkpt>
      <trkpt lat="43.77802" lon="3.3935">
        <ele>475.38967437228</ele>
        <time>2015-05-30T19:10:30Z</time>
      </trkpt>
      <trkpt lat="43.77806" lon="3.39365">
        <ele>475.06502392025</ele>
        <time>2015-05-30T19:10:35Z</time>
      </trkpt>
      <trkpt lat="43.77806" lon="3.39372">
        <ele>475.06502392025</ele>
        <time>2015-05-30T19:10:40Z</time>
      </trkpt>
      <trkpt lat="43.77806" lon="3.39381">
        <ele>474.60158068336</ele>
        <time>2015-05-30T19:10:45Z</time>
      </trkpt>
      <trkpt lat="43.77807" lon="3.39387">
        <ele>474.60158068336</ele>
        <time>2015-05-30T19:10:50Z</time>
      </trkpt>
      <trkpt lat="43.77806" lon="3.39395">
        <ele>474.01475723928</ele>
        <time>2015-05-30T19:10:55Z</time>
      </trkpt>
      <trkpt lat="43.77804" lon="3.39403">
        <ele>474.01475723928</ele>
        <time>2015-05-30T19:11:00Z</time>
      </trkpt>
      <trkpt lat="43.77802" lon="3.3941">
        <ele>473.40560558029</ele>
        <time>2015-05-30T19:11:05Z</time>
      </trkpt>
      <trkpt lat="43.77801" lon="3.39418">
        <ele>473.40560558029</ele>
        <time>2015-05-30T19:11:10Z</time>
      </trkpt>
      <trkpt lat="43.778" lon="3.39428">
        <ele>472.85335185907</ele>
        <time>2015-05-30T19:11:15Z</time>
      </trkpt>
      <trkpt lat="43.77799" lon="3.39435">
        <ele>472.85335185907</ele>
        <time>2015-05-30T19:11:20Z</time>
      </trkpt>
      <trkpt lat="43.77797" lon="3.39439">
        <ele>472.85335185907</ele>
        <time>2015-05-30T19:11:25Z</time>
      </trkpt>
      <trkpt lat="43.77795" lon="3.39445">
        <ele>472.43117660236</ele>
        <time>2015-05-30T19:11:30Z</time>
      </trkpt>
      <trkpt lat="43.77795" lon="3.39452">
        <ele>472.43117660236</ele>
        <time>2015-05-30T19:11:35Z</time>
      </trkpt>
      <trkpt lat="43.77794" lon="3.3946">
        <ele>472.07674282221</ele>
        <time>2015-05-30T19:11:40Z</time>
      </trkpt>
      <trkpt lat="43.77789" lon="3.39469">
        <ele>472.07674282221</ele>
        <time>2015-05-30T19:11:45Z</time>
      </trkpt>
      <trkpt lat="43.77787" lon="3.39474">
        <ele>471.78966139238</ele>
        <time>2015-05-30T19:11:50Z</time>
      </trkpt>
      <trkpt lat="43.77783" lon="3.3948">
        <ele>471.78966139238</ele>
        <time>2015-05-30T19:11:55Z</time>
      </trkpt>
      <trkpt lat="43.77778" lon="3.39484">
        <ele>471.51164503444</ele>
        <time>2015-05-30T19:12:00Z</time>
      </trkpt>
      <trkpt lat="43.77773" lon="3.3949">
        <ele>471.51164503444</ele>
        <time>2015-05-30T19:12:05Z</time>
      </trkpt>
      <trkpt lat="43.77769" lon="3.39494">
        <ele>471.27503003292</ele>
        <time>2015-05-30T19:12:10Z</time>
      </trkpt>
      <trkpt lat="43.77763" lon="3.39523">
        <ele>470.33135508061</ele>
        <time>2015-05-30T19:12:15Z</time>
      </trkpt>
      <trkpt lat="43.7776" lon="3.39532">
        <ele>470.33135508061</ele>
        <time>2015-05-30T19:12:20Z</time>
      </trkpt>
      <trkpt lat="43.77757" lon="3.39535">
        <ele>469.27160110125</ele>
        <time>2015-05-30T19:12:25Z</time>
      </trkpt>
      <trkpt lat="43.77752" lon="3.39537">
        <ele>469.27160110125</ele>
        <time>2015-05-30T19:12:30Z</time>
      </trkpt>
      <trkpt lat="43.77748" lon="3.39538">
        <ele>468.19679758067</ele>
        <time>2015-05-30T19:12:35Z</time>
      </trkpt>
      <trkpt lat="43.77745" lon="3.39542">
        <ele>468.19679758067</ele>
        <time>2015-05-30T19:12:40Z</time>
      </trkpt>
      <trkpt lat="43.77742" lon="3.39543">
        <ele>468.19679758067</ele>
        <time>2015-05-30T19:12:45Z</time>
      </trkpt>
      <trkpt lat="43.77741" lon="3.39546">
        <ele>467.08517845157</ele>
        <time>2015-05-30T19:12:50Z</time>
      </trkpt>
      <trkpt lat="43.77736" lon="3.39551">
        <ele>467.08517845157</ele>
        <time>2015-05-30T19:12:55Z</time>
      </trkpt>
      <trkpt lat="43.7773" lon="3.39564">
        <ele>465.84448856036</ele>
        <time>2015-05-30T19:13:00Z</time>
      </trkpt>
      <trkpt lat="43.77721" lon="3.39568">
        <ele>464.54799051093</ele>
        <time>2015-05-30T19:13:05Z</time>
      </trkpt>
      <trkpt lat="43.7772" lon="3.39574">
        <ele>464.54799051093</ele>
        <time>2015-05-30T19:13:10Z</time>
      </trkpt>
      <trkpt lat="43.77719" lon="3.39583">
        <ele>463.14828159972</ele>
        <time>2015-05-30T19:13:15Z</time>
      </trkpt>
      <trkpt lat="43.77717" lon="3.39591">
        <ele>463.14828159972</ele>
        <time>2015-05-30T19:13:20Z</time>
      </trkpt>
      <trkpt lat="43.77714" lon="3.39599">
        <ele>461.63039473745</ele>
        <time>2015-05-30T19:13:25Z</time>
      </trkpt>
      <trkpt lat="43.77713" lon="3.39608">
        <ele>461.63039473745</ele>
        <time>2015-05-30T19:13:30Z</time>
      </trkpt>
      <trkpt lat="43.77714" lon="3.39616">
        <ele>460.06709526945</ele>
        <time>2015-05-30T19:13:35Z</time>
      </trkpt>
      <trkpt lat="43.77716" lon="3.39637">
        <ele>458.06460238889</ele>
        <time>2015-05-30T19:13:40Z</time>
      </trkpt>
      <trkpt lat="43.77719" lon="3.39648">
        <ele>458.06460238889</ele>
        <time>2015-05-30T19:13:45Z</time>
      </trkpt>
      <trkpt lat="43.77721" lon="3.39655">
        <ele>455.0429459892</ele>
        <time>2015-05-30T19:13:50Z</time>
      </trkpt>
      <trkpt lat="43.77722" lon="3.39664">
        <ele>455.0429459892</ele>
        <time>2015-05-30T19:13:55Z</time>
      </trkpt>
      <trkpt lat="43.77722" lon="3.39671">
        <ele>451.59149381539</ele>
        <time>2015-05-30T19:14:00Z</time>
      </trkpt>
      <trkpt lat="43.77721" lon="3.39673">
        <ele>451.59149381539</ele>
        <time>2015-05-30T19:14:05Z</time>
      </trkpt>
      <trkpt lat="43.77722" lon="3.39677">
        <ele>451.59149381539</ele>
        <time>2015-05-30T19:14:10Z</time>
      </trkpt>
      <trkpt lat="43.77725" lon="3.39683">
        <ele>447.86821829468</ele>
        <time>2015-05-30T19:14:15Z</time>
      </trkpt>
      <trkpt lat="43.77727" lon="3.3969">
        <ele>447.86821829468</ele>
        <time>2015-05-30T19:14:20Z</time>
      </trkpt>
      <trkpt lat="43.77728" lon="3.39701">
        <ele>444.30825028253</ele>
        <time>2015-05-30T19:14:25Z</time>
      </trkpt>
      <trkpt lat="43.77729" lon="3.39709">
        <ele>444.30825028253</ele>
        <time>2015-05-30T19:14:30Z</time>
      </trkpt>
      <trkpt lat="43.7773" lon="3.39719">
        <ele>440.83849312919</ele>
        <time>2015-05-30T19:14:35Z</time>
      </trkpt>
      <trkpt lat="43.77728" lon="3.39727">
        <ele>440.83849312919</ele>
        <time>2015-05-30T19:14:40Z</time>
      </trkpt>
      <trkpt lat="43.77731" lon="3.39745">
        <ele>437.53482523653</ele>
        <time>2015-05-30T19:14:50Z</time>
      </trkpt>
      <trkpt lat="43.77729" lon="3.39754">
        <ele>437.53482523653</ele>
        <time>2015-05-30T19:14:55Z</time>
      </trkpt>
      <trkpt lat="43.77728" lon="3.3976">
        <ele>434.52446501993</ele>
        <time>2015-05-30T19:15:00Z</time>
      </trkpt>
      <trkpt lat="43.77728" lon="3.39769">
        <ele>434.52446501993</ele>
        <time>2015-05-30T19:15:05Z</time>
      </trkpt>
      <trkpt lat="43.77731" lon="3.39775">
        <ele>431.98183441359</ele>
        <time>2015-05-30T19:15:10Z</time>
      </trkpt>
      <trkpt lat="43.77732" lon="3.39782">
        <ele>431.98183441359</ele>
        <time>2015-05-30T19:15:15Z</time>
      </trkpt>
      <trkpt lat="43.77733" lon="3.39795">
        <ele>429.57697476258</ele>
        <time>2015-05-30T19:15:20Z</time>
      </trkpt>
      <trkpt lat="43.77734" lon="3.39803">
        <ele>429.57697476258</ele>
        <time>2015-05-30T19:15:25Z</time>
      </trkpt>
      <trkpt lat="43.77734" lon="3.39809">
        <ele>427.4214230763</ele>
        <time>2015-05-30T19:15:30Z</time>
      </trkpt>
      <trkpt lat="43.77734" lon="3.39813">
        <ele>427.4214230763</ele>
        <time>2015-05-30T19:15:35Z</time>
      </trkpt>
      <trkpt lat="43.77734" lon="3.39823">
        <ele>425.5310801582</ele>
        <time>2015-05-30T19:15:40Z</time>
      </trkpt>
      <trkpt lat="43.77735" lon="3.39833">
        <ele>425.5310801582</ele>
        <time>2015-05-30T19:15:45Z</time>
      </trkpt>
      <trkpt lat="43.77738" lon="3.3984">
        <ele>423.77555171967</ele>
        <time>2015-05-30T19:15:50Z</time>
      </trkpt>
      <trkpt lat="43.7774" lon="3.39847">
        <ele>423.77555171967</ele>
        <time>2015-05-30T19:15:55Z</time>
      </trkpt>
      <trkpt lat="43.77742" lon="3.39856">
        <ele>422.29277934068</ele>
        <time>2015-05-30T19:16:00Z</time>
      </trkpt>
      <trkpt lat="43.77743" lon="3.39862">
        <ele>422.29277934068</ele>
        <time>2015-05-30T19:16:05Z</time>
      </trkpt>
      <trkpt lat="43.77745" lon="3.3987">
        <ele>420.96456180879</ele>
        <time>2015-05-30T19:16:11Z</time>
      </trkpt>
      <trkpt lat="43.77745" lon="3.39878">
        <ele>420.96456180879</ele>
        <time>2015-05-30T19:16:15Z</time>
      </trkpt>
      <trkpt lat="43.77745" lon="3.39887">
        <ele>419.68070252185</ele>
        <time>2015-05-30T19:16:20Z</time>
      </trkpt>
      <trkpt lat="43.77747" lon="3.39895">
        <ele>419.68070252185</ele>
        <time>2015-05-30T19:16:25Z</time>
      </trkpt>
      <trkpt lat="43.77747" lon="3.39902">
        <ele>418.49726482409</ele>
        <time>2015-05-30T19:16:30Z</time>
      </trkpt>
      <trkpt lat="43.77745" lon="3.39911">
        <ele>418.49726482409</ele>
        <time>2015-05-30T19:16:35Z</time>
      </trkpt>
      <trkpt lat="43.77741" lon="3.39919">
        <ele>417.43686970362</ele>
        <time>2015-05-30T19:16:40Z</time>
      </trkpt>
      <trkpt lat="43.77737" lon="3.39925">
        <ele>417.43686970362</ele>
        <time>2015-05-30T19:16:45Z</time>
      </trkpt>
      <trkpt lat="43.77729" lon="3.3993">
        <ele>416.50551353328</ele>
        <time>2015-05-30T19:16:50Z</time>
      </trkpt>
      <trkpt lat="43.77725" lon="3.39934">
        <ele>416.50551353328</ele>
        <time>2015-05-30T19:16:55Z</time>
      </trkpt>
      <trkpt lat="43.77718" lon="3.39941">
        <ele>415.67937526467</ele>
        <time>2015-05-30T19:17:00Z</time>
      </trkpt>
      <trkpt lat="43.77715" lon="3.39944">
        <ele>415.67937526467</ele>
        <time>2015-05-30T19:17:05Z</time>
      </trkpt>
      <trkpt lat="43.7771" lon="3.39955">
        <ele>414.99355477693</ele>
        <time>2015-05-30T19:17:12Z</time>
      </trkpt>
      <trkpt lat="43.77707" lon="3.39958">
        <ele>414.99355477693</ele>
        <time>2015-05-30T19:17:15Z</time>
      </trkpt>
      <trkpt lat="43.77706" lon="3.39959">
        <ele>414.99355477693</ele>
        <time>2015-05-30T19:17:20Z</time>
      </trkpt>
      <trkpt lat="43.77699" lon="3.39966">
        <ele>414.17738269151</ele>
        <time>2015-05-30T19:17:25Z</time>
      </trkpt>
      <trkpt lat="43.77697" lon="3.39973">
        <ele>414.17738269151</ele>
        <time>2015-05-30T19:17:30Z</time>
      </trkpt>
      <trkpt lat="43.77695" lon="3.3998">
        <ele>413.21086674666</ele>
        <time>2015-05-30T19:17:35Z</time>
      </trkpt>
      <trkpt lat="43.77696" lon="3.3999">
        <ele>413.21086674666</ele>
        <time>2015-05-30T19:17:40Z</time>
      </trkpt>
      <trkpt lat="43.77696" lon="3.39999">
        <ele>412.14782428697</ele>
        <time>2015-05-30T19:17:45Z</time>
      </trkpt>
      <trkpt lat="43.77698" lon="3.40009">
        <ele>412.14782428697</ele>
        <time>2015-05-30T19:17:50Z</time>
      </trkpt>
      <trkpt lat="43.777" lon="3.40018">
        <ele>411.02385464747</ele>
        <time>2015-05-30T19:17:55Z</time>
      </trkpt>
      <trkpt lat="43.77705" lon="3.40027">
        <ele>411.02385464747</ele>
        <time>2015-05-30T19:18:00Z</time>
      </trkpt>
      <trkpt lat="43.77708" lon="3.40035">
        <ele>409.92964397309</ele>
        <time>2015-05-30T19:18:05Z</time>
      </trkpt>
      <trkpt lat="43.77711" lon="3.40043">
        <ele>409.92964397309</ele>
        <time>2015-05-30T19:18:10Z</time>
      </trkpt>
      <trkpt lat="43.77711" lon="3.40051">
        <ele>408.90579633316</ele>
        <time>2015-05-30T19:18:15Z</time>
      </trkpt>
      <trkpt lat="43.77713" lon="3.40058">
        <ele>408.90579633316</ele>
        <time>2015-05-30T19:18:20Z</time>
      </trkpt>
      <trkpt lat="43.77713" lon="3.40065">
        <ele>407.93199721787</ele>
        <time>2015-05-30T19:18:25Z</time>
      </trkpt>
      <trkpt lat="43.77712" lon="3.4007">
        <ele>407.93199721787</ele>
        <time>2015-05-30T19:18:30Z</time>
      </trkpt>
      <trkpt lat="43.7771" lon="3.40074">
        <ele>407.93199721787</ele>
        <time>2015-05-30T19:18:36Z</time>
      </trkpt>
      <trkpt lat="43.77708" lon="3.40079">
        <ele>406.94596593144</ele>
        <time>2015-05-30T19:18:40Z</time>
      </trkpt>
      <trkpt lat="43.77714" lon="3.40092">
        <ele>406.00524454509</ele>
        <time>2015-05-30T19:19:13Z</time>
      </trkpt>
      <trkpt lat="43.77731" lon="3.40184">
        <ele>404.61533112281</ele>
        <time>2015-05-30T19:19:40Z</time>
      </trkpt>
      <trkpt lat="43.77733" lon="3.40191">
        <ele>404.61533112281</ele>
        <time>2015-05-30T19:19:45Z</time>
      </trkpt>
      <trkpt lat="43.77735" lon="3.40198">
        <ele>403.34243893498</ele>
        <time>2015-05-30T19:19:54Z</time>
      </trkpt>
      <trkpt lat="43.77734" lon="3.40205">
        <ele>403.34243893498</ele>
        <time>2015-05-30T19:20:12Z</time>
      </trkpt>
      <trkpt lat="43.77705" lon="3.4017">
        <ele>401.80290481962</ele>
        <time>2015-05-30T19:20:40Z</time>
      </trkpt>
      <trkpt lat="43.77701" lon="3.40165">
        <ele>401.80290481962</ele>
        <time>2015-05-30T19:20:45Z</time>
      </trkpt>
      <trkpt lat="43.77698" lon="3.40163">
        <ele>401.80290481962</ele>
        <time>2015-05-30T19:20:55Z</time>
      </trkpt>
      <trkpt lat="43.77694" lon="3.40148">
        <ele>400.31927043</ele>
        <time>2015-05-30T19:21:05Z</time>
      </trkpt>
      <trkpt lat="43.77691" lon="3.40085">
        <ele>399.13253728545</ele>
        <time>2015-05-30T19:21:40Z</time>
      </trkpt>
      <trkpt lat="43.7769" lon="3.40077">
        <ele>399.13253728545</ele>
        <time>2015-05-30T19:21:45Z</time>
      </trkpt>
      <trkpt lat="43.77686" lon="3.4007">
        <ele>398.22014071292</ele>
        <time>2015-05-30T19:21:50Z</time>
      </trkpt>
      <trkpt lat="43.77674" lon="3.40056">
        <ele>397.50272456474</ele>
        <time>2015-05-30T19:22:01Z</time>
      </trkpt>
      <trkpt lat="43.7765" lon="3.40028">
        <ele>396.90618704592</ele>
        <time>2015-05-30T19:22:20Z</time>
      </trkpt>
      <trkpt lat="43.7765" lon="3.40018">
        <ele>396.90618704592</ele>
        <time>2015-05-30T19:22:25Z</time>
      </trkpt>
      <trkpt lat="43.77646" lon="3.40011">
        <ele>396.28945494076</ele>
        <time>2015-05-30T19:22:30Z</time>
      </trkpt>
      <trkpt lat="43.77643" lon="3.40002">
        <ele>396.28945494076</ele>
        <time>2015-05-30T19:22:35Z</time>
      </trkpt>
      <trkpt lat="43.77639" lon="3.39996">
        <ele>395.55068500517</ele>
        <time>2015-05-30T19:22:40Z</time>
      </trkpt>
      <trkpt lat="43.77636" lon="3.39995">
        <ele>395.55068500517</ele>
        <time>2015-05-30T19:22:45Z</time>
      </trkpt>
      <trkpt lat="43.77635" lon="3.39994">
        <ele>395.55068500517</ele>
        <time>2015-05-30T19:22:50Z</time>
      </trkpt>
      <trkpt lat="43.77625" lon="3.39978">
        <ele>394.5237973976</ele>
        <time>2015-05-30T19:22:55Z</time>
      </trkpt>
      <trkpt lat="43.77623" lon="3.39973">
        <ele>394.5237973976</ele>
        <time>2015-05-30T19:23:00Z</time>
      </trkpt>
      <trkpt lat="43.77622" lon="3.39967">
        <ele>394.5237973976</ele>
        <time>2015-05-30T19:23:05Z</time>
      </trkpt>
      <trkpt lat="43.77621" lon="3.39961">
        <ele>392.81073206909</ele>
        <time>2015-05-30T19:23:10Z</time>
      </trkpt>
      <trkpt lat="43.77618" lon="3.39954">
        <ele>392.81073206909</ele>
        <time>2015-05-30T19:23:15Z</time>
      </trkpt>
      <trkpt lat="43.77615" lon="3.39953">
        <ele>392.81073206909</ele>
        <time>2015-05-30T19:23:20Z</time>
      </trkpt>
      <trkpt lat="43.77606" lon="3.39957">
        <ele>390.80838716128</ele>
        <time>2015-05-30T19:23:36Z</time>
      </trkpt>
      <trkpt lat="43.77592" lon="3.39986">
        <ele>389.05825277795</ele>
        <time>2015-05-30T19:23:50Z</time>
      </trkpt>
      <trkpt lat="43.77592" lon="3.39998">
        <ele>389.05825277795</ele>
        <time>2015-05-30T19:23:55Z</time>
      </trkpt>
      <trkpt lat="43.77595" lon="3.40005">
        <ele>386.36082159027</ele>
        <time>2015-05-30T19:24:00Z</time>
      </trkpt>
      <trkpt lat="43.77594" lon="3.40012">
        <ele>386.36082159027</ele>
        <time>2015-05-30T19:24:05Z</time>
      </trkpt>
      <trkpt lat="43.77595" lon="3.4002">
        <ele>383.88430949817</ele>
        <time>2015-05-30T19:24:10Z</time>
      </trkpt>
      <trkpt lat="43.77592" lon="3.4003">
        <ele>383.88430949817</ele>
        <time>2015-05-30T19:24:15Z</time>
      </trkpt>
      <trkpt lat="43.7759" lon="3.40034">
        <ele>381.5720062364</ele>
        <time>2015-05-30T19:24:20Z</time>
      </trkpt>
      <trkpt lat="43.77587" lon="3.40038">
        <ele>381.5720062364</ele>
        <time>2015-05-30T19:24:25Z</time>
      </trkpt>
      <trkpt lat="43.77583" lon="3.40037">
        <ele>381.5720062364</ele>
        <time>2015-05-30T19:24:30Z</time>
      </trkpt>
      <trkpt lat="43.77586" lon="3.40029">
        <ele>379.18354400737</ele>
        <time>2015-05-30T19:24:35Z</time>
      </trkpt>
      <trkpt lat="43.77589" lon="3.40025">
        <ele>379.18354400737</ele>
        <time>2015-05-30T19:24:40Z</time>
      </trkpt>
      <trkpt lat="43.7759" lon="3.40021">
        <ele>379.18354400737</ele>
        <time>2015-05-30T19:24:45Z</time>
      </trkpt>
      <trkpt lat="43.77593" lon="3.4001">
        <ele>376.68374542738</ele>
        <time>2015-05-30T19:24:50Z</time>
      </trkpt>
      <trkpt lat="43.77587" lon="3.40003">
        <ele>376.68374542738</ele>
        <time>2015-05-30T19:24:55Z</time>
      </trkpt>
      <trkpt lat="43.77585" lon="3.40001">
        <ele>374.31411011775</ele>
        <time>2015-05-30T19:25:00Z</time>
      </trkpt>
      <trkpt lat="43.77583" lon="3.39998">
        <ele>374.31411011775</ele>
        <time>2015-05-30T19:25:05Z</time>
      </trkpt>
      <trkpt lat="43.77579" lon="3.39993">
        <ele>374.31411011775</ele>
        <time>2015-05-30T19:25:10Z</time>
      </trkpt>
      <trkpt lat="43.77572" lon="3.39987">
        <ele>372.28358586751</ele>
        <time>2015-05-30T19:25:15Z</time>
      </trkpt>
      <trkpt lat="43.77565" lon="3.39977">
        <ele>370.58302611914</ele>
        <time>2015-05-30T19:25:20Z</time>
      </trkpt>
      <trkpt lat="43.77562" lon="3.3997">
        <ele>370.58302611914</ele>
        <time>2015-05-30T19:25:25Z</time>
      </trkpt>
      <trkpt lat="43.77558" lon="3.39964">
        <ele>369.15975799772</ele>
        <time>2015-05-30T19:25:30Z</time>
      </trkpt>
      <trkpt lat="43.77553" lon="3.39952">
        <ele>367.97857348214</ele>
        <time>2015-05-30T19:25:35Z</time>
      </trkpt>
      <trkpt lat="43.77548" lon="3.39949">
        <ele>367.97857348214</ele>
        <time>2015-05-30T19:25:40Z</time>
      </trkpt>
      <trkpt lat="43.77545" lon="3.3995">
        <ele>367.97857348214</ele>
        <time>2015-05-30T19:25:45Z</time>
      </trkpt>
      <trkpt lat="43.77547" lon="3.39956">
        <ele>367.19348283993</ele>
        <time>2015-05-30T19:25:50Z</time>
      </trkpt>
      <trkpt lat="43.77547" lon="3.39964">
        <ele>367.19348283993</ele>
        <time>2015-05-30T19:25:55Z</time>
      </trkpt>
      <trkpt lat="43.77551" lon="3.39971">
        <ele>366.70105576183</ele>
        <time>2015-05-30T19:26:00Z</time>
      </trkpt>
      <trkpt lat="43.77551" lon="3.39978">
        <ele>366.70105576183</ele>
        <time>2015-05-30T19:26:05Z</time>
      </trkpt>
      <trkpt lat="43.77552" lon="3.39981">
        <ele>366.70105576183</ele>
        <time>2015-05-30T19:26:10Z</time>
      </trkpt>
      <trkpt lat="43.77552" lon="3.39983">
        <ele>366.34697589661</ele>
        <time>2015-05-30T19:26:15Z</time>
      </trkpt>
      <trkpt lat="43.77552" lon="3.39987">
        <ele>366.34697589661</ele>
        <time>2015-05-30T19:26:20Z</time>
      </trkpt>
    </trkseg>
  </trk>
</gpx>